
Distance (Route):
Temperature : 21.8°C
Humidity : 46.3%
Pressure : 945.5hPa| Receiver | Frames | First received | Last received |
|---|---|---|---|
| DK7TD | 855 | 2026-09-02 10:47:19 | 2026-09-02 13:04:33 |
| DO3MHA-12 | 395 | 2026-09-02 11:37:12 | 2026-09-02 13:35:43 |
| DO3MHA-11 | 344 | 2026-09-02 11:37:52 | 2026-09-02 13:35:46 |
| IW2NTF | 217 | 2026-09-02 11:37:11 | 2026-09-02 12:32:54 |
| DL9SK-14 | 76 | 2026-09-02 10:46:15 | 2026-09-02 13:23:38 |
| DL6DJ-15 | 74 | 2026-09-02 11:16:44 | 2026-09-02 13:26:43 |
| DB0ND-19 | 71 | 2026-09-02 10:54:49 | 2026-09-02 13:25:50 |
| DM0DOS-11 | 68 | 2026-09-02 12:21:06 | 2026-09-02 12:46:11 |
| NBG1-10 | 67 | 2026-09-02 11:02:04 | 2026-09-02 13:32:02 |
| DB0NH | 61 | 2026-09-02 11:54:30 | 2026-09-02 13:29:29 |
| DJ8HS-15 | 59 | 2026-09-02 11:42:28 | 2026-09-02 12:45:48 |
| AZAK | 53 | 2026-09-02 10:45:21 | 2026-09-02 12:45:46 |
| DB0UT-7 | 50 | 2026-09-02 11:43:44 | 2026-09-02 13:18:10 |
| DK5PH-5 | 46 | 2026-09-02 11:44:20 | 2026-09-02 13:09:23 |
| OE5DRO-10 | 44 | 2026-09-02 11:37:58 | 2026-09-02 12:46:12 |
| DM7RM-13 | 43 | 2026-09-02 11:38:03 | 2026-09-02 13:11:26 |
| DF7PN | 42 | 2026-09-02 10:55:49 | 2026-09-02 13:08:53 |
| PG1ADW-2 | 39 | 2026-09-02 11:47:27 | 2026-09-02 12:43:32 |
| DL1XH-west | 39 | 2026-09-02 12:12:32 | 2026-09-02 12:19:48 |
| DF3TZ-5 | 35 | 2026-09-02 10:47:09 | 2026-09-02 13:19:18 |
| OE3JTB-15 | 30 | 2026-09-02 11:38:46 | 2026-09-02 13:13:38 |
| OE5DXL-15 | 30 | 2026-09-02 11:45:59 | 2026-09-02 13:15:45 |
| DL1XH1-15 | 27 | 2026-09-02 12:12:24 | 2026-09-02 12:18:50 |
| DO9HM | 25 | 2026-09-02 11:46:37 | 2026-09-02 12:46:16 |
| DF1GD-15 | 23 | 2026-09-02 11:02:02 | 2026-09-02 12:36:24 |
| OE5MMP-10 | 22 | 2026-09-02 11:58:52 | 2026-09-02 12:18:51 |
| BAUMI2-15 | 19 | 2026-09-02 12:04:42 | 2026-09-02 12:21:55 |
| DG1MJG | 17 | 2026-09-02 12:19:47 | 2026-09-02 13:27:15 |
| DN1GJH-1 | 15 | 2026-09-02 11:43:36 | 2026-09-02 12:31:17 |
| OE9MKV-15 | 14 | 2026-09-02 11:43:38 | 2026-09-02 12:40:27 |
| DO9LL-15 | 13 | 2026-09-02 11:58:19 | 2026-09-02 12:24:52 |
| OE5WHR-10 | 13 | 2026-09-02 12:00:18 | 2026-09-02 12:18:36 |
| SONCRA | 11 | 2026-09-02 12:09:31 | 2026-09-02 12:30:44 |
| DJ2DS-15 | 8 | 2026-09-02 12:14:32 | 2026-09-02 12:20:18 |
| HARRO8 | 7 | 2026-09-02 11:04:51 | 2026-09-02 12:29:11 |
| DH7VM-15 | 7 | 2026-09-02 11:49:45 | 2026-09-02 13:10:41 |
| SONDE2-11 | 6 | 2026-09-02 11:54:49 | 2026-09-02 12:15:31 |
| DJTTGO | 5 | 2026-09-02 11:48:35 | 2026-09-02 12:32:30 |
| EDDB2-11 | 4 | 2026-09-02 12:15:00 | 2026-09-02 12:21:44 |
| DL8DAS-14 | 3 | 2026-09-02 12:12:59 | 2026-09-02 12:15:03 |
| PETON7-10 | 2 | 2026-09-02 12:14:26 | 2026-09-02 12:16:59 |
| KANTATE | 1 | 2026-09-02 12:15:30 | 2026-09-02 12:15:30 |
| BIOWL1-15 | 1 | 2026-09-02 12:20:43 | 2026-09-02 12:20:43 |
| BIOWL9-15 | 1 | 2026-09-02 12:20:46 | 2026-09-02 12:20:46 |
| Receiver | Date | Latitude | Longitude | Direction | Speed | Altitude | Climb | Temperature | Humidity | Pressure | Voltage | Killtimer | Uptime | BKT | XDATA |
|---|---|---|---|---|---|---|---|---|---|---|---|---|---|---|---|
| DO3MHA-11 | 2026-09-02 13:35:46 | 48.32717 | 10.89837 | 118° | 7km/h | 684m | -4.2m/s | 21.8°C | 46.3% | 945.5hPa | 2.7V | 07:11:00 | 03:06:49 | 00:00:00 | |
| DO3MHA-11 | 2026-09-02 13:35:44 | 48.32718 | 10.89832 | 98° | 7km/h | 692m | -4.3m/s | 21.7°C | 46.6% | 944.5hPa | 2.7V | 00:00:00 | 03:06:47 | 00:00:00 | |
| DO3MHA-12 | 2026-09-02 13:35:43 | 48.32719 | 10.89830 | 94° | 7km/h | 696m | -4.2m/s | 21.7°C | 46.7% | 943.9hPa | 2.7V | 00:00:00 | 03:06:46 | 00:00:00 | |
| DO3MHA-11 | 2026-09-02 13:35:42 | 48.32719 | 10.89827 | 91° | 7km/h | 700m | -3.9m/s | 21.6°C | 46.7% | 943.6hPa | 2.7V | 00:00:00 | 03:06:45 | 00:00:00 | |
| DO3MHA-12 | 2026-09-02 13:35:41 | 48.32719 | 10.89825 | 85° | 7km/h | 704m | -4.1m/s | 21.6°C | 46.9% | 943.2hPa | 2.7V | 00:00:00 | 03:06:44 | 00:00:00 | |
| DO3MHA-11 | 2026-09-02 13:35:40 | 48.32719 | 10.89822 | 86° | 7km/h | 708m | -4.3m/s | 21.6°C | 46.9% | 942.7hPa | 2.7V | 00:00:00 | 03:06:43 | 00:00:00 | |
| DO3MHA-12 | 2026-09-02 13:35:39 | 48.32719 | 10.89819 | 82° | 7km/h | 712m | -4.2m/s | 21.5°C | 47.0% | 942.2hPa | 2.7V | 00:00:00 | 03:06:42 | 00:00:00 | |
| DO3MHA-12 | 2026-09-02 13:35:33 | 48.32715 | 10.89806 | 72° | 7km/h | 735m | -4.6m/s | 21.3°C | 47.9% | 939.5hPa | 2.7V | 00:00:00 | 03:06:36 | 00:00:00 | |
| DO3MHA-11 | 2026-09-02 13:35:33 | 48.32715 | 10.89806 | 72° | 7km/h | 735m | -4.6m/s | 21.3°C | 47.9% | 939.5hPa | 2.7V | 00:00:00 | 03:06:36 | 00:00:00 | |
| DO3MHA-11 | 2026-09-02 13:35:31 | 48.32714 | 10.89800 | 83° | 7km/h | 744m | -4.6m/s | 21.2°C | 48.0% | 938.5hPa | 2.7V | 00:00:00 | 03:06:34 | 00:00:00 | |
| DO3MHA-12 | 2026-09-02 13:35:31 | 48.32714 | 10.89800 | 83° | 7km/h | 744m | -4.6m/s | 21.2°C | 48.0% | 938.5hPa | 2.7V | 00:00:00 | 03:06:34 | 00:00:00 | |
| DO3MHA-12 | 2026-09-02 13:35:29 | 48.32714 | 10.89794 | 79° | 9km/h | 753m | -4.5m/s | 21.1°C | 48.3% | 937.5hPa | 2.7V | 07:12:00 | 03:06:32 | 00:00:00 | |
| DO3MHA-11 | 2026-09-02 13:35:29 | 48.32714 | 10.89794 | 79° | 9km/h | 753m | -4.5m/s | 21.1°C | 48.3% | 937.5hPa | 2.7V | 00:00:00 | 03:06:32 | 00:00:00 | |
| DO3MHA-12 | 2026-09-02 13:35:27 | 48.32713 | 10.89788 | 84° | 7km/h | 761m | -4.2m/s | 21.1°C | 48.6% | 936.8hPa | 2.7V | 00:00:00 | 03:06:30 | 00:00:00 | |
| DO3MHA-11 | 2026-09-02 13:35:27 | 48.32713 | 10.89788 | 84° | 7km/h | 761m | -4.2m/s | 21.1°C | 48.6% | 936.8hPa | 2.7V | 00:00:00 | 03:06:30 | 00:00:00 | |
| DO3MHA-11 | 2026-09-02 13:35:25 | 48.32712 | 10.89782 | 69° | 7km/h | 770m | -4.3m/s | 21.0°C | 48.7% | 936.0hPa | 2.7V | 07:12:00 | 03:06:28 | 00:00:00 | |
| DO3MHA-12 | 2026-09-02 13:35:25 | 48.32712 | 10.89782 | 69° | 7km/h | 770m | -4.3m/s | 21.0°C | 48.7% | 936.0hPa | 2.7V | 00:00:00 | 03:06:28 | 00:00:00 | |
| DO3MHA-11 | 2026-09-02 13:35:23 | 48.32712 | 10.89777 | 87° | 9km/h | 778m | -4.5m/s | 20.9°C | 49.0% | 935.0hPa | 2.7V | 00:00:00 | 03:06:26 | 00:00:00 | |
| DO3MHA-12 | 2026-09-02 13:35:23 | 48.32712 | 10.89777 | 87° | 9km/h | 778m | -4.5m/s | 20.9°C | 49.0% | 935.0hPa | 2.7V | 00:00:00 | 03:06:26 | 00:00:00 | |
| DO3MHA-12 | 2026-09-02 13:35:21 | 48.32712 | 10.89771 | 85° | 7km/h | 786m | -4.3m/s | 20.8°C | 49.2% | 934.0hPa | 2.7V | 00:00:00 | 03:06:24 | 00:00:00 | |
| DO3MHA-11 | 2026-09-02 13:35:21 | 48.32712 | 10.89771 | 85° | 7km/h | 786m | -4.3m/s | 20.8°C | 49.2% | 934.0hPa | 2.7V | 00:00:00 | 03:06:24 | 00:00:00 | |
| DO3MHA-11 | 2026-09-02 13:35:19 | 48.32712 | 10.89765 | 92° | 9km/h | 796m | -5.1m/s | 20.7°C | 49.5% | 933.0hPa | 2.7V | 00:00:00 | 03:06:22 | 00:00:00 | |
| DO3MHA-12 | 2026-09-02 13:35:19 | 48.32712 | 10.89765 | 92° | 9km/h | 796m | -5.1m/s | 20.7°C | 49.5% | 933.0hPa | 2.7V | 00:00:00 | 03:06:22 | 00:00:00 | |
| DO3MHA-11 | 2026-09-02 13:35:17 | 48.32712 | 10.89758 | 90° | 11km/h | 805m | -4.6m/s | 20.6°C | 49.6% | 932.1hPa | 2.7V | 00:00:00 | 03:06:20 | 00:00:00 | |
| DO3MHA-12 | 2026-09-02 13:35:17 | 48.32712 | 10.89758 | 90° | 9km/h | 805m | -4.6m/s | 20.6°C | 49.6% | 932.1hPa | 2.7V | 00:00:00 | 03:06:20 | 00:00:00 | |
| DO3MHA-11 | 2026-09-02 13:35:15 | 48.32712 | 10.89751 | 102° | 11km/h | 814m | -4.6m/s | 20.5°C | 49.8% | 931.1hPa | 2.7V | 00:00:00 | 03:06:18 | 00:00:00 | |
| DO3MHA-12 | 2026-09-02 13:35:15 | 48.32712 | 10.89751 | 102° | 11km/h | 814m | -4.6m/s | 20.5°C | 49.8% | 931.1hPa | 2.7V | 00:00:00 | 03:06:18 | 00:00:00 | |
| DO3MHA-11 | 2026-09-02 13:35:13 | 48.32713 | 10.89743 | 101° | 11km/h | 823m | -4.3m/s | 20.5°C | 50.0% | 930.3hPa | 2.7V | 00:00:00 | 03:06:16 | 00:00:00 | |
| DO3MHA-12 | 2026-09-02 13:35:13 | 48.32713 | 10.89743 | 101° | 11km/h | 823m | -4.3m/s | 20.5°C | 50.0% | 930.3hPa | 2.7V | 07:12:00 | 03:06:16 | 00:00:00 | |
| DO3MHA-12 | 2026-09-02 13:35:11 | 48.32714 | 10.89735 | 99° | 11km/h | 831m | -4.0m/s | 20.4°C | 50.2% | 929.3hPa | 2.7V | 00:00:00 | 03:06:14 | 00:00:00 | |
| DO3MHA-11 | 2026-09-02 13:35:11 | 48.32714 | 10.89735 | 99° | 11km/h | 831m | -4.0m/s | 20.4°C | 50.2% | 929.3hPa | 2.7V | 00:00:00 | 03:06:14 | 00:00:00 | |
| DO3MHA-11 | 2026-09-02 13:35:09 | 48.32716 | 10.89726 | 102° | 15km/h | 839m | -4.3m/s | 20.3°C | 50.5% | 928.4hPa | 2.7V | 07:12:00 | 03:06:12 | 00:00:00 | |
| DO3MHA-12 | 2026-09-02 13:35:09 | 48.32716 | 10.89726 | 102° | 15km/h | 839m | -4.3m/s | 20.3°C | 50.5% | 928.4hPa | 2.7V | 00:00:00 | 03:06:12 | 00:00:00 | |
| DO3MHA-11 | 2026-09-02 13:35:07 | 48.32717 | 10.89716 | 103° | 15km/h | 848m | -4.9m/s | 20.2°C | 50.8% | 927.5hPa | 2.7V | 00:00:00 | 03:06:10 | 00:00:00 | |
| DO3MHA-12 | 2026-09-02 13:35:07 | 48.32717 | 10.89716 | 103° | 15km/h | 848m | -4.9m/s | 20.2°C | 50.8% | 927.5hPa | 2.7V | 00:00:00 | 03:06:10 | 00:00:00 | |
| DO3MHA-11 | 2026-09-02 13:35:05 | 48.32719 | 10.89704 | 99° | 18km/h | 857m | -4.7m/s | 20.1°C | 50.8% | 926.7hPa | 2.7V | 00:00:00 | 03:06:08 | 00:00:00 | |
| DO3MHA-12 | 2026-09-02 13:35:05 | 48.32719 | 10.89704 | 99° | 18km/h | 857m | -4.7m/s | 20.1°C | 50.8% | 926.7hPa | 2.7V | 00:00:00 | 03:06:08 | 00:00:00 | |
| DO3MHA-12 | 2026-09-02 13:35:03 | 48.32720 | 10.89691 | 95° | 20km/h | 866m | -4.5m/s | 20.0°C | 51.2% | 925.7hPa | 2.7V | 00:00:00 | 03:06:06 | 00:00:00 | |
| DO3MHA-11 | 2026-09-02 13:35:03 | 48.32720 | 10.89691 | 95° | 20km/h | 866m | -4.5m/s | 20.0°C | 51.2% | 925.7hPa | 2.7V | 00:00:00 | 03:06:06 | 00:00:00 | |
| DO3MHA-12 | 2026-09-02 13:35:01 | 48.32720 | 10.89675 | 91° | 22km/h | 874m | -4.6m/s | 19.9°C | 51.3% | 924.8hPa | 2.7V | 00:00:00 | 03:06:04 | 00:00:00 | |
| DO3MHA-11 | 2026-09-02 13:35:01 | 48.32720 | 10.89675 | 91° | 22km/h | 874m | -4.6m/s | 19.9°C | 51.3% | 924.8hPa | 2.7V | 00:00:00 | 03:06:04 | 00:00:00 | |
| DO3MHA-11 | 2026-09-02 13:34:59 | 48.32720 | 10.89660 | 88° | 22km/h | 884m | -4.6m/s | 19.9°C | 51.5% | 923.8hPa | 2.7V | 00:00:00 | 03:06:02 | 00:00:00 | |
| DO3MHA-12 | 2026-09-02 13:34:59 | 48.32720 | 10.89660 | 88° | 22km/h | 884m | -4.6m/s | 19.9°C | 51.5% | 923.8hPa | 2.7V | 00:00:00 | 03:06:02 | 00:00:00 | |
| DO3MHA-11 | 2026-09-02 13:34:57 | 48.32719 | 10.89643 | 86° | 22km/h | 892m | -4.1m/s | 19.8°C | 51.7% | 922.8hPa | 2.7V | 00:00:00 | 03:06:00 | 00:00:00 | |
| DO3MHA-12 | 2026-09-02 13:34:57 | 48.32719 | 10.89643 | 86° | 22km/h | 892m | -4.1m/s | 19.8°C | 51.7% | 922.8hPa | 2.7V | 07:12:00 | 03:06:00 | 00:00:00 | |
| DO3MHA-12 | 2026-09-02 13:34:55 | 48.32719 | 10.89627 | 83° | 20km/h | 901m | -4.6m/s | 19.7°C | 52.0% | 921.9hPa | 2.7V | 00:00:00 | 03:05:58 | 00:00:00 | |
| DO3MHA-11 | 2026-09-02 13:34:55 | 48.32719 | 10.89627 | 83° | 20km/h | 901m | -4.6m/s | 19.7°C | 52.0% | 921.9hPa | 2.7V | 00:00:00 | 03:05:58 | 00:00:00 | |
| DO3MHA-11 | 2026-09-02 13:34:53 | 48.32717 | 10.89612 | 79° | 22km/h | 910m | -4.4m/s | 19.6°C | 52.2% | 921.0hPa | 2.7V | 07:12:00 | 03:05:56 | 00:00:00 | |
| DO3MHA-12 | 2026-09-02 13:34:53 | 48.32717 | 10.89612 | 79° | 22km/h | 910m | -4.4m/s | 19.6°C | 52.2% | 921.0hPa | 2.7V | 00:00:00 | 03:05:56 | 00:00:00 | |
| DO3MHA-11 | 2026-09-02 13:34:51 | 48.32715 | 10.89596 | 76° | 22km/h | 919m | -4.2m/s | 19.5°C | 52.4% | 919.8hPa | 2.7V | 00:00:00 | 03:05:54 | 00:00:00 | |
| DO3MHA-12 | 2026-09-02 13:34:51 | 48.32715 | 10.89596 | 76° | 22km/h | 919m | -4.2m/s | 19.5°C | 52.4% | 919.8hPa | 2.7V | 00:00:00 | 03:05:54 | 00:00:00 | |
| DO3MHA-11 | 2026-09-02 13:34:49 | 48.32711 | 10.89580 | 73° | 22km/h | 928m | -4.3m/s | 19.4°C | 52.5% | 919.0hPa | 2.7V | 00:00:00 | 03:05:52 | 00:00:00 | |
| DO3MHA-12 | 2026-09-02 13:34:49 | 48.32711 | 10.89580 | 73° | 22km/h | 928m | -4.3m/s | 19.4°C | 52.5% | 919.0hPa | 2.7V | 00:00:00 | 03:05:52 | 00:00:00 | |
| DO3MHA-12 | 2026-09-02 13:34:47 | 48.32708 | 10.89564 | 71° | 22km/h | 936m | -4.6m/s | 19.4°C | 52.8% | 918.1hPa | 2.7V | 00:00:00 | 03:05:50 | 00:00:00 | |
| DO3MHA-11 | 2026-09-02 13:34:47 | 48.32708 | 10.89564 | 71° | 22km/h | 936m | -4.6m/s | 19.4°C | 52.8% | 918.1hPa | 2.7V | 00:00:00 | 03:05:50 | 00:00:00 | |
| DO3MHA-12 | 2026-09-02 13:34:45 | 48.32704 | 10.89549 | 69° | 20km/h | 944m | -4.1m/s | 19.3°C | 53.0% | 917.3hPa | 2.7V | 00:00:00 | 03:05:48 | 00:00:00 | |
| DO3MHA-11 | 2026-09-02 13:34:45 | 48.32704 | 10.89549 | 69° | 20km/h | 944m | -4.1m/s | 19.3°C | 53.0% | 917.3hPa | 2.7V | 00:00:00 | 03:05:48 | 00:00:00 | |
| DO3MHA-11 | 2026-09-02 13:34:43 | 48.32700 | 10.89534 | 69° | 20km/h | 951m | -3.8m/s | 19.2°C | 53.2% | 916.7hPa | 2.7V | 00:00:00 | 03:05:46 | 00:00:00 | |
| DO3MHA-12 | 2026-09-02 13:34:43 | 48.32700 | 10.89534 | 69° | 20km/h | 951m | -3.8m/s | 19.2°C | 53.2% | 916.7hPa | 2.7V | 00:00:00 | 03:05:46 | 00:00:00 | |
| DO3MHA-11 | 2026-09-02 13:34:41 | 48.32697 | 10.89520 | 66° | 20km/h | 958m | -3.8m/s | 19.1°C | 53.4% | 915.9hPa | 2.7V | 00:00:00 | 03:05:44 | 00:00:00 | |
| DO3MHA-12 | 2026-09-02 13:34:41 | 48.32697 | 10.89520 | 66° | 20km/h | 958m | -3.8m/s | 19.1°C | 53.4% | 915.9hPa | 2.7V | 07:13:00 | 03:05:44 | 00:00:00 | |
| DO3MHA-12 | 2026-09-02 13:34:39 | 48.32692 | 10.89507 | 65° | 18km/h | 965m | -3.3m/s | 19.1°C | 53.6% | 915.1hPa | 2.7V | 00:00:00 | 03:05:42 | 00:00:00 | |
| DO3MHA-11 | 2026-09-02 13:34:39 | 48.32692 | 10.89507 | 65° | 18km/h | 965m | -3.3m/s | 19.1°C | 53.6% | 915.1hPa | 2.7V | 00:00:00 | 03:05:42 | 00:00:00 | |
| DO3MHA-11 | 2026-09-02 13:34:37 | 48.32688 | 10.89494 | 65° | 18km/h | 972m | -3.5m/s | 19.0°C | 53.8% | 914.3hPa | 2.7V | 07:13:00 | 03:05:40 | 00:00:00 | |
| DO3MHA-12 | 2026-09-02 13:34:37 | 48.32688 | 10.89494 | 65° | 18km/h | 972m | -3.5m/s | 19.0°C | 53.8% | 914.3hPa | 2.7V | 00:00:00 | 03:05:40 | 00:00:00 | |
| DO3MHA-11 | 2026-09-02 13:34:35 | 48.32685 | 10.89482 | 71° | 18km/h | 979m | -2.6m/s | 18.9°C | 54.0% | 913.7hPa | 2.7V | 00:00:00 | 03:05:38 | 00:00:00 | |
| DO3MHA-12 | 2026-09-02 13:34:35 | 48.32685 | 10.89482 | 71° | 18km/h | 979m | -2.6m/s | 18.9°C | 54.0% | 913.7hPa | 2.7V | 00:00:00 | 03:05:38 | 00:00:00 | |
| DO3MHA-11 | 2026-09-02 13:34:33 | 48.32681 | 10.89469 | 64° | 18km/h | 984m | -2.7m/s | 18.9°C | 54.2% | 913.0hPa | 2.7V | 00:00:00 | 03:05:36 | 00:00:00 | |
| DO3MHA-12 | 2026-09-02 13:34:33 | 48.32681 | 10.89469 | 64° | 18km/h | 984m | -2.7m/s | 18.9°C | 54.2% | 913.0hPa | 2.7V | 00:00:00 | 03:05:36 | 00:00:00 | |
| DO3MHA-12 | 2026-09-02 13:34:31 | 48.32677 | 10.89456 | 70° | 20km/h | 989m | -3.4m/s | 18.8°C | 54.4% | 912.5hPa | 2.7V | 00:00:00 | 03:05:34 | 00:00:00 | |
| DO3MHA-11 | 2026-09-02 13:34:31 | 48.32677 | 10.89456 | 70° | 20km/h | 989m | -3.4m/s | 18.8°C | 54.4% | 912.5hPa | 2.7V | 00:00:00 | 03:05:34 | 00:00:00 | |
| DO3MHA-11 | 2026-09-02 13:34:29 | 48.32673 | 10.89442 | 66° | 20km/h | 997m | -3.8m/s | 18.7°C | 54.6% | 911.8hPa | 2.7V | 00:00:00 | 03:05:32 | 00:00:00 | |
| DO3MHA-12 | 2026-09-02 13:34:29 | 48.32673 | 10.89442 | 66° | 20km/h | 997m | -3.8m/s | 18.7°C | 54.6% | 911.8hPa | 2.7V | 00:00:00 | 03:05:32 | 00:00:00 | |
| DO3MHA-11 | 2026-09-02 13:34:27 | 48.32669 | 10.89428 | 68° | 20km/h | 1005m | -3.9m/s | 18.7°C | 54.9% | 910.8hPa | 2.7V | 00:00:00 | 03:05:30 | 00:00:00 | |
| DO3MHA-12 | 2026-09-02 13:34:27 | 48.32669 | 10.89428 | 68° | 20km/h | 1005m | -3.9m/s | 18.7°C | 54.9% | 910.8hPa | 2.7V | 00:00:00 | 03:05:30 | 00:00:00 | |
| DO3MHA-12 | 2026-09-02 13:34:25 | 48.32665 | 10.89414 | 68° | 20km/h | 1013m | -4.3m/s | 18.6°C | 55.0% | 910.0hPa | 2.7V | 07:13:00 | 03:05:28 | 00:00:00 | |
| DO3MHA-11 | 2026-09-02 13:34:25 | 48.32665 | 10.89414 | 68° | 20km/h | 1013m | -4.3m/s | 18.6°C | 55.0% | 910.0hPa | 2.7V | 00:00:00 | 03:05:28 | 00:00:00 | |
| DO3MHA-12 | 2026-09-02 13:34:23 | 48.32661 | 10.89400 | 69° | 20km/h | 1021m | -3.7m/s | 18.5°C | 55.2% | 909.1hPa | 2.7V | 00:00:00 | 03:05:26 | 00:00:00 | |
| DO3MHA-11 | 2026-09-02 13:34:23 | 48.32661 | 10.89400 | 69° | 20km/h | 1021m | -3.7m/s | 18.5°C | 55.2% | 909.1hPa | 2.7V | 00:00:00 | 03:05:26 | 00:00:00 | |
| DO3MHA-11 | 2026-09-02 13:34:21 | 48.32658 | 10.89386 | 71° | 18km/h | 1029m | -3.8m/s | 18.5°C | 55.7% | 908.3hPa | 2.7V | 07:13:00 | 03:05:24 | 00:00:00 | |
| DO3MHA-12 | 2026-09-02 13:34:21 | 48.32658 | 10.89386 | 71° | 18km/h | 1029m | -3.8m/s | 18.5°C | 55.7% | 908.3hPa | 2.7V | 00:00:00 | 03:05:24 | 00:00:00 | |
| DO3MHA-11 | 2026-09-02 13:34:19 | 48.32654 | 10.89374 | 66° | 18km/h | 1037m | -4.0m/s | 18.4°C | 55.5% | 907.5hPa | 2.7V | 00:00:00 | 03:05:22 | 00:00:00 | |
| DO3MHA-12 | 2026-09-02 13:34:19 | 48.32654 | 10.89374 | 66° | 20km/h | 1037m | -4.0m/s | 18.4°C | 55.5% | 907.5hPa | 2.7V | 00:00:00 | 03:05:22 | 00:00:00 | |
| DO3MHA-11 | 2026-09-02 13:34:17 | 48.32650 | 10.89361 | 60° | 16km/h | 1045m | -4.2m/s | 18.3°C | 55.7% | 906.7hPa | 2.7V | 00:00:00 | 03:05:20 | 00:00:00 | |
| DO3MHA-12 | 2026-09-02 13:34:17 | 48.32650 | 10.89361 | 60° | 16km/h | 1045m | -4.2m/s | 18.3°C | 55.7% | 906.7hPa | 2.7V | 00:00:00 | 03:05:20 | 00:00:00 | |
| DO3MHA-11 | 2026-09-02 13:34:15 | 48.32645 | 10.89350 | 58° | 18km/h | 1053m | -3.6m/s | 18.3°C | 55.9% | 906.1hPa | 2.7V | 00:00:00 | 03:05:18 | 00:00:00 | |
| DO3MHA-12 | 2026-09-02 13:34:15 | 48.32645 | 10.89350 | 58° | 18km/h | 1053m | -3.6m/s | 18.3°C | 55.9% | 906.1hPa | 2.7V | 00:00:00 | 03:05:18 | 00:00:00 | |
| DO3MHA-11 | 2026-09-02 13:34:13 | 48.32640 | 10.89339 | 58° | 16km/h | 1061m | -3.6m/s | 18.2°C | 56.1% | 905.2hPa | 2.7V | 00:00:00 | 03:05:16 | 00:00:00 | |
| DO3MHA-12 | 2026-09-02 13:34:13 | 48.32640 | 10.89339 | 58° | 16km/h | 1061m | -3.6m/s | 18.2°C | 56.1% | 905.2hPa | 2.7V | 00:00:00 | 03:05:16 | 00:00:00 | |
| DO3MHA-11 | 2026-09-02 13:34:11 | 48.32636 | 10.89330 | 57° | 15km/h | 1068m | -3.4m/s | 18.1°C | 56.3% | 904.4hPa | 2.7V | 00:00:00 | 03:05:14 | 00:00:00 | |
| DO3MHA-12 | 2026-09-02 13:34:11 | 48.32636 | 10.89330 | 57° | 15km/h | 1068m | -3.4m/s | 18.1°C | 56.3% | 904.4hPa | 2.7V | 00:00:00 | 03:05:14 | 00:00:00 | |
| DO3MHA-11 | 2026-09-02 13:34:09 | 48.32631 | 10.89321 | 52° | 15km/h | 1075m | -3.9m/s | 18.0°C | 56.5% | 903.6hPa | 2.7V | 00:00:00 | 03:05:12 | 00:00:00 | |
| DO3MHA-12 | 2026-09-02 13:34:09 | 48.32631 | 10.89321 | 52° | 15km/h | 1075m | -3.9m/s | 18.0°C | 56.5% | 903.6hPa | 2.7V | 07:13:00 | 03:05:12 | 00:00:00 | |
| DO3MHA-12 | 2026-09-02 13:34:07 | 48.32626 | 10.89313 | 44° | 11km/h | 1083m | -3.7m/s | 18.0°C | 56.7% | 902.8hPa | 2.7V | 00:00:00 | 03:05:10 | 00:00:00 | |
| DO3MHA-11 | 2026-09-02 13:34:07 | 48.32626 | 10.89313 | 44° | 11km/h | 1083m | -3.7m/s | 18.0°C | 56.7% | 902.8hPa | 2.7V | 00:00:00 | 03:05:10 | 00:00:00 | |
| DO3MHA-11 | 2026-09-02 13:34:05 | 48.32622 | 10.89306 | 56° | 11km/h | 1090m | -3.4m/s | 17.9°C | 57.0% | 902.1hPa | 2.7V | 07:13:00 | 03:05:08 | 00:00:00 | |
| DO3MHA-12 | 2026-09-02 13:34:05 | 48.32622 | 10.89306 | 56° | 11km/h | 1090m | -3.4m/s | 17.9°C | 57.0% | 902.1hPa | 2.7V | 00:00:00 | 03:05:08 | 00:00:00 | |
| DO3MHA-11 | 2026-09-02 13:34:03 | 48.32619 | 10.89301 | 53° | 9km/h | 1097m | -3.5m/s | 17.8°C | 57.2% | 901.2hPa | 2.7V | 00:00:00 | 03:05:06 | 00:00:00 | |
| DO3MHA-12 | 2026-09-02 13:34:03 | 48.32619 | 10.89301 | 53° | 9km/h | 1097m | -3.5m/s | 17.8°C | 57.2% | 901.2hPa | 2.7V | 00:00:00 | 03:05:06 | 00:00:00 | |
| DO3MHA-11 | 2026-09-02 13:34:01 | 48.32617 | 10.89295 | 46° | 9km/h | 1105m | -4.0m/s | 17.7°C | 57.4% | 900.5hPa | 2.7V | 00:00:00 | 03:05:04 | 00:00:00 | |
| DO3MHA-12 | 2026-09-02 13:34:01 | 48.32617 | 10.89295 | 46° | 9km/h | 1105m | -4.0m/s | 17.7°C | 57.4% | 900.5hPa | 2.7V | 00:00:00 | 03:05:04 | 00:00:00 | |
| DO3MHA-12 | 2026-09-02 13:33:59 | 48.32614 | 10.89290 | 63° | 9km/h | 1113m | -3.9m/s | 17.7°C | 57.6% | 899.7hPa | 2.7V | 00:00:00 | 03:05:02 | 00:00:00 | |
| DO3MHA-11 | 2026-09-02 13:33:59 | 48.32614 | 10.89290 | 63° | 9km/h | 1113m | -3.9m/s | 17.7°C | 57.6% | 899.7hPa | 2.7V | 00:00:00 | 03:05:02 | 00:00:00 | |
| DO3MHA-11 | 2026-09-02 13:33:57 | 48.32612 | 10.89284 | 67° | 9km/h | 1120m | -3.7m/s | 17.6°C | 57.9% | 898.8hPa | 2.7V | 00:00:00 | 03:05:00 | 00:00:00 | |
| DO3MHA-12 | 2026-09-02 13:33:57 | 48.32612 | 10.89284 | 67° | 9km/h | 1120m | -3.7m/s | 17.6°C | 57.9% | 898.8hPa | 2.7V | 00:00:00 | 03:05:00 | 00:00:00 | |
| DO3MHA-11 | 2026-09-02 13:33:55 | 48.32610 | 10.89277 | 62° | 7km/h | 1128m | -4.1m/s | 17.5°C | 58.2% | 898.1hPa | 2.7V | 00:00:00 | 03:04:58 | 00:00:00 | |
| DO3MHA-12 | 2026-09-02 13:33:55 | 48.32610 | 10.89277 | 62° | 7km/h | 1128m | -4.1m/s | 17.5°C | 58.2% | 898.1hPa | 2.7V | 00:00:00 | 03:04:58 | 00:00:00 | |
| DO3MHA-12 | 2026-09-02 13:33:53 | 48.32608 | 10.89272 | 64° | 9km/h | 1135m | -3.4m/s | 17.5°C | 58.3% | 897.4hPa | 2.7V | 07:13:00 | 03:04:56 | 00:00:00 | |
| DO3MHA-11 | 2026-09-02 13:33:53 | 48.32608 | 10.89272 | 64° | 9km/h | 1135m | -3.4m/s | 17.5°C | 58.3% | 897.4hPa | 2.7V | 00:00:00 | 03:04:56 | 00:00:00 | |
| DO3MHA-12 | 2026-09-02 13:33:51 | 48.32606 | 10.89267 | 42° | 11km/h | 1142m | -3.5m/s | 17.4°C | 58.7% | 896.6hPa | 2.7V | 00:00:00 | 03:04:54 | 00:00:00 | |
| DO3MHA-11 | 2026-09-02 13:33:51 | 48.32606 | 10.89267 | 42° | 11km/h | 1142m | -3.5m/s | 17.4°C | 58.7% | 896.6hPa | 2.7V | 00:00:00 | 03:04:54 | 00:00:00 | |
| DO3MHA-12 | 2026-09-02 13:33:49 | 48.32602 | 10.89261 | 56° | 9km/h | 1149m | -4.0m/s | 17.3°C | 58.9% | 896.0hPa | 2.7V | 00:00:00 | 03:04:52 | 00:00:00 | |
| DO3MHA-11 | 2026-09-02 13:33:49 | 48.32602 | 10.89261 | 56° | 9km/h | 1149m | -4.0m/s | 17.3°C | 58.9% | 896.0hPa | 2.7V | 07:13:00 | 03:04:52 | 00:00:00 | |
| DO3MHA-11 | 2026-09-02 13:33:47 | 48.32600 | 10.89255 | 66° | 7km/h | 1157m | -4.1m/s | 17.2°C | 59.2% | 895.2hPa | 2.7V | 00:00:00 | 03:04:50 | 00:00:00 | |
| DO3MHA-12 | 2026-09-02 13:33:47 | 48.32600 | 10.89255 | 66° | 7km/h | 1157m | -4.1m/s | 17.2°C | 59.2% | 895.2hPa | 2.7V | 00:00:00 | 03:04:50 | 00:00:00 | |
| DO3MHA-11 | 2026-09-02 13:33:45 | 48.32599 | 10.89249 | 78° | 7km/h | 1166m | -4.5m/s | 17.1°C | 59.3% | 894.3hPa | 2.7V | 00:00:00 | 03:04:48 | 00:00:00 | |
| DO3MHA-12 | 2026-09-02 13:33:45 | 48.32599 | 10.89249 | 78° | 7km/h | 1166m | -4.5m/s | 17.1°C | 59.3% | 894.3hPa | 2.7V | 00:00:00 | 03:04:48 | 00:00:00 | |
| DO3MHA-12 | 2026-09-02 13:33:43 | 48.32599 | 10.89243 | 89° | 9km/h | 1175m | -3.6m/s | 17.1°C | 59.6% | 893.4hPa | 2.7V | 00:00:00 | 03:04:46 | 00:00:00 | |
| DO3MHA-11 | 2026-09-02 13:33:43 | 48.32599 | 10.89243 | 89° | 9km/h | 1175m | -3.6m/s | 17.1°C | 59.6% | 893.4hPa | 2.7V | 00:00:00 | 03:04:46 | 00:00:00 | |
| DO3MHA-11 | 2026-09-02 13:33:41 | 48.32599 | 10.89236 | 93° | 9km/h | 1182m | -3.6m/s | 17.0°C | 59.9% | 892.6hPa | 2.7V | 00:00:00 | 03:04:44 | 00:00:00 | |
| DO3MHA-12 | 2026-09-02 13:33:41 | 48.32599 | 10.89236 | 93° | 9km/h | 1182m | -3.6m/s | 17.0°C | 59.9% | 892.6hPa | 2.7V | 00:00:00 | 03:04:44 | 00:00:00 | |
| DO3MHA-11 | 2026-09-02 13:33:39 | 48.32599 | 10.89230 | 89° | 9km/h | 1189m | -3.8m/s | 16.9°C | 60.2% | 891.8hPa | 2.7V | 00:00:00 | 03:04:42 | 00:00:00 | |
| DO3MHA-12 | 2026-09-02 13:33:39 | 48.32599 | 10.89230 | 89° | 9km/h | 1189m | -3.8m/s | 16.9°C | 60.2% | 891.8hPa | 2.7V | 00:00:00 | 03:04:42 | 00:00:00 | |
| DO3MHA-11 | 2026-09-02 13:33:37 | 48.32599 | 10.89223 | 82° | 9km/h | 1197m | -3.6m/s | 16.8°C | 60.4% | 891.0hPa | 2.7V | 00:00:00 | 03:04:40 | 00:00:00 | |
| DO3MHA-12 | 2026-09-02 13:33:37 | 48.32599 | 10.89223 | 82° | 9km/h | 1197m | -3.6m/s | 16.8°C | 60.4% | 891.0hPa | 2.7V | 07:14:00 | 03:04:40 | 00:00:00 | |
| DO3MHA-11 | 2026-09-02 13:33:35 | 48.32597 | 10.89216 | 65° | 11km/h | 1204m | -3.0m/s | 16.8°C | 60.5% | 890.2hPa | 2.7V | 00:00:00 | 03:04:38 | 00:00:00 | |
| DO3MHA-12 | 2026-09-02 13:33:35 | 48.32597 | 10.89216 | 65° | 11km/h | 1204m | -3.0m/s | 16.8°C | 60.5% | 890.2hPa | 2.7V | 00:00:00 | 03:04:38 | 00:00:00 | |
| DO3MHA-11 | 2026-09-02 13:33:33 | 48.32595 | 10.89208 | 61° | 13km/h | 1211m | -4.1m/s | 16.7°C | 60.7% | 889.6hPa | 2.7V | 07:14:00 | 03:04:36 | 00:00:00 | |
| DO3MHA-12 | 2026-09-02 13:33:33 | 48.32595 | 10.89208 | 61° | 13km/h | 1211m | -4.1m/s | 16.7°C | 60.7% | 889.6hPa | 2.7V | 00:00:00 | 03:04:36 | 00:00:00 | |
| DO3MHA-11 | 2026-09-02 13:33:31 | 48.32592 | 10.89200 | 58° | 13km/h | 1219m | -4.2m/s | 16.6°C | 61.2% | 888.8hPa | 2.7V | 00:00:00 | 03:04:34 | 00:00:00 | |
| DO3MHA-12 | 2026-09-02 13:33:31 | 48.32592 | 10.89200 | 58° | 13km/h | 1219m | -4.2m/s | 16.6°C | 61.2% | 888.8hPa | 2.7V | 00:00:00 | 03:04:34 | 00:00:00 | |
| DO3MHA-11 | 2026-09-02 13:33:29 | 48.32588 | 10.89192 | 61° | 13km/h | 1228m | -4.2m/s | 16.5°C | 61.6% | 887.8hPa | 2.7V | 00:00:00 | 03:04:32 | 00:00:00 | |
| DO3MHA-12 | 2026-09-02 13:33:29 | 48.32588 | 10.89192 | 61° | 13km/h | 1228m | -4.2m/s | 16.5°C | 61.6% | 887.8hPa | 2.7V | 00:00:00 | 03:04:32 | 00:00:00 | |
| DO3MHA-12 | 2026-09-02 13:33:27 | 48.32585 | 10.89184 | 56° | 11km/h | 1237m | -4.6m/s | 16.4°C | 61.9% | 886.9hPa | 2.7V | 00:00:00 | 03:04:30 | 00:00:00 | |
| DO3MHA-11 | 2026-09-02 13:33:27 | 48.32585 | 10.89184 | 56° | 11km/h | 1237m | -4.6m/s | 16.4°C | 61.9% | 886.9hPa | 2.7V | 00:00:00 | 03:04:30 | 00:00:00 | |
| DO3MHA-11 | 2026-09-02 13:33:25 | 48.32582 | 10.89177 | 57° | 9km/h | 1245m | -4.1m/s | 16.4°C | 61.9% | 886.0hPa | 2.7V | 00:00:00 | 03:04:28 | 00:00:00 | |
| DO3MHA-12 | 2026-09-02 13:33:25 | 48.32582 | 10.89177 | 57° | 9km/h | 1245m | -4.1m/s | 16.4°C | 61.9% | 886.0hPa | 2.7V | 00:00:00 | 03:04:28 | 00:00:00 | |
| DO3MHA-11 | 2026-09-02 13:33:23 | 48.32580 | 10.89171 | 64° | 9km/h | 1253m | -4.1m/s | 16.3°C | 62.3% | 885.0hPa | 2.7V | 00:00:00 | 03:04:26 | 00:00:00 | |
| DO3MHA-12 | 2026-09-02 13:33:23 | 48.32580 | 10.89171 | 64° | 9km/h | 1253m | -4.1m/s | 16.3°C | 62.3% | 885.0hPa | 2.7V | 00:00:00 | 03:04:26 | 00:00:00 | |
| DO3MHA-11 | 2026-09-02 13:33:21 | 48.32578 | 10.89165 | 60° | 9km/h | 1262m | -4.2m/s | 16.2°C | 62.6% | 884.2hPa | 2.7V | 00:00:00 | 03:04:24 | 00:00:00 | |
| DO3MHA-12 | 2026-09-02 13:33:21 | 48.32578 | 10.89165 | 60° | 9km/h | 1262m | -4.2m/s | 16.2°C | 62.6% | 884.2hPa | 2.7V | 07:14:00 | 03:04:24 | 00:00:00 | |
| DO3MHA-12 | 2026-09-02 13:33:19 | 48.32575 | 10.89159 | 53° | 9km/h | 1270m | -3.9m/s | 16.1°C | 62.5% | 883.4hPa | 2.7V | 00:00:00 | 03:04:22 | 00:00:00 | |
| DO3MHA-11 | 2026-09-02 13:33:19 | 48.32575 | 10.89159 | 53° | 9km/h | 1270m | -3.9m/s | 16.1°C | 62.5% | 883.4hPa | 2.7V | 00:00:00 | 03:04:22 | 00:00:00 | |
| DO3MHA-12 | 2026-09-02 13:33:17 | 48.32573 | 10.89153 | 57° | 11km/h | 1278m | -4.2m/s | 16.0°C | 62.8% | 882.5hPa | 2.7V | 00:00:00 | 03:04:20 | 00:00:00 | |
| DO3MHA-11 | 2026-09-02 13:33:17 | 48.32573 | 10.89153 | 57° | 11km/h | 1278m | -4.2m/s | 16.0°C | 62.8% | 882.5hPa | 2.7V | 07:14:00 | 03:04:20 | 00:00:00 | |
| DO3MHA-11 | 2026-09-02 13:33:15 | 48.32570 | 10.89146 | 62° | 9km/h | 1286m | -4.2m/s | 16.0°C | 62.9% | 881.6hPa | 2.7V | 00:00:00 | 03:04:18 | 00:00:00 | |
| DO3MHA-12 | 2026-09-02 13:33:15 | 48.32570 | 10.89146 | 62° | 9km/h | 1286m | -4.2m/s | 16.0°C | 62.9% | 881.6hPa | 2.7V | 00:00:00 | 03:04:18 | 00:00:00 | |
| DO3MHA-11 | 2026-09-02 13:33:13 | 48.32568 | 10.89140 | 71° | 9km/h | 1294m | -4.0m/s | 15.9°C | 63.3% | 880.6hPa | 2.7V | 00:00:00 | 03:04:16 | 00:00:00 | |
| DO3MHA-12 | 2026-09-02 13:33:13 | 48.32568 | 10.89140 | 71° | 9km/h | 1294m | -4.0m/s | 15.9°C | 63.3% | 880.6hPa | 2.7V | 00:00:00 | 03:04:16 | 00:00:00 | |
| DO3MHA-12 | 2026-09-02 13:33:11 | 48.32567 | 10.89134 | 66° | 9km/h | 1302m | -4.3m/s | 15.8°C | 63.4% | 880.0hPa | 2.7V | 00:00:00 | 03:04:14 | 00:00:00 | |
| DO3MHA-11 | 2026-09-02 13:33:11 | 48.32567 | 10.89134 | 66° | 9km/h | 1302m | -4.3m/s | 15.8°C | 63.4% | 880.0hPa | 2.7V | 00:00:00 | 03:04:14 | 00:00:00 | |
| DO3MHA-11 | 2026-09-02 13:33:09 | 48.32565 | 10.89128 | 61° | 9km/h | 1310m | -4.1m/s | 15.7°C | 63.8% | 879.1hPa | 2.7V | 00:00:00 | 03:04:12 | 00:00:00 | |
| DO3MHA-12 | 2026-09-02 13:33:09 | 48.32565 | 10.89128 | 61° | 9km/h | 1310m | -4.1m/s | 15.7°C | 63.8% | 879.1hPa | 2.7V | 00:00:00 | 03:04:12 | 00:00:00 | |
| DO3MHA-11 | 2026-09-02 13:33:05 | 48.32560 | 10.89114 | 56° | 11km/h | 1326m | -3.8m/s | 15.6°C | 64.8% | 877.6hPa | 2.7V | 00:00:00 | 03:04:08 | 00:00:00 | |
| DO3MHA-12 | 2026-09-02 13:33:05 | 48.32560 | 10.89114 | 56° | 11km/h | 1326m | -3.8m/s | 15.6°C | 64.8% | 877.6hPa | 2.7V | 07:14:00 | 03:04:08 | 00:00:00 | |
| DO3MHA-12 | 2026-09-02 13:33:03 | 48.32556 | 10.89108 | 45° | 11km/h | 1333m | -3.5m/s | 15.5°C | 65.0% | 876.6hPa | 2.7V | 00:00:00 | 03:04:06 | 00:00:00 | |
| DO3MHA-11 | 2026-09-02 13:33:03 | 48.32556 | 10.89108 | 45° | 11km/h | 1333m | -3.5m/s | 15.5°C | 65.0% | 876.6hPa | 2.7V | 00:00:00 | 03:04:06 | 00:00:00 | |
| DO3MHA-11 | 2026-09-02 13:33:01 | 48.32553 | 10.89102 | 46° | 11km/h | 1341m | -4.2m/s | 15.4°C | 65.2% | 876.0hPa | 2.7V | 07:14:00 | 03:04:04 | 00:00:00 | |
| DO3MHA-12 | 2026-09-02 13:33:01 | 48.32553 | 10.89102 | 46° | 11km/h | 1341m | -4.2m/s | 15.4°C | 65.2% | 876.0hPa | 2.7V | 00:00:00 | 03:04:04 | 00:00:00 | |
| DO3MHA-11 | 2026-09-02 13:32:59 | 48.32549 | 10.89096 | 47° | 11km/h | 1349m | -4.2m/s | 15.3°C | 65.4% | 875.1hPa | 2.7V | 00:00:00 | 03:04:02 | 00:00:00 | |
| DO3MHA-12 | 2026-09-02 13:32:59 | 48.32549 | 10.89096 | 47° | 11km/h | 1349m | -4.2m/s | 15.3°C | 65.4% | 875.1hPa | 2.7V | 00:00:00 | 03:04:02 | 00:00:00 | |
| DO3MHA-11 | 2026-09-02 13:32:57 | 48.32546 | 10.89090 | 53° | 11km/h | 1357m | -4.0m/s | 15.3°C | 65.8% | 874.2hPa | 2.7V | 00:00:00 | 03:04:00 | 00:00:00 | |
| DO3MHA-12 | 2026-09-02 13:32:57 | 48.32546 | 10.89090 | 53° | 11km/h | 1357m | -4.0m/s | 15.3°C | 65.8% | 874.2hPa | 2.7V | 00:00:00 | 03:04:00 | 00:00:00 | |
| DO3MHA-12 | 2026-09-02 13:32:55 | 48.32542 | 10.89083 | 58° | 13km/h | 1364m | -3.8m/s | 15.2°C | 66.0% | 873.4hPa | 2.7V | 00:00:00 | 03:03:58 | 00:00:00 | |
| DO3MHA-11 | 2026-09-02 13:32:55 | 48.32542 | 10.89083 | 58° | 13km/h | 1364m | -3.8m/s | 15.2°C | 66.0% | 873.4hPa | 2.7V | 00:00:00 | 03:03:58 | 00:00:00 | |
| DO3MHA-11 | 2026-09-02 13:32:53 | 48.32539 | 10.89075 | 52° | 15km/h | 1372m | -3.8m/s | 15.1°C | 66.1% | 872.7hPa | 2.7V | 00:00:00 | 03:03:56 | 00:00:00 | |
| DO3MHA-12 | 2026-09-02 13:32:53 | 48.32539 | 10.89075 | 52° | 15km/h | 1372m | -3.8m/s | 15.1°C | 66.1% | 872.7hPa | 2.7V | 00:00:00 | 03:03:56 | 00:00:00 | |
| DO3MHA-11 | 2026-09-02 13:32:51 | 48.32534 | 10.89066 | 50° | 15km/h | 1379m | -3.7m/s | 15.0°C | 66.3% | 871.9hPa | 2.7V | 00:00:00 | 03:03:54 | 00:00:00 | |
| DO3MHA-12 | 2026-09-02 13:32:51 | 48.32534 | 10.89066 | 50° | 15km/h | 1379m | -3.7m/s | 15.0°C | 66.3% | 871.9hPa | 2.7V | 00:00:00 | 03:03:54 | 00:00:00 | |
| DO3MHA-11 | 2026-09-02 13:32:49 | 48.32530 | 10.89058 | 51° | 15km/h | 1386m | -3.7m/s | 15.0°C | 66.6% | 871.1hPa | 2.7V | 00:00:00 | 03:03:52 | 00:00:00 | |
| DO3MHA-12 | 2026-09-02 13:32:49 | 48.32530 | 10.89058 | 51° | 15km/h | 1386m | -3.7m/s | 15.0°C | 66.6% | 871.1hPa | 2.7V | 07:14:00 | 03:03:52 | 00:00:00 | |
| DO3MHA-12 | 2026-09-02 13:32:47 | 48.32525 | 10.89050 | 52° | 16km/h | 1393m | -3.3m/s | 14.9°C | 66.7% | 870.5hPa | 2.7V | 00:00:00 | 03:03:50 | 00:00:00 | |
| DO3MHA-11 | 2026-09-02 13:32:47 | 48.32525 | 10.89050 | 52° | 16km/h | 1393m | -3.3m/s | 14.9°C | 66.7% | 870.5hPa | 2.7V | 00:00:00 | 03:03:50 | 00:00:00 | |
| DO3MHA-11 | 2026-09-02 13:32:45 | 48.32521 | 10.89040 | 55° | 16km/h | 1400m | -3.5m/s | 14.8°C | 66.9% | 869.7hPa | 2.7V | 07:14:00 | 03:03:48 | 00:00:00 | |
| DO3MHA-12 | 2026-09-02 13:32:45 | 48.32521 | 10.89040 | 55° | 16km/h | 1400m | -3.5m/s | 14.8°C | 66.9% | 869.7hPa | 2.7V | 00:00:00 | 03:03:48 | 00:00:00 | |
| DO3MHA-11 | 2026-09-02 13:32:43 | 48.32516 | 10.89029 | 56° | 18km/h | 1406m | -3.6m/s | 14.8°C | 67.3% | 869.1hPa | 2.7V | 00:00:00 | 03:03:46 | 00:00:00 | |
| DO3MHA-12 | 2026-09-02 13:32:43 | 48.32516 | 10.89029 | 56° | 18km/h | 1406m | -3.6m/s | 14.8°C | 67.3% | 869.1hPa | 2.7V | 00:00:00 | 03:03:46 | 00:00:00 | |
| DO3MHA-11 | 2026-09-02 13:32:41 | 48.32511 | 10.89018 | 59° | 18km/h | 1413m | -3.7m/s | 14.7°C | 67.4% | 868.2hPa | 2.7V | 00:00:00 | 03:03:44 | 00:00:00 | |
| DO3MHA-12 | 2026-09-02 13:32:41 | 48.32511 | 10.89018 | 59° | 18km/h | 1413m | -3.7m/s | 14.7°C | 67.4% | 868.2hPa | 2.7V | 00:00:00 | 03:03:44 | 00:00:00 | |
| DO3MHA-11 | 2026-09-02 13:32:39 | 48.32507 | 10.89006 | 63° | 18km/h | 1421m | -4.0m/s | 14.6°C | 67.7% | 867.6hPa | 2.7V | 00:00:00 | 03:03:42 | 00:00:00 | |
| DO3MHA-12 | 2026-09-02 13:32:39 | 48.32507 | 10.89006 | 63° | 18km/h | 1421m | -4.0m/s | 14.6°C | 67.7% | 867.6hPa | 2.7V | 00:00:00 | 03:03:42 | 00:00:00 | |
| DO3MHA-11 | 2026-09-02 13:32:37 | 48.32503 | 10.88993 | 70° | 20km/h | 1429m | -3.4m/s | 14.5°C | 68.0% | 866.8hPa | 2.7V | 00:00:00 | 03:03:40 | 00:00:00 | |
| DO3MHA-12 | 2026-09-02 13:32:37 | 48.32503 | 10.88993 | 70° | 20km/h | 1429m | -3.4m/s | 14.5°C | 68.0% | 866.8hPa | 2.7V | 00:00:00 | 03:03:40 | 00:00:00 | |
| DO3MHA-11 | 2026-09-02 13:32:35 | 48.32500 | 10.88980 | 73° | 20km/h | 1435m | -3.2m/s | 14.5°C | 68.4% | 866.0hPa | 2.7V | 00:00:00 | 03:03:38 | 00:00:00 | |
| DO3MHA-12 | 2026-09-02 13:32:35 | 48.32500 | 10.88980 | 73° | 20km/h | 1435m | -3.2m/s | 14.5°C | 68.4% | 866.0hPa | 2.7V | 00:00:00 | 03:03:38 | 00:00:00 | |
| DO3MHA-11 | 2026-09-02 13:32:33 | 48.32496 | 10.88966 | 70° | 20km/h | 1442m | -3.9m/s | 14.4°C | 68.5% | 865.3hPa | 2.7V | 00:00:00 | 03:03:36 | 00:00:00 | |
| DO3MHA-12 | 2026-09-02 13:32:33 | 48.32496 | 10.88966 | 70° | 20km/h | 1442m | -3.9m/s | 14.4°C | 68.5% | 865.3hPa | 2.7V | 07:15:00 | 03:03:36 | 00:00:00 | |
| DO3MHA-12 | 2026-09-02 13:32:31 | 48.32492 | 10.88951 | 65° | 20km/h | 1450m | -4.2m/s | 14.3°C | 68.8% | 864.5hPa | 2.7V | 00:00:00 | 03:03:34 | 00:00:00 | |
| DO3MHA-11 | 2026-09-02 13:32:31 | 48.32492 | 10.88951 | 65° | 20km/h | 1450m | -4.2m/s | 14.3°C | 68.8% | 864.5hPa | 2.7V | 00:00:00 | 03:03:34 | 00:00:00 | |
| DO3MHA-11 | 2026-09-02 13:32:29 | 48.32488 | 10.88937 | 65° | 20km/h | 1458m | -3.8m/s | 14.3°C | 69.1% | 863.8hPa | 2.7V | 07:15:00 | 03:03:32 | 00:00:00 | |
| DO3MHA-12 | 2026-09-02 13:32:29 | 48.32488 | 10.88937 | 65° | 20km/h | 1458m | -3.8m/s | 14.3°C | 69.1% | 863.8hPa | 2.7V | 00:00:00 | 03:03:32 | 00:00:00 | |
| DO3MHA-11 | 2026-09-02 13:32:27 | 48.32483 | 10.88923 | 57° | 18km/h | 1466m | -3.8m/s | 14.2°C | 69.3% | 863.0hPa | 2.7V | 00:00:00 | 03:03:30 | 00:00:00 | |
| DO3MHA-12 | 2026-09-02 13:32:27 | 48.32483 | 10.88923 | 57° | 18km/h | 1466m | -3.8m/s | 14.2°C | 69.3% | 863.0hPa | 2.7V | 00:00:00 | 03:03:30 | 00:00:00 | |
| DO3MHA-12 | 2026-09-02 13:32:25 | 48.32479 | 10.88912 | 65° | 16km/h | 1473m | -3.1m/s | 14.1°C | 69.5% | 862.4hPa | 2.7V | 00:00:00 | 03:03:28 | 00:00:00 | |
| DO3MHA-11 | 2026-09-02 13:32:25 | 48.32479 | 10.88912 | 65° | 16km/h | 1473m | -3.1m/s | 14.1°C | 69.5% | 862.4hPa | 2.7V | 00:00:00 | 03:03:28 | 00:00:00 | |
| DO3MHA-12 | 2026-09-02 13:32:23 | 48.32475 | 10.88901 | 51° | 15km/h | 1479m | -3.4m/s | 14.1°C | 69.5% | 861.5hPa | 2.7V | 00:00:00 | 03:03:26 | 00:00:00 | |
| DO3MHA-11 | 2026-09-02 13:32:23 | 48.32475 | 10.88901 | 51° | 15km/h | 1479m | -3.4m/s | 14.1°C | 69.5% | 861.5hPa | 2.7V | 00:00:00 | 03:03:26 | 00:00:00 | |
| DO3MHA-11 | 2026-09-02 13:32:21 | 48.32471 | 10.88892 | 57° | 15km/h | 1486m | -3.6m/s | 14.0°C | 69.8% | 860.9hPa | 2.7V | 00:00:00 | 03:03:24 | 00:00:00 | |
| DO3MHA-12 | 2026-09-02 13:32:21 | 48.32471 | 10.88892 | 57° | 15km/h | 1486m | -3.6m/s | 14.0°C | 69.8% | 860.9hPa | 2.7V | 00:00:00 | 03:03:24 | 00:00:00 | |
| DO3MHA-11 | 2026-09-02 13:32:19 | 48.32467 | 10.88884 | 60° | 15km/h | 1493m | -3.2m/s | 13.9°C | 70.2% | 860.3hPa | 2.7V | 00:00:00 | 03:03:22 | 00:00:00 | |
| DO3MHA-12 | 2026-09-02 13:32:19 | 48.32467 | 10.88884 | 60° | 15km/h | 1493m | -3.2m/s | 13.9°C | 70.2% | 860.3hPa | 2.7V | 00:00:00 | 03:03:22 | 00:00:00 | |
| DO3MHA-11 | 2026-09-02 13:32:17 | 48.32463 | 10.88875 | 59° | 11km/h | 1500m | -3.4m/s | 13.9°C | 70.5% | 859.4hPa | 2.7V | 00:00:00 | 03:03:20 | 00:00:00 | |
| DO3MHA-12 | 2026-09-02 13:32:17 | 48.32463 | 10.88875 | 59° | 11km/h | 1500m | -3.4m/s | 13.9°C | 70.5% | 859.4hPa | 2.7V | 07:15:00 | 03:03:20 | 00:00:00 | |
| DO3MHA-12 | 2026-09-02 13:32:12 | 48.32455 | 10.88858 | 74° | 7km/h | 1517m | -3.1m/s | 13.7°C | 71.0% | 857.9hPa | 2.7V | 00:00:00 | 03:03:15 | 00:00:00 | |
| DO3MHA-11 | 2026-09-02 13:32:12 | 48.32455 | 10.88858 | 74° | 7km/h | 1517m | -3.1m/s | 13.7°C | 71.0% | 857.9hPa | 2.7V | 00:00:00 | 03:03:15 | 00:00:00 | |
| DO3MHA-12 | 2026-09-02 13:32:07 | 48.32454 | 10.88846 | 84° | 5km/h | 1535m | -3.6m/s | 13.5°C | 71.6% | 856.0hPa | 2.7V | 00:00:00 | 03:03:10 | 00:00:00 | |
| DO3MHA-11 | 2026-09-02 13:32:07 | 48.32454 | 10.88846 | 84° | 5km/h | 1535m | -3.6m/s | 13.5°C | 71.6% | 856.0hPa | 2.7V | 07:15:00 | 03:03:10 | 00:00:00 | |
| NBG1-10 | 2026-09-02 13:32:02 | 48.32455 | 10.88836 | 102° | 5km/h | 1552m | -3.1m/s | 13.4°C | 72.1% | 854.2hPa | 2.7V | 00:00:00 | 03:03:05 | 00:00:00 | |
| DO3MHA-12 | 2026-09-02 13:32:02 | 48.32455 | 10.88836 | 102° | 7km/h | 1552m | -3.1m/s | 13.4°C | 72.1% | 854.2hPa | 2.7V | 00:00:00 | 03:03:05 | 00:00:00 | |
| DO3MHA-11 | 2026-09-02 13:32:02 | 48.32455 | 10.88836 | 102° | 7km/h | 1552m | -3.1m/s | 13.4°C | 72.1% | 854.2hPa | 2.7V | 00:00:00 | 03:03:05 | 00:00:00 | |
| DO3MHA-12 | 2026-09-02 13:31:57 | 48.32457 | 10.88824 | 95° | 5km/h | 1568m | -4.5m/s | 13.2°C | 73.1% | 852.7hPa | 2.7V | 00:00:00 | 03:03:00 | 00:00:00 | |
| DO3MHA-11 | 2026-09-02 13:31:56 | 48.32458 | 10.88822 | 96° | 5km/h | 1572m | -3.9m/s | 13.2°C | 73.2% | 852.2hPa | 2.7V | 00:00:00 | 03:02:59 | 00:00:00 | |
| DO3MHA-12 | 2026-09-02 13:31:52 | 48.32459 | 10.88814 | 122° | 5km/h | 1590m | -5.0m/s | 13.0°C | 73.7% | 850.5hPa | 2.7V | 00:00:00 | 03:02:55 | 00:00:00 | |
| DO3MHA-11 | 2026-09-02 13:31:51 | 48.32459 | 10.88812 | 135° | 7km/h | 1595m | -4.3m/s | 13.0°C | 73.8% | 850.1hPa | 2.7V | 00:00:00 | 03:02:54 | 00:00:00 | |
| DO3MHA-12 | 2026-09-02 13:31:47 | 48.32464 | 10.88806 | 126° | 7km/h | 1611m | -4.2m/s | 12.9°C | 72.9% | 848.3hPa | 2.7V | 00:00:00 | 03:02:50 | 00:00:00 | |
| DO3MHA-11 | 2026-09-02 13:31:46 | 48.32466 | 10.88803 | 145° | 5km/h | 1616m | -4.5m/s | 12.8°C | 73.1% | 847.9hPa | 2.7V | 00:00:00 | 03:02:49 | 00:00:00 | |
| DO3MHA-12 | 2026-09-02 13:31:42 | 48.32472 | 10.88800 | 147° | 7km/h | 1631m | -3.7m/s | 12.7°C | 73.5% | 846.5hPa | 2.7V | 00:00:00 | 03:02:45 | 00:00:00 | |
| DO3MHA-11 | 2026-09-02 13:31:41 | 48.32473 | 10.88798 | 136° | 7km/h | 1635m | -3.4m/s | 12.7°C | 73.8% | 846.4hPa | 2.7V | 00:00:00 | 03:02:44 | 00:00:00 | |
| NBG1-10 | 2026-09-02 13:31:40 | 48.32474 | 10.88796 | 138° | 9km/h | 1638m | -3.2m/s | 12.7°C | 74.0% | 846.0hPa | 2.7V | 00:00:00 | 03:02:43 | 00:00:00 | |
| DO3MHA-12 | 2026-09-02 13:31:37 | 48.32478 | 10.88791 | 140° | 9km/h | 1648m | -3.7m/s | 12.6°C | 74.4% | 845.1hPa | 2.7V | 07:16:00 | 03:02:40 | 00:00:00 | |
| DO3MHA-11 | 2026-09-02 13:31:36 | 48.32480 | 10.88789 | 130° | 9km/h | 1652m | -3.6m/s | 12.5°C | 74.6% | 844.8hPa | 2.7V | 00:00:00 | 03:02:39 | 00:00:00 | |
| DO3MHA-12 | 2026-09-02 13:31:32 | 48.32486 | 10.88779 | 142° | 9km/h | 1668m | -3.7m/s | 12.4°C | 74.9% | 843.2hPa | 2.7V | 00:00:00 | 03:02:35 | 00:00:00 | |
| DO3MHA-11 | 2026-09-02 13:31:31 | 48.32488 | 10.88777 | 147° | 9km/h | 1672m | -3.7m/s | 12.4°C | 75.0% | 842.6hPa | 2.7V | 00:00:00 | 03:02:34 | 00:00:00 | |
| DO3MHA-12 | 2026-09-02 13:31:27 | 48.32496 | 10.88769 | 143° | 9km/h | 1687m | -3.3m/s | 12.3°C | 75.6% | 841.4hPa | 2.7V | 00:00:00 | 03:02:30 | 00:00:00 | |
| DO3MHA-11 | 2026-09-02 13:31:26 | 48.32498 | 10.88767 | 148° | 9km/h | 1691m | -4.1m/s | 12.2°C | 75.8% | 840.9hPa | 2.7V | 07:16:00 | 03:02:29 | 00:00:00 | |
| DO3MHA-12 | 2026-09-02 13:31:22 | 48.32506 | 10.88760 | 157° | 11km/h | 1707m | -4.1m/s | 12.0°C | 76.8% | 839.5hPa | 2.7V | 00:00:00 | 03:02:25 | 00:00:00 | |
| DO3MHA-11 | 2026-09-02 13:31:21 | 48.32509 | 10.88759 | 158° | 11km/h | 1711m | -3.5m/s | 12.0°C | 76.9% | 839.2hPa | 2.7V | 00:00:00 | 03:02:24 | 00:00:00 | |
| NBG1-10 | 2026-09-02 13:31:18 | 48.32516 | 10.88754 | 156° | 11km/h | 1723m | -3.6m/s | 11.9°C | 77.5% | 837.9hPa | 2.7V | 00:00:00 | 03:02:21 | 00:00:00 | |
| DO3MHA-12 | 2026-09-02 13:31:17 | 48.32518 | 10.88753 | 155° | 9km/h | 1727m | -4.3m/s | 11.9°C | 77.2% | 837.6hPa | 2.7V | 00:00:00 | 03:02:20 | 00:00:00 | |
| DO3MHA-11 | 2026-09-02 13:31:16 | 48.32521 | 10.88751 | 152° | 11km/h | 1732m | -3.6m/s | 11.8°C | 77.3% | 837.3hPa | 2.7V | 00:00:00 | 03:02:19 | 00:00:00 | |
| DO3MHA-12 | 2026-09-02 13:31:12 | 48.32530 | 10.88745 | 153° | 9km/h | 1747m | -3.4m/s | 11.7°C | 78.0% | 835.8hPa | 2.7V | 00:00:00 | 03:02:15 | 00:00:00 | |
| DO3MHA-11 | 2026-09-02 13:31:11 | 48.32532 | 10.88744 | 153° | 9km/h | 1750m | -3.0m/s | 11.7°C | 78.3% | 835.3hPa | 2.7V | 00:00:00 | 03:02:14 | 00:00:00 | |
| DO3MHA-12 | 2026-09-02 13:31:07 | 48.32539 | 10.88737 | 141° | 9km/h | 1764m | -3.3m/s | 11.6°C | 78.8% | 834.1hPa | 2.7V | 00:00:00 | 03:02:10 | 00:00:00 | |
| DO3MHA-11 | 2026-09-02 13:31:06 | 48.32540 | 10.88734 | 131° | 9km/h | 1767m | -3.2m/s | 11.5°C | 78.9% | 833.7hPa | 2.7V | 00:00:00 | 03:02:09 | 00:00:00 | |
| DO3MHA-12 | 2026-09-02 13:31:02 | 48.32549 | 10.88727 | 152° | 13km/h | 1782m | -3.5m/s | 11.4°C | 79.4% | 832.4hPa | 2.7V | 00:00:00 | 03:02:05 | 00:00:00 | |
| DO3MHA-11 | 2026-09-02 13:31:01 | 48.32551 | 10.88725 | 152° | 15km/h | 1785m | -3.8m/s | 11.3°C | 79.6% | 831.9hPa | 2.7V | 00:00:00 | 03:02:04 | 00:00:00 | |
| DO3MHA-12 | 2026-09-02 13:30:57 | 48.32563 | 10.88715 | 142° | 16km/h | 1801m | -4.0m/s | 11.2°C | 80.7% | 830.4hPa | 2.7V | 07:16:00 | 03:02:00 | 00:00:00 | |
| NBG1-10 | 2026-09-02 13:30:56 | 48.32566 | 10.88712 | 139° | 20km/h | 1805m | -3.8m/s | 11.1°C | 80.7% | 830.0hPa | 2.7V | 00:00:00 | 03:01:59 | 00:00:00 | |
| DO3MHA-11 | 2026-09-02 13:30:56 | 48.32566 | 10.88712 | 139° | 18km/h | 1805m | -3.8m/s | 11.1°C | 80.7% | 830.0hPa | 2.7V | 00:00:00 | 03:01:59 | 00:00:00 | |
| DO3MHA-12 | 2026-09-02 13:30:52 | 48.32580 | 10.88695 | 134° | 22km/h | 1822m | -4.2m/s | 11.0°C | 81.4% | 828.3hPa | 2.7V | 00:00:00 | 03:01:55 | 00:00:00 | |
| DO3MHA-11 | 2026-09-02 13:30:51 | 48.32583 | 10.88689 | 131° | 22km/h | 1826m | -3.7m/s | 10.9°C | 81.5% | 827.8hPa | 2.7V | 00:00:00 | 03:01:54 | 00:00:00 | |
| DO3MHA-12 | 2026-09-02 13:30:47 | 48.32596 | 10.88662 | 123° | 22km/h | 1843m | -4.0m/s | 10.8°C | 82.3% | 826.4hPa | 2.7V | 00:00:00 | 03:01:50 | 00:00:00 | |
| DO3MHA-11 | 2026-09-02 13:30:46 | 48.32599 | 10.88655 | 121° | 22km/h | 1847m | -3.7m/s | 10.7°C | 82.4% | 826.0hPa | 2.7V | 07:16:00 | 03:01:49 | 00:00:00 | |
| DO3MHA-12 | 2026-09-02 13:30:42 | 48.32609 | 10.88625 | 110° | 20km/h | 1864m | -4.6m/s | 10.6°C | 83.2% | 824.3hPa | 2.7V | 00:00:00 | 03:01:45 | 00:00:00 | |
| DO3MHA-11 | 2026-09-02 13:30:41 | 48.32611 | 10.88617 | 112° | 20km/h | 1869m | -4.5m/s | 10.5°C | 83.4% | 823.8hPa | 2.7V | 00:00:00 | 03:01:44 | 00:00:00 | |
| DO3MHA-12 | 2026-09-02 13:30:37 | 48.32616 | 10.88587 | 105° | 20km/h | 1889m | -5.1m/s | 10.3°C | 84.2% | 821.8hPa | 2.7V | 00:00:00 | 03:01:40 | 00:00:00 | |
| DO3MHA-11 | 2026-09-02 13:30:36 | 48.32617 | 10.88580 | 103° | 20km/h | 1895m | -4.9m/s | 10.3°C | 84.7% | 821.2hPa | 2.7V | 00:00:00 | 03:01:39 | 00:00:00 | |
| NBG1-10 | 2026-09-02 13:30:34 | 48.32619 | 10.88565 | 106° | 22km/h | 1904m | -4.7m/s | 10.2°C | 84.7% | 820.3hPa | 2.7V | 00:00:00 | 03:01:37 | 00:00:00 | |
| DO3MHA-11 | 2026-09-02 13:30:29 | 48.32629 | 10.88530 | 115° | 22km/h | 1931m | -5.4m/s | 9.9°C | 85.9% | 817.9hPa | 2.7V | 00:00:00 | 03:01:32 | 00:00:00 | |
| DO3MHA-12 | 2026-09-02 13:30:29 | 48.32629 | 10.88530 | 115° | 22km/h | 1931m | -5.4m/s | 9.9°C | 85.9% | 817.9hPa | 2.7V | 00:00:00 | 03:01:32 | 00:00:00 | |
| DO3MHA-11 | 2026-09-02 13:30:24 | 48.32638 | 10.88491 | 99° | 24km/h | 1957m | -4.5m/s | 9.8°C | 85.1% | 815.3hPa | 2.7V | 00:00:00 | 03:01:27 | 00:00:00 | |
| DO3MHA-12 | 2026-09-02 13:30:24 | 48.32638 | 10.88491 | 99° | 22km/h | 1957m | -4.5m/s | 9.8°C | 85.1% | 815.3hPa | 2.7V | 00:00:00 | 03:01:27 | 00:00:00 | |
| DO3MHA-11 | 2026-09-02 13:30:19 | 48.32645 | 10.88447 | 100° | 24km/h | 1977m | -3.9m/s | 9.6°C | 83.7% | 813.2hPa | 2.7V | 00:00:00 | 03:01:22 | 00:00:00 | |
| DO3MHA-12 | 2026-09-02 13:30:18 | 48.32646 | 10.88439 | 107° | 24km/h | 1981m | -3.7m/s | 9.6°C | 84.5% | 812.8hPa | 2.7V | 00:00:00 | 03:01:21 | 00:00:00 | |
| NBG1-10 | 2026-09-02 13:30:12 | 48.32657 | 10.88392 | 111° | 26km/h | 2004m | -3.3m/s | 9.4°C | 85.2% | 810.6hPa | 2.7V | 00:00:00 | 03:01:15 | 00:00:00 | |
| DO3MHA-12 | 2026-09-02 13:30:11 | 48.32660 | 10.88384 | 110° | 26km/h | 2007m | -3.3m/s | 9.4°C | 85.5% | 810.3hPa | 2.7V | 07:17:00 | 03:01:14 | 00:00:00 | |
| DO3MHA-12 | 2026-09-02 13:30:06 | 48.32670 | 10.88339 | 111° | 24km/h | 2024m | -3.3m/s | 9.2°C | 85.6% | 808.6hPa | 2.7V | 00:00:00 | 03:01:09 | 00:00:00 | |
| DO3MHA-11 | 2026-09-02 13:30:01 | 48.32679 | 10.88295 | 107° | 26km/h | 2043m | -3.4m/s | 9.1°C | 85.9% | 806.9hPa | 2.7V | 07:17:00 | 03:01:04 | 00:00:00 | |
| DO3MHA-11 | 2026-09-02 13:29:56 | 48.32687 | 10.88249 | 105° | 27km/h | 2061m | -3.6m/s | 8.9°C | 86.0% | 805.1hPa | 2.7V | 00:00:00 | 03:00:59 | 00:00:00 | |
| DO3MHA-12 | 2026-09-02 13:29:51 | 48.32695 | 10.88198 | 103° | 29km/h | 2079m | -3.7m/s | 8.7°C | 88.2% | 803.3hPa | 2.7V | 00:00:00 | 03:00:54 | 00:00:00 | |
| NBG1-10 | 2026-09-02 13:29:50 | 48.32696 | 10.88187 | 98° | 29km/h | 2082m | -3.7m/s | 8.8°C | 86.5% | 803.0hPa | 2.7V | 07:17:00 | 03:00:53 | 00:00:00 | |
| DO3MHA-11 | 2026-09-02 13:29:46 | 48.32699 | 10.88143 | 92° | 29km/h | 2097m | -3.6m/s | 8.6°C | 86.2% | 801.6hPa | 2.7V | 00:00:00 | 03:00:49 | 00:00:00 | |
| DO3MHA-12 | 2026-09-02 13:29:41 | 48.32697 | 10.88086 | 85° | 29km/h | 2115m | -3.7m/s | 8.4°C | 88.8% | 799.7hPa | 2.7V | 00:00:00 | 03:00:44 | 00:00:00 | |
| DO3MHA-12 | 2026-09-02 13:29:36 | 48.32692 | 10.88029 | 82° | 31km/h | 2131m | -3.4m/s | 8.2°C | 89.8% | 798.0hPa | 2.7V | 00:00:00 | 03:00:39 | 00:00:00 | |
| DO3MHA-12 | 2026-09-02 13:29:31 | 48.32684 | 10.87973 | 73° | 27km/h | 2148m | -2.8m/s | 8.0°C | 91.7% | 796.4hPa | 2.7V | 07:18:00 | 03:00:34 | 00:00:00 | |
| DB0NH | 2026-09-02 13:29:29 | 48.32679 | 10.87954 | 61° | 22km/h | 2153m | -2.9m/s | 8.0°C | 91.1% | 795.9hPa | 2.7V | 00:00:00 | 03:00:32 | 00:00:00 | |
| NBG1-10 | 2026-09-02 13:29:28 | 48.32675 | 10.87945 | 60° | 22km/h | 2156m | -2.4m/s | 8.1°C | 90.4% | 795.6hPa | 2.7V | 00:00:00 | 03:00:31 | 00:00:00 | |
| DO3MHA-12 | 2026-09-02 13:29:26 | 48.32668 | 10.87928 | 61° | 24km/h | 2161m | -2.6m/s | 8.2°C | 88.4% | 795.2hPa | 2.7V | 00:00:00 | 03:00:29 | 00:00:00 | |
| DO3MHA-11 | 2026-09-02 13:29:21 | 48.32652 | 10.87890 | 57° | 18km/h | 2175m | -3.3m/s | 8.3°C | 79.4% | 793.7hPa | 2.7V | 07:18:00 | 03:00:24 | 00:00:00 | |
| DO3MHA-11 | 2026-09-02 13:29:16 | 48.32641 | 10.87859 | 71° | 20km/h | 2191m | -2.2m/s | 8.2°C | 78.0% | 792.2hPa | 2.7V | 00:00:00 | 03:00:19 | 00:00:00 | |
| DO3MHA-11 | 2026-09-02 13:29:11 | 48.32638 | 10.87822 | 89° | 22km/h | 2203m | -2.2m/s | 7.7°C | 88.6% | 791.0hPa | 2.7V | 00:00:00 | 03:00:14 | 00:00:00 | |
| DB0NH | 2026-09-02 13:29:09 | 48.32638 | 10.87805 | 83° | 24km/h | 2208m | -2.6m/s | 7.6°C | 90.3% | 790.4hPa | 2.7V | 00:00:00 | 03:00:12 | 00:00:00 | |
| DO3MHA-11 | 2026-09-02 13:29:06 | 48.32635 | 10.87782 | 77° | 22km/h | 2217m | -2.9m/s | 7.5°C | 90.6% | 789.7hPa | 2.7V | 00:00:00 | 03:00:09 | 00:00:00 | |
| DO3MHA-11 | 2026-09-02 13:29:01 | 48.32631 | 10.87741 | 81° | 24km/h | 2229m | -2.3m/s | 7.5°C | 88.9% | 788.5hPa | 2.7V | 00:00:00 | 03:00:04 | 00:00:00 | |
| DO3MHA-12 | 2026-09-02 13:28:56 | 48.32630 | 10.87696 | 91° | 26km/h | 2244m | -3.1m/s | 7.3°C | 92.6% | 787.2hPa | 2.7V | 00:00:00 | 02:59:59 | 00:00:00 | |
| DO3MHA-12 | 2026-09-02 13:28:51 | 48.32630 | 10.87647 | 93° | 27km/h | 2260m | -2.7m/s | 7.1°C | 94.4% | 785.5hPa | 2.7V | 07:18:00 | 02:59:54 | 00:00:00 | |
| DB0NH | 2026-09-02 13:28:49 | 48.32630 | 10.87626 | 85° | 33km/h | 2265m | -2.9m/s | 7.2°C | 89.7% | 785.0hPa | 2.7V | 07:18:00 | 02:59:52 | 00:00:00 | |
| DO3MHA-12 | 2026-09-02 13:28:46 | 48.32629 | 10.87596 | 89° | 31km/h | 2274m | -1.9m/s | 7.2°C | 87.1% | 784.2hPa | 2.7V | 00:00:00 | 02:59:49 | 00:00:00 | |
| NBG1-10 | 2026-09-02 13:28:44 | 48.32629 | 10.87572 | 92° | 37km/h | 2278m | -2.4m/s | 7.1°C | 90.1% | 783.6hPa | 2.7V | 00:00:00 | 02:59:47 | 00:00:00 | |
| DO3MHA-12 | 2026-09-02 13:28:41 | 48.32630 | 10.87536 | 90° | 33km/h | 2286m | -2.4m/s | 7.2°C | 77.9% | 783.2hPa | 2.7V | 00:00:00 | 02:59:44 | 00:00:00 | |
| DO3MHA-11 | 2026-09-02 13:28:36 | 48.32630 | 10.87474 | 86° | 40km/h | 2297m | -2.4m/s | 7.4°C | 76.1% | 782.0hPa | 2.7V | 00:00:00 | 02:59:39 | 00:00:00 | |
| DO3MHA-11 | 2026-09-02 13:28:31 | 48.32629 | 10.87399 | 90° | 38km/h | 2310m | -2.5m/s | 7.2°C | 79.6% | 780.8hPa | 2.7V | 00:00:00 | 02:59:34 | 00:00:00 | |
| DB0NH | 2026-09-02 13:28:29 | 48.32629 | 10.87370 | 91° | 38km/h | 2315m | -2.1m/s | 7.1°C | 79.2% | 780.4hPa | 2.7V | 00:00:00 | 02:59:32 | 00:00:00 | |
| DO3MHA-11 | 2026-09-02 13:28:26 | 48.32628 | 10.87326 | 86° | 40km/h | 2323m | -2.7m/s | 7.1°C | 79.2% | 779.6hPa | 2.7V | 00:00:00 | 02:59:29 | 00:00:00 | |
| NBG1-10 | 2026-09-02 13:28:22 | 48.32622 | 10.87267 | 78° | 33km/h | 2333m | -2.8m/s | 7.1°C | 76.9% | 778.6hPa | 2.7V | 00:00:00 | 02:59:25 | 00:00:00 | |
| DO3MHA-12 | 2026-09-02 13:28:21 | 48.32620 | 10.87251 | 76° | 40km/h | 2336m | -2.9m/s | 7.0°C | 76.8% | 778.3hPa | 2.7V | 00:00:00 | 02:59:24 | 00:00:00 | |
| DO3MHA-12 | 2026-09-02 13:28:16 | 48.32605 | 10.87181 | 67° | 35km/h | 2350m | -2.9m/s | 6.9°C | 78.0% | 777.0hPa | 2.7V | 00:00:00 | 02:59:19 | 00:00:00 | |
| DO3MHA-12 | 2026-09-02 13:28:11 | 48.32586 | 10.87123 | 61° | 31km/h | 2365m | -3.2m/s | 6.8°C | 77.8% | 775.6hPa | 2.7V | 07:19:00 | 02:59:14 | 00:00:00 | |
| DB0NH | 2026-09-02 13:28:09 | 48.32578 | 10.87101 | 64° | 29km/h | 2370m | -2.7m/s | 6.7°C | 78.0% | 775.1hPa | 2.7V | 00:00:00 | 02:59:12 | 00:00:00 | |
| DO3MHA-12 | 2026-09-02 13:28:06 | 48.32569 | 10.87070 | 70° | 27km/h | 2379m | -2.9m/s | 6.6°C | 77.9% | 774.2hPa | 2.7V | 00:00:00 | 02:59:09 | 00:00:00 | |
| DO3MHA-12 | 2026-09-02 13:28:01 | 48.32559 | 10.87022 | 77° | 26km/h | 2391m | -2.4m/s | 6.5°C | 79.3% | 772.8hPa | 2.7V | 00:00:00 | 02:59:04 | 00:00:00 | |
| NBG1-10 | 2026-09-02 13:28:00 | 48.32558 | 10.87012 | 79° | 33km/h | 2393m | -2.2m/s | 6.5°C | 79.4% | 772.6hPa | 2.7V | 00:00:00 | 02:59:03 | 00:00:00 | |
| DO3MHA-12 | 2026-09-02 13:27:56 | 48.32554 | 10.86972 | 85° | 29km/h | 2402m | -2.7m/s | 6.5°C | 76.3% | 771.7hPa | 2.7V | 00:00:00 | 02:58:59 | 00:00:00 | |
| DO3MHA-12 | 2026-09-02 13:27:51 | 48.32552 | 10.86915 | 90° | 35km/h | 2414m | -2.1m/s | 6.3°C | 77.3% | 770.7hPa | 2.7V | 00:00:00 | 02:58:54 | 00:00:00 | |
| DB0NH | 2026-09-02 13:27:49 | 48.32551 | 10.86890 | 89° | 40km/h | 2419m | -2.4m/s | 6.2°C | 79.8% | 770.2hPa | 2.7V | 00:00:00 | 02:58:52 | 00:00:00 | |
| DO3MHA-11 | 2026-09-02 13:27:46 | 48.32551 | 10.86848 | 89° | 38km/h | 2425m | -2.4m/s | 6.2°C | 79.7% | 769.6hPa | 2.7V | 00:00:00 | 02:58:49 | 00:00:00 | |
| DO3MHA-12 | 2026-09-02 13:27:41 | 48.32549 | 10.86776 | 84° | 40km/h | 2436m | -3.0m/s | 6.0°C | 80.2% | 768.3hPa | 2.7V | 00:00:00 | 02:58:44 | 00:00:00 | |
| NBG1-10 | 2026-09-02 13:27:38 | 48.32546 | 10.86729 | 80° | 40km/h | 2444m | -2.3m/s | 6.0°C | 80.3% | 767.6hPa | 2.7V | 00:00:00 | 02:58:41 | 00:00:00 | |
| DO3MHA-12 | 2026-09-02 13:27:36 | 48.32543 | 10.86698 | 80° | 42km/h | 2449m | -2.4m/s | 5.9°C | 80.3% | 767.1hPa | 2.7V | 00:00:00 | 02:58:39 | 00:00:00 | |
| DO3MHA-12 | 2026-09-02 13:27:31 | 48.32532 | 10.86618 | 75° | 44km/h | 2461m | -3.0m/s | 5.8°C | 81.7% | 765.8hPa | 2.7V | 07:20:00 | 02:58:34 | 00:00:00 | |
| DB0NH | 2026-09-02 13:27:29 | 48.32526 | 10.86587 | 74° | 37km/h | 2467m | -3.1m/s | 5.8°C | 81.1% | 765.4hPa | 2.7V | 00:00:00 | 02:58:32 | 00:00:00 | |
| DO3MHA-12 | 2026-09-02 13:27:26 | 48.32516 | 10.86539 | 73° | 40km/h | 2475m | -2.4m/s | 5.8°C | 78.7% | 764.6hPa | 2.7V | 00:00:00 | 02:58:29 | 00:00:00 | |
| DO3MHA-12 | 2026-09-02 13:27:21 | 48.32499 | 10.86468 | 69° | 35km/h | 2485m | -2.2m/s | 5.8°C | 78.1% | 763.7hPa | 2.7V | 00:00:00 | 02:58:24 | 00:00:00 | |
| DO3MHA-11 | 2026-09-02 13:27:16 | 48.32483 | 10.86407 | 70° | 33km/h | 2497m | -2.2m/s | 5.6°C | 79.7% | 762.5hPa | 2.7V | 00:00:00 | 02:58:19 | 00:00:00 | |
| DG1MJG | 2026-09-02 13:27:15 | 48.32483 | 10.86407 | 70° | 33km/h | 2497m | -2.3m/s | 5.7°C | 0% | 0hPa | 2.7V | 07:21:00 | 00:00:00 | 00:00:00 | |
| DO3MHA-11 | 2026-09-02 13:27:11 | 48.32471 | 10.86349 | 78° | 29km/h | 2509m | -3.1m/s | 5.5°C | 77.9% | 761.3hPa | 2.7V | 00:00:00 | 02:58:14 | 00:00:00 | |
| DB0NH | 2026-09-02 13:27:09 | 48.32469 | 10.86327 | 80° | 31km/h | 2516m | -3.5m/s | 5.5°C | 76.6% | 760.8hPa | 2.7V | 00:00:00 | 02:58:12 | 00:00:00 | |
| DO3MHA-11 | 2026-09-02 13:27:06 | 48.32465 | 10.86293 | 81° | 31km/h | 2525m | -3.4m/s | 5.4°C | 76.4% | 759.8hPa | 2.7V | 00:00:00 | 02:58:09 | 00:00:00 | |
| DO3MHA-12 | 2026-09-02 13:27:01 | 48.32460 | 10.86236 | 86° | 31km/h | 2541m | -3.0m/s | 5.3°C | 77.4% | 758.2hPa | 2.7V | 00:00:00 | 02:58:04 | 00:00:00 | |
| DO3MHA-12 | 2026-09-02 13:26:56 | 48.32458 | 10.86177 | 90° | 33km/h | 2555m | -2.8m/s | 5.2°C | 74.3% | 756.9hPa | 2.7V | 00:00:00 | 02:57:59 | 00:00:00 | |
| NBG1-10 | 2026-09-02 13:26:54 | 48.32459 | 10.86152 | 92° | 35km/h | 2560m | -2.5m/s | 5.1°C | 73.5% | 756.4hPa | 2.7V | 07:20:00 | 02:57:57 | 00:00:00 | |
| DO3MHA-12 | 2026-09-02 13:26:51 | 48.32460 | 10.86114 | 95° | 35km/h | 2567m | -2.4m/s | 5.3°C | 70.5% | 755.9hPa | 2.7V | 07:20:00 | 02:57:54 | 00:00:00 | |
| DO3MHA-12 | 2026-09-02 13:26:46 | 48.32465 | 10.86048 | 98° | 37km/h | 2577m | -2.1m/s | 5.2°C | 66.5% | 754.8hPa | 2.7V | 00:00:00 | 02:57:49 | 00:00:00 | |
| DG1MJG | 2026-09-02 13:26:45 | 48.32465 | 10.86048 | 98° | 37km/h | 2577m | -2.2m/s | 5.3°C | 0% | 0hPa | 2.7V | 07:21:00 | 00:00:00 | 00:00:00 | |
| DL6DJ-15 | 2026-09-02 13:26:43 | 48.32470 | 10.85994 | 97° | 35km/h | 2585m | -2.2m/s | 5.2°C | 63.9% | 754.0hPa | 2.7V | 00:00:00 | 00:00:00 | 00:00:00 | |
| DO3MHA-11 | 2026-09-02 13:26:41 | 48.32471 | 10.85981 | 98° | 35km/h | 2587m | -2.1m/s | 5.0°C | 72.2% | 753.8hPa | 2.7V | 07:21:00 | 02:57:44 | 00:00:00 | |
| DO3MHA-11 | 2026-09-02 13:26:36 | 48.32474 | 10.85916 | 91° | 35km/h | 2598m | -2.2m/s | 5.2°C | 62.6% | 752.7hPa | 2.7V | 00:00:00 | 02:57:39 | 00:00:00 | |
| NBG1-10 | 2026-09-02 13:26:32 | 48.32475 | 10.85865 | 94° | 44km/h | 2606m | -2.5m/s | 5.3°C | 60.4% | 752.0hPa | 2.7V | 00:00:00 | 02:57:35 | 00:00:00 | |
| DO3MHA-11 | 2026-09-02 13:26:31 | 48.32475 | 10.85851 | 93° | 38km/h | 2608m | -3.1m/s | 5.4°C | 57.0% | 751.7hPa | 2.7V | 00:00:00 | 02:57:34 | 00:00:00 | |
| DB0NH | 2026-09-02 13:26:29 | 48.32476 | 10.85823 | 93° | 46km/h | 2615m | -3.7m/s | 5.5°C | 51.9% | 751.3hPa | 2.7V | 00:00:00 | 02:57:32 | 00:00:00 | |
| DO3MHA-11 | 2026-09-02 13:26:26 | 48.32477 | 10.85776 | 92° | 44km/h | 2625m | -2.9m/s | 5.4°C | 52.4% | 750.5hPa | 2.7V | 00:00:00 | 02:57:29 | 00:00:00 | |
| DO3MHA-11 | 2026-09-02 13:26:21 | 48.32479 | 10.85693 | 92° | 46km/h | 2640m | -3.4m/s | 5.2°C | 52.8% | 748.9hPa | 2.7V | 00:00:00 | 02:57:24 | 00:00:00 | |
| DO3MHA-12 | 2026-09-02 13:26:16 | 48.32480 | 10.85607 | 93° | 47km/h | 2655m | -2.3m/s | 5.1°C | 57.9% | 747.6hPa | 2.7V | 00:00:00 | 02:57:19 | 00:00:00 | |
| DG1MJG | 2026-09-02 13:26:14 | 48.32480 | 10.85590 | 89° | 49km/h | 2657m | -2.5m/s | 5.4°C | 45.5% | 747.4hPa | 2.7V | 07:21:00 | 00:00:00 | 00:00:00 | |
| DO3MHA-12 | 2026-09-02 13:26:11 | 48.32477 | 10.85517 | 87° | 47km/h | 2668m | -2.2m/s | 5.3°C | 46.8% | 746.5hPa | 2.7V | 07:21:00 | 02:57:14 | 00:00:00 | |
| NBG1-10 | 2026-09-02 13:26:10 | 48.32477 | 10.85499 | 89° | 51km/h | 2670m | -2.1m/s | 5.2°C | 48.7% | 746.4hPa | 2.7V | 00:00:00 | 02:57:13 | 00:00:00 | |
| DB0NH | 2026-09-02 13:26:09 | 48.32477 | 10.85482 | 90° | 51km/h | 2672m | -2.0m/s | 5.1°C | 48.7% | 746.3hPa | 2.7V | 07:21:00 | 02:57:12 | 00:00:00 | |
| DO3MHA-12 | 2026-09-02 13:26:06 | 48.32475 | 10.85427 | 88° | 49km/h | 2679m | -2.1m/s | 5.2°C | 49.0% | 745.6hPa | 2.7V | 00:00:00 | 02:57:09 | 00:00:00 | |
| DB0ND-19 | 2026-09-02 13:25:50 | 48.32446 | 10.85051 | 76° | 53km/h | 2721m | -2.2m/s | 5.3°C | 35.5% | 741.8hPa | 2.7V | 00:00:00 | 00:00:00 | 00:00:00 | |
| DB0NH | 2026-09-02 13:25:49 | 48.32453 | 10.85091 | 76° | 51km/h | 2716m | -2.1m/s | 5.4°C | 35.8% | 742.1hPa | 2.7V | 00:00:00 | 02:56:52 | 00:00:00 | |
| NBG1-10 | 2026-09-02 13:25:48 | 48.32449 | 10.85071 | 78° | 49km/h | 2719m | -2.1m/s | 5.3°C | 34.6% | 742.1hPa | 2.7V | 00:00:00 | 02:56:51 | 00:00:00 | |
| DO3MHA-11 | 2026-09-02 13:25:46 | 48.32443 | 10.85031 | 76° | 53km/h | 2723m | -2.2m/s | 5.3°C | 34.7% | 741.8hPa | 2.7V | 00:00:00 | 02:56:49 | 00:00:00 | |
| DG1MJG | 2026-09-02 13:25:43 | 48.32436 | 10.84992 | 73° | 53km/h | 2728m | -2.3m/s | 5.3°C | 34.6% | 741.2hPa | 2.7V | 07:22:00 | 00:00:00 | 00:00:00 | |
| DL6DJ-15 | 2026-09-02 13:25:41 | 48.32420 | 10.84917 | 70° | 49km/h | 2736m | -2.0m/s | 5.3°C | 31.6% | 740.5hPa | 2.7V | 00:00:00 | 00:00:00 | 00:00:00 | |
| DO3MHA-12 | 2026-09-02 13:25:36 | 48.32405 | 10.84845 | 74° | 49km/h | 2744m | -2.1m/s | 5.4°C | 30.0% | 739.7hPa | 2.7V | 00:00:00 | 02:56:39 | 00:00:00 | |
| DO3MHA-12 | 2026-09-02 13:25:31 | 48.32387 | 10.84756 | 73° | 47km/h | 2755m | -2.4m/s | 5.4°C | 26.0% | 738.6hPa | 2.7V | 07:22:00 | 02:56:34 | 00:00:00 | |
| DB0NH | 2026-09-02 13:25:29 | 48.32380 | 10.84721 | 73° | 44km/h | 2759m | -2.2m/s | 5.4°C | 25.8% | 738.3hPa | 2.7V | 00:00:00 | 02:56:32 | 00:00:00 | |
| DO3MHA-12 | 2026-09-02 13:25:26 | 48.32370 | 10.84671 | 76° | 44km/h | 2766m | -2.4m/s | 5.3°C | 25.4% | 737.7hPa | 2.7V | 00:00:00 | 02:56:29 | 00:00:00 | |
| DO3MHA-12 | 2026-09-02 13:25:21 | 48.32358 | 10.84592 | 80° | 42km/h | 2779m | -2.5m/s | 5.4°C | 22.1% | 736.7hPa | 2.7V | 00:00:00 | 02:56:24 | 00:00:00 | |
| DB0ND-19 | 2026-09-02 13:25:20 | 48.32354 | 10.84560 | 82° | 42km/h | 2783m | -2.3m/s | 5.4°C | 22.6% | 736.2hPa | 2.7V | 00:00:00 | 00:00:00 | 00:00:00 | |
| DO3MHA-11 | 2026-09-02 13:25:16 | 48.32350 | 10.84511 | 85° | 44km/h | 2791m | -2.5m/s | 5.3°C | 22.8% | 735.5hPa | 2.7V | 00:00:00 | 02:56:19 | 00:00:00 | |
| DG1MJG | 2026-09-02 13:25:12 | 48.32348 | 10.84461 | 89° | 46km/h | 2798m | -2.6m/s | 5.5°C | 17.3% | 734.9hPa | 2.7V | 07:22:00 | 00:00:00 | 00:00:00 | |
| DO3MHA-11 | 2026-09-02 13:25:11 | 48.32347 | 10.84426 | 90° | 47km/h | 2803m | -2.3m/s | 5.5°C | 17.3% | 734.3hPa | 2.7V | 00:00:00 | 02:56:14 | 00:00:00 | |
| DB0NH | 2026-09-02 13:25:09 | 48.32347 | 10.84390 | 92° | 53km/h | 2808m | -2.2m/s | 5.6°C | 14.5% | 734.0hPa | 2.7V | 00:00:00 | 02:56:12 | 00:00:00 | |
| DO3MHA-11 | 2026-09-02 13:25:06 | 48.32347 | 10.84334 | 91° | 53km/h | 2815m | -2.4m/s | 5.5°C | 14.7% | 733.4hPa | 2.7V | 00:00:00 | 02:56:09 | 00:00:00 | |
| NBG1-10 | 2026-09-02 13:25:04 | 48.32347 | 10.84294 | 90° | 55km/h | 2819m | -2.7m/s | 5.4°C | 16.0% | 732.8hPa | 2.7V | 00:00:00 | 02:56:07 | 00:00:00 | |
| DB0ND-19 | 2026-09-02 13:24:48 | 48.32326 | 10.83965 | 81° | 53km/h | 2862m | -3.0m/s | 5.3°C | 14.8% | 729.0hPa | 2.7V | 00:00:00 | 00:00:00 | 00:00:00 | |
| DO3MHA-11 | 2026-09-02 13:24:46 | 48.32322 | 10.83924 | 79° | 53km/h | 2868m | -2.7m/s | 5.2°C | 15.3% | 728.6hPa | 2.7V | 00:00:00 | 02:55:49 | 00:00:00 | |
| NBG1-10 | 2026-09-02 13:24:42 | 48.32311 | 10.83845 | 79° | 49km/h | 2879m | -2.8m/s | 5.1°C | 16.4% | 727.4hPa | 2.7V | 00:00:00 | 02:55:45 | 00:00:00 | |
| DO3MHA-12 | 2026-09-02 13:24:41 | 48.32309 | 10.83825 | 80° | 53km/h | 2882m | -3.2m/s | 5.1°C | 16.5% | 727.2hPa | 2.7V | 00:00:00 | 02:55:44 | 00:00:00 | |
| DL6DJ-15 | 2026-09-02 13:24:38 | 48.32301 | 10.83766 | 79° | 51km/h | 2891m | -3.2m/s | 5.1°C | 17.2% | 726.4hPa | 2.7V | 00:00:00 | 00:00:00 | 00:00:00 | |
| DO3MHA-11 | 2026-09-02 13:24:36 | 48.32296 | 10.83727 | 79° | 51km/h | 2898m | -3.1m/s | 5.0°C | 18.7% | 725.8hPa | 2.7V | 00:00:00 | 02:55:39 | 00:00:00 | |
| DO3MHA-11 | 2026-09-02 13:24:31 | 48.32283 | 10.83632 | 78° | 49km/h | 2914m | -3.3m/s | 4.9°C | 19.7% | 724.4hPa | 2.7V | 00:00:00 | 02:55:34 | 00:00:00 | |
| DB0NH | 2026-09-02 13:24:29 | 48.32277 | 10.83595 | 78° | 44km/h | 2920m | -2.7m/s | 4.9°C | 20.1% | 723.9hPa | 2.7V | 00:00:00 | 02:55:32 | 00:00:00 | |
| DO3MHA-11 | 2026-09-02 13:24:26 | 48.32268 | 10.83542 | 75° | 46km/h | 2930m | -3.7m/s | 4.8°C | 20.2% | 723.1hPa | 2.7V | 00:00:00 | 02:55:29 | 00:00:00 | |
| DO3MHA-12 | 2026-09-02 13:24:21 | 48.32253 | 10.83459 | 75° | 44km/h | 2947m | -3.3m/s | 4.7°C | 20.6% | 721.4hPa | 2.7V | 00:00:00 | 02:55:24 | 00:00:00 | |
| NBG1-10 | 2026-09-02 13:24:20 | 48.32249 | 10.83443 | 72° | 40km/h | 2951m | -3.8m/s | 4.7°C | 20.6% | 721.2hPa | 2.7V | 00:00:00 | 02:55:23 | 00:00:00 | |
| DB0ND-19 | 2026-09-02 13:24:17 | 48.32240 | 10.83395 | 73° | 42km/h | 2961m | -3.3m/s | 4.7°C | 20.3% | 720.4hPa | 2.7V | 00:00:00 | 00:00:00 | 00:00:00 | |
| DO3MHA-12 | 2026-09-02 13:24:16 | 48.32237 | 10.83380 | 74° | 40km/h | 2965m | -3.2m/s | 4.6°C | 20.8% | 720.0hPa | 2.7V | 00:00:00 | 02:55:19 | 00:00:00 | |
| DO3MHA-12 | 2026-09-02 13:24:11 | 48.32226 | 10.83306 | 81° | 38km/h | 2983m | -3.4m/s | 4.5°C | 21.0% | 718.5hPa | 2.7V | 07:23:00 | 02:55:14 | 00:00:00 | |
| DB0NH | 2026-09-02 13:24:09 | 48.32223 | 10.83277 | 83° | 42km/h | 2990m | -3.2m/s | 4.5°C | 21.2% | 717.9hPa | 2.7V | 00:00:00 | 02:55:12 | 00:00:00 | |
| DL6DJ-15 | 2026-09-02 13:24:07 | 48.32221 | 10.83248 | 87° | 38km/h | 2996m | -3.5m/s | 4.4°C | 20.8% | 717.3hPa | 2.7V | 00:00:00 | 00:00:00 | 00:00:00 | |
| DO3MHA-12 | 2026-09-02 13:24:06 | 48.32221 | 10.83233 | 89° | 38km/h | 3000m | -3.7m/s | 4.4°C | 21.4% | 716.9hPa | 2.7V | 00:00:00 | 02:55:09 | 00:00:00 | |
| DO3MHA-12 | 2026-09-02 13:24:01 | 48.32222 | 10.83158 | 93° | 44km/h | 3018m | -3.4m/s | 4.2°C | 21.6% | 715.6hPa | 2.7V | 00:00:00 | 02:55:04 | 00:00:00 | |
| NBG1-10 | 2026-09-02 13:23:58 | 48.32224 | 10.83108 | 97° | 49km/h | 3028m | -3.3m/s | 4.1°C | 21.8% | 714.5hPa | 2.7V | 07:23:00 | 02:55:01 | 00:00:00 | |
| DO3MHA-11 | 2026-09-02 13:23:56 | 48.32226 | 10.83074 | 93° | 46km/h | 3035m | -3.5m/s | 4.0°C | 21.9% | 713.9hPa | 2.7V | 00:00:00 | 02:54:59 | 00:00:00 | |
| DO3MHA-11 | 2026-09-02 13:23:51 | 48.32230 | 10.82988 | 94° | 47km/h | 3054m | -3.6m/s | 3.9°C | 22.1% | 712.3hPa | 2.7V | 00:00:00 | 02:54:54 | 00:00:00 | |
| DB0NH | 2026-09-02 13:23:49 | 48.32232 | 10.82952 | 93° | 49km/h | 3062m | -3.9m/s | 3.8°C | 22.3% | 711.7hPa | 2.7V | 00:00:00 | 02:54:52 | 00:00:00 | |
| DO3MHA-11 | 2026-09-02 13:23:46 | 48.32234 | 10.82897 | 94° | 49km/h | 3074m | -3.9m/s | 3.8°C | 22.3% | 710.7hPa | 2.7V | 00:00:00 | 02:54:49 | 00:00:00 | |
| DO3MHA-12 | 2026-09-02 13:23:41 | 48.32238 | 10.82801 | 92° | 55km/h | 3092m | -3.6m/s | 3.6°C | 22.5% | 709.1hPa | 2.7V | 00:00:00 | 02:54:44 | 00:00:00 | |
| DL9SK-14 | 2026-09-02 13:23:38 | 48.32237 | 10.82739 | 86° | 55km/h | 3103m | -3.7m/s | 3.6°C | 22.0% | 708.1hPa | 2.7V | 00:00:00 | 00:00:00 | 00:00:00 | |
| DO3MHA-12 | 2026-09-02 13:23:36 | 48.32235 | 10.82698 | 85° | 55km/h | 3110m | -3.7m/s | 3.5°C | 22.6% | 707.4hPa | 2.7V | 00:00:00 | 02:54:39 | 00:00:00 | |
| DO3MHA-12 | 2026-09-02 13:23:31 | 48.32225 | 10.82597 | 80° | 49km/h | 3129m | -4.0m/s | 3.3°C | 22.6% | 705.9hPa | 2.7V | 07:24:00 | 02:54:34 | 00:00:00 | |
| DO3MHA-12 | 2026-09-02 13:23:26 | 48.32214 | 10.82505 | 81° | 46km/h | 3148m | -3.8m/s | 3.2°C | 22.5% | 704.4hPa | 2.7V | 00:00:00 | 02:54:29 | 00:00:00 | |
| DO3MHA-11 | 2026-09-02 13:23:21 | 48.32206 | 10.82421 | 86° | 44km/h | 3167m | -3.7m/s | 3.1°C | 22.5% | 702.7hPa | 2.7V | 07:24:00 | 02:54:24 | 00:00:00 | |
| DB0NH | 2026-09-02 13:23:19 | 48.32205 | 10.82388 | 88° | 51km/h | 3174m | -3.7m/s | 3.1°C | 22.6% | 702.0hPa | 2.7V | 07:24:00 | 02:54:22 | 00:00:00 | |
| DO3MHA-11 | 2026-09-02 13:23:16 | 48.32205 | 10.82337 | 90° | 46km/h | 3185m | -3.7m/s | 3.0°C | 22.7% | 701.1hPa | 2.7V | 00:00:00 | 02:54:19 | 00:00:00 | |
| NBG1-10 | 2026-09-02 13:23:14 | 48.32205 | 10.82303 | 92° | 51km/h | 3193m | -3.7m/s | 2.9°C | 22.7% | 700.5hPa | 2.7V | 00:00:00 | 02:54:17 | 00:00:00 | |
| DO3MHA-11 | 2026-09-02 13:23:11 | 48.32206 | 10.82250 | 94° | 49km/h | 3204m | -3.7m/s | 2.8°C | 22.7% | 699.5hPa | 2.7V | 00:00:00 | 02:54:14 | 00:00:00 | |
| DL9SK-14 | 2026-09-02 13:23:07 | 48.32211 | 10.82177 | 95° | 49km/h | 3219m | -3.8m/s | 2.8°C | 22.2% | 698.3hPa | 2.7V | 00:00:00 | 00:00:00 | 00:00:00 | |
| DO3MHA-11 | 2026-09-02 13:23:06 | 48.32212 | 10.82158 | 96° | 51km/h | 3223m | -3.7m/s | 2.7°C | 22.8% | 697.9hPa | 2.7V | 00:00:00 | 02:54:09 | 00:00:00 | |
| DL6DJ-15 | 2026-09-02 13:23:05 | 48.32217 | 10.82081 | 95° | 51km/h | 3237m | -3.7m/s | 2.6°C | 22.3% | 696.7hPa | 2.7V | 00:00:00 | 00:00:00 | 00:00:00 | |
| DB0ND-19 | 2026-09-02 13:22:44 | 48.32236 | 10.81700 | 89° | 60km/h | 3304m | -3.8m/s | 2.0°C | 23.7% | 690.8hPa | 2.7V | 00:00:00 | 00:00:00 | 00:00:00 | |
| DO3MHA-12 | 2026-09-02 13:22:41 | 48.32234 | 10.81630 | 87° | 62km/h | 3315m | -3.7m/s | 1.9°C | 25.2% | 689.8hPa | 2.7V | 00:00:00 | 02:53:44 | 00:00:00 | |
| DL9SK-14 | 2026-09-02 13:22:37 | 48.32226 | 10.81515 | 81° | 58km/h | 3334m | -3.5m/s | 1.8°C | 24.8% | 688.3hPa | 2.7V | 00:00:00 | 00:00:00 | 00:00:00 | |
| DO3MHA-11 | 2026-09-02 13:22:36 | 48.32226 | 10.81515 | 82° | 58km/h | 3334m | -3.5m/s | 1.7°C | 25.5% | 688.3hPa | 2.7V | 00:00:00 | 02:53:39 | 00:00:00 | |
| DO3MHA-12 | 2026-09-02 13:22:31 | 48.32213 | 10.81407 | 78° | 53km/h | 3352m | -3.6m/s | 1.6°C | 26.1% | 686.7hPa | 2.7V | 00:00:00 | 02:53:34 | 00:00:00 | |
| DO3MHA-11 | 2026-09-02 13:22:30 | 48.32210 | 10.81386 | 78° | 51km/h | 3356m | -3.7m/s | 1.6°C | 26.2% | 686.5hPa | 2.7V | 00:00:00 | 02:53:33 | 00:00:00 | |
| DO3MHA-12 | 2026-09-02 13:22:26 | 48.32198 | 10.81309 | 78° | 47km/h | 3370m | -3.5m/s | 1.5°C | 26.4% | 685.2hPa | 2.7V | 00:00:00 | 02:53:29 | 00:00:00 | |
| DO3MHA-11 | 2026-09-02 13:22:25 | 48.32195 | 10.81291 | 79° | 47km/h | 3374m | -3.7m/s | 1.5°C | 26.5% | 684.7hPa | 2.7V | 00:00:00 | 02:53:28 | 00:00:00 | |
| DO3MHA-11 | 2026-09-02 13:22:20 | 48.32188 | 10.81204 | 88° | 46km/h | 3392m | -3.5m/s | 1.4°C | 26.5% | 683.3hPa | 2.7V | 00:00:00 | 02:53:23 | 00:00:00 | |
| NBG1-10 | 2026-09-02 13:22:19 | 48.32188 | 10.81186 | 89° | 57km/h | 3395m | -3.5m/s | 1.3°C | 26.4% | 683.1hPa | 2.7V | 00:00:00 | 02:53:22 | 00:00:00 | |
| DO3MHA-11 | 2026-09-02 13:22:15 | 48.32188 | 10.81115 | 93° | 51km/h | 3409m | -3.5m/s | 1.2°C | 25.9% | 681.8hPa | 2.7V | 00:00:00 | 02:53:18 | 00:00:00 | |
| DB0ND-19 | 2026-09-02 13:22:13 | 48.32190 | 10.81078 | 92° | 49km/h | 3416m | -3.6m/s | 1.2°C | 24.1% | 681.2hPa | 2.7V | 00:00:00 | 00:00:00 | 00:00:00 | |
| DO3MHA-12 | 2026-09-02 13:22:11 | 48.32191 | 10.81039 | 94° | 55km/h | 3423m | -3.6m/s | 1.1°C | 23.2% | 680.6hPa | 2.7V | 07:25:00 | 02:53:14 | 00:00:00 | |
| DO3MHA-11 | 2026-09-02 13:22:10 | 48.32192 | 10.81019 | 93° | 55km/h | 3427m | -3.4m/s | 1.1°C | 22.4% | 680.3hPa | 2.7V | 00:00:00 | 02:53:13 | 00:00:00 | |
| DO3MHA-12 | 2026-09-02 13:22:06 | 48.32194 | 10.80934 | 91° | 58km/h | 3441m | -3.4m/s | 1.0°C | 21.6% | 679.2hPa | 2.7V | 00:00:00 | 02:53:09 | 00:00:00 | |
| DO3MHA-11 | 2026-09-02 13:22:05 | 48.32194 | 10.80912 | 91° | 60km/h | 3444m | -3.6m/s | 0.9°C | 21.8% | 678.8hPa | 2.6V | 00:00:00 | 02:53:08 | 00:00:00 | |
| DL6DJ-15 | 2026-09-02 13:22:03 | 48.32194 | 10.80868 | 88° | 58km/h | 3452m | -3.6m/s | 1.0°C | 21.4% | 678.3hPa | 2.6V | 00:00:00 | 00:00:00 | 00:00:00 | |
| DO3MHA-12 | 2026-09-02 13:22:01 | 48.32193 | 10.80822 | 88° | 62km/h | 3459m | -3.6m/s | 0.8°C | 22.1% | 677.5hPa | 2.6V | 00:00:00 | 02:53:04 | 00:00:00 | |
| DO3MHA-11 | 2026-09-02 13:22:00 | 48.32192 | 10.80799 | 87° | 62km/h | 3463m | -3.7m/s | 0.8°C | 22.1% | 677.4hPa | 2.6V | 07:25:00 | 02:53:03 | 00:00:00 | |
| DO3MHA-12 | 2026-09-02 13:21:56 | 48.32186 | 10.80706 | 83° | 62km/h | 3477m | -3.5m/s | 0.7°C | 22.5% | 676.1hPa | 2.6V | 00:00:00 | 02:52:59 | 00:00:00 | |
| DO3MHA-11 | 2026-09-02 13:21:55 | 48.32184 | 10.80683 | 82° | 60km/h | 3481m | -3.4m/s | 0.6°C | 22.8% | 675.7hPa | 2.6V | 00:00:00 | 02:52:58 | 00:00:00 | |
| DO3MHA-12 | 2026-09-02 13:21:51 | 48.32172 | 10.80592 | 78° | 58km/h | 3495m | -3.4m/s | 0.5°C | 22.9% | 674.5hPa | 2.7V | 00:00:00 | 02:52:54 | 00:00:00 | |
| DO3MHA-11 | 2026-09-02 13:21:50 | 48.32169 | 10.80569 | 77° | 57km/h | 3498m | -3.5m/s | 0.5°C | 23.1% | 674.3hPa | 2.7V | 00:00:00 | 02:52:53 | 00:00:00 | |
| DB0NH | 2026-09-02 13:21:49 | 48.32166 | 10.80548 | 77° | 60km/h | 3501m | -3.4m/s | 0.4°C | 23.1% | 674.0hPa | 2.7V | 00:00:00 | 02:52:52 | 00:00:00 | |
| DO3MHA-12 | 2026-09-02 13:21:46 | 48.32155 | 10.80486 | 76° | 53km/h | 3512m | -3.3m/s | 0.4°C | 23.2% | 673.1hPa | 2.7V | 00:00:00 | 02:52:49 | 00:00:00 | |
| DO3MHA-11 | 2026-09-02 13:21:45 | 48.32151 | 10.80467 | 76° | 51km/h | 3515m | -3.3m/s | 0.3°C | 23.5% | 672.8hPa | 2.7V | 00:00:00 | 02:52:48 | 00:00:00 | |
| DB0ND-19 | 2026-09-02 13:21:42 | 48.32139 | 10.80391 | 76° | 49km/h | 3528m | -3.4m/s | 0.3°C | 23.2% | 671.9hPa | 2.7V | 00:00:00 | 00:00:00 | 00:00:00 | |
| DO3MHA-12 | 2026-09-02 13:21:41 | 48.32139 | 10.80391 | 77° | 49km/h | 3528m | -3.4m/s | 0.2°C | 23.9% | 671.8hPa | 2.7V | 00:00:00 | 02:52:44 | 00:00:00 | |
| DO3MHA-11 | 2026-09-02 13:21:40 | 48.32136 | 10.80372 | 77° | 49km/h | 3531m | -3.3m/s | 0.3°C | 23.6% | 671.5hPa | 2.7V | 00:00:00 | 02:52:43 | 00:00:00 | |
| DO3MHA-12 | 2026-09-02 13:21:36 | 48.32125 | 10.80299 | 81° | 49km/h | 3545m | -3.5m/s | 0.2°C | 23.6% | 670.3hPa | 2.7V | 00:00:00 | 02:52:39 | 00:00:00 | |
| DO3MHA-11 | 2026-09-02 13:21:35 | 48.32124 | 10.80281 | 83° | 51km/h | 3548m | -3.3m/s | 0.2°C | 23.6% | 670.1hPa | 2.7V | 00:00:00 | 02:52:38 | 00:00:00 | |
| DL9SK-14 | 2026-09-02 13:21:34 | 48.32123 | 10.80263 | 84° | 47km/h | 3552m | -3.3m/s | 0.2°C | 22.8% | 669.9hPa | 2.7V | 00:00:00 | 00:00:00 | 00:00:00 | |
| DL6DJ-15 | 2026-09-02 13:21:32 | 48.32120 | 10.80205 | 87° | 51km/h | 3562m | -3.5m/s | 0.2°C | 21.9% | 668.9hPa | 2.7V | 00:00:00 | 00:00:00 | 00:00:00 | |
| DO3MHA-12 | 2026-09-02 13:21:31 | 48.32120 | 10.80205 | 88° | 55km/h | 3562m | -3.4m/s | 0.2°C | 22.6% | 668.9hPa | 2.7V | 07:26:00 | 02:52:34 | 00:00:00 | |
| DO3MHA-11 | 2026-09-02 13:21:30 | 48.32119 | 10.80185 | 89° | 57km/h | 3566m | -3.4m/s | 0.2°C | 22.9% | 668.7hPa | 2.7V | 00:00:00 | 02:52:33 | 00:00:00 | |
| DO3MHA-12 | 2026-09-02 13:21:26 | 48.32118 | 10.80099 | 89° | 60km/h | 3579m | -3.3m/s | 0.1°C | 24.2% | 667.5hPa | 2.7V | 00:00:00 | 02:52:29 | 00:00:00 | |
| DO3MHA-11 | 2026-09-02 13:21:25 | 48.32118 | 10.80077 | 89° | 62km/h | 3582m | -3.4m/s | 0.1°C | 24.2% | 667.2hPa | 2.7V | 00:00:00 | 02:52:28 | 00:00:00 | |
| DO3MHA-12 | 2026-09-02 13:21:21 | 48.32116 | 10.79984 | 87° | 66km/h | 3596m | -3.3m/s | 0.0°C | 25.2% | 666.1hPa | 2.7V | 00:00:00 | 02:52:24 | 00:00:00 | |
| DO3MHA-11 | 2026-09-02 13:21:20 | 48.32115 | 10.79960 | 87° | 66km/h | 3599m | -3.2m/s | 0.0°C | 25.5% | 665.8hPa | 2.7V | 07:26:00 | 02:52:23 | 00:00:00 | |
| DO3MHA-12 | 2026-09-02 13:21:16 | 48.32108 | 10.79861 | 83° | 66km/h | 3613m | -3.4m/s | -0.1°C | 26.5% | 664.7hPa | 2.7V | 00:00:00 | 02:52:19 | 00:00:00 | |
| DO3MHA-11 | 2026-09-02 13:21:15 | 48.32106 | 10.79836 | 82° | 66km/h | 3616m | -3.2m/s | -0.1°C | 26.6% | 664.4hPa | 2.7V | 00:00:00 | 02:52:18 | 00:00:00 | |
| NBG1-10 | 2026-09-02 13:21:13 | 48.32099 | 10.79786 | 79° | 57km/h | 3623m | -3.6m/s | -0.2°C | 26.4% | 663.8hPa | 2.7V | 00:00:00 | 02:52:16 | 00:00:00 | |
| DO3MHA-12 | 2026-09-02 13:21:11 | 48.32092 | 10.79737 | 77° | 64km/h | 3630m | -3.3m/s | -0.2°C | 26.8% | 663.2hPa | 2.6V | 00:00:00 | 02:52:14 | 00:00:00 | |
| DO3MHA-11 | 2026-09-02 13:21:10 | 48.32089 | 10.79713 | 77° | 64km/h | 3633m | -3.4m/s | -0.3°C | 26.9% | 662.9hPa | 2.6V | 00:00:00 | 02:52:13 | 00:00:00 | |
| DO3MHA-12 | 2026-09-02 13:21:06 | 48.32071 | 10.79620 | 74° | 58km/h | 3647m | -3.3m/s | -0.3°C | 27.0% | 661.9hPa | 2.7V | 00:00:00 | 02:52:09 | 00:00:00 | |
| DO3MHA-11 | 2026-09-02 13:21:05 | 48.32067 | 10.79598 | 73° | 58km/h | 3650m | -3.3m/s | -0.4°C | 27.3% | 661.7hPa | 2.6V | 00:00:00 | 02:52:08 | 00:00:00 | |
| DG1MJG | 2026-09-02 13:21:03 | 48.32058 | 10.79555 | 73° | 58km/h | 3656m | -3.2m/s | -0.5°C | 26.4% | 661.2hPa | 2.6V | 07:27:00 | 00:00:00 | 00:00:00 | |
| DO3MHA-12 | 2026-09-02 13:21:01 | 48.32049 | 10.79514 | 73° | 53km/h | 3663m | -3.3m/s | -0.4°C | 27.0% | 660.5hPa | 2.6V | 00:00:00 | 02:52:04 | 00:00:00 | |
| DO3MHA-11 | 2026-09-02 13:21:00 | 48.32045 | 10.79494 | 73° | 53km/h | 3666m | -3.3m/s | -0.4°C | 27.0% | 660.3hPa | 2.6V | 00:00:00 | 02:52:03 | 00:00:00 | |
| DO3MHA-12 | 2026-09-02 13:20:56 | 48.32030 | 10.79418 | 77° | 49km/h | 3680m | -3.4m/s | -0.5°C | 27.0% | 659.2hPa | 2.6V | 00:00:00 | 02:51:59 | 00:00:00 | |
| DO3MHA-11 | 2026-09-02 13:20:55 | 48.32027 | 10.79400 | 78° | 49km/h | 3683m | -3.2m/s | -0.6°C | 27.0% | 658.9hPa | 2.6V | 00:00:00 | 02:51:58 | 00:00:00 | |
| DO3MHA-12 | 2026-09-02 13:20:51 | 48.32019 | 10.79325 | 85° | 53km/h | 3696m | -3.1m/s | -0.7°C | 26.9% | 657.9hPa | 2.7V | 07:26:00 | 02:51:54 | 00:00:00 | |
| DO3MHA-11 | 2026-09-02 13:20:50 | 48.32018 | 10.79306 | 86° | 53km/h | 3699m | -3.1m/s | -0.7°C | 26.9% | 657.5hPa | 2.7V | 00:00:00 | 02:51:53 | 00:00:00 | |
| DO3MHA-12 | 2026-09-02 13:20:46 | 48.32016 | 10.79225 | 89° | 58km/h | 3712m | -3.2m/s | -0.8°C | 27.1% | 656.6hPa | 2.7V | 00:00:00 | 02:51:49 | 00:00:00 | |
| DO3MHA-11 | 2026-09-02 13:20:45 | 48.32015 | 10.79203 | 89° | 60km/h | 3715m | -3.2m/s | -0.8°C | 27.0% | 656.2hPa | 2.7V | 00:00:00 | 02:51:48 | 00:00:00 | |
| DO3MHA-12 | 2026-09-02 13:20:41 | 48.32013 | 10.79112 | 86° | 64km/h | 3728m | -3.1m/s | -1.0°C | 27.1% | 655.2hPa | 2.7V | 00:00:00 | 02:51:44 | 00:00:00 | |
| DB0NH | 2026-09-02 13:20:36 | 48.32003 | 10.78991 | 80° | 57km/h | 3743m | -3.1m/s | -1.2°C | 27.8% | 654.0hPa | 2.7V | 00:00:00 | 02:51:39 | 00:00:00 | |
| DO3MHA-11 | 2026-09-02 13:20:35 | 48.32000 | 10.78967 | 79° | 64km/h | 3746m | -2.8m/s | -1.2°C | 27.7% | 653.7hPa | 2.6V | 00:00:00 | 02:51:38 | 00:00:00 | |
| DL9SK-14 | 2026-09-02 13:20:32 | 48.31989 | 10.78896 | 76° | 62km/h | 3755m | -3.0m/s | -1.4°C | 27.2% | 653.1hPa | 2.6V | 00:00:00 | 00:00:00 | 00:00:00 | |
| DO3MHA-12 | 2026-09-02 13:20:31 | 48.31986 | 10.78872 | 77° | 62km/h | 3758m | -3.0m/s | -1.4°C | 28.4% | 652.7hPa | 2.6V | 00:00:00 | 02:51:34 | 00:00:00 | |
| DO3MHA-11 | 2026-09-02 13:20:30 | 48.31982 | 10.78849 | 76° | 62km/h | 3761m | -2.9m/s | -1.4°C | 28.4% | 652.6hPa | 2.6V | 00:00:00 | 02:51:33 | 00:00:00 | |
| DO3MHA-12 | 2026-09-02 13:20:26 | 48.31966 | 10.78759 | 74° | 58km/h | 3773m | -2.9m/s | -1.5°C | 28.4% | 651.5hPa | 2.6V | 00:00:00 | 02:51:29 | 00:00:00 | |
| DO3MHA-12 | 2026-09-02 13:20:21 | 48.31945 | 10.78655 | 74° | 53km/h | 3788m | -2.9m/s | -1.6°C | 28.2% | 650.3hPa | 2.6V | 00:00:00 | 02:51:24 | 00:00:00 | |
| DO3MHA-11 | 2026-09-02 13:20:20 | 48.31941 | 10.78635 | 75° | 51km/h | 3791m | -2.9m/s | -1.6°C | 28.2% | 650.2hPa | 2.7V | 00:00:00 | 02:51:23 | 00:00:00 | |
| DO3MHA-12 | 2026-09-02 13:20:16 | 48.31928 | 10.78559 | 77° | 49km/h | 3803m | -2.9m/s | -1.6°C | 28.4% | 649.2hPa | 2.7V | 00:00:00 | 02:51:19 | 00:00:00 | |
| DO3MHA-11 | 2026-09-02 13:20:15 | 48.31925 | 10.78540 | 79° | 49km/h | 3806m | -2.9m/s | -1.6°C | 28.3% | 648.9hPa | 2.7V | 00:00:00 | 02:51:18 | 00:00:00 | |
| DO3MHA-12 | 2026-09-02 13:20:11 | 48.31918 | 10.78466 | 85° | 51km/h | 3817m | -2.8m/s | -1.7°C | 28.6% | 648.0hPa | 2.7V | 07:27:00 | 02:51:14 | 00:00:00 | |
| DO3MHA-11 | 2026-09-02 13:20:10 | 48.31917 | 10.78447 | 86° | 51km/h | 3820m | -3.1m/s | -1.7°C | 28.8% | 647.7hPa | 2.7V | 00:00:00 | 02:51:13 | 00:00:00 | |
| NBG1-10 | 2026-09-02 13:20:07 | 48.31915 | 10.78390 | 89° | 60km/h | 3829m | -2.9m/s | -1.8°C | 28.8% | 647.1hPa | 2.6V | 07:27:00 | 02:51:10 | 00:00:00 | |
| DO3MHA-12 | 2026-09-02 13:20:06 | 48.31915 | 10.78371 | 90° | 55km/h | 3832m | -3.1m/s | -1.8°C | 28.9% | 646.7hPa | 2.6V | 00:00:00 | 02:51:09 | 00:00:00 | |
| DO3MHA-11 | 2026-09-02 13:20:05 | 48.31915 | 10.78351 | 90° | 55km/h | 3835m | -2.8m/s | -1.9°C | 28.9% | 646.5hPa | 2.7V | 00:00:00 | 02:51:08 | 00:00:00 | |
| DL9SK-14 | 2026-09-02 13:20:01 | 48.31915 | 10.78245 | 90° | 58km/h | 3850m | -3.0m/s | -2.0°C | 28.1% | 645.4hPa | 2.7V | 00:00:00 | 00:00:00 | 00:00:00 | |
| DL6DJ-15 | 2026-09-02 13:19:59 | 48.31916 | 10.78222 | 89° | 60km/h | 3852m | -2.9m/s | -2.1°C | 28.2% | 645.1hPa | 2.7V | 00:00:00 | 00:00:00 | 00:00:00 | |
| DO3MHA-12 | 2026-09-02 13:19:56 | 48.31915 | 10.78151 | 89° | 64km/h | 3861m | -2.8m/s | -2.1°C | 29.4% | 644.4hPa | 2.7V | 00:00:00 | 02:50:59 | 00:00:00 | |
| DO3MHA-11 | 2026-09-02 13:19:55 | 48.31914 | 10.78127 | 88° | 64km/h | 3864m | -2.9m/s | -2.1°C | 29.6% | 644.1hPa | 2.7V | 00:00:00 | 02:50:58 | 00:00:00 | |
| DO3MHA-12 | 2026-09-02 13:19:51 | 48.31909 | 10.78029 | 84° | 66km/h | 3875m | -2.9m/s | -2.3°C | 30.0% | 643.3hPa | 2.7V | 00:00:00 | 02:50:54 | 00:00:00 | |
| DO3MHA-11 | 2026-09-02 13:19:50 | 48.31907 | 10.78005 | 83° | 66km/h | 3878m | -2.7m/s | -2.3°C | 29.9% | 643.0hPa | 2.7V | 00:00:00 | 02:50:53 | 00:00:00 | |
| DO3MHA-12 | 2026-09-02 13:19:46 | 48.31897 | 10.77907 | 81° | 64km/h | 3889m | -2.7m/s | -2.5°C | 30.4% | 642.1hPa | 2.7V | 00:00:00 | 02:50:49 | 00:00:00 | |
| DO3MHA-11 | 2026-09-02 13:19:45 | 48.31895 | 10.77883 | 81° | 62km/h | 3892m | -2.8m/s | -2.5°C | 30.5% | 641.9hPa | 2.7V | 00:00:00 | 02:50:48 | 00:00:00 | |
| DO3MHA-12 | 2026-09-02 13:19:41 | 48.31883 | 10.77790 | 79° | 60km/h | 3902m | -2.7m/s | -2.6°C | 31.3% | 641.1hPa | 2.7V | 00:00:00 | 02:50:44 | 00:00:00 | |
| DO3MHA-11 | 2026-09-02 13:19:40 | 48.31880 | 10.77767 | 78° | 58km/h | 3905m | -2.6m/s | -2.6°C | 31.6% | 640.8hPa | 2.7V | 00:00:00 | 02:50:43 | 00:00:00 | |
| DB0ND-19 | 2026-09-02 13:19:38 | 48.31873 | 10.77723 | 77° | 58km/h | 3910m | -2.7m/s | -2.7°C | 30.8% | 640.4hPa | 2.7V | 00:00:00 | 00:00:00 | 00:00:00 | |
| DO3MHA-12 | 2026-09-02 13:19:36 | 48.31866 | 10.77680 | 77° | 57km/h | 3915m | -2.6m/s | -2.7°C | 32.3% | 640.0hPa | 2.7V | 00:00:00 | 02:50:39 | 00:00:00 | |
| DO3MHA-11 | 2026-09-02 13:19:35 | 48.31863 | 10.77658 | 77° | 55km/h | 3918m | -2.7m/s | -2.7°C | 32.4% | 639.8hPa | 2.6V | 00:00:00 | 02:50:38 | 00:00:00 | |
| NBG1-10 | 2026-09-02 13:19:34 | 48.31860 | 10.77638 | 77° | 57km/h | 3921m | -2.8m/s | -2.7°C | 32.3% | 639.6hPa | 2.6V | 00:00:00 | 02:50:37 | 00:00:00 | |
| DO3MHA-12 | 2026-09-02 13:19:31 | 48.31850 | 10.77577 | 78° | 53km/h | 3929m | -2.8m/s | -2.8°C | 32.2% | 638.9hPa | 2.7V | 07:28:00 | 02:50:34 | 00:00:00 | |
| DO3MHA-11 | 2026-09-02 13:19:30 | 48.31847 | 10.77557 | 79° | 51km/h | 3932m | -2.8m/s | -2.8°C | 32.1% | 638.6hPa | 2.7V | 00:00:00 | 02:50:33 | 00:00:00 | |
| DL6DJ-15 | 2026-09-02 13:19:28 | 48.31842 | 10.77518 | 79° | 51km/h | 3938m | -2.8m/s | -2.9°C | 30.9% | 638.2hPa | 2.7V | 00:00:00 | 00:00:00 | 00:00:00 | |
| DO3MHA-12 | 2026-09-02 13:19:26 | 48.31838 | 10.77480 | 81° | 49km/h | 3944m | -2.9m/s | -2.8°C | 32.2% | 637.7hPa | 2.7V | 00:00:00 | 02:50:29 | 00:00:00 | |
| DO3MHA-11 | 2026-09-02 13:19:25 | 48.31836 | 10.77461 | 82° | 49km/h | 3946m | -2.7m/s | -2.9°C | 32.3% | 637.5hPa | 2.7V | 00:00:00 | 02:50:28 | 00:00:00 | |
| DO3MHA-12 | 2026-09-02 13:19:21 | 48.31831 | 10.77387 | 89° | 51km/h | 3957m | -2.7m/s | -3.0°C | 32.4% | 636.6hPa | 2.7V | 00:00:00 | 02:50:24 | 00:00:00 | |
| DO3MHA-11 | 2026-09-02 13:19:20 | 48.31831 | 10.77368 | 90° | 53km/h | 3960m | -2.6m/s | -3.0°C | 32.4% | 636.3hPa | 2.6V | 07:28:00 | 02:50:23 | 00:00:00 | |
| DF3TZ-5 | 2026-09-02 13:19:18 | 48.31832 | 10.77329 | 92° | 51km/h | 3965m | -2.7m/s | 0°C | -1.0% | -1.0hPa | 2.6V | 00:00:00 | 00:00:00 | 00:00:00 | |
| DO3MHA-12 | 2026-09-02 13:19:16 | 48.31833 | 10.77289 | 94° | 57km/h | 3971m | -2.8m/s | -3.1°C | 32.3% | 635.5hPa | 2.6V | 00:00:00 | 02:50:19 | 00:00:00 | |
| DO3MHA-11 | 2026-09-02 13:19:15 | 48.31834 | 10.77268 | 94° | 58km/h | 3974m | -2.8m/s | -3.1°C | 32.2% | 635.2hPa | 2.6V | 00:00:00 | 02:50:18 | 00:00:00 | |
| DO3MHA-12 | 2026-09-02 13:19:11 | 48.31838 | 10.77181 | 94° | 62km/h | 3985m | -2.9m/s | -3.2°C | 32.4% | 634.4hPa | 2.6V | 00:00:00 | 02:50:14 | 00:00:00 | |
| DO3MHA-11 | 2026-09-02 13:19:10 | 48.31839 | 10.77158 | 94° | 62km/h | 3987m | -2.8m/s | -3.2°C | 32.5% | 634.1hPa | 2.6V | 00:00:00 | 02:50:13 | 00:00:00 | |
| DB0NH | 2026-09-02 13:19:06 | 48.31842 | 10.77063 | 91° | 60km/h | 3998m | -2.6m/s | -3.3°C | 32.7% | 633.3hPa | 2.7V | 00:00:00 | 02:50:09 | 00:00:00 | |
| DO3MHA-11 | 2026-09-02 13:19:05 | 48.31841 | 10.77039 | 89° | 66km/h | 4001m | -2.7m/s | -3.4°C | 32.9% | 633.1hPa | 2.6V | 00:00:00 | 02:50:08 | 00:00:00 | |
| DL9SK-14 | 2026-09-02 13:18:59 | 48.31834 | 10.76866 | 84° | 64km/h | 4020m | -2.8m/s | -3.6°C | 31.5% | 631.5hPa | 2.6V | 00:00:00 | 00:00:00 | 00:00:00 | |
| DL6DJ-15 | 2026-09-02 13:18:57 | 48.31832 | 10.76842 | 83° | 64km/h | 4023m | -2.7m/s | -3.6°C | 31.4% | 631.4hPa | 2.6V | 00:00:00 | 00:00:00 | 00:00:00 | |
| DO3MHA-12 | 2026-09-02 13:18:56 | 48.31830 | 10.76817 | 84° | 64km/h | 4026m | -2.5m/s | -3.6°C | 32.9% | 631.2hPa | 2.6V | 00:00:00 | 02:49:59 | 00:00:00 | |
| DO3MHA-11 | 2026-09-02 13:18:55 | 48.31828 | 10.76793 | 83° | 62km/h | 4029m | -2.6m/s | -3.6°C | 33.0% | 630.8hPa | 2.6V | 00:00:00 | 02:49:58 | 00:00:00 | |
| DO3MHA-12 | 2026-09-02 13:18:51 | 48.31818 | 10.76698 | 80° | 60km/h | 4039m | -2.4m/s | -3.7°C | 32.7% | 630.1hPa | 2.7V | 07:28:00 | 02:49:54 | 00:00:00 | |
| DO3MHA-11 | 2026-09-02 13:18:50 | 48.31815 | 10.76676 | 80° | 58km/h | 4042m | -2.7m/s | -3.7°C | 32.7% | 629.8hPa | 2.6V | 00:00:00 | 02:49:53 | 00:00:00 | |
| DO3MHA-11 | 2026-09-02 13:18:45 | 48.31801 | 10.76567 | 79° | 53km/h | 4055m | -2.7m/s | -3.8°C | 32.3% | 628.7hPa | 2.6V | 00:00:00 | 02:49:48 | 00:00:00 | |
| DO3MHA-12 | 2026-09-02 13:18:41 | 48.31791 | 10.76487 | 81° | 51km/h | 4066m | -2.7m/s | -3.8°C | 32.2% | 627.8hPa | 2.6V | 00:00:00 | 02:49:44 | 00:00:00 | |
| DO3MHA-11 | 2026-09-02 13:18:40 | 48.31789 | 10.76468 | 82° | 49km/h | 4069m | -2.9m/s | -3.8°C | 32.0% | 627.6hPa | 2.6V | 07:29:00 | 02:49:43 | 00:00:00 | |
| DB0NH | 2026-09-02 13:18:36 | 48.31784 | 10.76393 | 88° | 60km/h | 4080m | -2.8m/s | -3.9°C | 32.0% | 626.7hPa | 2.7V | 07:29:00 | 02:49:39 | 00:00:00 | |
| DO3MHA-11 | 2026-09-02 13:18:35 | 48.31784 | 10.76374 | 90° | 51km/h | 4083m | -2.7m/s | -3.9°C | 31.9% | 626.5hPa | 2.7V | 00:00:00 | 02:49:38 | 00:00:00 | |
| DO3MHA-12 | 2026-09-02 13:18:31 | 48.31785 | 10.76297 | 94° | 55km/h | 4094m | -2.7m/s | -4.0°C | 31.9% | 625.6hPa | 2.7V | 00:00:00 | 02:49:34 | 00:00:00 | |
| DO3MHA-11 | 2026-09-02 13:18:30 | 48.31786 | 10.76277 | 95° | 55km/h | 4097m | -2.9m/s | -4.0°C | 32.0% | 625.5hPa | 2.7V | 00:00:00 | 02:49:33 | 00:00:00 | |
| NBG1-10 | 2026-09-02 13:18:28 | 48.31788 | 10.76236 | 96° | 60km/h | 4103m | -2.7m/s | -4.1°C | 32.1% | 624.9hPa | 2.7V | 00:00:00 | 02:49:31 | 00:00:00 | |
| DO3MHA-12 | 2026-09-02 13:18:26 | 48.31791 | 10.76193 | 96° | 60km/h | 4108m | -2.7m/s | -4.1°C | 32.1% | 624.6hPa | 2.7V | 00:00:00 | 02:49:29 | 00:00:00 | |
| DO3MHA-12 | 2026-09-02 13:18:21 | 48.31797 | 10.76078 | 93° | 66km/h | 4123m | -2.9m/s | -4.3°C | 32.4% | 623.3hPa | 2.7V | 00:00:00 | 02:49:24 | 00:00:00 | |
| DO3MHA-11 | 2026-09-02 13:18:20 | 48.31797 | 10.76053 | 92° | 66km/h | 4125m | -2.8m/s | -4.3°C | 32.2% | 623.1hPa | 2.7V | 00:00:00 | 02:49:23 | 00:00:00 | |
| DO3MHA-12 | 2026-09-02 13:18:16 | 48.31795 | 10.75953 | 87° | 66km/h | 4137m | -2.8m/s | -4.4°C | 32.5% | 622.2hPa | 2.7V | 00:00:00 | 02:49:19 | 00:00:00 | |
| DO3MHA-11 | 2026-09-02 13:18:15 | 48.31794 | 10.75928 | 85° | 66km/h | 4140m | -3.0m/s | -4.4°C | 32.6% | 622.1hPa | 2.7V | 00:00:00 | 02:49:18 | 00:00:00 | |
| DO3MHA-12 | 2026-09-02 13:18:11 | 48.31786 | 10.75829 | 81° | 62km/h | 4152m | -2.8m/s | -4.5°C | 32.6% | 621.2hPa | 2.7V | 07:29:00 | 02:49:14 | 00:00:00 | |
| DB0UT-7 | 2026-09-02 13:18:10 | 48.31783 | 10.75806 | 80° | 58km/h | 4155m | -2.8m/s | -4.5°C | 32.6% | 620.9hPa | 2.7V | 00:00:00 | 02:49:13 | 00:00:00 | |
| DO3MHA-12 | 2026-09-02 13:18:06 | 48.31770 | 10.75715 | 78° | 55km/h | 4166m | -3.0m/s | -4.6°C | 32.8% | 620.0hPa | 2.7V | 00:00:00 | 02:49:09 | 00:00:00 | |
| DO3MHA-11 | 2026-09-02 13:18:05 | 48.31767 | 10.75694 | 78° | 53km/h | 4169m | -2.9m/s | -4.6°C | 32.6% | 619.8hPa | 2.7V | 00:00:00 | 02:49:08 | 00:00:00 | |
| DL9SK-14 | 2026-09-02 13:17:57 | 48.31753 | 10.75518 | 90° | 51km/h | 4194m | -2.8m/s | -4.8°C | 33.5% | 617.8hPa | 2.7V | 00:00:00 | 00:00:00 | 00:00:00 | |
| DL6DJ-15 | 2026-09-02 13:17:55 | 48.31754 | 10.75477 | 92° | 53km/h | 4200m | -3.0m/s | -4.8°C | 34.0% | 617.4hPa | 2.7V | 00:00:00 | 00:00:00 | 00:00:00 | |
| DO3MHA-12 | 2026-09-02 13:17:51 | 48.31756 | 10.75412 | 94° | 60km/h | 4210m | -3.0m/s | -4.8°C | 37.3% | 616.6hPa | 2.7V | 00:00:00 | 02:48:54 | 00:00:00 | |
| DO3MHA-11 | 2026-09-02 13:17:50 | 48.31757 | 10.75390 | 94° | 62km/h | 4212m | -2.8m/s | -4.8°C | 37.5% | 616.4hPa | 2.7V | 00:00:00 | 02:48:53 | 00:00:00 | |
| DO3MHA-12 | 2026-09-02 13:17:46 | 48.31760 | 10.75296 | 92° | 66km/h | 4224m | -2.8m/s | -5.0°C | 38.5% | 615.4hPa | 2.7V | 00:00:00 | 02:48:49 | 00:00:00 | |
| DO3MHA-12 | 2026-09-02 13:17:41 | 48.31758 | 10.75170 | 87° | 68km/h | 4239m | -2.8m/s | -5.1°C | 39.3% | 614.3hPa | 2.7V | 00:00:00 | 02:48:44 | 00:00:00 | |
| DO3MHA-11 | 2026-09-02 13:17:40 | 48.31756 | 10.75145 | 86° | 68km/h | 4242m | -2.9m/s | -5.2°C | 39.0% | 614.0hPa | 2.7V | 00:00:00 | 02:48:43 | 00:00:00 | |
| DO3MHA-12 | 2026-09-02 13:17:36 | 48.31748 | 10.75043 | 82° | 64km/h | 4253m | -3.1m/s | -5.3°C | 38.1% | 613.2hPa | 2.6V | 00:00:00 | 02:48:39 | 00:00:00 | |
| DO3MHA-11 | 2026-09-02 13:17:35 | 48.31745 | 10.75018 | 80° | 64km/h | 4257m | -3.1m/s | -5.3°C | 37.5% | 612.9hPa | 2.7V | 00:00:00 | 02:48:38 | 00:00:00 | |
| DB0ND-19 | 2026-09-02 13:17:34 | 48.31743 | 10.74994 | 79° | 64km/h | 4260m | -2.9m/s | -5.4°C | 36.2% | 612.7hPa | 2.7V | 00:00:00 | 00:00:00 | 00:00:00 | |
| DO3MHA-12 | 2026-09-02 13:17:31 | 48.31733 | 10.74923 | 78° | 58km/h | 4269m | -2.7m/s | -5.4°C | 37.7% | 612.0hPa | 2.7V | 07:30:00 | 02:48:34 | 00:00:00 | |
| DO3MHA-11 | 2026-09-02 13:17:30 | 48.31730 | 10.74901 | 78° | 57km/h | 4272m | -2.8m/s | -5.4°C | 36.8% | 611.7hPa | 2.7V | 00:00:00 | 02:48:33 | 00:00:00 | |
| DL9SK-14 | 2026-09-02 13:17:26 | 48.31716 | 10.74796 | 80° | 53km/h | 4286m | -2.9m/s | -5.5°C | 31.1% | 610.6hPa | 2.7V | 00:00:00 | 00:00:00 | 00:00:00 | |
| DO3MHA-11 | 2026-09-02 13:17:25 | 48.31716 | 10.74796 | 81° | 53km/h | 4286m | -2.8m/s | -5.4°C | 32.5% | 610.6hPa | 2.7V | 00:00:00 | 02:48:28 | 00:00:00 | |
| DL6DJ-15 | 2026-09-02 13:17:24 | 48.31711 | 10.74757 | 81° | 51km/h | 4292m | -3.1m/s | -5.5°C | 31.3% | 610.1hPa | 2.6V | 00:00:00 | 00:00:00 | 00:00:00 | |
| NBG1-10 | 2026-09-02 13:17:22 | 48.31710 | 10.74737 | 84° | 60km/h | 4296m | -2.9m/s | -5.5°C | 32.7% | 609.9hPa | 2.6V | 00:00:00 | 02:48:25 | 00:00:00 | |
| DO3MHA-12 | 2026-09-02 13:17:21 | 48.31708 | 10.74718 | 85° | 51km/h | 4299m | -3.0m/s | -5.5°C | 32.9% | 609.6hPa | 2.6V | 00:00:00 | 02:48:24 | 00:00:00 | |
| DO3MHA-11 | 2026-09-02 13:17:20 | 48.31707 | 10.74699 | 86° | 51km/h | 4302m | -3.0m/s | -5.5°C | 32.9% | 609.4hPa | 2.7V | 07:30:00 | 02:48:23 | 00:00:00 | |
| DO3MHA-12 | 2026-09-02 13:17:16 | 48.31706 | 10.74621 | 92° | 55km/h | 4314m | -2.9m/s | -5.6°C | 33.2% | 608.5hPa | 2.7V | 00:00:00 | 02:48:19 | 00:00:00 | |
| DO3MHA-11 | 2026-09-02 13:17:15 | 48.31706 | 10.74601 | 92° | 55km/h | 4317m | -3.0m/s | -5.7°C | 33.5% | 608.2hPa | 2.7V | 00:00:00 | 02:48:18 | 00:00:00 | |
| DO3MHA-12 | 2026-09-02 13:17:11 | 48.31710 | 10.74518 | 95° | 58km/h | 4329m | -3.1m/s | -5.7°C | 34.3% | 607.3hPa | 2.7V | 00:00:00 | 02:48:14 | 00:00:00 | |
| DO3MHA-11 | 2026-09-02 13:17:10 | 48.31710 | 10.74496 | 95° | 60km/h | 4332m | -3.0m/s | -5.8°C | 34.3% | 607.1hPa | 2.7V | 00:00:00 | 02:48:13 | 00:00:00 | |
| DO3MHA-12 | 2026-09-02 13:17:07 | 48.31716 | 10.74405 | 95° | 64km/h | 4345m | -3.0m/s | -5.9°C | 35.5% | 606.1hPa | 2.7V | 00:00:00 | 02:48:09 | 00:00:00 | |
| DB0NH | 2026-09-02 13:17:06 | 48.31716 | 10.74405 | 95° | 60km/h | 4345m | -3.0m/s | -5.9°C | 35.5% | 606.1hPa | 2.7V | 00:00:00 | 02:48:09 | 00:00:00 | |
| DO3MHA-11 | 2026-09-02 13:17:05 | 48.31717 | 10.74382 | 95° | 64km/h | 4348m | -3.1m/s | -5.9°C | 35.7% | 605.9hPa | 2.7V | 00:00:00 | 02:48:08 | 00:00:00 | |
| DB0ND-19 | 2026-09-02 13:17:04 | 48.31719 | 10.74334 | 92° | 64km/h | 4354m | -3.2m/s | -6.0°C | 34.2% | 605.4hPa | 2.7V | 00:00:00 | 00:00:00 | 00:00:00 | |
| DL9SK-14 | 2026-09-02 13:16:55 | 48.31715 | 10.74105 | 82° | 66km/h | 4382m | -3.2m/s | -6.4°C | 34.9% | 603.2hPa | 2.7V | 00:00:00 | 00:00:00 | 00:00:00 | |
| DL6DJ-15 | 2026-09-02 13:16:52 | 48.31710 | 10.74056 | 80° | 64km/h | 4389m | -3.2m/s | -6.5°C | 35.1% | 602.8hPa | 2.7V | 00:00:00 | 00:00:00 | 00:00:00 | |
| DO3MHA-12 | 2026-09-02 13:16:51 | 48.31707 | 10.74032 | 80° | 60km/h | 4392m | -3.1m/s | -6.4°C | 36.8% | 602.5hPa | 2.7V | 07:30:00 | 02:47:54 | 00:00:00 | |
| DO3MHA-11 | 2026-09-02 13:16:50 | 48.31704 | 10.74009 | 79° | 58km/h | 4395m | -3.1m/s | -6.5°C | 36.8% | 602.2hPa | 2.6V | 00:00:00 | 02:47:53 | 00:00:00 | |
| NBG1-10 | 2026-09-02 13:16:49 | 48.31701 | 10.73986 | 79° | 57km/h | 4398m | -3.3m/s | -6.5°C | 36.8% | 601.9hPa | 2.6V | 00:00:00 | 02:47:52 | 00:00:00 | |
| DO3MHA-12 | 2026-09-02 13:16:46 | 48.31692 | 10.73921 | 79° | 55km/h | 4408m | -3.2m/s | -6.5°C | 36.5% | 601.1hPa | 2.6V | 00:00:00 | 02:47:49 | 00:00:00 | |
| DO3MHA-11 | 2026-09-02 13:16:45 | 48.31689 | 10.73900 | 80° | 53km/h | 4411m | -3.2m/s | -6.5°C | 36.3% | 600.9hPa | 2.6V | 00:00:00 | 02:47:48 | 00:00:00 | |
| DO3MHA-12 | 2026-09-02 13:16:41 | 48.31681 | 10.73821 | 84° | 51km/h | 4425m | -3.3m/s | -6.6°C | 35.9% | 599.9hPa | 2.6V | 00:00:00 | 02:47:44 | 00:00:00 | |
| DO3MHA-11 | 2026-09-02 13:16:40 | 48.31680 | 10.73802 | 86° | 51km/h | 4428m | -3.3m/s | -6.6°C | 35.9% | 599.7hPa | 2.6V | 07:31:00 | 02:47:43 | 00:00:00 | |
| DB0NH | 2026-09-02 13:16:36 | 48.31679 | 10.73725 | 92° | 60km/h | 4442m | -3.2m/s | -6.7°C | 35.8% | 598.5hPa | 2.7V | 00:00:00 | 02:47:39 | 00:00:00 | |
| DO3MHA-11 | 2026-09-02 13:16:35 | 48.31679 | 10.73706 | 93° | 53km/h | 4445m | -3.4m/s | -6.7°C | 35.7% | 598.3hPa | 2.7V | 00:00:00 | 02:47:38 | 00:00:00 | |
| DB0ND-19 | 2026-09-02 13:16:32 | 48.31681 | 10.73648 | 94° | 51km/h | 4455m | -3.4m/s | -6.8°C | 33.1% | 597.6hPa | 2.7V | 00:00:00 | 00:00:00 | 00:00:00 | |
| DO3MHA-12 | 2026-09-02 13:16:31 | 48.31682 | 10.73628 | 96° | 57km/h | 4459m | -3.4m/s | -6.8°C | 34.4% | 597.3hPa | 2.7V | 00:00:00 | 02:47:34 | 00:00:00 | |
| DO3MHA-11 | 2026-09-02 13:16:30 | 48.31684 | 10.73607 | 96° | 58km/h | 4462m | -3.4m/s | -6.8°C | 33.9% | 597.0hPa | 2.7V | 00:00:00 | 02:47:33 | 00:00:00 | |
| DO3MHA-12 | 2026-09-02 13:16:26 | 48.31690 | 10.73519 | 96° | 62km/h | 4476m | -3.4m/s | -6.9°C | 33.9% | 595.9hPa | 2.7V | 00:00:00 | 02:47:29 | 00:00:00 | |
| DO3MHA-11 | 2026-09-02 13:16:25 | 48.31691 | 10.73497 | 96° | 64km/h | 4479m | -3.4m/s | -6.9°C | 33.9% | 595.8hPa | 2.7V | 00:00:00 | 02:47:28 | 00:00:00 | |
| DL9SK-14 | 2026-09-02 13:16:24 | 48.31693 | 10.73449 | 92° | 64km/h | 4486m | -3.4m/s | -7.0°C | 32.2% | 595.1hPa | 2.7V | 00:00:00 | 00:00:00 | 00:00:00 | |
| DO3MHA-12 | 2026-09-02 13:16:21 | 48.31694 | 10.73400 | 91° | 66km/h | 4493m | -3.6m/s | -7.1°C | 33.8% | 594.7hPa | 2.7V | 00:00:00 | 02:47:24 | 00:00:00 | |
| DO3MHA-11 | 2026-09-02 13:16:20 | 48.31694 | 10.73375 | 91° | 66km/h | 4496m | -3.4m/s | -7.1°C | 34.0% | 594.4hPa | 2.7V | 00:00:00 | 02:47:23 | 00:00:00 | |
| DO3MHA-12 | 2026-09-02 13:16:16 | 48.31692 | 10.73274 | 86° | 66km/h | 4510m | -3.3m/s | -7.2°C | 34.5% | 593.3hPa | 2.7V | 00:00:00 | 02:47:19 | 00:00:00 | |
| DO3MHA-11 | 2026-09-02 13:16:15 | 48.31690 | 10.73249 | 85° | 64km/h | 4514m | -3.5m/s | -7.3°C | 35.2% | 593.1hPa | 2.7V | 00:00:00 | 02:47:18 | 00:00:00 | |
| DO3MHA-12 | 2026-09-02 13:16:11 | 48.31683 | 10.73152 | 82° | 58km/h | 4528m | -3.5m/s | -7.4°C | 36.8% | 591.9hPa | 2.7V | 07:31:00 | 02:47:14 | 00:00:00 | |
| DB0UT-7 | 2026-09-02 13:16:10 | 48.31680 | 10.73130 | 81° | 53km/h | 4532m | -3.7m/s | -7.4°C | 36.9% | 591.7hPa | 2.7V | 00:00:00 | 02:47:13 | 00:00:00 | |
| DO3MHA-12 | 2026-09-02 13:16:06 | 48.31671 | 10.73044 | 81° | 53km/h | 4546m | -3.7m/s | -7.5°C | 36.7% | 590.5hPa | 2.6V | 00:00:00 | 02:47:09 | 00:00:00 | |
| DO3MHA-11 | 2026-09-02 13:16:05 | 48.31668 | 10.73024 | 82° | 53km/h | 4550m | -3.4m/s | -7.5°C | 36.6% | 590.3hPa | 2.7V | 00:00:00 | 02:47:08 | 00:00:00 | |
| DL9SK-14 | 2026-09-02 13:15:53 | 48.31645 | 10.72764 | 82° | 51km/h | 4598m | -3.5m/s | -7.8°C | 31.9% | 586.8hPa | 2.7V | 00:00:00 | 00:00:00 | 00:00:00 | |
| DO3MHA-12 | 2026-09-02 13:15:51 | 48.31643 | 10.72744 | 83° | 51km/h | 4601m | -3.4m/s | -7.8°C | 33.2% | 586.5hPa | 2.7V | 00:00:00 | 02:46:54 | 00:00:00 | |
| DO3MHA-11 | 2026-09-02 13:15:50 | 48.31641 | 10.72725 | 84° | 51km/h | 4605m | -3.4m/s | -7.8°C | 33.1% | 586.2hPa | 2.7V | 00:00:00 | 02:46:53 | 00:00:00 | |
| DO3MHA-12 | 2026-09-02 13:15:46 | 48.31636 | 10.72648 | 87° | 47km/h | 4619m | -3.6m/s | -7.8°C | 30.7% | 585.1hPa | 2.7V | 00:00:00 | 02:46:49 | 00:00:00 | |
| OE5DXL-15 | 2026-09-02 13:15:45 | 48.31636 | 10.72629 | 89° | 55km/h | 4623m | -3.8m/s | -7.7°C | 29.4% | 584.8hPa | 2.7V | 00:00:00 | 00:00:00 | 00:00:00 | |
| NBG1-10 | 2026-09-02 13:15:43 | 48.31636 | 10.72593 | 92° | 55km/h | 4630m | -3.8m/s | -7.6°C | 21.0% | 584.2hPa | 2.7V | 07:31:00 | 02:46:46 | 00:00:00 | |
| DO3MHA-12 | 2026-09-02 13:15:41 | 48.31637 | 10.72557 | 95° | 47km/h | 4638m | -3.8m/s | -7.5°C | 20.7% | 583.7hPa | 2.7V | 00:00:00 | 02:46:44 | 00:00:00 | |
| DB0UT-7 | 2026-09-02 13:15:40 | 48.31638 | 10.72540 | 96° | 57km/h | 4642m | -4.0m/s | -7.5°C | 20.8% | 583.4hPa | 2.7V | 00:00:00 | 00:00:00 | 00:00:00 | |
| DO3MHA-12 | 2026-09-02 13:15:36 | 48.31644 | 10.72468 | 100° | 49km/h | 4658m | -4.3m/s | -7.6°C | 20.9% | 582.2hPa | 2.7V | 00:00:00 | 02:46:39 | 00:00:00 | |
| DO3MHA-11 | 2026-09-02 13:15:35 | 48.31646 | 10.72450 | 102° | 51km/h | 4662m | -4.2m/s | -7.7°C | 21.2% | 581.9hPa | 2.7V | 00:00:00 | 02:46:38 | 00:00:00 | |
| DO3MHA-12 | 2026-09-02 13:15:31 | 48.31658 | 10.72375 | 106° | 57km/h | 4679m | -4.1m/s | -7.8°C | 23.0% | 580.6hPa | 2.7V | 07:32:00 | 02:46:34 | 00:00:00 | |
| DO3MHA-11 | 2026-09-02 13:15:30 | 48.31662 | 10.72356 | 106° | 58km/h | 4683m | -4.0m/s | -7.8°C | 23.1% | 580.3hPa | 2.7V | 00:00:00 | 02:46:33 | 00:00:00 | |
| DO3MHA-12 | 2026-09-02 13:15:26 | 48.31676 | 10.72269 | 102° | 62km/h | 4698m | -3.5m/s | -8.0°C | 23.6% | 579.2hPa | 2.7V | 00:00:00 | 02:46:29 | 00:00:00 | |
| DO3MHA-11 | 2026-09-02 13:15:25 | 48.31679 | 10.72245 | 100° | 64km/h | 4702m | -3.6m/s | -8.0°C | 24.0% | 578.8hPa | 2.7V | 00:00:00 | 02:46:28 | 00:00:00 | |
| DO3MHA-12 | 2026-09-02 13:15:21 | 48.31686 | 10.72150 | 94° | 62km/h | 4717m | -3.9m/s | -8.3°C | 24.7% | 577.8hPa | 2.6V | 00:00:00 | 02:46:24 | 00:00:00 | |
| DO3MHA-11 | 2026-09-02 13:15:20 | 48.31687 | 10.72126 | 94° | 60km/h | 4721m | -3.8m/s | -8.3°C | 25.8% | 577.5hPa | 2.7V | 07:32:00 | 02:46:23 | 00:00:00 | |
| DL6DJ-15 | 2026-09-02 13:15:19 | 48.31687 | 10.72103 | 92° | 60km/h | 4725m | -4.1m/s | -8.4°C | 24.9% | 577.3hPa | 2.7V | 00:00:00 | 00:00:00 | 00:00:00 | |
| DO3MHA-12 | 2026-09-02 13:15:18 | 48.31688 | 10.72034 | 90° | 55km/h | 4737m | -3.8m/s | -8.4°C | 33.9% | 576.4hPa | 2.7V | 00:00:00 | 02:46:19 | 00:00:00 | |
| OE5DXL-15 | 2026-09-02 13:15:15 | 48.31688 | 10.72012 | 90° | 53km/h | 4741m | -3.9m/s | -8.4°C | 39.7% | 576.0hPa | 2.7V | 00:00:00 | 00:00:00 | 00:00:00 | |
| DO3MHA-12 | 2026-09-02 13:15:11 | 48.31688 | 10.71930 | 91° | 47km/h | 4757m | -4.0m/s | -8.5°C | 53.9% | 574.8hPa | 2.7V | 00:00:00 | 02:46:14 | 00:00:00 | |
| NBG1-10 | 2026-09-02 13:15:10 | 48.31688 | 10.71911 | 92° | 55km/h | 4761m | -3.8m/s | -8.5°C | 58.4% | 574.5hPa | 2.7V | 00:00:00 | 02:46:13 | 00:00:00 | |
| DO3MHA-12 | 2026-09-02 13:15:06 | 48.31692 | 10.71840 | 99° | 47km/h | 4776m | -3.9m/s | -8.6°C | 65.2% | 573.3hPa | 2.7V | 00:00:00 | 02:46:09 | 00:00:00 | |
| DO3MHA-11 | 2026-09-02 13:15:05 | 48.31694 | 10.71822 | 101° | 47km/h | 4780m | -3.9m/s | -8.7°C | 65.6% | 573.0hPa | 2.7V | 00:00:00 | 02:46:08 | 00:00:00 | |
| DB0ND-19 | 2026-09-02 13:14:59 | 48.31750 | 10.71530 | 102° | 60km/h | 4839m | -4.2m/s | -9.3°C | 71.3% | 568.8hPa | 2.7V | 00:00:00 | 00:00:00 | 00:00:00 | |
| DL9SK-14 | 2026-09-02 13:14:50 | 48.31750 | 10.71530 | 102° | 60km/h | 4839m | -4.2m/s | -9.3°C | 71.3% | 568.8hPa | 2.7V | 00:00:00 | 00:00:00 | 00:00:00 | |
| DL6DJ-15 | 2026-09-02 13:14:48 | 48.31756 | 10.71483 | 100° | 62km/h | 4847m | -4.0m/s | -9.4°C | 71.8% | 568.1hPa | 2.7V | 00:00:00 | 00:00:00 | 00:00:00 | |
| DO3MHA-12 | 2026-09-02 13:14:46 | 48.31761 | 10.71436 | 98° | 62km/h | 4855m | -4.1m/s | -9.5°C | 76.0% | 567.5hPa | 2.7V | 00:00:00 | 02:45:49 | 00:00:00 | |
| DO3MHA-11 | 2026-09-02 13:14:45 | 48.31763 | 10.71412 | 97° | 62km/h | 4860m | -3.9m/s | -9.5°C | 76.1% | 567.2hPa | 2.7V | 00:00:00 | 02:45:48 | 00:00:00 | |
| DO3MHA-12 | 2026-09-02 13:14:41 | 48.31767 | 10.71319 | 92° | 60km/h | 4876m | -4.0m/s | -9.7°C | 75.4% | 566.0hPa | 2.7V | 00:00:00 | 02:45:44 | 00:00:00 | |
| DO3MHA-11 | 2026-09-02 13:14:40 | 48.31768 | 10.71296 | 91° | 55km/h | 4880m | -3.9m/s | -9.7°C | 75.5% | 565.7hPa | 2.7V | 07:33:00 | 02:45:43 | 00:00:00 | |
| NBG1-10 | 2026-09-02 13:14:37 | 48.31768 | 10.71230 | 90° | 53km/h | 4892m | -3.9m/s | -9.8°C | 72.5% | 564.9hPa | 2.7V | 00:00:00 | 02:45:40 | 00:00:00 | |
| DB0NH | 2026-09-02 13:14:36 | 48.31767 | 10.71210 | 89° | 51km/h | 4896m | -3.9m/s | -9.8°C | 73.0% | 564.5hPa | 2.6V | 07:33:00 | 02:45:39 | 00:00:00 | |
| DO3MHA-11 | 2026-09-02 13:14:34 | 48.31767 | 10.71170 | 90° | 49km/h | 4904m | -3.9m/s | -9.9°C | 72.6% | 564.1hPa | 2.7V | 00:00:00 | 02:45:37 | 00:00:00 | |
| DO3MHA-12 | 2026-09-02 13:14:30 | 48.31769 | 10.71097 | 95° | 47km/h | 4919m | -3.9m/s | -10.0°C | 78.7% | 562.9hPa | 2.7V | 00:00:00 | 02:45:33 | 00:00:00 | |
| DO3MHA-11 | 2026-09-02 13:14:29 | 48.31770 | 10.71079 | 96° | 47km/h | 4923m | -3.9m/s | -10.0°C | 78.6% | 562.5hPa | 2.7V | 00:00:00 | 02:45:32 | 00:00:00 | |
| DO3MHA-12 | 2026-09-02 13:14:25 | 48.31777 | 10.71008 | 101° | 49km/h | 4939m | -3.9m/s | -10.2°C | 81.1% | 561.4hPa | 2.7V | 00:00:00 | 02:45:28 | 00:00:00 | |
| DO3MHA-11 | 2026-09-02 13:14:24 | 48.31779 | 10.70990 | 102° | 49km/h | 4943m | -3.9m/s | -10.2°C | 80.6% | 561.1hPa | 2.7V | 00:00:00 | 02:45:27 | 00:00:00 | |
| DO3MHA-12 | 2026-09-02 13:14:20 | 48.31790 | 10.70917 | 104° | 51km/h | 4959m | -3.9m/s | -10.3°C | 81.6% | 560.0hPa | 2.7V | 00:00:00 | 02:45:23 | 00:00:00 | |
| DO3MHA-11 | 2026-09-02 13:14:19 | 48.31793 | 10.70898 | 105° | 51km/h | 4963m | -3.9m/s | -10.4°C | 80.5% | 559.7hPa | 2.7V | 00:00:00 | 02:45:22 | 00:00:00 | |
| DL6DJ-15 | 2026-09-02 13:14:17 | 48.31800 | 10.70861 | 105° | 51km/h | 4971m | -4.1m/s | -10.5°C | 76.7% | 559.2hPa | 2.7V | 00:00:00 | 00:00:00 | 00:00:00 | |
| DO3MHA-12 | 2026-09-02 13:14:15 | 48.31807 | 10.70822 | 107° | 57km/h | 4979m | -4.0m/s | -10.4°C | 80.3% | 558.4hPa | 2.7V | 00:00:00 | 02:45:18 | 00:00:00 | |
| DO3MHA-11 | 2026-09-02 13:14:14 | 48.31811 | 10.70803 | 108° | 57km/h | 4983m | -3.9m/s | -10.5°C | 80.3% | 558.3hPa | 2.7V | 00:00:00 | 02:45:17 | 00:00:00 | |
| DB0UT-7 | 2026-09-02 13:14:10 | 48.31828 | 10.70720 | 108° | 64km/h | 4999m | -3.9m/s | -10.6°C | 84.4% | 557.1hPa | 2.7V | 00:00:00 | 02:45:13 | 00:00:00 | |
| DO3MHA-11 | 2026-09-02 13:14:09 | 48.31833 | 10.70698 | 107° | 64km/h | 5003m | -4.1m/s | -10.6°C | 84.1% | 556.7hPa | 2.7V | 00:00:00 | 02:45:12 | 00:00:00 | |
| DB0NH | 2026-09-02 13:14:06 | 48.31846 | 10.70631 | 106° | 62km/h | 5015m | -3.9m/s | -10.7°C | 82.5% | 555.9hPa | 2.7V | 00:00:00 | 02:45:09 | 00:00:00 | |
| DO3MHA-12 | 2026-09-02 13:14:05 | 48.31850 | 10.70608 | 105° | 60km/h | 5019m | -4.0m/s | -10.7°C | 82.7% | 555.5hPa | 2.7V | 00:00:00 | 02:45:08 | 00:00:00 | |
| NBG1-10 | 2026-09-02 13:14:04 | 48.31854 | 10.70585 | 104° | 60km/h | 5023m | -4.1m/s | -10.7°C | 85.1% | 555.2hPa | 2.7V | 00:00:00 | 02:45:07 | 00:00:00 | |
| DB0ND-19 | 2026-09-02 13:13:57 | 48.31874 | 10.70412 | 96° | 66km/h | 5051m | -4.1m/s | -11.1°C | 88.3% | 553.4hPa | 2.7V | 00:00:00 | 00:00:00 | 00:00:00 | |
| DL6DJ-15 | 2026-09-02 13:13:46 | 48.31883 | 10.70140 | 89° | 62km/h | 5096m | -4.2m/s | -11.5°C | 91.6% | 550.1hPa | 2.7V | 00:00:00 | 00:00:00 | 00:00:00 | |
| OE5DXL-15 | 2026-09-02 13:13:45 | 48.31883 | 10.70116 | 90° | 58km/h | 5100m | -4.1m/s | -11.4°C | 91.9% | 549.7hPa | 2.7V | 00:00:00 | 00:00:00 | 00:00:00 | |
| DO3MHA-11 | 2026-09-02 13:13:40 | 48.31882 | 10.70006 | 90° | 53km/h | 5120m | -3.8m/s | -11.5°C | 85.3% | 548.4hPa | 2.7V | 07:34:00 | 02:44:43 | 00:00:00 | |
| OE3JTB-15 | 2026-09-02 13:13:38 | 48.31881 | 10.69965 | 91° | 62km/h | 5127m | -3.8m/s | -11.5°C | 85.3% | 547.8hPa | 2.7V | 07:34:00 | 00:00:00 | 00:00:00 | |
| DB0NH | 2026-09-02 13:13:36 | 48.31882 | 10.69925 | 93° | 62km/h | 5135m | -4.0m/s | -11.5°C | 82.1% | 547.2hPa | 2.7V | 00:00:00 | 02:44:39 | 00:00:00 | |
| DO3MHA-12 | 2026-09-02 13:13:35 | 48.31883 | 10.69906 | 95° | 55km/h | 5139m | -3.7m/s | -11.5°C | 71.1% | 546.9hPa | 2.7V | 00:00:00 | 02:44:38 | 00:00:00 | |
| NBG1-10 | 2026-09-02 13:13:31 | 48.31890 | 10.69829 | 101° | 62km/h | 5155m | -4.1m/s | -11.4°C | 56.2% | 545.7hPa | 2.7V | 00:00:00 | 02:44:34 | 00:00:00 | |
| DO3MHA-11 | 2026-09-02 13:13:30 | 48.31892 | 10.69808 | 102° | 62km/h | 5159m | -4.1m/s | -11.4°C | 55.3% | 545.5hPa | 2.7V | 00:00:00 | 02:44:33 | 00:00:00 | |
| DO3MHA-12 | 2026-09-02 13:13:25 | 48.31908 | 10.69699 | 101° | 68km/h | 5180m | -4.0m/s | -11.4°C | 51.7% | 544.0hPa | 2.6V | 00:00:00 | 02:44:28 | 00:00:00 | |
| DG1MJG | 2026-09-02 13:13:23 | 48.31911 | 10.69675 | 101° | 64km/h | 5184m | -4.0m/s | -11.5°C | 47.6% | 543.7hPa | 2.6V | 07:34:00 | 00:00:00 | 00:00:00 | |
| DO3MHA-11 | 2026-09-02 13:13:20 | 48.31921 | 10.69576 | 96° | 68km/h | 5200m | -3.9m/s | -11.1°C | 15.8% | 542.6hPa | 2.6V | 00:00:00 | 02:44:23 | 00:00:00 | |
| DL9SK-14 | 2026-09-02 13:13:17 | 48.31924 | 10.69499 | 92° | 68km/h | 5211m | -4.0m/s | -10.8°C | 11.2% | 541.9hPa | 2.6V | 00:00:00 | 00:00:00 | 00:00:00 | |
| DO3MHA-12 | 2026-09-02 13:13:15 | 48.31925 | 10.69447 | 91° | 66km/h | 5220m | -3.9m/s | -10.6°C | 11.4% | 541.3hPa | 2.6V | 00:00:00 | 02:44:18 | 00:00:00 | |
| DO3MHA-11 | 2026-09-02 13:13:10 | 48.31923 | 10.69319 | 87° | 58km/h | 5240m | -4.0m/s | -10.4°C | 12.9% | 539.8hPa | 2.7V | 00:00:00 | 02:44:13 | 00:00:00 | |
| OE3JTB-15 | 2026-09-02 13:13:09 | 48.31921 | 10.69294 | 86° | 58km/h | 5244m | -4.0m/s | -10.4°C | 13.0% | 539.6hPa | 2.7V | 00:00:00 | 00:00:00 | 00:00:00 | |
| DB0NH | 2026-09-02 13:13:06 | 48.31917 | 10.69223 | 84° | 58km/h | 5256m | -3.8m/s | -10.4°C | 13.3% | 538.7hPa | 2.7V | 00:00:00 | 02:44:09 | 00:00:00 | |
| DO3MHA-12 | 2026-09-02 13:13:05 | 48.31916 | 10.69201 | 85° | 53km/h | 5260m | -3.8m/s | -10.4°C | 13.2% | 538.4hPa | 2.7V | 00:00:00 | 02:44:08 | 00:00:00 | |
| DB0ND-19 | 2026-09-02 13:12:55 | 48.31914 | 10.68986 | 98° | 51km/h | 5302m | -3.8m/s | -10.6°C | 16.8% | 535.4hPa | 2.7V | 00:00:00 | 00:00:00 | 00:00:00 | |
| DL9SK-14 | 2026-09-02 13:12:46 | 48.31932 | 10.68808 | 95° | 64km/h | 5332m | -4.0m/s | -10.8°C | 13.3% | 533.3hPa | 2.7V | 00:00:00 | 00:00:00 | 00:00:00 | |
| DL6DJ-15 | 2026-09-02 13:12:44 | 48.31934 | 10.68758 | 91° | 66km/h | 5340m | -3.9m/s | -10.9°C | 17.4% | 532.9hPa | 2.7V | 00:00:00 | 00:00:00 | 00:00:00 | |
| DB0UT-7 | 2026-09-02 13:12:40 | 48.31934 | 10.68659 | 89° | 55km/h | 5355m | -3.7m/s | -10.9°C | 20.8% | 531.8hPa | 2.7V | 00:00:00 | 00:00:00 | 00:00:00 | |
| DB0NH | 2026-09-02 13:12:36 | 48.31930 | 10.68563 | 86° | 51km/h | 5370m | -3.4m/s | -11.0°C | 23.1% | 530.7hPa | 2.7V | 00:00:00 | 02:43:39 | 00:00:00 | |
| DO3MHA-12 | 2026-09-02 13:12:35 | 48.31929 | 10.68540 | 85° | 57km/h | 5374m | -3.8m/s | -11.0°C | 23.5% | 530.5hPa | 2.7V | 07:35:00 | 02:43:38 | 00:00:00 | |
| DO3MHA-11 | 2026-09-02 13:12:30 | 48.31921 | 10.68431 | 84° | 53km/h | 5392m | -3.6m/s | -11.1°C | 25.2% | 529.2hPa | 2.7V | 00:00:00 | 02:43:33 | 00:00:00 | |
| DO3MHA-12 | 2026-09-02 13:12:25 | 48.31914 | 10.68326 | 85° | 51km/h | 5411m | -3.5m/s | -11.2°C | 26.7% | 528.0hPa | 2.7V | 00:00:00 | 02:43:28 | 00:00:00 | |
| DB0ND-19 | 2026-09-02 13:12:24 | 48.31912 | 10.68286 | 86° | 51km/h | 5418m | -3.6m/s | -11.3°C | 25.4% | 527.6hPa | 2.7V | 00:00:00 | 00:00:00 | 00:00:00 | |
| DG1MJG | 2026-09-02 13:12:21 | 48.31911 | 10.68267 | 88° | 51km/h | 5421m | -3.7m/s | -11.4°C | 25.4% | 527.3hPa | 2.7V | 07:35:00 | 00:00:00 | 00:00:00 | |
| DO3MHA-11 | 2026-09-02 13:12:20 | 48.31910 | 10.68229 | 88° | 47km/h | 5429m | -3.5m/s | -11.4°C | 27.3% | 526.7hPa | 2.7V | 07:35:00 | 02:43:23 | 00:00:00 | |
| DO3MHA-12 | 2026-09-02 13:12:15 | 48.31908 | 10.68136 | 90° | 47km/h | 5447m | -3.7m/s | -11.5°C | 27.6% | 525.4hPa | 2.7V | 00:00:00 | 02:43:18 | 00:00:00 | |
| DL6DJ-15 | 2026-09-02 13:12:13 | 48.31908 | 10.68100 | 92° | 46km/h | 5454m | -3.6m/s | -11.6°C | 26.1% | 525.0hPa | 2.6V | 00:00:00 | 00:00:00 | 00:00:00 | |
| OE3JTB-15 | 2026-09-02 13:12:11 | 48.31910 | 10.68065 | 96° | 58km/h | 5462m | -3.6m/s | -11.6°C | 28.2% | 524.5hPa | 2.6V | 00:00:00 | 00:00:00 | 00:00:00 | |
| DB0UT-7 | 2026-09-02 13:12:10 | 48.31911 | 10.68048 | 98° | 58km/h | 5465m | -3.7m/s | -11.6°C | 28.6% | 524.2hPa | 2.6V | 00:00:00 | 02:43:13 | 00:00:00 | |
| DB0NH | 2026-09-02 13:12:06 | 48.31920 | 10.67975 | 104° | 58km/h | 5480m | -3.5m/s | -11.7°C | 30.0% | 523.2hPa | 2.6V | 00:00:00 | 02:43:09 | 00:00:00 | |
| DO3MHA-12 | 2026-09-02 13:12:05 | 48.31923 | 10.67957 | 105° | 57km/h | 5483m | -3.5m/s | -11.7°C | 30.1% | 523.0hPa | 2.6V | 00:00:00 | 02:43:08 | 00:00:00 | |
| DB0ND-19 | 2026-09-02 13:11:53 | 48.31971 | 10.67672 | 98° | 64km/h | 5529m | -3.4m/s | -12.2°C | 31.7% | 519.8hPa | 2.6V | 00:00:00 | 00:00:00 | 00:00:00 | |
| DL9SK-14 | 2026-09-02 13:11:44 | 48.31978 | 10.67482 | 89° | 55km/h | 5556m | -3.5m/s | -12.5°C | 36.1% | 518.1hPa | 2.6V | 00:00:00 | 00:00:00 | 00:00:00 | |
| OE3JTB-15 | 2026-09-02 13:11:42 | 48.31978 | 10.67441 | 91° | 57km/h | 5563m | -3.3m/s | -12.4°C | 38.6% | 517.5hPa | 2.6V | 00:00:00 | 00:00:00 | 00:00:00 | |
| DO3MHA-11 | 2026-09-02 13:11:40 | 48.31979 | 10.67401 | 93° | 49km/h | 5570m | -3.1m/s | -12.5°C | 39.8% | 517.1hPa | 2.6V | 00:00:00 | 02:42:43 | 00:00:00 | |
| DB0NH | 2026-09-02 13:11:36 | 48.31983 | 10.67326 | 100° | 60km/h | 5583m | -3.3m/s | -12.5°C | 40.3% | 516.2hPa | 2.6V | 00:00:00 | 02:42:39 | 00:00:00 | |
| DO3MHA-12 | 2026-09-02 13:11:35 | 48.31986 | 10.67308 | 101° | 53km/h | 5586m | -3.2m/s | -12.6°C | 40.3% | 515.9hPa | 2.6V | 00:00:00 | 02:42:38 | 00:00:00 | |
| DF3TZ-5 | 2026-09-02 13:11:32 | 48.32002 | 10.67215 | 107° | 53km/h | 5603m | -3.2m/s | -12.7°C | 39.6% | 514.8hPa | 2.6V | 00:00:00 | 00:00:00 | 00:00:00 | |
| DO3MHA-11 | 2026-09-02 13:11:30 | 48.32002 | 10.67215 | 108° | 58km/h | 5603m | -3.2m/s | -12.7°C | 42.2% | 514.8hPa | 2.6V | 00:00:00 | 02:42:33 | 00:00:00 | |
| DM7RM-13 | 2026-09-02 13:11:26 | 48.32016 | 10.67155 | 110° | 57km/h | 5613m | -3.4m/s | -12.8°C | 40.5% | 514.2hPa | 2.6V | 07:36:00 | 00:00:00 | 00:00:00 | |
| DO3MHA-12 | 2026-09-02 13:11:25 | 48.32025 | 10.67113 | 109° | 64km/h | 5619m | -3.2m/s | -12.8°C | 43.4% | 513.7hPa | 2.6V | 00:00:00 | 02:42:28 | 00:00:00 | |
| DB0ND-19 | 2026-09-02 13:11:22 | 48.32044 | 10.67024 | 106° | 62km/h | 5632m | -3.1m/s | -13.0°C | 42.6% | 512.8hPa | 2.6V | 00:00:00 | 00:00:00 | 00:00:00 | |
| NBG1-10 | 2026-09-02 13:11:20 | 48.32053 | 10.66977 | 105° | 58km/h | 5638m | -3.2m/s | -13.0°C | 45.6% | 512.4hPa | 2.6V | 07:36:00 | 02:42:22 | 00:00:00 | |
| DO3MHA-12 | 2026-09-02 13:11:15 | 48.32069 | 10.66879 | 103° | 66km/h | 5651m | -3.3m/s | -13.1°C | 47.4% | 511.5hPa | 2.7V | 07:36:00 | 02:42:18 | 00:00:00 | |
| OE3JTB-15 | 2026-09-02 13:11:13 | 48.32075 | 10.66829 | 101° | 57km/h | 5658m | -3.2m/s | -13.1°C | 46.6% | 511.1hPa | 2.7V | 00:00:00 | 02:42:16 | 00:00:00 | |
| DL6DJ-15 | 2026-09-02 13:11:11 | 48.32083 | 10.66753 | 96° | 66km/h | 5667m | -3.4m/s | -13.2°C | 38.8% | 510.5hPa | 2.7V | 00:00:00 | 00:00:00 | 00:00:00 | |
| DO3MHA-11 | 2026-09-02 13:11:10 | 48.32083 | 10.66753 | 97° | 60km/h | 5668m | -3.4m/s | -13.2°C | 41.3% | 510.4hPa | 2.7V | 00:00:00 | 02:42:13 | 00:00:00 | |
| DB0NH | 2026-09-02 13:11:06 | 48.32088 | 10.66654 | 92° | 57km/h | 5681m | -3.1m/s | -13.2°C | 31.7% | 509.6hPa | 2.7V | 00:00:00 | 02:42:09 | 00:00:00 | |
| DO3MHA-12 | 2026-09-02 13:11:05 | 48.32088 | 10.66630 | 91° | 55km/h | 5684m | -3.1m/s | -13.2°C | 29.3% | 509.4hPa | 2.7V | 00:00:00 | 02:42:08 | 00:00:00 | |
| DF3TZ-5 | 2026-09-02 13:11:01 | 48.32105 | 10.66350 | 103° | 51km/h | 5727m | -3.1m/s | -13.4°C | 30.4% | 506.5hPa | 2.7V | 00:00:00 | 00:00:00 | 00:00:00 | |
| DB0ND-19 | 2026-09-02 13:10:51 | 48.32108 | 10.66331 | 104° | 53km/h | 5730m | -3.1m/s | -13.4°C | 30.5% | 506.3hPa | 2.7V | 00:00:00 | 00:00:00 | 00:00:00 | |
| DO3MHA-11 | 2026-09-02 13:10:50 | 48.32108 | 10.66331 | 105° | 57km/h | 5730m | -3.0m/s | -13.3°C | 32.6% | 506.3hPa | 2.7V | 00:00:00 | 02:41:53 | 00:00:00 | |
| NBG1-10 | 2026-09-02 13:10:46 | 48.32124 | 10.66250 | 108° | 62km/h | 5742m | -3.2m/s | -13.4°C | 27.5% | 505.5hPa | 2.7V | 00:00:00 | 02:41:49 | 00:00:00 | |
| DO3MHA-12 | 2026-09-02 13:10:45 | 48.32129 | 10.66229 | 108° | 62km/h | 5746m | -3.2m/s | -13.4°C | 26.5% | 505.2hPa | 2.7V | 00:00:00 | 02:41:48 | 00:00:00 | |
| OE3JTB-15 | 2026-09-02 13:10:44 | 48.32133 | 10.66208 | 108° | 64km/h | 5749m | -3.2m/s | -13.4°C | 24.6% | 505.1hPa | 2.6V | 00:00:00 | 00:00:00 | 00:00:00 | |
| DL9SK-14 | 2026-09-02 13:10:42 | 48.32142 | 10.66166 | 107° | 58km/h | 5755m | -3.2m/s | -13.4°C | 20.4% | 504.6hPa | 2.6V | 00:00:00 | 00:00:00 | 00:00:00 | |
| DH7VM-15 | 2026-09-02 13:10:41 | 48.32142 | 10.66166 | 109° | 60km/h | 5756m | -3.2m/s | -13.4°C | 20.4% | 504.6hPa | 2.6V | 00:00:00 | 00:00:00 | 00:00:00 | |
| DL6DJ-15 | 2026-09-02 13:10:40 | 48.32157 | 10.66099 | 107° | 64km/h | 5765m | -3.3m/s | -13.4°C | 17.6% | 504.0hPa | 2.6V | 00:00:00 | 00:00:00 | 00:00:00 | |
| DB0NH | 2026-09-02 13:10:36 | 48.32171 | 10.66027 | 107° | 62km/h | 5775m | -3.1m/s | -13.5°C | 21.0% | 503.3hPa | 2.6V | 07:37:00 | 02:41:39 | 00:00:00 | |
| DO3MHA-12 | 2026-09-02 13:10:35 | 48.32176 | 10.66002 | 106° | 69km/h | 5778m | -3.1m/s | -13.5°C | 23.2% | 503.1hPa | 2.6V | 00:00:00 | 02:41:38 | 00:00:00 | |
| DO3MHA-11 | 2026-09-02 13:10:30 | 48.32195 | 10.65872 | 100° | 66km/h | 5793m | -3.0m/s | -13.7°C | 36.8% | 502.1hPa | 2.6V | 00:00:00 | 02:41:33 | 00:00:00 | |
| DO3MHA-12 | 2026-09-02 13:10:25 | 48.32203 | 10.65742 | 93° | 58km/h | 5808m | -3.0m/s | -13.9°C | 39.7% | 501.2hPa | 2.6V | 00:00:00 | 02:41:28 | 00:00:00 | |
| DM7RM-13 | 2026-09-02 13:10:23 | 48.32204 | 10.65718 | 93° | 64km/h | 5811m | -3.1m/s | -14.0°C | 38.1% | 501.0hPa | 2.6V | 00:00:00 | 00:00:00 | 00:00:00 | |
| DB0ND-19 | 2026-09-02 13:10:20 | 48.32208 | 10.65606 | 95° | 55km/h | 5826m | -3.0m/s | -14.0°C | 39.5% | 500.0hPa | 2.6V | 00:00:00 | 00:00:00 | 00:00:00 | |
| DO3MHA-12 | 2026-09-02 13:10:15 | 48.32217 | 10.65525 | 104° | 58km/h | 5838m | -3.0m/s | -14.0°C | 42.4% | 499.1hPa | 2.6V | 00:00:00 | 02:41:18 | 00:00:00 | |
| NBG1-10 | 2026-09-02 13:10:13 | 48.32224 | 10.65486 | 108° | 62km/h | 5844m | -3.0m/s | -14.0°C | 42.4% | 498.7hPa | 2.7V | 00:00:00 | 02:41:16 | 00:00:00 | |
| DL9SK-14 | 2026-09-02 13:10:11 | 48.32233 | 10.65445 | 109° | 57km/h | 5850m | -3.0m/s | -14.1°C | 39.8% | 498.3hPa | 2.7V | 00:00:00 | 00:00:00 | 00:00:00 | |
| DO3MHA-11 | 2026-09-02 13:10:10 | 48.32238 | 10.65424 | 111° | 68km/h | 5853m | -3.0m/s | -14.1°C | 42.7% | 498.2hPa | 2.7V | 00:00:00 | 02:41:13 | 00:00:00 | |
| DL6DJ-15 | 2026-09-02 13:10:09 | 48.32249 | 10.65380 | 110° | 62km/h | 5859m | -3.0m/s | -14.2°C | 40.2% | 497.7hPa | 2.7V | 00:00:00 | 00:00:00 | 00:00:00 | |
| DB0NH | 2026-09-02 13:10:06 | 48.32261 | 10.65334 | 110° | 62km/h | 5865m | -2.8m/s | -14.3°C | 43.0% | 497.3hPa | 2.7V | 00:00:00 | 02:41:09 | 00:00:00 | |
| DO3MHA-12 | 2026-09-02 13:10:05 | 48.32266 | 10.65310 | 109° | 69km/h | 5868m | -2.8m/s | -14.3°C | 43.2% | 497.1hPa | 2.7V | 00:00:00 | 02:41:08 | 00:00:00 | |
| DF3TZ-5 | 2026-09-02 13:09:59 | 48.32298 | 10.65129 | 100° | 69km/h | 5889m | -3.3m/s | -14.6°C | 41.7% | 495.8hPa | 2.7V | 00:00:00 | 00:00:00 | 00:00:00 | |
| DB0ND-19 | 2026-09-02 13:09:48 | 48.32316 | 10.64869 | 98° | 53km/h | 5923m | -3.1m/s | -14.8°C | 42.8% | 493.6hPa | 2.7V | 00:00:00 | 00:00:00 | 00:00:00 | |
| OE3JTB-15 | 2026-09-02 13:09:46 | 48.32319 | 10.64849 | 101° | 62km/h | 5926m | -3.2m/s | -14.8°C | 45.8% | 493.3hPa | 2.7V | 07:37:00 | 02:40:49 | 00:00:00 | |
| DO3MHA-12 | 2026-09-02 13:09:45 | 48.32321 | 10.64830 | 104° | 55km/h | 5930m | -3.1m/s | -14.8°C | 45.7% | 493.2hPa | 2.7V | 00:00:00 | 02:40:48 | 00:00:00 | |
| DB0UT-7 | 2026-09-02 13:09:40 | 48.32342 | 10.64734 | 112° | 62km/h | 5945m | -3.2m/s | -14.8°C | 44.2% | 492.1hPa | 2.6V | 00:00:00 | 00:00:00 | 00:00:00 | |
| DO3MHA-11 | 2026-09-02 13:09:39 | 48.32347 | 10.64714 | 113° | 64km/h | 5948m | -3.2m/s | -14.9°C | 44.6% | 491.9hPa | 2.6V | 07:38:00 | 02:40:42 | 00:00:00 | |
| DL6DJ-15 | 2026-09-02 13:09:37 | 48.32359 | 10.64674 | 113° | 60km/h | 5955m | -3.2m/s | -14.9°C | 43.5% | 491.5hPa | 2.6V | 00:00:00 | 00:00:00 | 00:00:00 | |
| DB0NH | 2026-09-02 13:09:36 | 48.32365 | 10.64652 | 114° | 62km/h | 5958m | -3.2m/s | -14.9°C | 46.4% | 491.2hPa | 2.6V | 00:00:00 | 02:40:39 | 00:00:00 | |
| DO3MHA-12 | 2026-09-02 13:09:35 | 48.32371 | 10.64630 | 113° | 69km/h | 5961m | -3.2m/s | -14.9°C | 47.2% | 491.1hPa | 2.6V | 00:00:00 | 02:40:38 | 00:00:00 | |
| DM7RM-13 | 2026-09-02 13:09:30 | 48.32396 | 10.64536 | 110° | 69km/h | 5973m | -3.1m/s | -15.1°C | 46.2% | 490.2hPa | 2.6V | 07:38:00 | 00:00:00 | 00:00:00 | |
| DO3MHA-11 | 2026-09-02 13:09:29 | 48.32407 | 10.64485 | 107° | 68km/h | 5980m | -3.1m/s | -15.1°C | 49.2% | 489.9hPa | 2.6V | 00:00:00 | 02:40:32 | 00:00:00 | |
| DF3TZ-5 | 2026-09-02 13:09:28 | 48.32412 | 10.64459 | 104° | 69km/h | 5982m | -2.9m/s | 0°C | -1.0% | 489.7hPa | 2.7V | 00:00:00 | 00:00:00 | 00:00:00 | |
| DH7VM-15 | 2026-09-02 13:09:26 | 48.32419 | 10.64407 | 103° | 69km/h | 5988m | -3.0m/s | -15.3°C | 47.5% | 489.4hPa | 2.7V | 00:00:00 | 00:00:00 | 00:00:00 | |
| DO3MHA-12 | 2026-09-02 13:09:25 | 48.32423 | 10.64382 | 101° | 64km/h | 5991m | -3.1m/s | -15.2°C | 51.1% | 489.2hPa | 2.7V | 00:00:00 | 02:40:28 | 00:00:00 | |
| DK5PH-5 | 2026-09-02 13:09:23 | 48.32429 | 10.64331 | 99° | 53km/h | 5997m | -3.0m/s | -15.3°C | 52.8% | 488.7hPa | 2.7V | 00:00:00 | 02:40:26 | 00:00:00 | |
| DO3MHA-11 | 2026-09-02 13:09:19 | 48.32437 | 10.64235 | 97° | 55km/h | 6010m | -3.3m/s | -15.3°C | 54.6% | 487.9hPa | 2.6V | 00:00:00 | 02:40:22 | 00:00:00 | |
| DB0ND-19 | 2026-09-02 13:09:18 | 48.32440 | 10.64190 | 96° | 58km/h | 6016m | -3.3m/s | -15.4°C | 52.3% | 487.5hPa | 2.6V | 00:00:00 | 00:00:00 | 00:00:00 | |
| OE3JTB-15 | 2026-09-02 13:09:17 | 48.32440 | 10.64190 | 97° | 58km/h | 6016m | -3.3m/s | -15.3°C | 55.9% | 487.5hPa | 2.6V | 00:00:00 | 00:00:00 | 00:00:00 | |
| DO3MHA-12 | 2026-09-02 13:09:15 | 48.32443 | 10.64147 | 97° | 51km/h | 6023m | -3.4m/s | -15.3°C | 56.7% | 487.1hPa | 2.7V | 00:00:00 | 02:40:18 | 00:00:00 | |
| DB0UT-7 | 2026-09-02 13:09:10 | 48.32453 | 10.64048 | 102° | 58km/h | 6040m | -3.3m/s | -15.4°C | 58.1% | 486.0hPa | 2.7V | 07:38:00 | 02:40:13 | 00:00:00 | |
| DO3MHA-11 | 2026-09-02 13:09:09 | 48.32456 | 10.64029 | 105° | 55km/h | 6043m | -3.1m/s | -15.4°C | 58.4% | 485.8hPa | 2.7V | 00:00:00 | 02:40:12 | 00:00:00 | |
| NBG1-10 | 2026-09-02 13:09:07 | 48.32464 | 10.63993 | 110° | 57km/h | 6049m | -3.0m/s | -15.5°C | 58.8% | 485.4hPa | 2.7V | 00:00:00 | 02:40:10 | 00:00:00 | |
| DB0NH | 2026-09-02 13:09:06 | 48.32468 | 10.63975 | 112° | 57km/h | 6052m | -2.8m/s | -15.5°C | 59.5% | 485.2hPa | 2.7V | 00:00:00 | 02:40:09 | 00:00:00 | |
| DO3MHA-12 | 2026-09-02 13:09:05 | 48.32473 | 10.63957 | 113° | 60km/h | 6055m | -2.9m/s | -15.5°C | 60.2% | 485.0hPa | 2.7V | 00:00:00 | 02:40:08 | 00:00:00 | |
| DM7RM-13 | 2026-09-02 13:09:01 | 48.32490 | 10.63898 | 115° | 58km/h | 6064m | -3.2m/s | -15.7°C | 58.3% | 484.6hPa | 2.7V | 07:38:00 | 00:00:00 | 00:00:00 | |
| DF7PN | 2026-09-02 13:08:53 | 48.32538 | 10.63692 | 103° | 64km/h | 6092m | -3.4m/s | -15.9°C | 61.9% | 482.8hPa | 2.7V | 00:00:00 | 00:00:00 | 00:00:00 | |
| DB0ND-19 | 2026-09-02 13:08:46 | 48.32553 | 10.63532 | 95° | 55km/h | 6113m | -3.0m/s | -16.0°C | 64.4% | 481.3hPa | 2.7V | 00:00:00 | 00:00:00 | 00:00:00 | |
| DO3MHA-12 | 2026-09-02 13:08:45 | 48.32555 | 10.63511 | 95° | 47km/h | 6117m | -3.0m/s | -16.0°C | 68.8% | 481.1hPa | 2.7V | 00:00:00 | 02:39:48 | 00:00:00 | |
| DB0UT-7 | 2026-09-02 13:08:40 | 48.32561 | 10.63417 | 99° | 53km/h | 6132m | -3.2m/s | -16.0°C | 70.6% | 480.1hPa | 2.7V | 00:00:00 | 00:00:00 | 00:00:00 | |
| DO3MHA-11 | 2026-09-02 13:08:39 | 48.32562 | 10.63400 | 100° | 46km/h | 6136m | -3.3m/s | -16.0°C | 70.9% | 479.8hPa | 2.6V | 00:00:00 | 02:39:42 | 00:00:00 | |
| DL9SK-14 | 2026-09-02 13:08:38 | 48.32567 | 10.63367 | 103° | 42km/h | 6142m | -3.3m/s | -16.1°C | 66.9% | 479.5hPa | 2.6V | 00:00:00 | 00:00:00 | 00:00:00 | |
| DL6DJ-15 | 2026-09-02 13:08:36 | 48.32573 | 10.63335 | 108° | 42km/h | 6149m | -3.3m/s | -16.1°C | 67.3% | 479.1hPa | 2.6V | 00:00:00 | 00:00:00 | 00:00:00 | |
| DO3MHA-12 | 2026-09-02 13:08:35 | 48.32573 | 10.63335 | 109° | 49km/h | 6149m | -3.3m/s | -16.1°C | 71.9% | 479.0hPa | 2.6V | 07:39:00 | 02:39:38 | 00:00:00 | |
| NBG1-10 | 2026-09-02 13:08:34 | 48.32577 | 10.63319 | 111° | 51km/h | 6152m | -3.2m/s | -16.1°C | 72.5% | 478.8hPa | 2.6V | 00:00:00 | 02:39:37 | 00:00:00 | |
| DO3MHA-11 | 2026-09-02 13:08:29 | 48.32602 | 10.63237 | 118° | 58km/h | 6169m | -3.3m/s | -16.2°C | 76.4% | 477.7hPa | 2.6V | 00:00:00 | 02:39:32 | 00:00:00 | |
| DO3MHA-12 | 2026-09-02 13:08:25 | 48.32627 | 10.63161 | 114° | 60km/h | 6182m | -3.2m/s | -16.4°C | 79.2% | 476.9hPa | 2.7V | 00:00:00 | 02:39:28 | 00:00:00 | |
| DF7PN | 2026-09-02 13:08:22 | 48.32643 | 10.63096 | 107° | 60km/h | 6191m | -3.3m/s | -16.6°C | 74.8% | 476.4hPa | 2.7V | 00:00:00 | 00:00:00 | 00:00:00 | |
| DO3MHA-11 | 2026-09-02 13:08:19 | 48.32655 | 10.63028 | 102° | 51km/h | 6201m | -3.2m/s | -16.6°C | 83.1% | 475.7hPa | 2.7V | 07:39:00 | 02:39:22 | 00:00:00 | |
| DG1MJG | 2026-09-02 13:08:16 | 48.32660 | 10.62985 | 100° | 57km/h | 6207m | -3.4m/s | -16.6°C | 77.8% | 475.4hPa | 2.7V | 07:39:00 | 00:00:00 | 00:00:00 | |
| DO3MHA-12 | 2026-09-02 13:08:15 | 48.32664 | 10.62944 | 99° | 47km/h | 6214m | -3.2m/s | -16.4°C | 81.1% | 474.9hPa | 2.7V | 00:00:00 | 02:39:18 | 00:00:00 | |
| DB0UT-7 | 2026-09-02 13:08:10 | 48.32675 | 10.62854 | 105° | 57km/h | 6230m | -3.1m/s | -16.3°C | 79.2% | 473.9hPa | 2.6V | 00:00:00 | 02:39:13 | 00:00:00 | |
| DO3MHA-11 | 2026-09-02 13:08:09 | 48.32678 | 10.62838 | 107° | 47km/h | 6233m | -3.2m/s | -16.3°C | 79.3% | 473.7hPa | 2.6V | 00:00:00 | 02:39:12 | 00:00:00 | |
| DL9SK-14 | 2026-09-02 13:08:07 | 48.32690 | 10.62791 | 114° | 44km/h | 6244m | -3.4m/s | -16.4°C | 73.9% | 473.1hPa | 2.6V | 00:00:00 | 00:00:00 | 00:00:00 | |
| DB0NH | 2026-09-02 13:08:06 | 48.32690 | 10.62791 | 115° | 57km/h | 6244m | -3.3m/s | -16.4°C | 78.9% | 473.1hPa | 2.6V | 00:00:00 | 02:39:09 | 00:00:00 | |
| DO3MHA-12 | 2026-09-02 13:08:05 | 48.32695 | 10.62776 | 116° | 51km/h | 6247m | -3.2m/s | -16.4°C | 78.2% | 472.8hPa | 2.6V | 00:00:00 | 02:39:08 | 00:00:00 | |
| DL6DJ-15 | 2026-09-02 13:08:04 | 48.32700 | 10.62760 | 117° | 46km/h | 6250m | -3.4m/s | -16.4°C | 72.8% | 472.7hPa | 2.6V | 00:00:00 | 00:00:00 | 00:00:00 | |
| DF7PN | 2026-09-02 13:07:51 | 48.32793 | 10.62493 | 111° | 64km/h | 6298m | -3.6m/s | -16.8°C | 75.8% | 469.7hPa | 2.6V | 00:00:00 | 00:00:00 | 00:00:00 | |
| DB0ND-19 | 2026-09-02 13:07:44 | 48.32823 | 10.62355 | 103° | 62km/h | 6318m | -3.4m/s | -17.1°C | 77.9% | 468.3hPa | 2.6V | 00:00:00 | 00:00:00 | 00:00:00 | |
| DB0UT-7 | 2026-09-02 13:07:40 | 48.32836 | 10.62266 | 102° | 55km/h | 6332m | -3.4m/s | -17.2°C | 84.3% | 467.5hPa | 2.6V | 00:00:00 | 00:00:00 | 00:00:00 | |
| DO3MHA-11 | 2026-09-02 13:07:39 | 48.32839 | 10.62245 | 102° | 49km/h | 6336m | -3.5m/s | -17.2°C | 84.4% | 467.2hPa | 2.6V | 00:00:00 | 02:38:42 | 00:00:00 | |
| DM7RM-13 | 2026-09-02 13:07:38 | 48.32839 | 10.62245 | 102° | 55km/h | 6336m | -3.6m/s | -17.3°C | 78.9% | 467.3hPa | 2.6V | 07:40:00 | 00:00:00 | 00:00:00 | |
| DB0NH | 2026-09-02 13:07:36 | 48.32847 | 10.62186 | 103° | 57km/h | 6346m | -3.4m/s | -17.3°C | 84.8% | 466.6hPa | 2.6V | 00:00:00 | 02:38:39 | 00:00:00 | |
| DO3MHA-12 | 2026-09-02 13:07:35 | 48.32850 | 10.62168 | 105° | 47km/h | 6349m | -3.6m/s | -17.3°C | 84.5% | 466.4hPa | 2.6V | 00:00:00 | 02:38:38 | 00:00:00 | |
| DL6DJ-15 | 2026-09-02 13:07:33 | 48.32857 | 10.62134 | 107° | 46km/h | 6356m | -3.5m/s | -17.4°C | 78.2% | 466.0hPa | 2.6V | 00:00:00 | 00:00:00 | 00:00:00 | |
| DO3MHA-11 | 2026-09-02 13:07:29 | 48.32873 | 10.62068 | 114° | 51km/h | 6371m | -3.5m/s | -17.4°C | 83.6% | 465.1hPa | 2.6V | 00:00:00 | 02:38:32 | 00:00:00 | |
| NBG1-10 | 2026-09-02 13:07:28 | 48.32878 | 10.62051 | 116° | 57km/h | 6374m | -3.5m/s | -17.5°C | 83.9% | 464.8hPa | 2.6V | 00:00:00 | 02:38:31 | 00:00:00 | |
| DO3MHA-12 | 2026-09-02 13:07:25 | 48.32895 | 10.62003 | 120° | 58km/h | 6385m | -3.7m/s | -17.5°C | 84.0% | 464.2hPa | 2.6V | 00:00:00 | 02:38:28 | 00:00:00 | |
| OE3JTB-15 | 2026-09-02 13:07:21 | 48.32923 | 10.61933 | 122° | 57km/h | 6399m | -3.7m/s | -17.6°C | 84.6% | 463.2hPa | 2.6V | 00:00:00 | 00:00:00 | 00:00:00 | |
| OE5DXL-15 | 2026-09-02 13:07:19 | 48.32938 | 10.61894 | 120° | 57km/h | 6407m | -3.7m/s | -17.7°C | 84.7% | 462.9hPa | 2.6V | 00:00:00 | 00:00:00 | 00:00:00 | |
| DM7RM-13 | 2026-09-02 13:07:18 | 48.32938 | 10.61894 | 120° | 62km/h | 6407m | -3.7m/s | -17.7°C | 79.1% | 462.9hPa | 2.7V | 07:40:00 | 00:00:00 | 00:00:00 | |
| DG1MJG | 2026-09-02 13:07:16 | 48.32953 | 10.61852 | 117° | 64km/h | 6414m | -3.7m/s | -17.8°C | 79.4% | 462.4hPa | 2.7V | 07:40:00 | 00:00:00 | 00:00:00 | |
| DO3MHA-12 | 2026-09-02 13:07:15 | 48.32967 | 10.61807 | 114° | 64km/h | 6421m | -3.7m/s | -17.8°C | 85.1% | 461.9hPa | 2.7V | 07:40:00 | 02:38:18 | 00:00:00 | |
| DB0ND-19 | 2026-09-02 13:07:13 | 48.32994 | 10.61691 | 105° | 62km/h | 6439m | -3.8m/s | -18.1°C | 80.3% | 460.9hPa | 2.6V | 00:00:00 | 00:00:00 | 00:00:00 | |
| DB0UT-7 | 2026-09-02 13:07:10 | 48.32994 | 10.61691 | 106° | 57km/h | 6439m | -3.7m/s | -18.1°C | 86.1% | 460.9hPa | 2.6V | 00:00:00 | 02:38:13 | 00:00:00 | |
| DO3MHA-11 | 2026-09-02 13:07:09 | 48.32998 | 10.61668 | 106° | 57km/h | 6443m | -3.6m/s | -18.1°C | 86.5% | 460.6hPa | 2.7V | 00:00:00 | 02:38:12 | 00:00:00 | |
| DB0NH | 2026-09-02 13:07:06 | 48.33009 | 10.61600 | 103° | 57km/h | 6454m | -3.8m/s | -18.2°C | 86.6% | 459.9hPa | 2.7V | 00:00:00 | 02:38:09 | 00:00:00 | |
| DL9SK-14 | 2026-09-02 13:07:05 | 48.33015 | 10.61557 | 101° | 57km/h | 6461m | -3.7m/s | -18.3°C | 81.0% | 459.5hPa | 2.7V | 00:00:00 | 00:00:00 | 00:00:00 | |
| DL6DJ-15 | 2026-09-02 13:07:02 | 48.33021 | 10.61516 | 101° | 53km/h | 6469m | -3.9m/s | -18.4°C | 80.5% | 459.0hPa | 2.7V | 00:00:00 | 00:00:00 | 00:00:00 | |
| DO3MHA-11 | 2026-09-02 13:06:59 | 48.33030 | 10.61460 | 108° | 49km/h | 6480m | -3.7m/s | -18.4°C | 86.3% | 458.3hPa | 2.7V | 07:40:00 | 02:38:02 | 00:00:00 | |
| DK5PH-5 | 2026-09-02 13:06:57 | 48.33038 | 10.61426 | 112° | 60km/h | 6487m | -3.7m/s | -18.4°C | 86.7% | 457.8hPa | 2.6V | 00:00:00 | 02:38:00 | 00:00:00 | |
| DO3MHA-12 | 2026-09-02 13:06:55 | 48.33048 | 10.61393 | 116° | 53km/h | 6495m | -3.6m/s | -18.5°C | 87.0% | 457.4hPa | 2.7V | 00:00:00 | 02:37:58 | 00:00:00 | |
| OE3JTB-15 | 2026-09-02 13:06:52 | 48.33065 | 10.61344 | 120° | 60km/h | 6507m | -3.9m/s | -18.5°C | 86.5% | 456.7hPa | 2.7V | 00:00:00 | 02:37:55 | 00:00:00 | |
| OE5DXL-15 | 2026-09-02 13:06:49 | 48.33086 | 10.61293 | 123° | 64km/h | 6518m | -3.9m/s | -18.6°C | 86.6% | 455.9hPa | 2.7V | 00:00:00 | 00:00:00 | 00:00:00 | |
| DO3MHA-12 | 2026-09-02 13:06:45 | 48.33118 | 10.61216 | 121° | 66km/h | 6534m | -3.9m/s | -18.7°C | 87.1% | 454.9hPa | 2.7V | 00:00:00 | 02:37:48 | 00:00:00 | |
| DB0ND-19 | 2026-09-02 13:06:42 | 48.33142 | 10.61151 | 116° | 66km/h | 6545m | -3.9m/s | -18.9°C | 82.1% | 454.4hPa | 2.6V | 00:00:00 | 00:00:00 | 00:00:00 | |
| DB0UT-7 | 2026-09-02 13:06:40 | 48.33156 | 10.61105 | 115° | 58km/h | 6553m | -3.9m/s | -19.0°C | 88.3% | 453.8hPa | 2.6V | 00:00:00 | 00:00:00 | 00:00:00 | |
| DO3MHA-11 | 2026-09-02 13:06:39 | 48.33163 | 10.61082 | 113° | 64km/h | 6557m | -3.9m/s | -19.0°C | 88.0% | 453.6hPa | 2.6V | 00:00:00 | 02:37:42 | 00:00:00 | |
| DB0NH | 2026-09-02 13:06:36 | 48.33181 | 10.61010 | 110° | 58km/h | 6568m | -3.8m/s | -19.1°C | 88.4% | 452.8hPa | 2.6V | 07:41:00 | 02:37:39 | 00:00:00 | |
| DO3MHA-12 | 2026-09-02 13:06:35 | 48.33187 | 10.60986 | 108° | 58km/h | 6572m | -4.1m/s | -19.2°C | 88.4% | 452.6hPa | 2.6V | 00:00:00 | 02:37:38 | 00:00:00 | |
| DL9SK-14 | 2026-09-02 13:06:34 | 48.33196 | 10.60939 | 105° | 62km/h | 6580m | -4.0m/s | -19.3°C | 81.7% | 452.2hPa | 2.6V | 00:00:00 | 00:00:00 | 00:00:00 | |
| DL6DJ-15 | 2026-09-02 13:06:31 | 48.33204 | 10.60893 | 103° | 60km/h | 6588m | -4.1m/s | -19.3°C | 80.6% | 451.7hPa | 2.6V | 00:00:00 | 00:00:00 | 00:00:00 | |
| DO3MHA-11 | 2026-09-02 13:06:29 | 48.33212 | 10.60850 | 104° | 51km/h | 6596m | -4.0m/s | -19.3°C | 86.2% | 451.2hPa | 2.6V | 00:00:00 | 02:37:32 | 00:00:00 | |
| DK5PH-5 | 2026-09-02 13:06:27 | 48.33218 | 10.60810 | 106° | 60km/h | 6604m | -4.1m/s | -19.4°C | 86.1% | 450.7hPa | 2.6V | 00:00:00 | 02:37:30 | 00:00:00 | |
| DO3MHA-12 | 2026-09-02 13:06:25 | 48.33226 | 10.60773 | 109° | 51km/h | 6612m | -4.0m/s | -19.5°C | 85.9% | 450.3hPa | 2.6V | 00:00:00 | 02:37:28 | 00:00:00 | |
| NBG1-10 | 2026-09-02 13:06:22 | 48.33239 | 10.60721 | 116° | 58km/h | 6624m | -4.0m/s | -19.5°C | 86.2% | 449.5hPa | 2.6V | 00:00:00 | 02:37:25 | 00:00:00 | |
| DO3MHA-11 | 2026-09-02 13:06:19 | 48.33257 | 10.60672 | 122° | 60km/h | 6636m | -3.9m/s | -19.6°C | 86.6% | 448.7hPa | 2.6V | 00:00:00 | 02:37:22 | 00:00:00 | |
| DF7PN | 2026-09-02 13:06:18 | 48.33265 | 10.60655 | 122° | 53km/h | 6640m | -4.0m/s | -19.7°C | 81.0% | 448.5hPa | 2.6V | 00:00:00 | 00:00:00 | 00:00:00 | |
| DM7RM-13 | 2026-09-02 13:06:16 | 48.33272 | 10.60637 | 125° | 57km/h | 6644m | -4.0m/s | -19.7°C | 81.1% | 448.3hPa | 2.6V | 07:41:00 | 00:00:00 | 00:00:00 | |
| DO3MHA-12 | 2026-09-02 13:06:15 | 48.33288 | 10.60600 | 123° | 66km/h | 6652m | -3.9m/s | -19.7°C | 87.6% | 447.8hPa | 2.6V | 00:00:00 | 02:37:18 | 00:00:00 | |
| DB0UT-7 | 2026-09-02 13:06:10 | 48.33330 | 10.60493 | 118° | 60km/h | 6672m | -4.1m/s | -19.9°C | 88.0% | 446.6hPa | 2.7V | 00:00:00 | 02:37:13 | 00:00:00 | |
| DO3MHA-11 | 2026-09-02 13:06:09 | 48.33338 | 10.60470 | 116° | 66km/h | 6676m | -4.2m/s | -19.9°C | 87.8% | 446.3hPa | 2.7V | 00:00:00 | 02:37:12 | 00:00:00 | |
| DB0NH | 2026-09-02 13:06:06 | 48.33359 | 10.60398 | 111° | 60km/h | 6689m | -4.1m/s | -20.0°C | 87.4% | 445.6hPa | 2.7V | 00:00:00 | 02:37:09 | 00:00:00 | |
| DO3MHA-12 | 2026-09-02 13:06:05 | 48.33364 | 10.60374 | 110° | 60km/h | 6693m | -4.3m/s | -20.1°C | 87.3% | 445.3hPa | 2.7V | 00:00:00 | 02:37:08 | 00:00:00 | |
| DL9SK-14 | 2026-09-02 13:06:03 | 48.33379 | 10.60302 | 104° | 62km/h | 6705m | -4.3m/s | -20.1°C | 77.0% | 444.6hPa | 2.7V | 00:00:00 | 00:00:00 | 00:00:00 | |
| DL6DJ-15 | 2026-09-02 13:06:00 | 48.33386 | 10.60257 | 103° | 58km/h | 6714m | -4.3m/s | -20.0°C | 67.6% | 444.1hPa | 2.7V | 00:00:00 | 00:00:00 | 00:00:00 | |
| DF7PN | 2026-09-02 13:05:47 | 48.33450 | 10.60013 | 121° | 60km/h | 6767m | -4.1m/s | -19.9°C | 47.1% | 440.9hPa | 2.7V | 00:00:00 | 00:00:00 | 00:00:00 | |
| DG1MJG | 2026-09-02 13:05:44 | 48.33466 | 10.59971 | 120° | 64km/h | 6776m | -4.2m/s | -19.9°C | 46.8% | 440.4hPa | 2.7V | 07:42:00 | 00:00:00 | 00:00:00 | |
| DB0UT-7 | 2026-09-02 13:05:40 | 48.33504 | 10.59856 | 112° | 62km/h | 6797m | -4.3m/s | -20.0°C | 55.7% | 439.1hPa | 2.7V | 00:00:00 | 00:00:00 | 00:00:00 | |
| DO3MHA-11 | 2026-09-02 13:05:39 | 48.33510 | 10.59831 | 110° | 62km/h | 6801m | -4.2m/s | -20.0°C | 52.0% | 438.9hPa | 2.6V | 07:42:00 | 02:36:42 | 00:00:00 | |
| OE5DXL-15 | 2026-09-02 13:05:38 | 48.33515 | 10.59806 | 107° | 62km/h | 6805m | -4.1m/s | -20.0°C | 52.8% | 438.6hPa | 2.6V | 07:42:00 | 00:00:00 | 00:00:00 | |
| DB0NH | 2026-09-02 13:05:36 | 48.33524 | 10.59756 | 103° | 62km/h | 6813m | -4.0m/s | -20.1°C | 54.1% | 438.1hPa | 2.6V | 00:00:00 | 02:36:39 | 00:00:00 | |
| DO3MHA-12 | 2026-09-02 13:05:35 | 48.33528 | 10.59732 | 102° | 55km/h | 6817m | -4.2m/s | -20.1°C | 54.1% | 437.9hPa | 2.7V | 00:00:00 | 02:36:38 | 00:00:00 | |
| DM7RM-13 | 2026-09-02 13:05:34 | 48.33528 | 10.59732 | 103° | 64km/h | 6817m | -4.2m/s | -20.1°C | 50.0% | 438.0hPa | 2.7V | 00:00:00 | 00:00:00 | 00:00:00 | |
| DL9SK-14 | 2026-09-02 13:05:32 | 48.33540 | 10.59645 | 102° | 55km/h | 6834m | -4.3m/s | -20.2°C | 50.5% | 437.0hPa | 2.7V | 00:00:00 | 00:00:00 | 00:00:00 | |
| OE3JTB-15 | 2026-09-02 13:05:31 | 48.33540 | 10.59645 | 103° | 58km/h | 6834m | -4.3m/s | -20.2°C | 54.7% | 436.9hPa | 2.7V | 07:42:00 | 00:00:00 | 00:00:00 | |
| DO3MHA-11 | 2026-09-02 13:05:29 | 48.33546 | 10.59606 | 106° | 53km/h | 6842m | -4.1m/s | -20.2°C | 55.0% | 436.4hPa | 2.7V | 00:00:00 | 02:36:32 | 00:00:00 | |
| DO3MHA-12 | 2026-09-02 13:05:25 | 48.33564 | 10.59533 | 117° | 60km/h | 6859m | -4.3m/s | -20.2°C | 56.4% | 435.5hPa | 2.6V | 00:00:00 | 02:36:28 | 00:00:00 | |
| DK5PH-5 | 2026-09-02 13:05:20 | 48.33600 | 10.59443 | 123° | 62km/h | 6881m | -4.5m/s | -20.3°C | 58.6% | 434.2hPa | 2.6V | 00:00:00 | 02:36:23 | 00:00:00 | |
| DO3MHA-11 | 2026-09-02 13:05:19 | 48.33608 | 10.59423 | 123° | 69km/h | 6885m | -4.4m/s | -20.4°C | 58.8% | 433.9hPa | 2.6V | 00:00:00 | 02:36:22 | 00:00:00 | |
| NBG1-10 | 2026-09-02 13:05:16 | 48.33635 | 10.59359 | 121° | 64km/h | 6898m | -4.3m/s | -20.5°C | 59.8% | 433.1hPa | 2.6V | 00:00:00 | 02:36:19 | 00:00:00 | |
| DO3MHA-12 | 2026-09-02 13:05:15 | 48.33643 | 10.59336 | 119° | 69km/h | 6903m | -4.2m/s | -20.6°C | 60.1% | 432.9hPa | 2.6V | 00:00:00 | 02:36:18 | 00:00:00 | |
| DM7RM-13 | 2026-09-02 13:05:14 | 48.33643 | 10.59336 | 119° | 71km/h | 6903m | -4.3m/s | -20.6°C | 55.5% | 432.9hPa | 2.5V | 07:43:00 | 00:00:00 | 00:00:00 | |
| DB0UT-7 | 2026-09-02 13:05:10 | 48.33680 | 10.59212 | 110° | 64km/h | 6923m | -4.0m/s | -20.9°C | 61.8% | 431.7hPa | 2.5V | 07:42:00 | 02:36:13 | 00:00:00 | |
| DO3MHA-11 | 2026-09-02 13:05:09 | 48.33686 | 10.59187 | 109° | 62km/h | 6927m | -4.0m/s | -21.0°C | 62.0% | 431.4hPa | 2.5V | 00:00:00 | 02:36:12 | 00:00:00 | |
| OE5DXL-15 | 2026-09-02 13:05:08 | 48.33691 | 10.59163 | 108° | 62km/h | 6931m | -4.0m/s | -21.0°C | 62.5% | 431.2hPa | 2.5V | 00:00:00 | 00:00:00 | 00:00:00 | |
| DB0NH | 2026-09-02 13:05:06 | 48.33701 | 10.59116 | 107° | 66km/h | 6939m | -4.0m/s | -21.1°C | 62.6% | 430.7hPa | 2.6V | 00:00:00 | 02:36:09 | 00:00:00 | |
| DO3MHA-12 | 2026-09-02 13:05:05 | 48.33706 | 10.59093 | 107° | 57km/h | 6943m | -3.9m/s | -21.2°C | 62.7% | 430.6hPa | 2.6V | 00:00:00 | 02:36:08 | 00:00:00 | |
| DL9SK-14 | 2026-09-02 13:05:00 | 48.33730 | 10.58989 | 113° | 55km/h | 6963m | -4.0m/s | -21.3°C | 58.3% | 429.4hPa | 2.6V | 00:00:00 | 00:00:00 | 00:00:00 | |
| DL6DJ-15 | 2026-09-02 13:04:58 | 48.33742 | 10.58951 | 118° | 55km/h | 6971m | -4.3m/s | -21.3°C | 58.5% | 429.0hPa | 2.6V | 00:00:00 | 00:00:00 | 00:00:00 | |
| DF7PN | 2026-09-02 13:04:45 | 48.33868 | 10.58673 | 123° | 73km/h | 7029m | -4.2m/s | -21.7°C | 60.6% | 425.6hPa | 2.6V | 00:00:00 | 00:00:00 | 00:00:00 | |
| DK7TD | 2026-09-02 13:04:33 | 48.33966 | 10.58391 | 111° | 75km/h | 7075m | -4.4m/s | -22.1°C | 63.7% | 422.9hPa | 2.6V | 07:43:11 | 02:35:36 | 00:00:00 | |
| DK7TD | 2026-09-02 13:04:21 | 48.34036 | 10.58120 | 120° | 58km/h | 7124m | -4m/s | -22.4°C | 59.3% | 420.1hPa | 2.6V | 07:44:02 | 02:35:24 | 00:00:00 | |
| DK7TD | 2026-09-02 13:04:11 | 48.34127 | 10.57904 | 122° | 75km/h | 7165m | -4.2m/s | -22.5°C | 55.7% | 417.8hPa | 2.6V | 07:44:02 | 02:35:14 | 00:00:00 | |
| DK7TD | 2026-09-02 13:04:00 | 48.34216 | 10.57609 | 106° | 75km/h | 7210m | -4.1m/s | -22.9°C | 55.5% | 415.2hPa | 2.5V | 07:44:02 | 02:35:03 | 00:00:00 | |
| DK7TD | 2026-09-02 13:03:49 | 48.34269 | 10.57347 | 113° | 60km/h | 7255m | -4.1m/s | -23.1°C | 47.4% | 412.6hPa | 2.6V | 07:44:02 | 02:34:52 | 00:00:00 | |
| DK7TD | 2026-09-02 13:03:39 | 48.34349 | 10.57125 | 118° | 77km/h | 7295m | -4.1m/s | -23.4°C | 41.8% | 410.4hPa | 2.6V | 07:44:02 | 02:34:42 | 00:00:00 | |
| DK7TD | 2026-09-02 13:03:28 | 48.34426 | 10.56821 | 103° | 73km/h | 7340m | -4.1m/s | -23.9°C | 40.8% | 407.8hPa | 2.5V | 07:44:53 | 02:34:31 | 00:00:00 | |
| DK7TD | 2026-09-02 13:03:18 | 48.34482 | 10.56569 | 117° | 64km/h | 7384m | -4m/s | -24.1°C | 40.2% | 405.5hPa | 2.5V | 07:44:53 | 02:34:20 | 00:00:00 | |
| DK7TD | 2026-09-02 13:03:07 | 48.34574 | 10.56291 | 112° | 82km/h | 7429m | -4.2m/s | -24.5°C | 39.3% | 402.9hPa | 2.5V | 07:44:53 | 02:34:09 | 00:00:00 | |
| DK7TD | 2026-09-02 13:02:56 | 48.34624 | 10.56003 | 100° | 68km/h | 7470m | -4.1m/s | -24.9°C | 43.7% | 400.7hPa | 2.5V | 07:44:53 | 02:33:59 | 00:00:00 | |
| DK7TD | 2026-09-02 13:02:45 | 48.34687 | 10.55746 | 116° | 75km/h | 7515m | -4m/s | -25.3°C | 47.5% | 398.2hPa | 2.5V | 07:45:44 | 02:33:48 | 00:00:00 | |
| DK7TD | 2026-09-02 13:02:35 | 48.34758 | 10.55426 | 100° | 77km/h | 7558m | -4.1m/s | -25.7°C | 40.7% | 395.8hPa | 2.6V | 07:45:44 | 02:33:37 | 00:00:00 | |
| DK7TD | 2026-09-02 13:02:24 | 48.34794 | 10.55148 | 107° | 62km/h | 7602m | -4m/s | -26.1°C | 41.3% | 393.4hPa | 2.5V | 07:45:44 | 02:33:26 | 00:00:00 | |
| DK7TD | 2026-09-02 13:02:13 | 48.34862 | 10.54912 | 115° | 78km/h | 7643m | -4.2m/s | -26.3°C | 45.6% | 391.2hPa | 2.5V | 07:45:44 | 02:33:16 | 00:00:00 | |
| DK7TD | 2026-09-02 13:02:03 | 48.34920 | 10.54618 | 99° | 73km/h | 7682m | -4.1m/s | -26.9°C | 49.7% | 389hPa | 2.6V | 07:45:44 | 02:33:06 | 00:00:00 | |
| DK7TD | 2026-09-02 13:01:53 | 48.34962 | 10.54378 | 115° | 66km/h | 7723m | -4.2m/s | -27.1°C | 48.9% | 386.8hPa | 2.5V | 07:46:35 | 02:32:56 | 00:00:00 | |
| DL6DJ-15 | 2026-09-02 13:01:52 | 48.34977 | 10.54332 | 116° | 69km/h | 7731m | -4.0m/s | -27.1°C | 44.4% | 386.4hPa | 2.5V | 00:00:00 | 00:00:00 | 00:00:00 | |
| DK7TD | 2026-09-02 13:01:42 | 48.35050 | 10.54083 | 107° | 84km/h | 7768m | -3.9m/s | -27.6°C | 50.8% | 384.4hPa | 2.5V | 07:46:35 | 02:32:45 | 00:00:00 | |
| DK7TD | 2026-09-02 13:01:31 | 48.35095 | 10.53784 | 107° | 64km/h | 7811m | -4.1m/s | -28°C | 52.6% | 382.2hPa | 2.5V | 07:46:35 | 02:32:34 | 00:00:00 | |
| DK7TD | 2026-09-02 13:01:21 | 48.35169 | 10.53545 | 116° | 80km/h | 7850m | -3.9m/s | -28.3°C | 51.7% | 380.1hPa | 2.6V | 07:46:35 | 02:32:24 | 00:00:00 | |
| DK7TD | 2026-09-02 13:01:11 | 48.35237 | 10.53251 | 102° | 77km/h | 7890m | -3.9m/s | -28.8°C | 54.7% | 378hPa | 2.5V | 07:46:35 | 02:32:14 | 00:00:00 | |
| DK7TD | 2026-09-02 13:01:01 | 48.35283 | 10.53011 | 116° | 64km/h | 7929m | -3.9m/s | -29°C | 53.6% | 375.9hPa | 2.5V | 07:47:26 | 02:32:04 | 00:00:00 | |
| DK7TD | 2026-09-02 13:00:50 | 48.35375 | 10.52726 | 108° | 82km/h | 7973m | -4.1m/s | -29.5°C | 50.6% | 373.6hPa | 2.6V | 07:47:26 | 02:31:53 | 00:00:00 | |
| DL6DJ-15 | 2026-09-02 13:00:49 | 48.35381 | 10.52696 | 106° | 80km/h | 7977m | -3.9m/s | -29.6°C | 46.1% | 373.4hPa | 2.6V | 00:00:00 | 00:00:00 | 00:00:00 | |
| DK7TD | 2026-09-02 13:00:39 | 48.35425 | 10.52436 | 110° | 60km/h | 8017m | -4m/s | -29.8°C | 49.7% | 371.4hPa | 2.6V | 07:47:26 | 02:31:42 | 00:00:00 | |
| DK7TD | 2026-09-02 13:00:29 | 48.35507 | 10.52205 | 117° | 80km/h | 8056m | -3.9m/s | -30.2°C | 48.3% | 369.3hPa | 2.5V | 07:47:26 | 02:31:32 | 00:00:00 | |
| DK7TD | 2026-09-02 13:00:18 | 48.35575 | 10.51902 | 104° | 66km/h | 8099m | -4m/s | -30.7°C | 48.8% | 367hPa | 2.6V | 07:47:26 | 02:31:21 | 00:00:00 | |
| DK7TD | 2026-09-02 13:00:07 | 48.35643 | 10.51670 | 123° | 68km/h | 8144m | -3.9m/s | -30.9°C | 42.2% | 364.7hPa | 2.5V | 07:48:17 | 02:31:10 | 00:00:00 | |
| DK7TD | 2026-09-02 12:59:56 | 48.35736 | 10.51384 | 107° | 75km/h | 8188m | -3.9m/s | -31.5°C | 44.4% | 362.4hPa | 2.6V | 07:48:17 | 02:30:59 | 00:00:00 | |
| DK7TD | 2026-09-02 12:59:45 | 48.35795 | 10.51140 | 122° | 60km/h | 8234m | -4.1m/s | -31.8°C | 43.8% | 360.1hPa | 2.6V | 07:48:17 | 02:30:48 | 00:00:00 | |
| DK7TD | 2026-09-02 12:59:35 | 48.35896 | 10.50881 | 111° | 78km/h | 8278m | -4m/s | -32.3°C | 45.2% | 357.8hPa | 2.5V | 07:48:17 | 02:30:37 | 00:00:00 | |
| DK7TD | 2026-09-02 12:59:23 | 48.35954 | 10.50625 | 118° | 55km/h | 8325m | -4.2m/s | -32.7°C | 45.7% | 355.5hPa | 2.5V | 07:49:08 | 02:30:26 | 00:00:00 | |
| DK7TD | 2026-09-02 12:59:12 | 48.36054 | 10.50385 | 117° | 77km/h | 8370m | -4.1m/s | -33.2°C | 45.7% | 353.3hPa | 2.5V | 07:49:08 | 02:30:15 | 00:00:00 | |
| DK7TD | 2026-09-02 12:59:03 | 48.36119 | 10.50135 | 109° | 62km/h | 8410m | -4.2m/s | -33.7°C | 48.1% | 351.3hPa | 2.6V | 07:49:08 | 02:30:05 | 00:00:00 | |
| DK7TD | 2026-09-02 12:58:52 | 48.36185 | 10.49941 | 128° | 60km/h | 8451m | -4.3m/s | -33.8°C | 47.8% | 349.2hPa | 2.6V | 07:49:08 | 02:29:55 | 00:00:00 | |
| DL9SK-14 | 2026-09-02 12:58:48 | 48.36237 | 10.49844 | 127° | 71km/h | 8472m | -4.1m/s | -33.9°C | 44.8% | 348.0hPa | 2.6V | 00:00:00 | 00:00:00 | 00:00:00 | |
| DL6DJ-15 | 2026-09-02 12:58:45 | 48.36260 | 10.49799 | 124° | 75km/h | 8480m | -4.0m/s | -34.1°C | 45.8% | 347.7hPa | 2.6V | 00:00:00 | 00:00:00 | 00:00:00 | |
| DK7TD | 2026-09-02 12:58:41 | 48.36301 | 10.49699 | 119° | 77km/h | 8496m | -4.2m/s | -34.3°C | 51.6% | 346.9hPa | 2.6V | 07:49:08 | 02:29:44 | 00:00:00 | |
| DK7TD | 2026-09-02 12:58:30 | 48.36386 | 10.49444 | 122° | 60km/h | 8541m | -4.1m/s | -34.7°C | 52.7% | 344.7hPa | 2.6V | 07:49:59 | 02:29:33 | 00:00:00 | |
| DK7TD | 2026-09-02 12:58:20 | 48.36486 | 10.49266 | 135° | 68km/h | 8583m | -4.4m/s | -34.9°C | 50.2% | 342.6hPa | 2.5V | 07:49:59 | 02:29:23 | 00:00:00 | |
| DK7TD | 2026-09-02 12:58:10 | 48.36618 | 10.49047 | 125° | 84km/h | 8626m | -4.2m/s | -35.1°C | 44.5% | 340.5hPa | 2.5V | 07:49:59 | 02:29:13 | 00:00:00 | |
| DK7TD | 2026-09-02 12:58:00 | 48.36716 | 10.48815 | 130° | 62km/h | 8668m | -4.3m/s | -35.4°C | 42.8% | 338.5hPa | 2.5V | 07:49:59 | 02:29:03 | 00:00:00 | |
| DK7TD | 2026-09-02 12:57:50 | 48.36853 | 10.48615 | 133° | 88km/h | 8710m | -4.3m/s | -35.7°C | 45.2% | 336.4hPa | 2.6V | 07:49:59 | 02:28:53 | 00:00:00 | |
| DL9SK-14 | 2026-09-02 12:57:46 | 48.36921 | 10.48482 | 123° | 86km/h | 8732m | -4.5m/s | -36.0°C | 42.9% | 335.4hPa | 2.6V | 00:00:00 | 00:00:00 | 00:00:00 | |
| DK7TD | 2026-09-02 12:57:40 | 48.36974 | 10.48351 | 121° | 73km/h | 8753m | -3.9m/s | -36.3°C | 51.1% | 334.3hPa | 2.6V | 07:50:50 | 02:28:43 | 00:00:00 | |
| DK7TD | 2026-09-02 12:57:29 | 48.37116 | 10.48114 | 133° | 91km/h | 8798m | -4.3m/s | -36.4°C | 52.7% | 332.1hPa | 2.5V | 07:50:50 | 02:28:32 | 00:00:00 | |
| DK7TD | 2026-09-02 12:57:19 | 48.37254 | 10.47824 | 118° | 88km/h | 8841m | -4.4m/s | -36.8°C | 51.7% | 330.2hPa | 2.5V | 07:50:50 | 02:28:22 | 00:00:00 | |
| DK7TD | 2026-09-02 12:57:08 | 48.37377 | 10.47555 | 133° | 84km/h | 8886m | -4.2m/s | -37.1°C | 47.5% | 328hPa | 2.6V | 07:50:50 | 02:28:11 | 00:00:00 | |
| DK7TD | 2026-09-02 12:56:58 | 48.37519 | 10.47266 | 118° | 95km/h | 8929m | -4.3m/s | -37.4°C | 46.4% | 325.9hPa | 2.6V | 07:50:50 | 02:28:01 | 00:00:00 | |
| DK7TD | 2026-09-02 12:56:47 | 48.37634 | 10.46973 | 130° | 82km/h | 8974m | -4.3m/s | -37.7°C | 46.9% | 323.8hPa | 2.5V | 07:51:41 | 02:27:50 | 00:00:00 | |
| DK7TD | 2026-09-02 12:56:37 | 48.37778 | 10.46691 | 120° | 100km/h | 9016m | -4.1m/s | -38.1°C | 49.2% | 321.8hPa | 2.6V | 07:51:41 | 02:27:40 | 00:00:00 | |
| DK7TD | 2026-09-02 12:56:27 | 48.37878 | 10.46391 | 121° | 77km/h | 9059m | -4.1m/s | -38.5°C | 53.6% | 319.9hPa | 2.5V | 07:51:41 | 02:27:30 | 00:00:00 | |
| DK7TD | 2026-09-02 12:56:16 | 48.38026 | 10.46091 | 122° | 102km/h | 9105m | -4.4m/s | -38.9°C | 55.6% | 317.7hPa | 2.5V | 07:51:41 | 02:27:19 | 00:00:00 | |
| DK7TD | 2026-09-02 12:56:06 | 48.38128 | 10.45780 | 118° | 78km/h | 9148m | -4.3m/s | -39.3°C | 53.6% | 315.7hPa | 2.5V | 07:51:41 | 02:27:09 | 00:00:00 | |
| DK7TD | 2026-09-02 12:55:55 | 48.38267 | 10.45497 | 127° | 97km/h | 9194m | -4.2m/s | -39.7°C | 50% | 313.6hPa | 2.5V | 07:52:32 | 02:26:58 | 00:00:00 | |
| DK7TD | 2026-09-02 12:55:46 | 48.38383 | 10.45177 | 114° | 84km/h | 9236m | -4.1m/s | -40.2°C | 51.8% | 311.6hPa | 2.5V | 07:52:32 | 02:26:48 | 00:00:00 | |
| DK7TD | 2026-09-02 12:55:34 | 48.38510 | 10.44891 | 128° | 95km/h | 9282m | -4.2m/s | -40.5°C | 54.1% | 309.6hPa | 2.5V | 07:52:32 | 02:26:37 | 00:00:00 | |
| DK7TD | 2026-09-02 12:55:24 | 48.38650 | 10.44533 | 113° | 95km/h | 9329m | -4.3m/s | -41°C | 55.9% | 307.3hPa | 2.6V | 07:52:32 | 02:26:26 | 00:00:00 | |
| DK7TD | 2026-09-02 12:55:13 | 48.38744 | 10.44251 | 126° | 82km/h | 9372m | -4.4m/s | -41.2°C | 52.4% | 305.5hPa | 2.5V | 07:52:32 | 02:26:16 | 00:00:00 | |
| DK7TD | 2026-09-02 12:55:03 | 48.38894 | 10.43921 | 117° | 100km/h | 9419m | -4.2m/s | -41.8°C | 53.1% | 303.3hPa | 2.6V | 07:53:23 | 02:26:05 | 00:00:00 | |
| DK7TD | 2026-09-02 12:54:51 | 48.39001 | 10.43593 | 124° | 78km/h | 9466m | -4.5m/s | -42°C | 52.4% | 301.2hPa | 2.5V | 07:53:23 | 02:25:54 | 00:00:00 | |
| DB0ND-19 | 2026-09-02 12:54:49 | 48.39037 | 10.43519 | 128° | 82km/h | 9480m | -4.7m/s | -42.1°C | 46.8% | 300.6hPa | 2.5V | 00:00:00 | 00:00:00 | 00:00:00 | |
| DK7TD | 2026-09-02 12:54:40 | 48.39154 | 10.43291 | 123° | 104km/h | 9515m | -4.4m/s | -42.5°C | 56.1% | 299.1hPa | 2.5V | 07:53:23 | 02:25:43 | 00:00:00 | |
| DK7TD | 2026-09-02 12:54:30 | 48.39264 | 10.42980 | 120° | 80km/h | 9559m | -4.5m/s | -42.9°C | 57.4% | 297.1hPa | 2.6V | 07:53:23 | 02:25:33 | 00:00:00 | |
| DK7TD | 2026-09-02 12:54:20 | 48.39397 | 10.42729 | 131° | 99km/h | 9603m | -4.3m/s | -43.2°C | 57.3% | 295.1hPa | 2.5V | 07:53:23 | 02:25:23 | 00:00:00 | |
| DK7TD | 2026-09-02 12:54:10 | 48.39531 | 10.42414 | 117° | 88km/h | 9647m | -4.5m/s | -43.8°C | 61% | 293.2hPa | 2.5V | 07:54:14 | 02:25:13 | 00:00:00 | |
| DK7TD | 2026-09-02 12:54:00 | 48.39670 | 10.42139 | 134° | 93km/h | 9696m | -4.5m/s | -44°C | 58.9% | 291.1hPa | 2.5V | 07:54:14 | 02:25:02 | 00:00:00 | |
| DK7TD | 2026-09-02 12:53:49 | 48.39820 | 10.41832 | 119° | 93km/h | 9740m | -4.3m/s | -44.6°C | 59.7% | 289.2hPa | 2.6V | 07:54:14 | 02:24:52 | 00:00:00 | |
| DB0ND-19 | 2026-09-02 12:53:47 | 48.39854 | 10.41746 | 122° | 82km/h | 9754m | -4.5m/s | -44.6°C | 51.8% | 288.6hPa | 2.6V | 00:00:00 | 00:00:00 | 00:00:00 | |
| DK7TD | 2026-09-02 12:53:38 | 48.39962 | 10.41552 | 136° | 91km/h | 9791m | -4.8m/s | -44.6°C | 56.3% | 287hPa | 2.6V | 07:54:14 | 02:24:41 | 00:00:00 | |
| DK7TD | 2026-09-02 12:53:28 | 48.40139 | 10.41263 | 125° | 108km/h | 9839m | -4.5m/s | -45°C | 58.9% | 285hPa | 2.5V | 07:54:14 | 02:24:31 | 00:00:00 | |
| DK7TD | 2026-09-02 12:53:18 | 48.40275 | 10.40975 | 134° | 89km/h | 9883m | -4.6m/s | -45.2°C | 60.7% | 283.1hPa | 2.5V | 07:55:05 | 02:24:21 | 00:00:00 | |
| DK7TD | 2026-09-02 12:53:07 | 48.40479 | 10.40655 | 127° | 113km/h | 9933m | -4.6m/s | -45.5°C | 66.3% | 281hPa | 2.5V | 07:55:05 | 02:24:10 | 00:00:00 | |
| DK7TD | 2026-09-02 12:52:57 | 48.40622 | 10.40337 | 129° | 89km/h | 9979m | -4.7m/s | -46°C | 68.1% | 279hPa | 2.5V | 07:55:05 | 02:24:00 | 00:00:00 | |
| DK7TD | 2026-09-02 12:52:46 | 48.40816 | 10.40033 | 130° | 115km/h | 10030m | -4.7m/s | -46.4°C | 71.9% | 276.9hPa | 2.5V | 07:55:05 | 02:23:49 | 00:00:00 | |
| DB0ND-19 | 2026-09-02 12:52:44 | 48.40852 | 10.39965 | 126° | 113km/h | 10040m | -4.7m/s | -46.6°C | 67.6% | 276.5hPa | 2.5V | 00:00:00 | 00:00:00 | 00:00:00 | |
| DK7TD | 2026-09-02 12:52:35 | 48.40979 | 10.39680 | 128° | 88km/h | 10081m | -4.7m/s | -47°C | 74.4% | 274.8hPa | 2.5V | 07:55:56 | 02:23:38 | 00:00:00 | |
| DK7TD | 2026-09-02 12:52:24 | 48.41175 | 10.39381 | 131° | 115km/h | 10134m | -4.8m/s | -47.4°C | 78.7% | 272.6hPa | 2.5V | 07:55:56 | 02:23:27 | 00:00:00 | |
| DK7TD | 2026-09-02 12:52:13 | 48.41342 | 10.39043 | 131° | 88km/h | 10186m | -5m/s | -47.9°C | 80.5% | 270.4hPa | 2.6V | 07:55:56 | 02:23:16 | 00:00:00 | |
| DK7TD | 2026-09-02 12:52:03 | 48.41523 | 10.38799 | 138° | 111km/h | 10235m | -4.9m/s | -48.1°C | 73.7% | 268.4hPa | 2.6V | 07:55:56 | 02:23:06 | 00:00:00 | |
| DK7TD | 2026-09-02 12:51:52 | 48.41715 | 10.38467 | 131° | 89km/h | 10288m | -4.9m/s | -48.6°C | 72.1% | 266.3hPa | 2.6V | 07:55:56 | 02:22:55 | 00:00:00 | |
| DK7TD | 2026-09-02 12:51:42 | 48.41895 | 10.38238 | 143° | 108km/h | 10337m | -4.8m/s | -48.8°C | 67.9% | 264.4hPa | 2.6V | 07:56:47 | 02:22:45 | 00:00:00 | |
| DK7TD | 2026-09-02 12:51:31 | 48.42109 | 10.37918 | 131° | 97km/h | 10390m | -4.9m/s | -49.3°C | 67.4% | 262.1hPa | 2.5V | 07:56:47 | 02:22:34 | 00:00:00 | |
| DK7TD | 2026-09-02 12:51:20 | 48.42308 | 10.37673 | 146° | 104km/h | 10445m | -5.1m/s | -49.4°C | 65% | 260hPa | 2.5V | 07:56:47 | 02:22:23 | 00:00:00 | |
| DK7TD | 2026-09-02 12:51:10 | 48.42520 | 10.37401 | 132° | 104km/h | 10494m | -4.8m/s | -49.9°C | 66.8% | 258.1hPa | 2.5V | 07:56:47 | 02:22:13 | 00:00:00 | |
| DK7TD | 2026-09-02 12:51:00 | 48.42688 | 10.37158 | 145° | 91km/h | 10543m | -5m/s | -50.2°C | 65.2% | 256.1hPa | 2.5V | 07:56:47 | 02:22:03 | 00:00:00 | |
| DK7TD | 2026-09-02 12:50:49 | 48.42924 | 10.36893 | 135° | 113km/h | 10598m | -5.1m/s | -50.5°C | 68.3% | 254hPa | 2.5V | 07:57:38 | 02:21:52 | 00:00:00 | |
| DF7PN | 2026-09-02 12:50:46 | 48.42999 | 10.36773 | 131° | 100km/h | 10618m | -5.0m/s | -50.7°C | 58.0% | 253.2hPa | 2.5V | 00:00:00 | 00:00:00 | 00:00:00 | |
| DK7TD | 2026-09-02 12:50:39 | 48.43098 | 10.36622 | 141° | 89km/h | 10647m | -4.7m/s | -50.7°C | 59.3% | 252.1hPa | 2.5V | 07:57:38 | 02:21:42 | 00:00:00 | |
| DK7TD | 2026-09-02 12:50:28 | 48.43335 | 10.36367 | 139° | 119km/h | 10702m | -5m/s | -50.8°C | 53.8% | 249.9hPa | 2.6V | 07:57:38 | 02:21:31 | 00:00:00 | |
| DK7TD | 2026-09-02 12:50:19 | 48.43522 | 10.36080 | 139° | 93km/h | 10751m | -4.8m/s | -51.1°C | 40.5% | 248.1hPa | 2.6V | 07:57:38 | 02:21:21 | 00:00:00 | |
| DK7TD | 2026-09-02 12:50:08 | 48.43740 | 10.35843 | 142° | 120km/h | 10799m | -4.9m/s | -51.2°C | 33.7% | 246.2hPa | 2.6V | 07:57:38 | 02:21:11 | 00:00:00 | |
| DK7TD | 2026-09-02 12:49:58 | 48.43963 | 10.35499 | 134° | 100km/h | 10853m | -4.6m/s | -51.6°C | 33.1% | 244.2hPa | 2.6V | 07:59:20 | 02:21:00 | 00:00:00 | |
| DK7TD | 2026-09-02 12:49:46 | 48.44227 | 10.35185 | 139° | 130km/h | 10912m | -5.2m/s | -51.4°C | 31% | 241.9hPa | 2.5V | 07:59:20 | 02:20:48 | 00:00:00 | |
| DK7TD | 2026-09-02 12:49:35 | 48.44453 | 10.34831 | 140° | 106km/h | 10965m | -4.8m/s | -52.1°C | 30.4% | 240hPa | 2.5V | 07:59:20 | 02:20:37 | 00:00:00 | |
| DK7TD | 2026-09-02 12:49:24 | 48.44694 | 10.34549 | 137° | 131km/h | 11015m | -4.9m/s | -52.3°C | 30.3% | 238.2hPa | 2.5V | 07:59:20 | 02:20:27 | 00:00:00 | |
| DK7TD | 2026-09-02 12:49:14 | 48.44898 | 10.34212 | 134° | 106km/h | 11065m | -5.1m/s | -52.5°C | 28.5% | 236.3hPa | 2.5V | 07:59:20 | 02:20:17 | 00:00:00 | |
| DK7TD | 2026-09-02 12:48:59 | 48.45249 | 10.33776 | 134° | 131km/h | 11143m | -5.5m/s | -52.7°C | 27.1% | 233.4hPa | 2.5V | 07:59:20 | 02:20:02 | 00:00:00 | |
| DK7TD | 2026-09-02 12:48:50 | 48.45451 | 10.33454 | 141° | 111km/h | 11192m | -5m/s | -52.6°C | 26% | 231.7hPa | 2.5V | 07:59:20 | 02:19:52 | 00:00:00 | |
| DK7TD | 2026-09-02 12:48:39 | 48.45731 | 10.33110 | 134° | 139km/h | 11247m | -5.1m/s | -53°C | 26.6% | 229.7hPa | 2.6V | 07:59:20 | 02:19:41 | 00:00:00 | |
| DK7TD | 2026-09-02 12:48:28 | 48.45949 | 10.32774 | 142° | 119km/h | 11296m | -4.8m/s | -53.6°C | 25.1% | 228hPa | 2.6V | 07:59:20 | 02:19:31 | 00:00:00 | |
| DK7TD | 2026-09-02 12:48:18 | 48.46217 | 10.32442 | 134° | 146km/h | 11348m | -5.1m/s | -53.3°C | 23% | 226.1hPa | 2.6V | 08:00:11 | 02:19:21 | 00:00:00 | |
| DK7TD | 2026-09-02 12:48:08 | 48.46473 | 10.32049 | 141° | 128km/h | 11401m | -5m/s | -52.8°C | 21% | 224.3hPa | 2.6V | 08:00:11 | 02:19:10 | 00:00:00 | |
| DK7TD | 2026-09-02 12:47:57 | 48.46762 | 10.31723 | 142° | 159km/h | 11454m | -5.3m/s | -52.7°C | 20.6% | 222.5hPa | 2.6V | 08:00:11 | 02:19:00 | 00:00:00 | |
| DK7TD | 2026-09-02 12:47:46 | 48.47073 | 10.31287 | 139° | 141km/h | 11507m | -4.6m/s | -52.9°C | 20.6% | 220.6hPa | 2.5V | 08:00:11 | 02:18:49 | 00:00:00 | |
| DK7TD | 2026-09-02 12:47:34 | 48.47452 | 10.30882 | 144° | 173km/h | 11567m | -5.3m/s | -52.9°C | 22.1% | 218.6hPa | 2.5V | 08:00:11 | 02:18:37 | 00:00:00 | |
| DK7TD | 2026-09-02 12:47:23 | 48.47799 | 10.30431 | 142° | 150km/h | 11620m | -4.9m/s | -53.2°C | 23.2% | 216.8hPa | 2.6V | 08:01:02 | 02:18:26 | 00:00:00 | |
| DK7TD | 2026-09-02 12:47:13 | 48.48146 | 10.30073 | 143° | 183km/h | 11670m | -5m/s | -52.8°C | 24.6% | 215.2hPa | 2.6V | 08:01:02 | 02:18:16 | 00:00:00 | |
| DK7TD | 2026-09-02 12:47:03 | 48.48476 | 10.29647 | 138° | 159km/h | 11720m | -5.4m/s | -53.4°C | 25.7% | 213.5hPa | 2.6V | 08:01:02 | 02:18:06 | 00:00:00 | |
| DK7TD | 2026-09-02 12:46:52 | 48.48825 | 10.29265 | 148° | 168km/h | 11777m | -4.8m/s | -53.5°C | 21.9% | 211.6hPa | 2.6V | 08:01:02 | 02:17:55 | 00:00:00 | |
| DL6DJ-15 | 2026-09-02 12:46:51 | 48.48897 | 10.29195 | 145° | 170km/h | 11786m | -4.5m/s | -53.5°C | 17.0% | 211.3hPa | 2.5V | 00:00:00 | 00:00:00 | 00:00:00 | |
| DK7TD | 2026-09-02 12:46:41 | 48.49186 | 10.28836 | 137° | 153km/h | 11831m | -5.4m/s | -53.6°C | 19.3% | 209.8hPa | 2.5V | 08:01:02 | 02:17:44 | 00:00:00 | |
| DK7TD | 2026-09-02 12:46:31 | 48.49464 | 10.28507 | 147° | 146km/h | 11882m | -5m/s | -53.5°C | 17.7% | 208.2hPa | 2.5V | 08:01:53 | 02:17:34 | 00:00:00 | |
| DK7TD | 2026-09-02 12:46:20 | 48.49797 | 10.28106 | 135° | 150km/h | 11937m | -5.3m/s | -53.8°C | 18.1% | 206.3hPa | 2.5V | 08:01:53 | 02:17:23 | 00:00:00 | |
| DK5PH-5 | 2026-09-02 12:46:20 | 48.49797 | 10.28106 | 136° | 130km/h | 11937m | -5.2m/s | -53.7°C | 19.9% | 206.3hPa | 2.5V | 00:00:00 | 02:17:23 | 00:00:00 | |
| DL6DJ-15 | 2026-09-02 12:46:19 | 48.49824 | 10.28066 | 134° | 146km/h | 11942m | -5.5m/s | -53.8°C | 13.9% | 206.2hPa | 2.5V | 00:00:00 | 00:00:00 | 00:00:00 | |
| DO9HM | 2026-09-02 12:46:16 | 48.49874 | 10.27987 | 135° | 141km/h | 11953m | -5.7m/s | -53.8°C | 13.4% | 205.9hPa | 2.5V | 00:00:00 | 00:00:00 | 00:00:00 | |
| DO3MHA-11 | 2026-09-02 12:46:15 | 48.49922 | 10.27912 | 134° | 124km/h | 11965m | -5.6m/s | -53.9°C | 18.5% | 205.4hPa | 2.5V | 00:00:00 | 02:17:18 | 00:00:00 | |
| OE5DRO-10 | 2026-09-02 12:46:12 | 48.49990 | 10.27806 | 135° | 130km/h | 11981m | -5.6m/s | -53.9°C | 18.0% | 204.9hPa | 2.5V | 00:00:00 | 00:00:00 | 00:00:00 | |
| DM0DOS-11 | 2026-09-02 12:46:11 | 48.50158 | 10.27603 | 145° | 133km/h | 12018m | -4.6m/s | -53.9°C | 20% | 203.8hPa | 2.5V | 08:01:36 | 02:17:08 | 00:00:00 | |
| DK7TD | 2026-09-02 12:46:10 | 48.50034 | 10.27743 | 138° | 119km/h | 11993m | -5.6m/s | -53.9°C | 17.2% | 204.5hPa | 2.5V | 08:01:53 | 02:17:13 | 00:00:00 | |
| DK7TD | 2026-09-02 12:45:59 | 48.50321 | 10.27396 | 134° | 141km/h | 12048m | -5.5m/s | -54°C | 18.3% | 202.8hPa | 2.5V | 08:01:53 | 02:17:02 | 00:00:00 | |
| DM0DOS-11 | 2026-09-02 12:45:57 | 48.50410 | 10.27246 | 130° | 122km/h | 12069m | -5.1m/s | -53.9°C | 19.4% | 202.1hPa | 2.5V | 08:01:46 | 02:16:58 | 00:00:00 | |
| DL9SK-14 | 2026-09-02 12:45:52 | 48.50512 | 10.27093 | 140° | 110km/h | 12095m | -5.4m/s | -53.6°C | 13.0% | 201.3hPa | 2.6V | 00:00:00 | 00:00:00 | 00:00:00 | |
| DM0DOS-11 | 2026-09-02 12:45:51 | 48.50660 | 10.26931 | 144° | 133km/h | 12127m | -5.4m/s | -53.5°C | 19.2% | 200.2hPa | 2.6V | 08:01:57 | 02:16:47 | 00:00:00 | |
| DK7TD | 2026-09-02 12:45:48 | 48.50557 | 10.27040 | 144° | 117km/h | 12106m | -5.3m/s | -53.4°C | 17.8% | 201hPa | 2.6V | 08:01:53 | 02:16:51 | 00:00:00 | |
| DJ8HS-15 | 2026-09-02 12:45:48 | 48.50557 | 10.27040 | 144° | 130km/h | 12106m | -5.3m/s | -53.4°C | 18.3% | 200.9hPa | 2.6V | 00:00:00 | 02:16:51 | 00:00:00 | |
| AZAK | 2026-09-02 12:45:46 | 48.50581 | 10.27014 | 146° | 120km/h | 12111m | -5.3m/s | -53.4°C | 12.9% | 200.8hPa | 2.5V | 00:00:00 | 00:00:00 | 00:00:00 | |
| DO3MHA-12 | 2026-09-02 12:45:45 | 48.50633 | 10.26960 | 146° | 139km/h | 12122m | -5.3m/s | -53.5°C | 18.9% | 200.4hPa | 2.5V | 00:00:00 | 02:16:48 | 00:00:00 | |
| DF3TZ-5 | 2026-09-02 12:45:40 | 48.50798 | 10.26763 | 136° | 142km/h | 12155m | -5.4m/s | -53.8°C | 13.5% | 199.4hPa | 2.5V | 00:00:00 | 00:00:00 | 00:00:00 | |
| DM0DOS-11 | 2026-09-02 12:45:39 | 48.50893 | 10.26611 | 131° | 130km/h | 12176m | -5.6m/s | -54.2°C | 18.7% | 198.8hPa | 2.5V | 08:02:06 | 02:16:38 | 00:00:00 | |
| DK7TD | 2026-09-02 12:45:37 | 48.50848 | 10.26687 | 133° | 139km/h | 12165m | -5.2m/s | -54°C | 18.3% | 199.1hPa | 2.6V | 08:02:44 | 02:16:40 | 00:00:00 | |
| DB0NH | 2026-09-02 12:45:36 | 48.50871 | 10.26648 | 132° | 126km/h | 12171m | -5.6m/s | -54.1°C | 18.9% | 198.9hPa | 2.5V | 00:00:00 | 02:16:39 | 00:00:00 | |
| DO3MHA-12 | 2026-09-02 12:45:35 | 48.50893 | 10.26611 | 132° | 119km/h | 12176m | -5.6m/s | -54.1°C | 18.7% | 198.7hPa | 2.5V | 00:00:00 | 02:16:38 | 00:00:00 | |
| OE5DRO-10 | 2026-09-02 12:45:34 | 48.50914 | 10.26574 | 132° | 128km/h | 12182m | -5.4m/s | -54.2°C | 18.5% | 198.5hPa | 2.5V | 08:02:00 | 00:00:00 | 00:00:00 | |
| DM7RM-13 | 2026-09-02 12:45:31 | 48.50956 | 10.26506 | 134° | 117km/h | 12193m | -5.6m/s | -54.3°C | 12.7% | 198.3hPa | 2.5V | 08:02:00 | 00:00:00 | 00:00:00 | |
| DB0ND-19 | 2026-09-02 12:45:30 | 48.50996 | 10.26445 | 137° | 111km/h | 12204m | -5.4m/s | -54.3°C | 12.7% | 197.9hPa | 2.5V | 00:00:00 | 00:00:00 | 00:00:00 | |
| DM0DOS-11 | 2026-09-02 12:45:29 | 48.51115 | 10.26310 | 145° | 126km/h | 12231m | -5.3m/s | -54.5°C | 19.3% | 197.1hPa | 2.5V | 08:02:16 | 02:16:28 | 00:00:00 | |
| DK7TD | 2026-09-02 12:45:26 | 48.51089 | 10.26336 | 145° | 122km/h | 12225m | -5.4m/s | -54.4°C | 17.2% | 197.2hPa | 2.5V | 08:02:44 | 02:16:29 | 00:00:00 | |
| DO3MHA-11 | 2026-09-02 12:45:26 | 48.51114 | 10.26310 | 146° | 137km/h | 12231m | -5.2m/s | -54.4°C | 19.3% | 197.0hPa | 2.5V | 00:00:00 | 02:16:28 | 00:00:00 | |
| DO3MHA-12 | 2026-09-02 12:45:25 | 48.51114 | 10.26310 | 146° | 137km/h | 12231m | -5.2m/s | -54.4°C | 19.3% | 197.0hPa | 2.5V | 00:00:00 | 02:16:28 | 00:00:00 | |
| DK5PH-5 | 2026-09-02 12:45:20 | 48.51251 | 10.26155 | 140° | 124km/h | 12257m | -4.9m/s | -54.8°C | 19.4% | 196.2hPa | 2.5V | 00:00:00 | 02:16:23 | 00:00:00 | |
| DM0DOS-11 | 2026-09-02 12:45:19 | 48.51377 | 10.25971 | 133° | 135km/h | 12283m | -5.8m/s | -54.9°C | 17.7% | 195.5hPa | 2.5V | 08:02:26 | 02:16:18 | 00:00:00 | |
| DK7TD | 2026-09-02 12:45:11 | 48.51462 | 10.25825 | 131° | 120km/h | 12307m | -5.8m/s | -54.5°C | 14.1% | 194.7hPa | 2.5V | 08:02:44 | 02:16:14 | 00:00:00 | |
| DK7TD | 2026-09-02 12:45:01 | 48.51668 | 10.25542 | 143° | 122km/h | 12361m | -5.3m/s | -54.4°C | 13.1% | 193.1hPa | 2.5V | 08:02:44 | 02:16:04 | 00:00:00 | |
| DM0DOS-11 | 2026-09-02 12:45:00 | 48.51815 | 10.25342 | 132° | 131km/h | 12394m | -5.8m/s | -54.6°C | 14.8% | 192.1hPa | 2.5V | 08:02:46 | 02:15:58 | 00:00:00 | |
| DK7TD | 2026-09-02 12:44:51 | 48.51897 | 10.25191 | 126° | 120km/h | 12417m | -5.7m/s | -54.8°C | 12% | 191.4hPa | 2.5V | 08:03:35 | 02:15:54 | 00:00:00 | |
| DL9SK-14 | 2026-09-02 12:44:49 | 48.51948 | 10.25085 | 125° | 108km/h | 12435m | -5.9m/s | -54.9°C | 8.1% | 190.8hPa | 2.5V | 00:00:00 | 00:00:00 | 00:00:00 | |
| DL6DJ-15 | 2026-09-02 12:44:46 | 48.51979 | 10.25021 | 128° | 100km/h | 12446m | -5.6m/s | -54.9°C | 7.9% | 190.5hPa | 2.5V | 00:00:00 | 00:00:00 | 00:00:00 | |
| DK7TD | 2026-09-02 12:44:40 | 48.52092 | 10.24851 | 138° | 117km/h | 12478m | -5.2m/s | -55.1°C | 9.9% | 189.6hPa | 2.5V | 08:03:35 | 02:15:43 | 00:00:00 | |
| DK7TD | 2026-09-02 12:44:29 | 48.52314 | 10.24443 | 121° | 120km/h | 12540m | -5.7m/s | -55.1°C | 7.4% | 187.8hPa | 2.5V | 08:03:35 | 02:15:32 | 00:00:00 | |
| DK7TD | 2026-09-02 12:44:18 | 48.52479 | 10.24092 | 135° | 110km/h | 12602m | -5.5m/s | -54.4°C | 5.3% | 185.9hPa | 2.6V | 08:03:35 | 02:15:21 | 00:00:00 | |
| DK7TD | 2026-09-02 12:44:06 | 48.52689 | 10.23652 | 118° | 102km/h | 12671m | -5.7m/s | -53.9°C | 4% | 184hPa | 2.5V | 08:03:35 | 02:15:09 | 00:00:00 | |
| DK7TD | 2026-09-02 12:43:56 | 48.52849 | 10.23353 | 133° | 119km/h | 12728m | -5.8m/s | -53.4°C | 3.8% | 182.3hPa | 2.5V | 08:05:17 | 02:14:59 | 00:00:00 | |
| DK7TD | 2026-09-02 12:43:45 | 48.53034 | 10.22948 | 121° | 102km/h | 12790m | -5.7m/s | -53.3°C | 3.2% | 180.6hPa | 2.5V | 08:05:17 | 02:14:48 | 00:00:00 | |
| DL6DJ-15 | 2026-09-02 12:43:44 | 48.53047 | 10.22915 | 121° | 99km/h | 12796m | -6.1m/s | -53.2°C | 3.0% | 180.4hPa | 2.5V | 00:00:00 | 00:00:00 | 00:00:00 | |
| DK7TD | 2026-09-02 12:43:35 | 48.53186 | 10.22671 | 140° | 102km/h | 12849m | -5.5m/s | -52.7°C | 2.9% | 178.9hPa | 2.5V | 08:05:17 | 02:14:38 | 00:00:00 | |
| DO3MHA-12 | 2026-09-02 12:43:35 | 48.53186 | 10.22671 | 140° | 117km/h | 12849m | -5.5m/s | -52.7°C | 6.0% | 178.9hPa | 2.6V | 00:00:00 | 02:14:38 | 00:00:00 | |
| DO3MHA-11 | 2026-09-02 12:43:34 | 48.53206 | 10.22645 | 140° | 117km/h | 12854m | -5.1m/s | -52.7°C | 6.0% | 178.8hPa | 2.6V | 00:00:00 | 02:14:37 | 00:00:00 | |
| PG1ADW-2 | 2026-09-02 12:43:32 | 48.53249 | 10.22589 | 138° | 108km/h | 12865m | -5.4m/s | -52.8°C | 6.2% | 178.5hPa | 2.6V | 08:04:00 | 00:00:00 | 00:00:00 | |
| DF7PN | 2026-09-02 12:43:31 | 48.53271 | 10.22558 | 135° | 119km/h | 12870m | -5.8m/s | -52.9°C | 2.9% | 178.4hPa | 2.5V | 00:00:00 | 00:00:00 | 00:00:00 | |
| DJ8HS-15 | 2026-09-02 12:43:28 | 48.53334 | 10.22456 | 130° | 108km/h | 12888m | -6.0m/s | -52.9°C | 5.9% | 177.8hPa | 2.5V | 00:00:00 | 02:14:31 | 00:00:00 | |
| DM0DOS-11 | 2026-09-02 12:43:26 | 48.53388 | 10.22347 | 123° | 115km/h | 12906m | -6.1m/s | -52.8°C | 5.5% | 177.3hPa | 2.5V | 08:04:16 | 02:14:28 | 00:00:00 | |
| DK7TD | 2026-09-02 12:43:24 | 48.53403 | 10.22311 | 122° | 111km/h | 12912m | -5.8m/s | -52.8°C | 2.7% | 177.2hPa | 2.6V | 08:05:17 | 02:14:27 | 00:00:00 | |
| DO3MHA-11 | 2026-09-02 12:43:24 | 48.53403 | 10.22310 | 122° | 99km/h | 12912m | -5.8m/s | -52.8°C | 5.5% | 177.1hPa | 2.6V | 00:00:00 | 02:14:27 | 00:00:00 | |
| OE5DRO-10 | 2026-09-02 12:43:21 | 48.53443 | 10.22209 | 121° | 108km/h | 12930m | -5.6m/s | -52.8°C | 5.4% | 176.6hPa | 2.6V | 00:00:00 | 00:00:00 | 00:00:00 | |
| DK5PH-5 | 2026-09-02 12:43:20 | 48.53456 | 10.22179 | 124° | 106km/h | 12935m | -5.5m/s | -52.7°C | 5.5% | 176.5hPa | 2.6V | 00:00:00 | 02:14:23 | 00:00:00 | |
| DO9HM | 2026-09-02 12:43:19 | 48.53469 | 10.22151 | 128° | 89km/h | 12941m | -5.5m/s | -52.8°C | 2.6% | 176.4hPa | 2.6V | 08:04:00 | 00:00:00 | 00:00:00 | |
| DL9SK-14 | 2026-09-02 12:43:16 | 48.53534 | 10.22049 | 138° | 100km/h | 12963m | -5.8m/s | -52.8°C | 2.7% | 175.8hPa | 2.6V | 00:00:00 | 00:00:00 | 00:00:00 | |
| DO3MHA-12 | 2026-09-02 12:43:15 | 48.53534 | 10.22049 | 139° | 117km/h | 12963m | -5.8m/s | -52.7°C | 5.7% | 175.7hPa | 2.6V | 08:04:00 | 02:14:18 | 00:00:00 | |
| DO3MHA-11 | 2026-09-02 12:43:14 | 48.53553 | 10.22022 | 139° | 119km/h | 12969m | -5.8m/s | -52.7°C | 5.7% | 175.6hPa | 2.5V | 00:00:00 | 02:14:17 | 00:00:00 | |
| DL6DJ-15 | 2026-09-02 12:43:13 | 48.53574 | 10.21994 | 137° | 111km/h | 12975m | -6.0m/s | -52.8°C | 2.7% | 175.4hPa | 2.5V | 00:00:00 | 00:00:00 | 00:00:00 | |
| PG1ADW-2 | 2026-09-02 12:43:12 | 48.53595 | 10.21964 | 136° | 108km/h | 12981m | -6.1m/s | -52.8°C | 5.8% | 175.2hPa | 2.5V | 00:00:00 | 00:00:00 | 00:00:00 | |
| DB0UT-7 | 2026-09-02 12:43:10 | 48.53637 | 10.21899 | 132° | 106km/h | 12993m | -5.8m/s | -52.8°C | 5.9% | 174.9hPa | 2.5V | 08:04:00 | 02:14:13 | 00:00:00 | |
| DM0DOS-11 | 2026-09-02 12:43:08 | 48.53740 | 10.21675 | 119° | 108km/h | 13027m | -6m/s | -53.2°C | 5.5% | 174hPa | 2.6V | 08:04:37 | 02:14:07 | 00:00:00 | |
| DK7TD | 2026-09-02 12:43:04 | 48.53740 | 10.21675 | 119° | 108km/h | 13027m | -6m/s | -53.2°C | 2.5% | 174hPa | 2.6V | 08:05:17 | 02:14:07 | 00:00:00 | |
| DO3MHA-11 | 2026-09-02 12:43:04 | 48.53740 | 10.21675 | 120° | 97km/h | 13027m | -5.9m/s | -53.1°C | 5.5% | 174.0hPa | 2.6V | 00:00:00 | 02:14:07 | 00:00:00 | |
| OE5DRO-10 | 2026-09-02 12:43:02 | 48.53765 | 10.21606 | 121° | 104km/h | 13040m | -6.1m/s | -53.2°C | 5.5% | 173.7hPa | 2.6V | 00:00:00 | 00:00:00 | 00:00:00 | |
| DF7PN | 2026-09-02 12:43:00 | 48.53791 | 10.21545 | 124° | 89km/h | 13052m | -5.9m/s | -53.2°C | 2.4% | 173.4hPa | 2.6V | 00:00:00 | 00:00:00 | 00:00:00 | |
| DO9HM | 2026-09-02 12:42:59 | 48.53804 | 10.21517 | 129° | 89km/h | 13058m | -5.8m/s | -53.2°C | 2.4% | 173.2hPa | 2.6V | 00:00:00 | 00:00:00 | 00:00:00 | |
| DM0DOS-11 | 2026-09-02 12:42:57 | 48.53930 | 10.21333 | 136° | 115km/h | 13098m | -6m/s | -53.4°C | 6% | 172.1hPa | 2.6V | 08:04:49 | 02:13:55 | 00:00:00 | |
| DK7TD | 2026-09-02 12:42:53 | 48.53909 | 10.21362 | 138° | 111km/h | 13092m | -5.9m/s | -53.4°C | 2.6% | 172.3hPa | 2.6V | 08:05:17 | 02:13:56 | 00:00:00 | |
| DL9SK-14 | 2026-09-02 12:42:45 | 48.54071 | 10.21061 | 122° | 100km/h | 13142m | -5.5m/s | -54.0°C | 2.6% | 170.9hPa | 2.6V | 00:00:00 | 00:00:00 | 00:00:00 | |
| DK7TD | 2026-09-02 12:42:43 | 48.54085 | 10.21029 | 122° | 97km/h | 13148m | -5.8m/s | -53.9°C | 2.4% | 170.8hPa | 2.6V | 08:05:17 | 02:13:46 | 00:00:00 | |
| DK7TD | 2026-09-02 12:42:33 | 48.54225 | 10.20789 | 145° | 88km/h | 13210m | -5.9m/s | -53°C | 2% | 169.1hPa | 2.6V | 08:05:17 | 02:13:36 | 00:00:00 | |
| DM0DOS-11 | 2026-09-02 12:42:33 | 48.54341 | 10.20646 | 133° | 102km/h | 13245m | -5.7m/s | -53.2°C | 5.5% | 168.2hPa | 2.6V | 08:05:14 | 02:13:30 | 00:00:00 | |
| DK7TD | 2026-09-02 12:42:23 | 48.54418 | 10.20502 | 124° | 89km/h | 13274m | -6.3m/s | -53.3°C | 2% | 167.5hPa | 2.6V | 08:06:08 | 02:13:25 | 00:00:00 | |
| DK7TD | 2026-09-02 12:42:12 | 48.54531 | 10.20297 | 146° | 68km/h | 13335m | -5.4m/s | -53.1°C | 1.7% | 165.9hPa | 2.6V | 08:06:08 | 02:13:15 | 00:00:00 | |
| DK7TD | 2026-09-02 12:42:02 | 48.54700 | 10.20048 | 121° | 86km/h | 13400m | -6.1m/s | -53.3°C | 1.6% | 164.2hPa | 2.7V | 08:06:08 | 02:13:04 | 00:00:00 | |
| DM0DOS-11 | 2026-09-02 12:41:59 | 48.54762 | 10.19874 | 122° | 62km/h | 13440m | -5.2m/s | -53.6°C | 5% | 163.2hPa | 2.5V | 08:05:47 | 02:12:57 | 00:00:00 | |
| DK7TD | 2026-09-02 12:41:51 | 48.54793 | 10.19817 | 134° | 68km/h | 13456m | -5.2m/s | -53.6°C | 1.5% | 162.8hPa | 2.6V | 08:06:08 | 02:12:54 | 00:00:00 | |
| DK5PH-5 | 2026-09-02 12:41:50 | 48.54805 | 10.19799 | 136° | 86km/h | 13461m | -5.5m/s | -53.6°C | 4.9% | 162.6hPa | 2.5V | 00:00:00 | 02:12:53 | 00:00:00 | |
| DM0DOS-11 | 2026-09-02 12:41:49 | 48.54889 | 10.19681 | 133° | 78km/h | 13496m | -6m/s | -53.8°C | 5% | 161.8hPa | 2.5V | 08:05:57 | 02:12:47 | 00:00:00 | |
| DK7TD | 2026-09-02 12:41:41 | 48.54927 | 10.19607 | 122° | 86km/h | 13512m | -4.9m/s | -53.7°C | 1.4% | 161.4hPa | 2.6V | 08:06:08 | 02:12:44 | 00:00:00 | |
| DB0UT-7 | 2026-09-02 12:41:40 | 48.54938 | 10.19579 | 119° | 84km/h | 13517m | -5.3m/s | -53.7°C | 5.0% | 161.2hPa | 2.6V | 00:00:00 | 00:00:00 | 00:00:00 | |
| DM0DOS-11 | 2026-09-02 12:41:39 | 48.54994 | 10.19397 | 112° | 91km/h | 13553m | -6.6m/s | -53.8°C | 4.8% | 160.3hPa | 2.5V | 08:06:07 | 02:12:37 | 00:00:00 | |
| DK7TD | 2026-09-02 12:41:30 | 48.55039 | 10.19264 | 123° | 104km/h | 13578m | -6m/s | -53.8°C | 1.3% | 159.7hPa | 2.6V | 08:06:59 | 02:12:33 | 00:00:00 | |
| DM0DOS-11 | 2026-09-02 12:41:29 | 48.55125 | 10.19097 | 126° | 77km/h | 13611m | -5.5m/s | -53.9°C | 5% | 158.9hPa | 2.5V | 08:06:17 | 02:12:27 | 00:00:00 | |
| DJ8HS-15 | 2026-09-02 12:41:28 | 48.55069 | 10.19200 | 129° | 77km/h | 13590m | -5.4m/s | -53.8°C | 4.9% | 159.4hPa | 2.5V | 00:00:00 | 02:12:31 | 00:00:00 | |
| DF7PN | 2026-09-02 12:41:27 | 48.55099 | 10.19145 | 130° | 86km/h | 13600m | -5.2m/s | -53.8°C | 1.9% | 159.2hPa | 2.5V | 00:00:00 | 00:00:00 | 00:00:00 | |
| DO3MHA-12 | 2026-09-02 12:41:25 | 48.55113 | 10.19121 | 130° | 75km/h | 13606m | -5.4m/s | -53.7°C | 4.9% | 159.0hPa | 2.5V | 00:00:00 | 02:12:28 | 00:00:00 | |
| DO3MHA-11 | 2026-09-02 12:41:24 | 48.55125 | 10.19097 | 127° | 75km/h | 13611m | -5.4m/s | -53.8°C | 5.0% | 158.8hPa | 2.5V | 08:06:00 | 02:12:27 | 00:00:00 | |
| DM7RM-13 | 2026-09-02 12:41:23 | 48.55136 | 10.19074 | 125° | 73km/h | 13617m | -6.0m/s | -54.0°C | 1.9% | 158.8hPa | 2.6V | 08:06:00 | 00:00:00 | 00:00:00 | |
| DB0ND-19 | 2026-09-02 12:41:22 | 48.55157 | 10.19027 | 123° | 73km/h | 13629m | -5.8m/s | -53.9°C | 1.9% | 158.5hPa | 2.6V | 00:00:00 | 00:00:00 | 00:00:00 | |
| DK5PH-5 | 2026-09-02 12:41:20 | 48.55167 | 10.19003 | 124° | 73km/h | 13635m | -6.0m/s | -53.9°C | 5.1% | 158.3hPa | 2.6V | 08:06:00 | 02:12:23 | 00:00:00 | |
| DM0DOS-11 | 2026-09-02 12:41:18 | 48.55224 | 10.18856 | 117° | 73km/h | 13671m | -6.1m/s | -53.8°C | 5% | 157.4hPa | 2.6V | 08:06:27 | 02:12:17 | 00:00:00 | |
| DK7TD | 2026-09-02 12:41:14 | 48.55224 | 10.18856 | 118° | 73km/h | 13671m | -6.1m/s | -53.8°C | 1.3% | 157.4hPa | 2.6V | 08:06:59 | 02:12:17 | 00:00:00 | |
| DO3MHA-11 | 2026-09-02 12:41:14 | 48.55224 | 10.18856 | 118° | 66km/h | 13671m | -6.1m/s | -53.8°C | 5.0% | 157.4hPa | 2.7V | 00:00:00 | 02:12:17 | 00:00:00 | |
| DG1MJG | 2026-09-02 12:41:13 | 48.55224 | 10.18856 | 119° | 73km/h | 13671m | -6.1m/s | -53.8°C | 1.9% | 157.4hPa | 2.7V | 08:06:00 | 00:00:00 | 00:00:00 | |
| PG1ADW-2 | 2026-09-02 12:41:12 | 48.55241 | 10.18807 | 117° | 73km/h | 13684m | -6.9m/s | -53.7°C | 4.8% | 157.1hPa | 2.7V | 00:00:00 | 00:00:00 | 00:00:00 | |
| DL9SK-14 | 2026-09-02 12:41:11 | 48.55248 | 10.18783 | 114° | 69km/h | 13690m | -6.7m/s | -53.6°C | 1.7% | 157.0hPa | 2.7V | 00:00:00 | 00:00:00 | 00:00:00 | |
| DB0UT-7 | 2026-09-02 12:41:10 | 48.55256 | 10.18759 | 115° | 68km/h | 13697m | -6.3m/s | -53.4°C | 4.6% | 156.7hPa | 2.7V | 00:00:00 | 02:12:13 | 00:00:00 | |
| DL6DJ-15 | 2026-09-02 12:41:09 | 48.55263 | 10.18735 | 114° | 66km/h | 13703m | -6.3m/s | -53.2°C | 1.6% | 156.6hPa | 2.7V | 00:00:00 | 00:00:00 | 00:00:00 | |
| DJ8HS-15 | 2026-09-02 12:41:08 | 48.55270 | 10.18713 | 117° | 73km/h | 13710m | -6.4m/s | -53.0°C | 4.4% | 156.4hPa | 2.7V | 00:00:00 | 02:12:11 | 00:00:00 | |
| DM0DOS-11 | 2026-09-02 12:41:06 | 48.55305 | 10.18640 | 136° | 60km/h | 13735m | -6m/s | -52.7°C | 4.4% | 155.8hPa | 2.7V | 08:06:37 | 02:12:07 | 00:00:00 | |
| DK7TD | 2026-09-02 12:41:03 | 48.55316 | 10.18624 | 140° | 64km/h | 13741m | -5.6m/s | -52.7°C | 1.1% | 155.7hPa | 2.7V | 08:06:59 | 02:12:06 | 00:00:00 | |
| DK7TD | 2026-09-02 12:40:53 | 48.55451 | 10.18391 | 115° | 80km/h | 13801m | -6.3m/s | -53.2°C | 1.1% | 154.3hPa | 2.6V | 08:06:59 | 02:11:56 | 00:00:00 | |
| DB0ND-19 | 2026-09-02 12:40:51 | 48.55472 | 10.18313 | 110° | 64km/h | 13819m | -6.1m/s | -53.3°C | 1.7% | 153.8hPa | 2.7V | 00:00:00 | 00:00:00 | 00:00:00 | |
| DK7TD | 2026-09-02 12:40:43 | 48.55522 | 10.18197 | 141° | 58km/h | 13862m | -6.1m/s | -53.5°C | 1.2% | 152.8hPa | 2.7V | 08:06:59 | 02:11:46 | 00:00:00 | |
| DK7TD | 2026-09-02 12:40:32 | 48.55641 | 10.17941 | 107° | 68km/h | 13932m | -6.1m/s | -54.2°C | 1.3% | 151.2hPa | 2.7V | 08:07:50 | 02:11:35 | 00:00:00 | |
| PG1ADW-2 | 2026-09-02 12:40:32 | 48.55641 | 10.17941 | 107° | 62km/h | 13932m | -6.1m/s | -54.1°C | 4.7% | 151.1hPa | 2.7V | 08:07:00 | 00:00:00 | 00:00:00 | |
| DO3MHA-11 | 2026-09-02 12:40:31 | 48.55646 | 10.17917 | 105° | 51km/h | 13938m | -6.2m/s | -54.2°C | 4.7% | 151.0hPa | 2.7V | 00:00:00 | 02:11:34 | 00:00:00 | |
| OE5DRO-10 | 2026-09-02 12:40:30 | 48.55649 | 10.17895 | 105° | 62km/h | 13944m | -5.8m/s | -54.2°C | 4.7% | 150.8hPa | 2.7V | 00:00:00 | 00:00:00 | 00:00:00 | |
| DF3TZ-5 | 2026-09-02 12:40:29 | 48.55653 | 10.17876 | 106° | 49km/h | 13950m | -6.0m/s | -54.3°C | 1.7% | 150.7hPa | 2.7V | 00:00:00 | 00:00:00 | 00:00:00 | |
| DJ8HS-15 | 2026-09-02 12:40:28 | 48.55657 | 10.17858 | 110° | 62km/h | 13956m | -6.1m/s | -54.3°C | 4.7% | 150.5hPa | 2.7V | 00:00:00 | 02:11:31 | 00:00:00 | |
| OE9MKV-15 | 2026-09-02 12:40:27 | 48.55661 | 10.17843 | 115° | 64km/h | 13963m | -6.3m/s | -54.4°C | 4.7% | 150.4hPa | 2.7V | 00:00:00 | 02:11:30 | 00:00:00 | |
| OE5DXL-15 | 2026-09-02 12:40:26 | 48.55666 | 10.17828 | 120° | 68km/h | 13969m | -6.6m/s | -54.4°C | 4.8% | 150.3hPa | 2.6V | 00:00:00 | 00:00:00 | 00:00:00 | |
| DM0DOS-11 | 2026-09-02 12:40:25 | 48.55718 | 10.17709 | 119° | 80km/h | 14005m | -6.4m/s | -54.7°C | 5.1% | 149.5hPa | 2.6V | 08:07:21 | 02:11:23 | 00:00:00 | |
| DK7TD | 2026-09-02 12:40:22 | 48.55698 | 10.17759 | 123° | 69km/h | 13994m | -5.1m/s | -54.6°C | 1.5% | 149.7hPa | 2.7V | 08:07:50 | 02:11:25 | 00:00:00 | |
| DK7TD | 2026-09-02 12:40:13 | 48.55774 | 10.17509 | 109° | 57km/h | 14055m | -6m/s | -55.1°C | 1.4% | 148.3hPa | 2.7V | 08:07:50 | 02:11:15 | 00:00:00 | |
| DK7TD | 2026-09-02 12:40:02 | 48.55818 | 10.17269 | 107° | 78km/h | 14122m | -5.7m/s | -55.3°C | 1.5% | 146.7hPa | 2.6V | 08:07:50 | 02:11:04 | 00:00:00 | |
| DK7TD | 2026-09-02 12:39:51 | 48.55877 | 10.16968 | 115° | 80km/h | 14185m | -5.4m/s | -55.5°C | 1.4% | 145.3hPa | 2.6V | 08:07:50 | 02:10:54 | 00:00:00 | |
| DB0ND-19 | 2026-09-02 12:39:49 | 48.55904 | 10.16894 | 122° | 69km/h | 14202m | -5.9m/s | -55.5°C | 1.9% | 144.9hPa | 2.7V | 00:00:00 | 00:00:00 | 00:00:00 | |
| DJ8HS-15 | 2026-09-02 12:39:48 | 48.55904 | 10.16894 | 123° | 78km/h | 14203m | -5.9m/s | -55.4°C | 5.2% | 144.8hPa | 2.7V | 00:00:00 | 02:10:51 | 00:00:00 | |
| DO9HM | 2026-09-02 12:39:47 | 48.55904 | 10.16894 | 124° | 71km/h | 14203m | -5.9m/s | -55.5°C | 2.0% | 144.9hPa | 2.6V | 00:00:00 | 00:00:00 | 00:00:00 | |
| DO3MHA-12 | 2026-09-02 12:39:45 | 48.55934 | 10.16826 | 124° | 77km/h | 14222m | -6.5m/s | -55.4°C | 5.4% | 144.4hPa | 2.6V | 00:00:00 | 02:10:48 | 00:00:00 | |
| DM0DOS-11 | 2026-09-02 12:39:41 | 48.55991 | 10.16630 | 99° | 71km/h | 14263m | -5.1m/s | -56°C | 5.5% | 143.6hPa | 2.7V | 08:08:03 | 02:10:41 | 00:00:00 | |
| DK7TD | 2026-09-02 12:39:32 | 48.56006 | 10.16467 | 99° | 84km/h | 14300m | -6.2m/s | -55.8°C | 1.6% | 142.7hPa | 2.7V | 08:08:41 | 02:10:35 | 00:00:00 | |
| PG1ADW-2 | 2026-09-02 12:39:31 | 48.56010 | 10.16434 | 102° | 86km/h | 14306m | -5.9m/s | -55.7°C | 5.6% | 142.5hPa | 2.7V | 00:00:00 | 00:00:00 | 00:00:00 | |
| DM0DOS-11 | 2026-09-02 12:39:30 | 48.56044 | 10.16272 | 113° | 89km/h | 14334m | -5.9m/s | -55.4°C | 5.4% | 141.9hPa | 2.7V | 08:08:15 | 02:10:29 | 00:00:00 | |
| DK7TD | 2026-09-02 12:39:21 | 48.56102 | 10.16080 | 114° | 99km/h | 14370m | -6.7m/s | -54.5°C | 1.4% | 141.1hPa | 2.7V | 08:08:41 | 02:10:23 | 00:00:00 | |
| DM7RM-13 | 2026-09-02 12:39:18 | 48.56112 | 10.16046 | 116° | 97km/h | 14378m | -7.1m/s | -54.4°C | 1.9% | 141.0hPa | 2.6V | 08:08:00 | 00:00:00 | 00:00:00 | |
| DM0DOS-11 | 2026-09-02 12:39:17 | 48.56145 | 10.15954 | 121° | 84km/h | 14397m | -5.8m/s | -54.2°C | 5.1% | 140.5hPa | 2.6V | 08:08:25 | 02:10:19 | 00:00:00 | |
| DO3MHA-12 | 2026-09-02 12:39:15 | 48.56156 | 10.15927 | 122° | 71km/h | 14403m | -5.6m/s | -54.1°C | 5.0% | 140.4hPa | 2.7V | 00:00:00 | 02:10:18 | 00:00:00 | |
| OE5DRO-10 | 2026-09-02 12:39:14 | 48.56166 | 10.15903 | 121° | 80km/h | 14409m | -5.5m/s | -54.1°C | 5.1% | 140.2hPa | 2.6V | 00:00:00 | 00:00:00 | 00:00:00 | |
| DM0DOS-11 | 2026-09-02 12:39:11 | 48.56211 | 10.15708 | 101° | 86km/h | 14458m | -5.8m/s | -54.5°C | 5.1% | 139.2hPa | 2.6V | 08:08:35 | 02:10:09 | 00:00:00 | |
| DK7TD | 2026-09-02 12:39:08 | 48.56204 | 10.15766 | 104° | 71km/h | 14446m | -6.3m/s | -54.5°C | 1.4% | 139.4hPa | 2.7V | 08:08:41 | 02:10:11 | 00:00:00 | |
| DK7TD | 2026-09-02 12:38:58 | 48.56283 | 10.15443 | 121° | 82km/h | 14505m | -5.4m/s | -54.6°C | 1.3% | 138.2hPa | 2.6V | 08:09:32 | 02:10:01 | 00:00:00 | |
| DK7TD | 2026-09-02 12:38:47 | 48.56381 | 10.15175 | 109° | 75km/h | 14572m | -6m/s | -54.9°C | 1.5% | 136.7hPa | 2.6V | 08:09:32 | 02:09:50 | 00:00:00 | |
| DB0ND-19 | 2026-09-02 12:38:46 | 48.56387 | 10.15147 | 107° | 77km/h | 14579m | -6.2m/s | -54.9°C | 1.9% | 136.6hPa | 2.7V | 00:00:00 | 00:00:00 | 00:00:00 | |
| DK7TD | 2026-09-02 12:38:37 | 48.56430 | 10.14890 | 104° | 68km/h | 14636m | -7.1m/s | -54.5°C | 1.2% | 135.3hPa | 2.7V | 08:09:32 | 02:09:40 | 00:00:00 | |
| DK7TD | 2026-09-02 12:38:27 | 48.56514 | 10.14670 | 127° | 82km/h | 14699m | -6.3m/s | -54°C | 1.1% | 134hPa | 2.7V | 08:09:32 | 02:09:30 | 00:00:00 | |
| DK7TD | 2026-09-02 12:38:16 | 48.56628 | 10.14331 | 113° | 93km/h | 14764m | -6m/s | -54.5°C | 1% | 132.7hPa | 2.6V | 08:09:32 | 02:09:19 | 00:00:00 | |
| DM0DOS-11 | 2026-09-02 12:38:16 | 48.56682 | 10.14178 | 120° | 91km/h | 14794m | -6.2m/s | -54.5°C | 4.7% | 132hPa | 2.6V | 08:09:30 | 02:09:14 | 00:00:00 | |
| DO9HM | 2026-09-02 12:38:15 | 48.56638 | 10.14299 | 116° | 91km/h | 14771m | -6.1m/s | -54.6°C | 1.6% | 132.6hPa | 2.6V | 08:09:00 | 00:00:00 | 00:00:00 | |
| PG1ADW-2 | 2026-09-02 12:38:11 | 48.56682 | 10.14178 | 121° | 77km/h | 14795m | -6.2m/s | -54.4°C | 4.7% | 132.0hPa | 2.6V | 00:00:00 | 00:00:00 | 00:00:00 | |
| DB0UT-7 | 2026-09-02 12:38:10 | 48.56694 | 10.14147 | 121° | 73km/h | 14801m | -6.6m/s | -54.4°C | 4.8% | 131.9hPa | 2.6V | 00:00:00 | 02:09:13 | 00:00:00 | |
| DO3MHA-11 | 2026-09-02 12:38:09 | 48.56706 | 10.14116 | 121° | 84km/h | 14807m | -6.6m/s | -54.3°C | 4.8% | 131.7hPa | 2.6V | 00:00:00 | 02:09:12 | 00:00:00 | |
| DJ8HS-15 | 2026-09-02 12:38:08 | 48.56719 | 10.14084 | 121° | 69km/h | 14814m | -7.1m/s | -54.3°C | 4.9% | 131.6hPa | 2.6V | 00:00:00 | 02:09:11 | 00:00:00 | |
| AZAK | 2026-09-02 12:38:07 | 48.56719 | 10.14084 | 122° | 99km/h | 14814m | -7.1m/s | -54.4°C | 1.6% | 131.7hPa | 2.6V | 08:10:00 | 00:00:00 | 00:00:00 | |
| DM0DOS-11 | 2026-09-02 12:38:06 | 48.56815 | 10.13875 | 119° | 68km/h | 14866m | -6.7m/s | -54.7°C | 5% | 130.6hPa | 2.6V | 08:09:41 | 02:09:03 | 00:00:00 | |
| DK7TD | 2026-09-02 12:38:05 | 48.56758 | 10.13994 | 127° | 89km/h | 14835m | -6.2m/s | -54.4°C | 1.2% | 131.2hPa | 2.6V | 08:10:23 | 02:09:08 | 00:00:00 | |
| DK7TD | 2026-09-02 12:37:54 | 48.56847 | 10.13739 | 106° | 60km/h | 14908m | -7.7m/s | -54.7°C | 0.9% | 129.7hPa | 2.6V | 08:10:23 | 02:08:57 | 00:00:00 | |
| DM0DOS-11 | 2026-09-02 12:37:54 | 48.56861 | 10.13680 | 118° | 53km/h | 14930m | -7.1m/s | -54.5°C | 4.7% | 129.2hPa | 2.7V | 08:09:50 | 02:08:54 | 00:00:00 | |
| PG1ADW-2 | 2026-09-02 12:37:51 | 48.56861 | 10.13680 | 119° | 62km/h | 14931m | -7.1m/s | -54.4°C | 4.7% | 129.1hPa | 2.7V | 00:00:00 | 00:00:00 | 00:00:00 | |
| DK5PH-5 | 2026-09-02 12:37:50 | 48.56869 | 10.13662 | 127° | 64km/h | 14937m | -6.6m/s | -54.3°C | 4.8% | 129.0hPa | 2.7V | 00:00:00 | 02:08:53 | 00:00:00 | |
| DO3MHA-11 | 2026-09-02 12:37:49 | 48.56878 | 10.13646 | 132° | 75km/h | 14944m | -6.6m/s | -54.1°C | 4.7% | 128.9hPa | 2.7V | 00:00:00 | 02:08:52 | 00:00:00 | |
| AZAK | 2026-09-02 12:37:48 | 48.56888 | 10.13629 | 134° | 64km/h | 14950m | -6.6m/s | -53.8°C | 1.5% | 128.8hPa | 2.6V | 08:10:00 | 00:00:00 | 00:00:00 | |
| DM0DOS-11 | 2026-09-02 12:37:47 | 48.56959 | 10.13452 | 104° | 78km/h | 14996m | -6.8m/s | -53.1°C | 4.3% | 127.9hPa | 2.6V | 08:10:00 | 02:08:44 | 00:00:00 | |
| DB0ND-19 | 2026-09-02 12:37:44 | 48.56935 | 10.13539 | 120° | 82km/h | 14976m | -6.5m/s | -53.2°C | 1.4% | 128.3hPa | 2.6V | 00:00:00 | 00:00:00 | 00:00:00 | |
| DK7TD | 2026-09-02 12:37:43 | 48.56945 | 10.13511 | 115° | 84km/h | 14983m | -6.5m/s | -53.2°C | 0.8% | 128.2hPa | 2.6V | 08:10:23 | 02:08:46 | 00:00:00 | |
| DB0UT-7 | 2026-09-02 12:37:40 | 48.56963 | 10.13424 | 102° | 55km/h | 15003m | -6.8m/s | -53.1°C | 4.3% | 127.8hPa | 2.6V | 00:00:00 | 00:00:00 | 00:00:00 | |
| OE5DRO-10 | 2026-09-02 12:37:39 | 48.56966 | 10.13397 | 99° | 58km/h | 15010m | -6.7m/s | -53.1°C | 4.2% | 127.7hPa | 2.6V | 00:00:00 | 00:00:00 | 00:00:00 | |
| DB0NH | 2026-09-02 12:37:36 | 48.56972 | 10.13334 | 100° | 53km/h | 15030m | -6.6m/s | -52.9°C | 4.1% | 127.2hPa | 2.6V | 00:00:00 | 02:08:39 | 00:00:00 | |
| DO3MHA-12 | 2026-09-02 12:37:35 | 48.56975 | 10.13317 | 106° | 49km/h | 15037m | -6.7m/s | -52.8°C | 4.0% | 127.1hPa | 2.6V | 00:00:00 | 02:08:38 | 00:00:00 | |
| DM0DOS-11 | 2026-09-02 12:37:34 | 48.56994 | 10.13266 | 132° | 42km/h | 15065m | -7.4m/s | -52.7°C | 4.1% | 126.6hPa | 2.6V | 08:10:10 | 02:08:34 | 00:00:00 | |
| DK7TD | 2026-09-02 12:37:33 | 48.56982 | 10.13290 | 120° | 38km/h | 15051m | -7m/s | -52.7°C | 0.5% | 126.9hPa | 2.7V | 08:10:23 | 02:08:36 | 00:00:00 | |
| DK7TD | 2026-09-02 12:37:22 | 48.57084 | 10.13092 | 111° | 77km/h | 15128m | -6.6m/s | -53.1°C | 0.7% | 125.4hPa | 2.6V | 08:10:23 | 02:08:25 | 00:00:00 | |
| OE3JTB-15 | 2026-09-02 12:37:22 | 48.57084 | 10.13092 | 111° | 62km/h | 15128m | -6.6m/s | -53.1°C | 4.2% | 125.3hPa | 2.6V | 00:00:00 | 02:08:25 | 00:00:00 | |
| OE5DRO-10 | 2026-09-02 12:37:20 | 48.57094 | 10.13038 | 102° | 53km/h | 15142m | -6.8m/s | -53.2°C | 4.2% | 125.0hPa | 2.6V | 00:00:00 | 00:00:00 | 00:00:00 | |
| DO3MHA-11 | 2026-09-02 12:37:19 | 48.57097 | 10.13014 | 99° | 44km/h | 15148m | -7.0m/s | -53.3°C | 4.2% | 124.9hPa | 2.6V | 00:00:00 | 02:08:22 | 00:00:00 | |
| DF7PN | 2026-09-02 12:37:18 | 48.57099 | 10.12991 | 95° | 57km/h | 15155m | -7.2m/s | -53.4°C | 1.3% | 124.8hPa | 2.7V | 00:00:00 | 00:00:00 | 00:00:00 | |
| DM7RM-13 | 2026-09-02 12:37:15 | 48.57103 | 10.12938 | 103° | 38km/h | 15177m | -7.0m/s | -53.5°C | 1.3% | 124.4hPa | 2.7V | 08:11:00 | 00:00:00 | 00:00:00 | |
| DM0DOS-11 | 2026-09-02 12:37:13 | 48.57151 | 10.12859 | 140° | 58km/h | 15225m | -6.8m/s | -53.5°C | 4.5% | 123.5hPa | 2.7V | 08:10:33 | 02:08:11 | 00:00:00 | |
| DK7TD | 2026-09-02 12:37:11 | 48.57121 | 10.12894 | 141° | 40km/h | 15205m | -6.9m/s | -53.5°C | 0.7% | 123.8hPa | 2.6V | 08:11:14 | 02:08:14 | 00:00:00 | |
| PG1ADW-2 | 2026-09-02 12:37:11 | 48.57121 | 10.12894 | 141° | 51km/h | 15205m | -6.8m/s | -53.4°C | 4.3% | 123.8hPa | 2.6V | 00:00:00 | 00:00:00 | 00:00:00 | |
| DK7TD | 2026-09-02 12:36:53 | 48.57224 | 10.12585 | 114° | 27km/h | 15324m | -6.2m/s | -53.8°C | 0.7% | 121.6hPa | 2.6V | 08:11:14 | 02:07:56 | 00:00:00 | |
| DF3TZ-5 | 2026-09-02 12:36:51 | 48.57237 | 10.12559 | 135° | 35km/h | 15341m | -5.9m/s | -54.0°C | 1.4% | 121.3hPa | 2.7V | 00:00:00 | 00:00:00 | 00:00:00 | |
| DF7PN | 2026-09-02 12:36:47 | 48.57259 | 10.12526 | 135° | 46km/h | 15360m | -6.8m/s | -54.1°C | 1.4% | 120.9hPa | 2.7V | 00:00:00 | 00:00:00 | 00:00:00 | |
| DK7TD | 2026-09-02 12:36:42 | 48.57301 | 10.12442 | 115° | 64km/h | 15395m | -6.8m/s | -54.1°C | 0.7% | 120.3hPa | 2.7V | 08:11:14 | 02:07:45 | 00:00:00 | |
| OE5DRO-10 | 2026-09-02 12:36:42 | 48.57301 | 10.12442 | 116° | 51km/h | 15395m | -6.7m/s | -54.0°C | 4.5% | 120.2hPa | 2.6V | 00:00:00 | 00:00:00 | 00:00:00 | |
| NBG1-10 | 2026-09-02 12:36:40 | 48.57312 | 10.12395 | 105° | 55km/h | 15409m | -6.8m/s | -54.1°C | 4.4% | 119.9hPa | 2.6V | 00:00:00 | 02:07:43 | 00:00:00 | |
| DM0DOS-11 | 2026-09-02 12:36:39 | 48.57317 | 10.12346 | 93° | 66km/h | 15423m | -7m/s | -54.3°C | 4.3% | 119.7hPa | 2.7V | 08:11:03 | 02:07:41 | 00:00:00 | |
| DK7TD | 2026-09-02 12:36:32 | 48.57306 | 10.12227 | 78° | 35km/h | 15463m | -6.2m/s | -54.5°C | 0.6% | 119hPa | 2.7V | 08:11:14 | 02:07:35 | 00:00:00 | |
| DL9SK-14 | 2026-09-02 12:36:32 | 48.57305 | 10.12215 | 86° | 29km/h | 15470m | -6.4m/s | -54.5°C | 1.3% | 118.8hPa | 2.7V | 00:00:00 | 00:00:00 | 00:00:00 | |
| PG1ADW-2 | 2026-09-02 12:36:31 | 48.57305 | 10.12215 | 87° | 57km/h | 15470m | -6.3m/s | -54.5°C | 4.3% | 118.8hPa | 2.7V | 00:00:00 | 00:00:00 | 00:00:00 | |
| DM0DOS-11 | 2026-09-02 12:36:29 | 48.57311 | 10.12182 | 118° | 37km/h | 15489m | -6.7m/s | -54.7°C | 4.5% | 118.5hPa | 2.6V | 08:11:13 | 02:07:31 | 00:00:00 | |
| DO3MHA-11 | 2026-09-02 12:36:29 | 48.57308 | 10.12193 | 112° | 57km/h | 15483m | -6.6m/s | -54.6°C | 4.5% | 118.5hPa | 2.7V | 00:00:00 | 02:07:32 | 00:00:00 | |
| DJ8HS-15 | 2026-09-02 12:36:28 | 48.57311 | 10.12182 | 119° | 60km/h | 15489m | -6.7m/s | -54.6°C | 4.5% | 118.4hPa | 2.7V | 00:00:00 | 02:07:31 | 00:00:00 | |
| AZAK | 2026-09-02 12:36:26 | 48.57322 | 10.12154 | 122° | 49km/h | 15503m | -6.9m/s | -54.7°C | 1.4% | 118.3hPa | 2.7V | 08:12:00 | 00:00:00 | 00:00:00 | |
| DO3MHA-12 | 2026-09-02 12:36:25 | 48.57329 | 10.12136 | 119° | 69km/h | 15510m | -6.7m/s | -54.6°C | 4.5% | 118.1hPa | 2.7V | 00:00:00 | 02:07:28 | 00:00:00 | |
| DF1GD-15 | 2026-09-02 12:36:24 | 48.57329 | 10.12136 | 120° | 55km/h | 15510m | -6.8m/s | -54.7°C | 1.4% | 118.1hPa | 2.7V | 08:12:00 | 00:00:00 | 00:00:00 | |
| DM0DOS-11 | 2026-09-02 12:36:23 | 48.57357 | 10.11959 | 89° | 73km/h | 15557m | -6.3m/s | -55°C | 4.5% | 117.2hPa | 2.7V | 08:11:23 | 02:07:21 | 00:00:00 | |
| DK7TD | 2026-09-02 12:36:22 | 48.57352 | 10.12043 | 102° | 73km/h | 15537m | -7m/s | -54.8°C | 0.7% | 117.6hPa | 2.6V | 08:12:05 | 02:07:24 | 00:00:00 | |
| DK7TD | 2026-09-02 12:36:11 | 48.57342 | 10.11796 | 84° | 51km/h | 15602m | -6.6m/s | -55.5°C | 0.6% | 116.3hPa | 2.7V | 08:12:05 | 02:07:14 | 00:00:00 | |
| PG1ADW-2 | 2026-09-02 12:36:11 | 48.57342 | 10.11796 | 85° | 57km/h | 15603m | -6.5m/s | -55.5°C | 4.6% | 116.3hPa | 2.6V | 00:00:00 | 02:07:14 | 00:00:00 | |
| DM0DOS-11 | 2026-09-02 12:36:10 | 48.57341 | 10.11740 | 91° | 47km/h | 15622m | -6.7m/s | -55.6°C | 4.8% | 116hPa | 2.6V | 08:11:33 | 02:07:11 | 00:00:00 | |
| DB0UT-7 | 2026-09-02 12:36:10 | 48.57341 | 10.11777 | 87° | 58km/h | 15609m | -6.6m/s | -55.6°C | 4.7% | 116.2hPa | 2.7V | 00:00:00 | 02:07:13 | 00:00:00 | |
| DO3MHA-11 | 2026-09-02 12:36:09 | 48.57341 | 10.11758 | 90° | 55km/h | 15616m | -6.6m/s | -55.5°C | 4.8% | 116.1hPa | 2.7V | 00:00:00 | 02:07:12 | 00:00:00 | |
| DJ8HS-15 | 2026-09-02 12:36:08 | 48.57341 | 10.11740 | 92° | 58km/h | 15623m | -6.7m/s | -55.6°C | 4.8% | 116.0hPa | 2.7V | 00:00:00 | 02:07:11 | 00:00:00 | |
| DG1MJG | 2026-09-02 12:36:07 | 48.57342 | 10.11721 | 95° | 49km/h | 15630m | -6.9m/s | -55.8°C | 1.4% | 115.9hPa | 2.7V | 08:12:00 | 00:00:00 | 00:00:00 | |
| DB0NH | 2026-09-02 12:36:06 | 48.57343 | 10.11703 | 97° | 64km/h | 15636m | -6.7m/s | -55.6°C | 4.9% | 115.8hPa | 2.7V | 00:00:00 | 02:07:09 | 00:00:00 | |
| DO3MHA-12 | 2026-09-02 12:36:05 | 48.57344 | 10.11683 | 97° | 62km/h | 15643m | -6.9m/s | -55.6°C | 5.0% | 115.7hPa | 2.7V | 00:00:00 | 02:07:08 | 00:00:00 | |
| OE5DRO-10 | 2026-09-02 12:36:04 | 48.57346 | 10.11663 | 98° | 58km/h | 15650m | -6.6m/s | -55.6°C | 5.1% | 115.5hPa | 2.7V | 00:00:00 | 00:00:00 | 00:00:00 | |
| DM0DOS-11 | 2026-09-02 12:36:03 | 48.57356 | 10.11521 | 94° | 64km/h | 15687m | -6m/s | -55.3°C | 5% | 114.9hPa | 2.7V | 08:11:43 | 02:07:01 | 00:00:00 | |
| DK7TD | 2026-09-02 12:36:00 | 48.57353 | 10.11571 | 95° | 66km/h | 15675m | -6.4m/s | -55.7°C | 1% | 115.1hPa | 2.6V | 08:12:05 | 02:07:03 | 00:00:00 | |
| DL6DJ-15 | 2026-09-02 12:35:58 | 48.57356 | 10.11521 | 94° | 64km/h | 15687m | -6.0m/s | -55.3°C | 1.5% | 114.9hPa | 2.7V | 00:00:00 | 00:00:00 | 00:00:00 | |
| DO3MHA-12 | 2026-09-02 12:35:55 | 48.57359 | 10.11449 | 93° | 55km/h | 15707m | -6.9m/s | -54.8°C | 4.8% | 114.5hPa | 2.7V | 00:00:00 | 02:06:58 | 00:00:00 | |
| DM7RM-13 | 2026-09-02 12:35:52 | 48.57360 | 10.11403 | 92° | 60km/h | 15721m | -7.1m/s | -54.5°C | 1.4% | 114.2hPa | 2.7V | 08:12:00 | 00:00:00 | 00:00:00 | |
| DM0DOS-11 | 2026-09-02 12:35:51 | 48.57378 | 10.11269 | 123° | 51km/h | 15776m | -7.6m/s | -53.9°C | 4.4% | 113.2hPa | 2.7V | 08:11:55 | 02:06:49 | 00:00:00 | |
| DK7TD | 2026-09-02 12:35:50 | 48.57364 | 10.11320 | 102° | 49km/h | 15752m | -8.3m/s | -54°C | 0.6% | 113.7hPa | 2.6V | 08:12:05 | 02:06:52 | 00:00:00 | |
| DO3MHA-11 | 2026-09-02 12:35:49 | 48.57364 | 10.11320 | 102° | 64km/h | 15753m | -8.3m/s | -53.9°C | 4.4% | 113.6hPa | 2.6V | 00:00:00 | 02:06:52 | 00:00:00 | |
| DJ8HS-15 | 2026-09-02 12:35:48 | 48.57367 | 10.11303 | 110° | 68km/h | 15761m | -8.0m/s | -53.9°C | 4.3% | 113.4hPa | 2.6V | 08:11:00 | 02:06:51 | 00:00:00 | |
| DO3MHA-12 | 2026-09-02 12:35:45 | 48.57386 | 10.11253 | 129° | 78km/h | 15784m | -7.3m/s | -53.6°C | 4.3% | 113.0hPa | 2.7V | 08:11:00 | 02:06:48 | 00:00:00 | |
| AZAK | 2026-09-02 12:35:44 | 48.57386 | 10.11253 | 129° | 57km/h | 15784m | -7.3m/s | -53.6°C | 1.2% | 113.1hPa | 2.6V | 08:12:00 | 00:00:00 | 00:00:00 | |
| DF1GD-15 | 2026-09-02 12:35:43 | 48.57396 | 10.11235 | 131° | 64km/h | 15791m | -7.2m/s | -53.5°C | 1.3% | 113.0hPa | 2.6V | 08:12:00 | 00:00:00 | 00:00:00 | |
| DM0DOS-11 | 2026-09-02 12:35:40 | 48.57471 | 10.11018 | 101° | 82km/h | 15850m | -7.5m/s | -52.9°C | 4.1% | 111.9hPa | 2.6V | 08:12:05 | 02:06:39 | 00:00:00 | |
| DK7TD | 2026-09-02 12:35:39 | 48.57459 | 10.11080 | 110° | 86km/h | 15834m | -7.7m/s | -53.2°C | 0.5% | 112.2hPa | 2.7V | 08:12:05 | 02:06:41 | 00:00:00 | |
| DB0NH | 2026-09-02 12:35:36 | 48.57471 | 10.11018 | 102° | 66km/h | 15850m | -7.4m/s | -52.9°C | 4.1% | 111.9hPa | 2.6V | 00:00:00 | 02:06:39 | 00:00:00 | |
| DG1MJG | 2026-09-02 12:35:35 | 48.57471 | 10.11018 | 103° | 82km/h | 15850m | -7.5m/s | -52.9°C | 1.2% | 111.9hPa | 2.7V | 08:12:00 | 00:00:00 | 00:00:00 | |
| NBG1-10 | 2026-09-02 12:35:34 | 48.57476 | 10.10960 | 96° | 60km/h | 15864m | -7.1m/s | -52.9°C | 4.0% | 111.6hPa | 2.7V | 00:00:00 | 02:06:37 | 00:00:00 | |
| PG1ADW-2 | 2026-09-02 12:35:31 | 48.57480 | 10.10890 | 97° | 68km/h | 15885m | -7.0m/s | -53.1°C | 4.1% | 111.3hPa | 2.7V | 00:00:00 | 00:00:00 | 00:00:00 | |
| DL9SK-14 | 2026-09-02 12:35:30 | 48.57484 | 10.10854 | 108° | 44km/h | 15899m | -7.3m/s | -53.1°C | 1.1% | 111.1hPa | 2.7V | 00:00:00 | 00:00:00 | 00:00:00 | |
| DO3MHA-11 | 2026-09-02 12:35:29 | 48.57484 | 10.10854 | 109° | 64km/h | 15899m | -7.2m/s | -53.0°C | 4.1% | 111.0hPa | 2.7V | 00:00:00 | 02:06:32 | 00:00:00 | |
| DM0DOS-11 | 2026-09-02 12:35:28 | 48.57502 | 10.10808 | 128° | 53km/h | 15922m | -7.4m/s | -52.9°C | 4.1% | 110.7hPa | 2.7V | 08:12:15 | 02:06:29 | 00:00:00 | |
| DK7TD | 2026-09-02 12:35:28 | 48.57489 | 10.10839 | 117° | 46km/h | 15907m | -7.5m/s | -53°C | 0.4% | 110.9hPa | 2.6V | 08:12:56 | 02:06:31 | 00:00:00 | |
| DJ8HS-15 | 2026-09-02 12:35:28 | 48.57489 | 10.10839 | 117° | 69km/h | 15907m | -7.5m/s | -53.0°C | 4.1% | 110.9hPa | 2.6V | 00:00:00 | 02:06:31 | 00:00:00 | |
| DL6DJ-15 | 2026-09-02 12:35:27 | 48.57495 | 10.10823 | 123° | 47km/h | 15914m | -7.6m/s | -52.9°C | 1.2% | 110.8hPa | 2.6V | 00:00:00 | 00:00:00 | 00:00:00 | |
| OE5DRO-10 | 2026-09-02 12:35:26 | 48.57502 | 10.10808 | 129° | 71km/h | 15922m | -7.3m/s | -52.8°C | 4.1% | 110.6hPa | 2.6V | 00:00:00 | 00:00:00 | 00:00:00 | |
| DO3MHA-12 | 2026-09-02 12:35:25 | 48.57511 | 10.10792 | 132° | 78km/h | 15929m | -7.2m/s | -52.8°C | 4.2% | 110.5hPa | 2.6V | 00:00:00 | 02:06:28 | 00:00:00 | |
| AZAK | 2026-09-02 12:35:24 | 48.57512 | 10.10792 | 132° | 58km/h | 15929m | -7.2m/s | -52.8°C | 1.2% | 110.6hPa | 2.6V | 08:12:00 | 00:00:00 | 00:00:00 | |
| DF1GD-15 | 2026-09-02 12:35:23 | 48.57522 | 10.10774 | 133° | 66km/h | 15936m | -7.4m/s | -52.8°C | 1.2% | 110.4hPa | 2.6V | 08:12:00 | 00:00:00 | 00:00:00 | |
| DK5PH-5 | 2026-09-02 12:35:20 | 48.57569 | 10.10681 | 123° | 60km/h | 15966m | -7.0m/s | -52.5°C | 4.3% | 109.9hPa | 2.6V | 00:00:00 | 02:06:23 | 00:00:00 | |
| DF3TZ-5 | 2026-09-02 12:35:19 | 48.57590 | 10.10624 | 115° | 84km/h | 15979m | -7.0m/s | -52.5°C | 1.2% | 109.7hPa | 2.6V | 00:00:00 | 00:00:00 | 00:00:00 | |
| DM0DOS-11 | 2026-09-02 12:35:18 | 48.57606 | 10.10565 | 108° | 82km/h | 15993m | -6.9m/s | -52.6°C | 4.2% | 109.5hPa | 2.6V | 08:12:25 | 02:06:19 | 00:00:00 | |
| DK7TD | 2026-09-02 12:35:17 | 48.57599 | 10.10595 | 112° | 84km/h | 15986m | -7.1m/s | -52.5°C | 0.5% | 109.6hPa | 2.7V | 08:12:56 | 02:06:20 | 00:00:00 | |
| DO3MHA-12 | 2026-09-02 12:35:15 | 48.57612 | 10.10536 | 108° | 58km/h | 16000m | -6.9m/s | -52.6°C | 4.2% | 109.3hPa | 2.6V | 00:00:00 | 02:06:18 | 00:00:00 | |
| DF7PN | 2026-09-02 12:35:14 | 48.57622 | 10.10481 | 102° | 69km/h | 16015m | -7.2m/s | -52.6°C | 1.2% | 109.2hPa | 2.6V | 00:00:00 | 00:00:00 | 00:00:00 | |
| DB0UT-7 | 2026-09-02 12:35:11 | 48.57632 | 10.10410 | 101° | 44km/h | 16036m | -6.8m/s | -52.1°C | 3.9% | 108.7hPa | 2.6V | 00:00:00 | 02:06:13 | 00:00:00 | |
| DB0ND-19 | 2026-09-02 12:35:10 | 48.57634 | 10.10390 | 99° | 51km/h | 16043m | -7.0m/s | -52.0°C | 1.1% | 108.7hPa | 2.6V | 00:00:00 | 00:00:00 | 00:00:00 | |
| DO3MHA-11 | 2026-09-02 12:35:09 | 48.57634 | 10.10390 | 100° | 40km/h | 16043m | -7.0m/s | -51.9°C | 3.8% | 108.6hPa | 2.6V | 00:00:00 | 02:06:12 | 00:00:00 | |
| DJ8HS-15 | 2026-09-02 12:35:08 | 48.57636 | 10.10371 | 99° | 49km/h | 16050m | -7.4m/s | -51.9°C | 3.8% | 108.5hPa | 2.6V | 00:00:00 | 02:06:11 | 00:00:00 | |
| DM0DOS-11 | 2026-09-02 12:35:06 | 48.57640 | 10.10337 | 97° | 42km/h | 16067m | -8.3m/s | -51.9°C | 3.7% | 108.2hPa | 2.6V | 08:12:35 | 02:06:09 | 00:00:00 | |
| DK7TD | 2026-09-02 12:35:06 | 48.57640 | 10.10337 | 97° | 42km/h | 16067m | -8.3m/s | -51.9°C | 0.2% | 108.2hPa | 2.6V | 08:12:56 | 02:06:09 | 00:00:00 | |
| DK7TD | 2026-09-02 12:34:55 | 48.57721 | 10.10191 | 120° | 69km/h | 16153m | -7.3m/s | -52.3°C | 0.4% | 106.8hPa | 2.6V | 08:12:56 | 02:05:58 | 00:00:00 | |
| DO3MHA-12 | 2026-09-02 12:34:55 | 48.57721 | 10.10191 | 121° | 46km/h | 16153m | -7.3m/s | -52.2°C | 4.0% | 106.8hPa | 2.6V | 00:00:00 | 02:05:58 | 00:00:00 | |
| DM0DOS-11 | 2026-09-02 12:34:53 | 48.57737 | 10.10121 | 98° | 58km/h | 16175m | -7.3m/s | -52.3°C | 3.9% | 106.4hPa | 2.6V | 08:12:49 | 02:05:55 | 00:00:00 | |
| DF3TZ-5 | 2026-09-02 12:34:48 | 48.57735 | 10.10045 | 87° | 20km/h | 16214m | -7.6m/s | -52.4°C | 1.1% | 105.8hPa | 2.7V | 00:00:00 | 00:00:00 | 00:00:00 | |
| DO9HM | 2026-09-02 12:34:46 | 48.57735 | 10.10045 | 89° | 22km/h | 16214m | -7.6m/s | -52.4°C | 1.2% | 105.8hPa | 2.7V | 08:12:00 | 00:00:00 | 00:00:00 | |
| DM0DOS-11 | 2026-09-02 12:34:45 | 48.57756 | 10.10014 | 145° | 40km/h | 16251m | -7.4m/s | -52.6°C | 4.2% | 105.2hPa | 2.7V | 08:12:59 | 02:05:45 | 00:00:00 | |
| DK7TD | 2026-09-02 12:34:45 | 48.57738 | 10.10032 | 133° | 18km/h | 16230m | -7.6m/s | -52.4°C | 0.4% | 105.5hPa | 2.6V | 08:12:56 | 02:05:48 | 00:00:00 | |
| DK7TD | 2026-09-02 12:34:34 | 48.57811 | 10.09869 | 94° | 62km/h | 16314m | -7.7m/s | -53°C | 0.5% | 104.2hPa | 2.6V | 08:13:47 | 02:05:37 | 00:00:00 | |
| DM0DOS-11 | 2026-09-02 12:34:33 | 48.57810 | 10.09825 | 80° | 55km/h | 16329m | -7.8m/s | -53°C | 4.1% | 103.9hPa | 2.6V | 08:13:09 | 02:05:35 | 00:00:00 | |
| PG1ADW-2 | 2026-09-02 12:34:31 | 48.57807 | 10.09805 | 76° | 47km/h | 16337m | -7.5m/s | -53.0°C | 4.1% | 103.7hPa | 2.6V | 08:13:00 | 00:00:00 | 00:00:00 | |
| OE5DRO-10 | 2026-09-02 12:34:29 | 48.57801 | 10.09775 | 72° | 47km/h | 16353m | -8.0m/s | -53.1°C | 4.1% | 103.5hPa | 2.7V | 00:00:00 | 00:00:00 | 00:00:00 | |
| DL9SK-14 | 2026-09-02 12:34:28 | 48.57797 | 10.09755 | 87° | 22km/h | 16368m | -7.6m/s | -53.2°C | 1.2% | 103.3hPa | 2.7V | 00:00:00 | 00:00:00 | 00:00:00 | |
| DM0DOS-11 | 2026-09-02 12:34:26 | 48.57820 | 10.09712 | 138° | 46km/h | 16409m | -8.5m/s | -53.2°C | 4.3% | 102.7hPa | 2.7V | 08:13:19 | 02:05:25 | 00:00:00 | |
| DK7TD | 2026-09-02 12:34:24 | 48.57812 | 10.09723 | 140° | 38km/h | 16400m | -8.3m/s | -53.2°C | 0.6% | 102.8hPa | 2.7V | 08:13:47 | 02:05:26 | 00:00:00 | |
| DK7TD | 2026-09-02 12:34:13 | 48.57877 | 10.09523 | 88° | 58km/h | 16478m | -8m/s | -53.2°C | 0.6% | 101.6hPa | 2.6V | 08:13:47 | 02:05:16 | 00:00:00 | |
| DM0DOS-11 | 2026-09-02 12:34:13 | 48.57876 | 10.09502 | 83° | 51km/h | 16486m | -8m/s | -53.1°C | 4% | 101.4hPa | 2.6V | 08:13:29 | 02:05:15 | 00:00:00 | |
| DF7PN | 2026-09-02 12:34:12 | 48.57874 | 10.09485 | 80° | 42km/h | 16495m | -8.0m/s | -53.0°C | 1.2% | 101.3hPa | 2.6V | 00:00:00 | 00:00:00 | 00:00:00 | |
| PG1ADW-2 | 2026-09-02 12:34:11 | 48.57874 | 10.09485 | 81° | 46km/h | 16495m | -8.0m/s | -53.0°C | 4.0% | 101.3hPa | 2.6V | 00:00:00 | 00:00:00 | 00:00:00 | |
| OE5DRO-10 | 2026-09-02 12:34:10 | 48.57872 | 10.09470 | 81° | 46km/h | 16503m | -8.2m/s | -52.9°C | 4.0% | 101.1hPa | 2.6V | 08:13:00 | 00:00:00 | 00:00:00 | |
| DO3MHA-11 | 2026-09-02 12:34:09 | 48.57871 | 10.09459 | 84° | 40km/h | 16511m | -7.8m/s | -52.9°C | 4.0% | 101.0hPa | 2.7V | 00:00:00 | 02:05:12 | 00:00:00 | |
| DJ8HS-15 | 2026-09-02 12:34:08 | 48.57871 | 10.09450 | 100° | 44km/h | 16519m | -7.6m/s | -52.9°C | 4.1% | 100.8hPa | 2.7V | 00:00:00 | 02:05:11 | 00:00:00 | |
| DM0DOS-11 | 2026-09-02 12:34:07 | 48.57909 | 10.09395 | 131° | 57km/h | 16564m | -7.7m/s | -53.1°C | 4.3% | 100.2hPa | 2.7V | 08:13:39 | 02:05:05 | 00:00:00 | |
| DK7TD | 2026-09-02 12:34:02 | 48.57909 | 10.09395 | 131° | 57km/h | 16564m | -7.7m/s | -53.1°C | 0.6% | 100.2hPa | 2.7V | 08:13:47 | 02:05:05 | 00:00:00 | |
| DK7TD | 2026-09-02 12:33:52 | 48.57925 | 10.09183 | 76° | 24km/h | 16650m | -7.7m/s | -53.4°C | 0.6% | 98.9hPa | 2.6V | 08:14:38 | 02:04:54 | 00:00:00 | |
| OE5DRO-10 | 2026-09-02 12:33:51 | 48.57925 | 10.09183 | 76° | 49km/h | 16650m | -7.6m/s | -53.4°C | 4.2% | 98.8hPa | 2.6V | 00:00:00 | 00:00:00 | 00:00:00 | |
| DK5PH-5 | 2026-09-02 12:33:50 | 48.57924 | 10.09175 | 95° | 49km/h | 16658m | -7.3m/s | -53.3°C | 4.2% | 98.7hPa | 2.6V | 00:00:00 | 02:04:53 | 00:00:00 | |
| OE5DXL-15 | 2026-09-02 12:33:49 | 48.57925 | 10.09168 | 120° | 51km/h | 16665m | -7.4m/s | -53.4°C | 4.3% | 98.6hPa | 2.7V | 00:00:00 | 00:00:00 | 00:00:00 | |
| DJ8HS-15 | 2026-09-02 12:33:48 | 48.57929 | 10.09161 | 131° | 49km/h | 16673m | -7.4m/s | -53.5°C | 4.4% | 98.5hPa | 2.7V | 00:00:00 | 02:04:51 | 00:00:00 | |
| DO3MHA-12 | 2026-09-02 12:33:45 | 48.57948 | 10.09128 | 130° | 64km/h | 16696m | -7.5m/s | -53.7°C | 4.6% | 98.2hPa | 2.6V | 00:00:00 | 02:04:48 | 00:00:00 | |
| DM0DOS-11 | 2026-09-02 12:33:42 | 48.57991 | 10.08946 | 89° | 68km/h | 16760m | -7.8m/s | -53.9°C | 4.3% | 97.2hPa | 2.6V | 08:14:04 | 02:04:40 | 00:00:00 | |
| DK7TD | 2026-09-02 12:33:40 | 48.57983 | 10.09024 | 106° | 69km/h | 16735m | -8.5m/s | -53.8°C | 0.7% | 97.6hPa | 2.7V | 08:14:38 | 02:04:43 | 00:00:00 | |
| DB0UT-7 | 2026-09-02 12:33:40 | 48.57983 | 10.09023 | 106° | 49km/h | 16735m | -8.5m/s | -53.7°C | 4.4% | 97.5hPa | 2.7V | 00:00:00 | 00:00:00 | 00:00:00 | |
| DO3MHA-11 | 2026-09-02 12:33:39 | 48.57987 | 10.08998 | 102° | 49km/h | 16744m | -8.2m/s | -53.8°C | 4.4% | 97.4hPa | 2.7V | 00:00:00 | 02:04:42 | 00:00:00 | |
| DB0ND-19 | 2026-09-02 12:33:36 | 48.57990 | 10.08921 | 83° | 62km/h | 16767m | -7.5m/s | -53.9°C | 1.2% | 97.1hPa | 2.7V | 00:00:00 | 00:00:00 | 00:00:00 | |
| DO3MHA-12 | 2026-09-02 12:33:35 | 48.57987 | 10.08899 | 77° | 38km/h | 16775m | -7.7m/s | -53.8°C | 4.2% | 96.9hPa | 2.7V | 00:00:00 | 02:04:38 | 00:00:00 | |
| DM0DOS-11 | 2026-09-02 12:33:32 | 48.57990 | 10.08804 | 136° | 46km/h | 16837m | -7.2m/s | -53.3°C | 4.3% | 96hPa | 2.7V | 08:14:14 | 02:04:30 | 00:00:00 | |
| DK7TD | 2026-09-02 12:33:30 | 48.57978 | 10.08824 | 126° | 26km/h | 16823m | -7.3m/s | -53.4°C | 0.6% | 96.2hPa | 2.6V | 08:14:38 | 02:04:32 | 00:00:00 | |
| DO3MHA-11 | 2026-09-02 12:33:29 | 48.57978 | 10.08824 | 127° | 57km/h | 16823m | -7.3m/s | -53.3°C | 4.3% | 96.2hPa | 2.6V | 00:00:00 | 02:04:32 | 00:00:00 | |
| DJ8HS-15 | 2026-09-02 12:33:28 | 48.57983 | 10.08815 | 136° | 47km/h | 16830m | -7.0m/s | -53.3°C | 4.3% | 96.1hPa | 2.6V | 00:00:00 | 02:04:31 | 00:00:00 | |
| DM7RM-13 | 2026-09-02 12:33:27 | 48.57983 | 10.08815 | 136° | 35km/h | 16830m | -7.1m/s | -53.3°C | 1.2% | 96.1hPa | 2.6V | 08:14:00 | 00:00:00 | 00:00:00 | |
| DO3MHA-12 | 2026-09-02 12:33:25 | 48.58008 | 10.08774 | 127° | 62km/h | 16852m | -7.9m/s | -53.3°C | 4.3% | 95.8hPa | 2.6V | 00:00:00 | 02:04:28 | 00:00:00 | |
| DL6DJ-15 | 2026-09-02 12:33:23 | 48.58024 | 10.08732 | 113° | 66km/h | 16869m | -8.3m/s | -53.5°C | 1.2% | 95.6hPa | 2.6V | 00:00:00 | 00:00:00 | 00:00:00 | |
| DM0DOS-11 | 2026-09-02 12:33:22 | 48.58028 | 10.08587 | 72° | 53km/h | 16915m | -8m/s | -53.9°C | 4.2% | 94.9hPa | 2.6V | 08:14:24 | 02:04:20 | 00:00:00 | |
| DK7TD | 2026-09-02 12:33:19 | 48.58035 | 10.08630 | 84° | 64km/h | 16900m | -7.5m/s | -53.8°C | 0.5% | 95.1hPa | 2.7V | 08:14:38 | 02:04:22 | 00:00:00 | |
| DK7TD | 2026-09-02 12:33:09 | 48.58033 | 10.08495 | 138° | 38km/h | 16987m | -7.8m/s | -53.2°C | 0.5% | 93.8hPa | 2.6V | 08:14:38 | 02:04:11 | 00:00:00 | |
| DJ8HS-15 | 2026-09-02 12:33:08 | 48.58033 | 10.08495 | 139° | 49km/h | 16987m | -7.7m/s | -53.2°C | 4.2% | 93.7hPa | 2.6V | 00:00:00 | 02:04:11 | 00:00:00 | |
| DM7RM-13 | 2026-09-02 12:33:07 | 48.58033 | 10.08495 | 139° | 38km/h | 16987m | -7.8m/s | -53.2°C | 1.2% | 93.8hPa | 2.6V | 08:14:00 | 00:00:00 | 00:00:00 | |
| DB0NH | 2026-09-02 12:33:06 | 48.58048 | 10.08472 | 129° | 55km/h | 17002m | -7.6m/s | -53.2°C | 4.2% | 93.6hPa | 2.6V | 00:00:00 | 02:04:09 | 00:00:00 | |
| DO3MHA-12 | 2026-09-02 12:33:05 | 48.58055 | 10.08456 | 122° | 53km/h | 17010m | -7.5m/s | -53.3°C | 4.2% | 93.4hPa | 2.6V | 00:00:00 | 02:04:08 | 00:00:00 | |
| DM0DOS-11 | 2026-09-02 12:33:03 | 48.58070 | 10.08399 | 101° | 55km/h | 17032m | -7.3m/s | -53.6°C | 4.2% | 93.2hPa | 2.6V | 08:14:39 | 02:04:05 | 00:00:00 | |
| DK7TD | 2026-09-02 12:32:58 | 48.58071 | 10.08318 | 82° | 53km/h | 17062m | -7.9m/s | -53.5°C | 0.4% | 92.7hPa | 2.7V | 08:15:29 | 02:04:01 | 00:00:00 | |
| DL9SK-14 | 2026-09-02 12:32:55 | 48.58064 | 10.08242 | 88° | 47km/h | 17094m | -7.5m/s | -53.8°C | 1.2% | 92.3hPa | 2.6V | 00:00:00 | 00:00:00 | 00:00:00 | |
| IW2NTF | 2026-09-02 12:32:54 | 48.58064 | 10.08223 | 94° | 47km/h | 17101m | -6.9m/s | -53.8°C | 4.3% | 92.2hPa | 2.6V | 08:14:48 | 02:03:56 | 00:00:00 | |
| OE5DRO-10 | 2026-09-02 12:32:54 | 48.58064 | 10.08242 | 89° | 44km/h | 17094m | -7.4m/s | -53.7°C | 4.2% | 92.2hPa | 2.7V | 00:00:00 | 00:00:00 | 00:00:00 | |
| DM0DOS-11 | 2026-09-02 12:32:52 | 48.58071 | 10.08169 | 102° | 47km/h | 17122m | -7.3m/s | -53.8°C | 4.3% | 91.9hPa | 2.7V | 08:14:51 | 02:03:53 | 00:00:00 | |
| DL6DJ-15 | 2026-09-02 12:32:52 | 48.58066 | 10.08205 | 99° | 47km/h | 17108m | -7.0m/s | -53.9°C | 1.2% | 92.1hPa | 2.6V | 00:00:00 | 00:00:00 | 00:00:00 | |
| PG1ADW-2 | 2026-09-02 12:32:51 | 48.58068 | 10.08187 | 102° | 40km/h | 17115m | -7.0m/s | -53.8°C | 4.3% | 92.0hPa | 2.6V | 00:00:00 | 00:00:00 | 00:00:00 | |
| DK5PH-5 | 2026-09-02 12:32:50 | 48.58071 | 10.08169 | 103° | 55km/h | 17122m | -7.3m/s | -53.8°C | 4.3% | 91.8hPa | 2.6V | 00:00:00 | 02:03:53 | 00:00:00 | |
| DO3MHA-11 | 2026-09-02 12:32:49 | 48.58073 | 10.08151 | 102° | 60km/h | 17130m | -7.4m/s | -53.8°C | 4.4% | 91.8hPa | 2.6V | 00:00:00 | 02:03:52 | 00:00:00 | |
| IW2NTF | 2026-09-02 12:32:48 | 48.58084 | 10.08021 | 93° | 64km/h | 17177m | -8.6m/s | -54°C | 4.3% | 91.1hPa | 2.7V | 08:14:58 | 02:03:46 | 00:00:00 | |
| DK7TD | 2026-09-02 12:32:47 | 48.58078 | 10.08111 | 98° | 55km/h | 17144m | -7.6m/s | -53.9°C | 0.6% | 91.6hPa | 2.6V | 08:15:29 | 02:03:50 | 00:00:00 | |
| DM7RM-13 | 2026-09-02 12:32:46 | 48.58078 | 10.08111 | 99° | 55km/h | 17145m | -7.6m/s | -53.9°C | 1.3% | 91.6hPa | 2.7V | 08:15:00 | 00:00:00 | 00:00:00 | |
| DO3MHA-12 | 2026-09-02 12:32:45 | 48.58082 | 10.08068 | 97° | 62km/h | 17160m | -8.1m/s | -53.8°C | 4.4% | 91.3hPa | 2.7V | 08:14:00 | 02:03:48 | 00:00:00 | |
| DF3TZ-5 | 2026-09-02 12:32:43 | 48.58085 | 10.08021 | 93° | 64km/h | 17177m | -8.6m/s | -54.0°C | 1.2% | 91.1hPa | 2.6V | 00:00:00 | 00:00:00 | 00:00:00 | |
| DM0DOS-11 | 2026-09-02 12:32:41 | 48.58082 | 10.07946 | 78° | 66km/h | 17203m | -8.8m/s | -54°C | 4.2% | 90.7hPa | 2.6V | 08:15:01 | 02:03:43 | 00:00:00 | |
| DB0UT-7 | 2026-09-02 12:32:40 | 48.58082 | 10.07946 | 79° | 47km/h | 17204m | -8.8m/s | -54.0°C | 4.2% | 90.6hPa | 2.6V | 00:00:00 | 00:00:00 | 00:00:00 | |
| DO3MHA-11 | 2026-09-02 12:32:39 | 48.58078 | 10.07922 | 73° | 40km/h | 17212m | -8.5m/s | -53.9°C | 4.2% | 90.5hPa | 2.6V | 00:00:00 | 02:03:42 | 00:00:00 | |
| IW2NTF | 2026-09-02 12:32:38 | 48.58045 | 10.07833 | 74° | 20km/h | 17260m | -7.9m/s | -53.7°C | 4.2% | 89.9hPa | 2.6V | 08:15:08 | 02:03:36 | 00:00:00 | |
| DK7TD | 2026-09-02 12:32:36 | 48.58059 | 10.07863 | 54° | 47km/h | 17237m | -7.9m/s | -53.8°C | 0.4% | 90.2hPa | 2.7V | 08:15:29 | 02:03:39 | 00:00:00 | |
| DM0DOS-11 | 2026-09-02 12:32:36 | 48.58052 | 10.07807 | 125° | 37km/h | 17285m | -8.4m/s | -53.8°C | 4.3% | 89.5hPa | 2.7V | 08:15:11 | 02:03:33 | 00:00:00 | |
| DO3MHA-12 | 2026-09-02 12:32:35 | 48.58052 | 10.07850 | 53° | 40km/h | 17245m | -7.6m/s | -53.7°C | 4.1% | 90.1hPa | 2.6V | 00:00:00 | 02:03:38 | 00:00:00 | |
| DB0ND-19 | 2026-09-02 12:32:34 | 48.58048 | 10.07841 | 56° | 26km/h | 17253m | -7.7m/s | -53.8°C | 1.1% | 90.0hPa | 2.6V | 00:00:00 | 00:00:00 | 00:00:00 | |
| OE5DRO-10 | 2026-09-02 12:32:32 | 48.58045 | 10.07825 | 105° | 46km/h | 17268m | -8.1m/s | -53.7°C | 4.2% | 89.8hPa | 2.6V | 00:00:00 | 00:00:00 | 00:00:00 | |
| DJTTGO | 2026-09-02 12:32:30 | 48.58047 | 10.07817 | 123° | 27km/h | 17277m | -8.1m/s | -53.7°C | 1.2% | 89.7hPa | 2.6V | 00:00:00 | 00:00:00 | 00:00:00 | |
| DO3MHA-11 | 2026-09-02 12:32:29 | 48.58058 | 10.07793 | 125° | 62km/h | 17293m | -8.2m/s | -53.8°C | 4.3% | 89.4hPa | 2.6V | 00:00:00 | 02:03:32 | 00:00:00 | |
| DJ8HS-15 | 2026-09-02 12:32:28 | 48.58065 | 10.07777 | 121° | 51km/h | 17302m | -8.4m/s | -53.8°C | 4.4% | 89.2hPa | 2.6V | 00:00:00 | 02:03:31 | 00:00:00 | |
| IW2NTF | 2026-09-02 12:32:26 | 48.58079 | 10.07604 | 74° | 60km/h | 17359m | -8m/s | -54.3°C | 4.3% | 88.5hPa | 2.6V | 08:15:20 | 02:03:24 | 00:00:00 | |
| DK7TD | 2026-09-02 12:32:26 | 48.58078 | 10.07734 | 108° | 68km/h | 17318m | -8.2m/s | -54°C | 0.6% | 89.1hPa | 2.6V | 08:15:29 | 02:03:29 | 00:00:00 | |
| DM0DOS-11 | 2026-09-02 12:32:25 | 48.58070 | 10.07566 | 65° | 44km/h | 17376m | -8.2m/s | -54.4°C | 4.3% | 88.3hPa | 2.6V | 08:15:22 | 02:03:22 | 00:00:00 | |
| DK7TD | 2026-09-02 12:32:16 | 48.58062 | 10.07533 | 92° | 22km/h | 17400m | -8.3m/s | -54.2°C | 0.5% | 88hPa | 2.7V | 08:15:29 | 02:03:19 | 00:00:00 | |
| NBG1-10 | 2026-09-02 12:32:16 | 48.58062 | 10.07532 | 93° | 47km/h | 17400m | -8.2m/s | -54.2°C | 4.3% | 87.9hPa | 2.7V | 00:00:00 | 02:03:19 | 00:00:00 | |
| DO3MHA-12 | 2026-09-02 12:32:15 | 48.58064 | 10.07525 | 116° | 47km/h | 17409m | -8.1m/s | -54.1°C | 4.3% | 87.8hPa | 2.7V | 00:00:00 | 02:03:18 | 00:00:00 | |
| DM0DOS-11 | 2026-09-02 12:32:14 | 48.58106 | 10.07452 | 122° | 60km/h | 17458m | -8.2m/s | -53.8°C | 4.4% | 87.2hPa | 2.6V | 08:15:32 | 02:03:12 | 00:00:00 | |
| DK7TD | 2026-09-02 12:32:06 | 48.58125 | 10.07388 | 104° | 62km/h | 17482m | -7.8m/s | -54°C | 0.6% | 86.8hPa | 2.7V | 08:16:20 | 02:03:09 | 00:00:00 | |
| DO3MHA-12 | 2026-09-02 12:32:05 | 48.58128 | 10.07365 | 99° | 47km/h | 17490m | -7.6m/s | -54.0°C | 4.4% | 86.7hPa | 2.7V | 00:00:00 | 02:03:08 | 00:00:00 | |
| DM0DOS-11 | 2026-09-02 12:32:04 | 48.58125 | 10.07253 | 82° | 42km/h | 17537m | -8.1m/s | -54.1°C | 4.3% | 86.1hPa | 2.7V | 08:15:42 | 02:03:02 | 00:00:00 | |
| DK7TD | 2026-09-02 12:31:55 | 48.58121 | 10.07189 | 87° | 42km/h | 17568m | -7.5m/s | -54.2°C | 0.5% | 85.7hPa | 2.6V | 08:16:20 | 02:02:58 | 00:00:00 | |
| DK7TD | 2026-09-02 12:31:45 | 48.58111 | 10.06985 | 70° | 42km/h | 17655m | -7.2m/s | -54.1°C | 0.6% | 84.6hPa | 2.6V | 08:16:20 | 02:02:47 | 00:00:00 | |
| DK7TD | 2026-09-02 12:31:34 | 48.58093 | 10.06875 | 115° | 18km/h | 17745m | -9.2m/s | -53.8°C | 0.4% | 83.4hPa | 2.7V | 08:16:20 | 02:02:36 | 00:00:00 | |
| DM0DOS-11 | 2026-09-02 12:31:33 | 48.58104 | 10.06837 | 106° | 42km/h | 17778m | -7.4m/s | -53.9°C | 4.3% | 82.9hPa | 2.6V | 08:16:12 | 02:02:32 | 00:00:00 | |
| DK7TD | 2026-09-02 12:31:23 | 48.58116 | 10.06708 | 96° | 53km/h | 17827m | -9m/s | -53.8°C | 0.5% | 82.3hPa | 2.6V | 08:16:20 | 02:02:26 | 00:00:00 | |
| DL9SK-14 | 2026-09-02 12:31:22 | 48.58119 | 10.06674 | 98° | 37km/h | 17842m | -7.2m/s | -53.8°C | 1.1% | 82.1hPa | 2.6V | 00:00:00 | 00:00:00 | 00:00:00 | |
| DK5PH-5 | 2026-09-02 12:31:20 | 48.58120 | 10.06661 | 98° | 46km/h | 17850m | -6.6m/s | -53.7°C | 4.3% | 82.0hPa | 2.6V | 00:00:00 | 02:02:23 | 00:00:00 | |
| DO3MHA-11 | 2026-09-02 12:31:19 | 48.58121 | 10.06651 | 98° | 38km/h | 17857m | -7.3m/s | -53.6°C | 4.3% | 81.9hPa | 2.6V | 00:00:00 | 02:02:22 | 00:00:00 | |
| DN1GJH-1 | 2026-09-02 12:31:17 | 48.58122 | 10.06642 | 104° | 22km/h | 17864m | -8.3m/s | -53.6°C | 1.2% | 81.8hPa | 2.7V | 08:17:00 | 00:00:00 | 00:00:00 | |
| AZAK | 2026-09-02 12:31:16 | 48.58126 | 10.06626 | 121° | 24km/h | 17881m | -8.9m/s | -53.4°C | 1.1% | 81.6hPa | 2.7V | 08:17:00 | 00:00:00 | 00:00:00 | |
| DO3MHA-12 | 2026-09-02 12:31:15 | 48.58130 | 10.06618 | 125° | 58km/h | 17891m | -9.3m/s | -53.3°C | 4.2% | 81.5hPa | 2.7V | 08:16:00 | 02:02:18 | 00:00:00 | |
| DM0DOS-11 | 2026-09-02 12:31:14 | 48.58168 | 10.06516 | 107° | 73km/h | 17946m | -8.4m/s | -53.4°C | 4.2% | 80.8hPa | 2.6V | 08:16:32 | 02:02:12 | 00:00:00 | |
| DK7TD | 2026-09-02 12:31:12 | 48.58148 | 10.06581 | 124° | 53km/h | 17919m | -9.4m/s | -53.2°C | 0.5% | 81.1hPa | 2.6V | 08:17:11 | 02:02:15 | 00:00:00 | |
| DK7TD | 2026-09-02 12:31:01 | 48.58158 | 10.06334 | 68° | 31km/h | 18015m | -8.1m/s | -53.4°C | 0.4% | 79.9hPa | 2.7V | 08:17:11 | 02:02:04 | 00:00:00 | |
| DB0ND-19 | 2026-09-02 12:31:01 | 48.58158 | 10.06334 | 67° | 31km/h | 18015m | -8.1m/s | -53.4°C | 1.1% | 79.9hPa | 2.6V | 00:00:00 | 00:00:00 | 00:00:00 | |
| DO3MHA-11 | 2026-09-02 12:30:59 | 48.58154 | 10.06316 | 86° | 42km/h | 18031m | -8.4m/s | -53.4°C | 4.2% | 79.7hPa | 2.6V | 00:00:00 | 02:02:02 | 00:00:00 | |
| DM0DOS-11 | 2026-09-02 12:30:58 | 48.58156 | 10.06301 | 107° | 26km/h | 18049m | -9.1m/s | -53.4°C | 4.2% | 79.5hPa | 2.6V | 08:16:44 | 02:02:00 | 00:00:00 | |
| OE5DRO-10 | 2026-09-02 12:30:56 | 48.58158 | 10.06290 | 108° | 53km/h | 18058m | -8.8m/s | -53.3°C | 4.2% | 79.3hPa | 2.6V | 08:16:00 | 00:00:00 | 00:00:00 | |
| DO3MHA-12 | 2026-09-02 12:30:55 | 48.58161 | 10.06277 | 104° | 58km/h | 18067m | -8.0m/s | -53.4°C | 4.2% | 79.3hPa | 2.6V | 00:00:00 | 02:01:58 | 00:00:00 | |
| AZAK | 2026-09-02 12:30:54 | 48.58161 | 10.06277 | 105° | 40km/h | 18067m | -8.1m/s | -53.5°C | 1.1% | 79.3hPa | 2.6V | 08:17:00 | 00:00:00 | 00:00:00 | |
| DG1MJG | 2026-09-02 12:30:53 | 48.58163 | 10.06260 | 101° | 49km/h | 18075m | -7.6m/s | -53.5°C | 1.1% | 79.2hPa | 2.6V | 08:17:00 | 00:00:00 | 00:00:00 | |
| DM0DOS-11 | 2026-09-02 12:30:52 | 48.58192 | 10.06081 | 115° | 53km/h | 18140m | -8.2m/s | -52.8°C | 0% | 78.4hPa | 2.6V | 08:16:55 | 02:01:49 | 00:00:00 | |
| DK7TD | 2026-09-02 12:30:50 | 48.58173 | 10.06168 | 101° | 66km/h | 18106m | -9.2m/s | -53.3°C | 0.6% | 78.8hPa | 2.7V | 08:17:11 | 02:01:53 | 00:00:00 | |
| DK5PH-5 | 2026-09-02 12:30:50 | 48.58173 | 10.06168 | 102° | 44km/h | 18107m | -9.1m/s | -53.2°C | 4.3% | 78.8hPa | 2.7V | 00:00:00 | 02:01:53 | 00:00:00 | |
| OE5DXL-15 | 2026-09-02 12:30:49 | 48.58177 | 10.06144 | 106° | 42km/h | 18115m | -8.6m/s | -53.0°C | 4.2% | 78.7hPa | 2.7V | 00:00:00 | 00:00:00 | 00:00:00 | |
| DJ8HS-15 | 2026-09-02 12:30:48 | 48.58181 | 10.06122 | 110° | 49km/h | 18124m | -8.7m/s | -52.9°C | 4.1% | 78.6hPa | 2.7V | 00:00:00 | 02:01:51 | 00:00:00 | |
| DO3MHA-12 | 2026-09-02 12:30:45 | 48.58198 | 10.06064 | 119° | 51km/h | 18149m | -7.9m/s | -52.7°C | 4.1% | 78.2hPa | 2.6V | 00:00:00 | 02:01:48 | 00:00:00 | |
| SONCRA | 2026-09-02 12:30:44 | 48.58211 | 10.06033 | 121° | 44km/h | 18165m | -8.3m/s | -52.8°C | 1.1% | 78.1hPa | 2.7V | 00:00:00 | 00:00:00 | 00:00:00 | |
| DM7RM-13 | 2026-09-02 12:30:42 | 48.58210 | 10.06033 | 122° | 46km/h | 18165m | -8.3m/s | -52.8°C | 1.1% | 78.1hPa | 2.7V | 08:17:00 | 00:00:00 | 00:00:00 | |
| DM0DOS-11 | 2026-09-02 12:30:41 | 48.58260 | 10.05919 | 124° | 58km/h | 18223m | -9m/s | -52.8°C | 0% | 77.4hPa | 2.7V | 08:17:05 | 02:01:39 | 00:00:00 | |
| DK7TD | 2026-09-02 12:30:39 | 48.58236 | 10.05972 | 123° | 53km/h | 18198m | -8.3m/s | -52.9°C | 0.4% | 77.7hPa | 2.6V | 08:17:11 | 02:01:42 | 00:00:00 | |
| DO3MHA-11 | 2026-09-02 12:30:39 | 48.58236 | 10.05971 | 123° | 49km/h | 18198m | -8.2m/s | -52.8°C | 4.1% | 77.7hPa | 2.6V | 00:00:00 | 02:01:42 | 00:00:00 | |
| NBG1-10 | 2026-09-02 12:30:37 | 48.58251 | 10.05937 | 124° | 40km/h | 18215m | -8.6m/s | -52.8°C | 4.1% | 77.5hPa | 2.6V | 00:00:00 | 02:01:40 | 00:00:00 | |
| DB0NH | 2026-09-02 12:30:36 | 48.58259 | 10.05919 | 125° | 40km/h | 18224m | -9.0m/s | -52.7°C | 4.1% | 77.4hPa | 2.6V | 00:00:00 | 02:01:39 | 00:00:00 | |
| DO3MHA-12 | 2026-09-02 12:30:35 | 48.58268 | 10.05900 | 125° | 38km/h | 18233m | -9.5m/s | -52.5°C | 4.1% | 77.3hPa | 2.6V | 00:00:00 | 02:01:38 | 00:00:00 | |
| IW2NTF | 2026-09-02 12:30:34 | 48.58283 | 10.05866 | 122° | 51km/h | 18252m | -9.6m/s | -52.4°C | 4% | 77.1hPa | 2.6V | 08:17:08 | 02:01:36 | 00:00:00 | |
| DF7PN | 2026-09-02 12:30:34 | 48.58276 | 10.05883 | 124° | 55km/h | 18242m | -9.4m/s | -52.4°C | 1.0% | 77.2hPa | 2.6V | 00:00:00 | 00:00:00 | 00:00:00 | |
| AZAK | 2026-09-02 12:30:33 | 48.58275 | 10.05883 | 125° | 55km/h | 18243m | -9.4m/s | -52.4°C | 1.0% | 77.2hPa | 2.6V | 08:17:00 | 00:00:00 | 00:00:00 | |
| OE3JTB-15 | 2026-09-02 12:30:32 | 48.58290 | 10.05850 | 122° | 37km/h | 18261m | -9.4m/s | -52.4°C | 4.0% | 76.9hPa | 2.6V | 00:00:00 | 00:00:00 | 00:00:00 | |
| DM0DOS-11 | 2026-09-02 12:30:31 | 48.58297 | 10.05785 | 67° | 24km/h | 18311m | -8.8m/s | -52.6°C | 0% | 76.3hPa | 2.6V | 08:17:15 | 02:01:29 | 00:00:00 | |
| DK7TD | 2026-09-02 12:30:29 | 48.58300 | 10.05813 | 95° | 27km/h | 18286m | -7.9m/s | -52.6°C | 0.4% | 76.7hPa | 2.7V | 08:18:02 | 02:01:32 | 00:00:00 | |
| DO3MHA-11 | 2026-09-02 12:30:29 | 48.58300 | 10.05813 | 96° | 22km/h | 18286m | -7.8m/s | -52.6°C | 4.1% | 76.6hPa | 2.6V | 00:00:00 | 02:01:32 | 00:00:00 | |
| DJ8HS-15 | 2026-09-02 12:30:28 | 48.58300 | 10.05803 | 83° | 37km/h | 18294m | -8.1m/s | -52.6°C | 4.0% | 76.5hPa | 2.6V | 00:00:00 | 02:01:31 | 00:00:00 | |
| DO3MHA-12 | 2026-09-02 12:30:25 | 48.58294 | 10.05777 | 65° | 29km/h | 18320m | -8.9m/s | -52.6°C | 3.9% | 76.2hPa | 2.6V | 00:00:00 | 02:01:28 | 00:00:00 | |
| PG1ADW-2 | 2026-09-02 12:30:22 | 48.58289 | 10.05755 | 88° | 40km/h | 18348m | -9.7m/s | -52.6°C | 3.9% | 75.9hPa | 2.6V | 00:00:00 | 00:00:00 | 00:00:00 | |
| DM7RM-13 | 2026-09-02 12:30:21 | 48.58289 | 10.05755 | 89° | 18km/h | 18348m | -9.7m/s | -52.7°C | 1.0% | 75.9hPa | 2.7V | 08:18:00 | 00:00:00 | 00:00:00 | |
| DM0DOS-11 | 2026-09-02 12:30:20 | 48.58313 | 10.05692 | 122° | 51km/h | 18400m | -8.4m/s | -52.6°C | 0% | 75.3hPa | 2.7V | 08:17:25 | 02:01:19 | 00:00:00 | |
| DK7TD | 2026-09-02 12:30:19 | 48.58301 | 10.05720 | 124° | 38km/h | 18384m | -8.4m/s | -52.7°C | 0.3% | 75.5hPa | 2.7V | 08:18:02 | 02:01:21 | 00:00:00 | |
| DL6DJ-15 | 2026-09-02 12:30:18 | 48.58313 | 10.05692 | 122° | 51km/h | 18400m | -8.4m/s | -52.6°C | 1.0% | 75.3hPa | 2.6V | 00:00:00 | 00:00:00 | 00:00:00 | |
| DO3MHA-12 | 2026-09-02 12:30:15 | 48.58321 | 10.05674 | 122° | 49km/h | 18409m | -9.1m/s | -52.5°C | 3.9% | 75.1hPa | 2.6V | 00:00:00 | 02:01:18 | 00:00:00 | |
| AZAK | 2026-09-02 12:30:12 | 48.58336 | 10.05637 | 122° | 58km/h | 18428m | -9.5m/s | -52.6°C | 1.0% | 75.0hPa | 2.6V | 08:18:00 | 00:00:00 | 00:00:00 | |
| DM0DOS-11 | 2026-09-02 12:30:10 | 48.58356 | 10.05520 | 74° | 35km/h | 18490m | -9.1m/s | -53.1°C | 0% | 74.3hPa | 2.6V | 08:17:35 | 02:01:09 | 00:00:00 | |
| DK7TD | 2026-09-02 12:30:08 | 48.58359 | 10.05548 | 91° | 38km/h | 18473m | -8.1m/s | -53.1°C | 0.4% | 74.5hPa | 2.6V | 08:18:02 | 02:01:11 | 00:00:00 | |
| DK7TD | 2026-09-02 12:29:57 | 48.58332 | 10.05426 | 62° | 24km/h | 18569m | -10m/s | -53.2°C | 0.4% | 73.4hPa | 2.6V | 08:18:02 | 02:01:00 | 00:00:00 | |
| DO3MHA-12 | 2026-09-02 12:29:55 | 48.58326 | 10.05407 | 69° | 51km/h | 18587m | -7.9m/s | -53.3°C | 4.1% | 73.1hPa | 2.6V | 00:00:00 | 02:00:58 | 00:00:00 | |
| DN1GJH-1 | 2026-09-02 12:29:54 | 48.58326 | 10.05407 | 70° | 33km/h | 18587m | -8.0m/s | -53.3°C | 1.1% | 73.1hPa | 2.6V | 08:18:00 | 00:00:00 | 00:00:00 | |
| DM0DOS-11 | 2026-09-02 12:29:52 | 48.58308 | 10.05280 | 73° | 58km/h | 18644m | -9.1m/s | -53.5°C | 0% | 72.5hPa | 2.6V | 08:17:53 | 02:00:51 | 00:00:00 | |
| IW2NTF | 2026-09-02 12:29:52 | 48.58311 | 10.05302 | 77° | 58km/h | 18635m | -8.5m/s | -53.4°C | 4.1% | 72.6hPa | 2.6V | 08:17:52 | 02:00:52 | 00:00:00 | |
| DK7TD | 2026-09-02 12:29:47 | 48.58303 | 10.05259 | 69° | 58km/h | 18653m | -10.1m/s | -53.5°C | 0.5% | 72.3hPa | 2.6V | 08:18:02 | 02:00:50 | 00:00:00 | |
| DL6DJ-15 | 2026-09-02 12:29:46 | 48.58291 | 10.05220 | 60° | 53km/h | 18673m | -9.6m/s | -53.7°C | 1.1% | 72.2hPa | 2.7V | 00:00:00 | 00:00:00 | 00:00:00 | |
| IW2NTF | 2026-09-02 12:29:45 | 48.58263 | 10.05162 | 95° | 13km/h | 18728m | -9.9m/s | -53.9°C | 4.2% | 71.6hPa | 2.7V | 08:18:02 | 02:00:42 | 00:00:00 | |
| PG1ADW-2 | 2026-09-02 12:29:41 | 48.58267 | 10.05173 | 48° | 42km/h | 18710m | -8.9m/s | -53.7°C | 4.2% | 71.7hPa | 2.7V | 00:00:00 | 00:00:00 | 00:00:00 | |
| DB0UT-7 | 2026-09-02 12:29:40 | 48.58264 | 10.05167 | 62° | 42km/h | 18719m | -8.9m/s | -53.8°C | 4.2% | 71.6hPa | 2.7V | 08:18:00 | 00:00:00 | 00:00:00 | |
| DM0DOS-11 | 2026-09-02 12:29:39 | 48.58265 | 10.05157 | 113° | 16km/h | 18738m | -9.5m/s | 0°C | 0% | 0hPa | 2.6V | 00:00:00 | 02:00:41 | 00:00:00 | |
| DK7TD | 2026-09-02 12:29:36 | 48.58271 | 10.05141 | 122° | 33km/h | 18756m | -8.9m/s | -54.2°C | 0.6% | 71.2hPa | 2.6V | 08:18:53 | 02:00:39 | 00:00:00 | |
| DB0NH | 2026-09-02 12:29:36 | 48.58271 | 10.05140 | 122° | 46km/h | 18756m | -8.9m/s | -54.2°C | 4.3% | 71.2hPa | 2.6V | 00:00:00 | 02:00:39 | 00:00:00 | |
| DO3MHA-12 | 2026-09-02 12:29:35 | 48.58275 | 10.05128 | 118° | 57km/h | 18766m | -9.4m/s | -54.2°C | 4.3% | 71.1hPa | 2.6V | 00:00:00 | 02:00:38 | 00:00:00 | |
| IW2NTF | 2026-09-02 12:29:34 | 48.58293 | 10.05001 | 88° | 66km/h | 18821m | -9.8m/s | -54°C | 4.4% | 70.5hPa | 2.6V | 08:18:12 | 02:00:32 | 00:00:00 | |
| OE3JTB-15 | 2026-09-02 12:29:34 | 48.58285 | 10.05095 | 108° | 55km/h | 18783m | -8.4m/s | -54.2°C | 4.4% | 70.9hPa | 2.7V | 00:00:00 | 02:00:36 | 00:00:00 | |
| DM0DOS-11 | 2026-09-02 12:29:33 | 48.58292 | 10.04976 | 81° | 62km/h | 18831m | -10m/s | 0°C | 0% | 0hPa | 2.7V | 00:00:00 | 02:00:31 | 00:00:00 | |
| DK7TD | 2026-09-02 12:29:25 | 48.58278 | 10.04918 | 58° | 44km/h | 18860m | -9m/s | -53.8°C | 0.6% | 70.1hPa | 2.6V | 08:18:53 | 02:00:28 | 00:00:00 | |
| DO3MHA-12 | 2026-09-02 12:29:25 | 48.58277 | 10.04918 | 58° | 29km/h | 18860m | -9.0m/s | -53.8°C | 4.3% | 70.0hPa | 2.6V | 00:00:00 | 02:00:28 | 00:00:00 | |
| OE5DRO-10 | 2026-09-02 12:29:21 | 48.58264 | 10.04888 | 119° | 22km/h | 18896m | -9.2m/s | -54.0°C | 4.3% | 69.6hPa | 2.6V | 00:00:00 | 00:00:00 | 00:00:00 | |
| DK5PH-5 | 2026-09-02 12:29:20 | 48.58267 | 10.04885 | 151° | 33km/h | 18906m | -9.3m/s | -54.1°C | 4.3% | 69.6hPa | 2.6V | 00:00:00 | 02:00:23 | 00:00:00 | |
| DM0DOS-11 | 2026-09-02 12:29:19 | 48.58278 | 10.04876 | 148° | 37km/h | 18924m | -9.6m/s | 0°C | 0% | 0hPa | 2.6V | 00:00:00 | 02:00:21 | 00:00:00 | |
| DO9HM | 2026-09-02 12:29:19 | 48.58271 | 10.04882 | 154° | 27km/h | 18915m | -9.6m/s | -54.1°C | 1.2% | 69.5hPa | 2.7V | 00:00:00 | 00:00:00 | 00:00:00 | |
| DL9SK-14 | 2026-09-02 12:29:17 | 48.58296 | 10.04855 | 136° | 51km/h | 18943m | -8.4m/s | -54.2°C | 1.1% | 69.2hPa | 2.7V | 00:00:00 | 00:00:00 | 00:00:00 | |
| IW2NTF | 2026-09-02 12:29:15 | 48.58335 | 10.04717 | 94° | 46km/h | 19005m | -8.9m/s | -53.8°C | 4.3% | 68.5hPa | 2.7V | 08:18:32 | 02:00:12 | 00:00:00 | |
| DK7TD | 2026-09-02 12:29:14 | 48.58314 | 10.04821 | 121° | 62km/h | 18960m | -9m/s | -54.2°C | 0.6% | 69hPa | 2.6V | 08:18:53 | 02:00:17 | 00:00:00 | |
| DF1GD-15 | 2026-09-02 12:29:13 | 48.58314 | 10.04821 | 122° | 62km/h | 18960m | -9.0m/s | -54.2°C | 1.2% | 69.0hPa | 2.7V | 08:18:00 | 00:00:00 | 00:00:00 | |
| AZAK | 2026-09-02 12:29:12 | 48.58327 | 10.04778 | 109° | 60km/h | 18979m | -9.1m/s | -54.0°C | 1.2% | 68.8hPa | 2.7V | 08:18:00 | 00:00:00 | 00:00:00 | |
| HARRO8 | 2026-09-02 12:29:11 | 48.58331 | 10.04757 | 103° | 57km/h | 18988m | -8.9m/s | -53.9°C | 1.1% | 68.7hPa | 2.7V | 00:00:00 | 00:00:00 | 00:00:00 | |
| DB0UT-7 | 2026-09-02 12:29:10 | 48.58334 | 10.04736 | 98° | 31km/h | 18997m | -8.9m/s | -53.8°C | 4.3% | 68.6hPa | 2.7V | 00:00:00 | 02:00:13 | 00:00:00 | |
| DO3MHA-11 | 2026-09-02 12:29:09 | 48.58335 | 10.04717 | 95° | 26km/h | 19005m | -8.8m/s | -53.8°C | 4.3% | 68.5hPa | 2.7V | 00:00:00 | 02:00:12 | 00:00:00 | |
| DJ8HS-15 | 2026-09-02 12:29:08 | 48.58336 | 10.04701 | 92° | 26km/h | 19014m | -8.5m/s | -53.8°C | 4.3% | 68.4hPa | 2.7V | 00:00:00 | 02:00:11 | 00:00:00 | |
| DB0NH | 2026-09-02 12:29:06 | 48.58336 | 10.04675 | 92° | 27km/h | 19031m | -8.4m/s | -53.9°C | 4.3% | 68.2hPa | 2.7V | 00:00:00 | 02:00:09 | 00:00:00 | |
| IW2NTF | 2026-09-02 12:29:05 | 48.58341 | 10.04620 | 105° | 16km/h | 19092m | -9.2m/s | -53.9°C | 4.4% | 67.7hPa | 2.7V | 08:18:42 | 02:00:02 | 00:00:00 | |
| DK7TD | 2026-09-02 12:29:03 | 48.58338 | 10.04647 | 98° | 20km/h | 19057m | -8.7m/s | -54°C | 0.7% | 68hPa | 2.7V | 08:18:53 | 02:00:06 | 00:00:00 | |
| DK7TD | 2026-09-02 12:28:52 | 48.58371 | 10.04605 | 189° | 27km/h | 19159m | -10.1m/s | -54.1°C | 0.6% | 66.9hPa | 2.7V | 08:18:53 | 01:59:55 | 00:00:00 | |
| IW2NTF | 2026-09-02 12:28:51 | 48.58396 | 10.04608 | 179° | 38km/h | 19188m | -9.6m/s | -54°C | 4.3% | 66.5hPa | 2.6V | 08:18:52 | 01:59:52 | 00:00:00 | |
| DL9SK-14 | 2026-09-02 12:28:46 | 48.58436 | 10.04591 | 147° | 42km/h | 19227m | -9.5m/s | -53.9°C | 1.1% | 66.2hPa | 2.7V | 00:00:00 | 00:00:00 | 00:00:00 | |
| DO3MHA-12 | 2026-09-02 12:28:45 | 48.58436 | 10.04591 | 148° | 31km/h | 19227m | -9.5m/s | -53.8°C | 4.3% | 66.2hPa | 2.7V | 00:00:00 | 01:59:48 | 00:00:00 | |
| IW2NTF | 2026-09-02 12:28:44 | 48.58465 | 10.04525 | 90° | 26km/h | 19284m | -9m/s | -53.6°C | 4.2% | 65.6hPa | 2.7V | 08:19:02 | 01:59:42 | 00:00:00 | |
| DK7TD | 2026-09-02 12:28:41 | 48.58462 | 10.04546 | 114° | 31km/h | 19266m | -9.1m/s | -53.7°C | 0.5% | 65.8hPa | 2.7V | 08:19:44 | 01:59:44 | 00:00:00 | |
| SONCRA | 2026-09-02 12:28:40 | 48.58465 | 10.04525 | 90° | 24km/h | 19284m | -9.0m/s | -53.7°C | 1.1% | 65.7hPa | 2.7V | 00:00:00 | 00:00:00 | 00:00:00 | |
| DO3MHA-11 | 2026-09-02 12:28:38 | 48.58464 | 10.04516 | 81° | 27km/h | 19293m | -9.2m/s | -53.6°C | 4.3% | 65.5hPa | 2.7V | 00:00:00 | 01:59:41 | 00:00:00 | |
| DB0NH | 2026-09-02 12:28:36 | 48.58461 | 10.04501 | 64° | 33km/h | 19311m | -8.8m/s | -53.7°C | 4.3% | 65.3hPa | 2.7V | 00:00:00 | 01:59:39 | 00:00:00 | |
| DO9HM | 2026-09-02 12:28:35 | 48.58459 | 10.04494 | 53° | 20km/h | 19319m | -8.4m/s | -53.8°C | 1.2% | 65.3hPa | 2.7V | 00:00:00 | 00:00:00 | 00:00:00 | |
| IW2NTF | 2026-09-02 12:28:32 | 48.58428 | 10.04444 | 60° | 40km/h | 19379m | -10.5m/s | -54.1°C | 4.4% | 64.6hPa | 2.7V | 08:19:12 | 01:59:32 | 00:00:00 | |
| DK7TD | 2026-09-02 12:28:31 | 48.58434 | 10.04457 | 53° | 38km/h | 19369m | -10m/s | -54.1°C | 0.6% | 64.8hPa | 2.7V | 08:19:44 | 01:59:33 | 00:00:00 | |
| DK7TD | 2026-09-02 12:28:19 | 48.58459 | 10.04352 | 220° | 18km/h | 19478m | -9.5m/s | -54.2°C | 0.6% | 63.6hPa | 2.6V | 08:19:44 | 01:59:22 | 00:00:00 | |
| OE5DXL-15 | 2026-09-02 12:28:19 | 48.58459 | 10.04352 | 220° | 27km/h | 19478m | -9.4m/s | -54.1°C | 4.3% | 63.6hPa | 2.6V | 00:00:00 | 00:00:00 | 00:00:00 | |
| DO3MHA-11 | 2026-09-02 12:28:17 | 48.58460 | 10.04362 | 302° | 40km/h | 19497m | -9.2m/s | -54.0°C | 4.3% | 63.4hPa | 2.7V | 00:00:00 | 01:59:20 | 00:00:00 | |
| DO9HM | 2026-09-02 12:28:15 | 48.58451 | 10.04367 | 2° | 26km/h | 19515m | -9.4m/s | -54.1°C | 1.2% | 63.3hPa | 2.6V | 00:00:00 | 00:00:00 | 00:00:00 | |
| IW2NTF | 2026-09-02 12:28:14 | 48.58437 | 10.04359 | 34° | 37km/h | 19534m | -9.7m/s | -54.2°C | 4.4% | 63.1hPa | 2.6V | 08:19:28 | 01:59:16 | 00:00:00 | |
| DK7TD | 2026-09-02 12:28:09 | 48.58416 | 10.04301 | 84° | 49km/h | 19572m | -8.9m/s | -54.5°C | 0.6% | 62.7hPa | 2.6V | 08:19:44 | 01:59:12 | 00:00:00 | |
| HARRO8 | 2026-09-02 12:28:09 | 48.58416 | 10.04301 | 84° | 49km/h | 19572m | -8.9m/s | -54.5°C | 1.1% | 62.7hPa | 2.7V | 00:00:00 | 00:00:00 | 00:00:00 | |
| DJ8HS-15 | 2026-09-02 12:28:08 | 48.58416 | 10.04282 | 96° | 26km/h | 19581m | -8.9m/s | -54.5°C | 4.4% | 62.6hPa | 2.7V | 00:00:00 | 01:59:11 | 00:00:00 | |
| DO3MHA-11 | 2026-09-02 12:28:07 | 48.58418 | 10.04263 | 105° | 35km/h | 19590m | -9.0m/s | -54.6°C | 4.4% | 62.5hPa | 2.7V | 00:00:00 | 01:59:10 | 00:00:00 | |
| DB0NH | 2026-09-02 12:28:06 | 48.58422 | 10.04245 | 114° | 29km/h | 19600m | -9.3m/s | -54.7°C | 4.4% | 62.4hPa | 2.7V | 08:19:00 | 01:59:09 | 00:00:00 | |
| DO3MHA-12 | 2026-09-02 12:28:05 | 48.58428 | 10.04229 | 121° | 29km/h | 19609m | -9.1m/s | -54.7°C | 4.5% | 62.3hPa | 2.6V | 00:00:00 | 01:59:08 | 00:00:00 | |
| DF3TZ-5 | 2026-09-02 12:28:04 | 48.58457 | 10.04173 | 125° | 22km/h | 19658m | -9.1m/s | -54.9°C | 1.2% | 61.9hPa | 2.6V | 00:00:00 | 00:00:00 | 00:00:00 | |
| IW2NTF | 2026-09-02 12:28:02 | 48.58459 | 10.04154 | 64° | 16km/h | 19684m | -8.6m/s | -54.4°C | 4.6% | 61.6hPa | 2.6V | 08:19:44 | 01:59:00 | 00:00:00 | |
| DK7TD | 2026-09-02 12:27:58 | 48.58460 | 10.04160 | 86° | 15km/h | 19676m | -8.4m/s | -54.6°C | 0.8% | 61.7hPa | 2.6V | 08:19:44 | 01:59:01 | 00:00:00 | |
| DB0ND-19 | 2026-09-02 12:27:55 | 48.58451 | 10.04140 | 38° | 15km/h | 19712m | -9.8m/s | -54.3°C | 1.1% | 61.4hPa | 2.6V | 00:00:00 | 00:00:00 | 00:00:00 | |
| DN1GJH-1 | 2026-09-02 12:27:54 | 48.58454 | 10.04144 | 46° | 18km/h | 19702m | -9.6m/s | -54.3°C | 1.2% | 61.5hPa | 2.6V | 08:20:00 | 00:00:00 | 00:00:00 | |
| DM0DOS-11 | 2026-09-02 12:27:53 | 48.58455 | 10.04130 | 156° | 24km/h | 19785m | -10.2m/s | 0°C | 0% | 0hPa | 2.6V | 00:00:00 | 01:58:50 | 00:00:00 | |
| NBG1-10 | 2026-09-02 12:27:52 | 48.58446 | 10.04135 | 23° | 27km/h | 19732m | -10.4m/s | -54.3°C | 4.5% | 61.1hPa | 2.7V | 00:00:00 | 01:58:55 | 00:00:00 | |
| DF1GD-15 | 2026-09-02 12:27:51 | 48.58446 | 10.04135 | 24° | 7km/h | 19732m | -10.5m/s | -54.4°C | 1.2% | 61.2hPa | 2.7V | 08:20:00 | 00:00:00 | 00:00:00 | |
| DK5PH-5 | 2026-09-02 12:27:50 | 48.58445 | 10.04134 | 165° | 29km/h | 19753m | -10.3m/s | -54.3°C | 4.4% | 60.9hPa | 2.7V | 08:19:00 | 01:58:53 | 00:00:00 | |
| IW2NTF | 2026-09-02 12:27:49 | 48.58468 | 10.04118 | 140° | 35km/h | 19805m | -10.5m/s | -54.4°C | 4.5% | 60.5hPa | 2.6V | 08:19:56 | 01:58:48 | 00:00:00 | |
| DK7TD | 2026-09-02 12:27:48 | 48.58455 | 10.04130 | 157° | 24km/h | 19785m | -10.3m/s | -54.5°C | 0.7% | 60.7hPa | 2.6V | 08:20:35 | 01:58:50 | 00:00:00 | |
| DJ8HS-15 | 2026-09-02 12:27:48 | 48.58450 | 10.04132 | 165° | 37km/h | 19775m | -10.4m/s | -54.4°C | 4.4% | 60.7hPa | 2.7V | 00:00:00 | 01:58:51 | 00:00:00 | |
| DO3MHA-11 | 2026-09-02 12:27:47 | 48.58455 | 10.04130 | 157° | 38km/h | 19785m | -10.2m/s | -54.4°C | 4.5% | 60.6hPa | 2.6V | 08:19:00 | 01:58:50 | 00:00:00 | |
| OE5DRO-10 | 2026-09-02 12:27:46 | 48.58461 | 10.04125 | 151° | 35km/h | 19795m | -9.7m/s | -54.4°C | 4.5% | 60.5hPa | 2.6V | 00:00:00 | 00:00:00 | 00:00:00 | |
| DO3MHA-12 | 2026-09-02 12:27:45 | 48.58468 | 10.04118 | 141° | 42km/h | 19805m | -10.5m/s | -54.4°C | 4.5% | 60.4hPa | 2.6V | 00:00:00 | 01:58:48 | 00:00:00 | |
| DL9SK-14 | 2026-09-02 12:27:44 | 48.58481 | 10.04096 | 121° | 38km/h | 19825m | -9.5m/s | -54.4°C | 1.2% | 60.3hPa | 2.6V | 00:00:00 | 00:00:00 | 00:00:00 | |
| DL6DJ-15 | 2026-09-02 12:27:41 | 48.58488 | 10.04067 | 101° | 44km/h | 19844m | -9.9m/s | -54.2°C | 1.2% | 60.1hPa | 2.6V | 00:00:00 | 00:00:00 | 00:00:00 | |
| IW2NTF | 2026-09-02 12:27:40 | 48.58481 | 10.03969 | 69° | 42km/h | 19903m | -9.8m/s | -54°C | 4.6% | 59.6hPa | 2.6V | 08:20:06 | 01:58:38 | 00:00:00 | |
| DK7TD | 2026-09-02 12:27:37 | 48.58488 | 10.04000 | 76° | 44km/h | 19883m | -9.7m/s | -54.1°C | 0.7% | 59.8hPa | 2.7V | 08:20:35 | 01:58:40 | 00:00:00 | |
| DK7TD | 2026-09-02 12:27:27 | 48.58441 | 10.03906 | 3° | 22km/h | 19985m | -10.5m/s | -53°C | 0.5% | 58.8hPa | 2.7V | 08:20:35 | 01:58:30 | 00:00:00 | |
| DK7TD | 2026-09-02 12:27:16 | 48.58447 | 10.03885 | 110° | 40km/h | 20098m | -9.9m/s | -53.2°C | 0.5% | 57.8hPa | 2.6V | 08:20:35 | 01:58:19 | 00:00:00 | |
| DO3MHA-12 | 2026-09-02 12:27:15 | 48.58449 | 10.03869 | 103° | 51km/h | 20108m | -9.8m/s | -53.2°C | 4.1% | 57.6hPa | 2.7V | 00:00:00 | 01:58:18 | 00:00:00 | |
| IW2NTF | 2026-09-02 12:27:14 | 48.58450 | 10.03812 | 81° | 55km/h | 20139m | -10.6m/s | -53.1°C | 4.2% | 57.4hPa | 2.6V | 08:20:29 | 01:58:15 | 00:00:00 | |
| DK7TD | 2026-09-02 12:27:06 | 48.58411 | 10.03714 | 35° | 40km/h | 20201m | -10.7m/s | -53.3°C | 0.7% | 56.9hPa | 2.7V | 08:20:35 | 01:58:09 | 00:00:00 | |
| DK7TD | 2026-09-02 12:26:56 | 48.58423 | 10.03655 | 126° | 49km/h | 20317m | -9.9m/s | -52.7°C | 0.4% | 55.8hPa | 2.6V | 08:22:17 | 01:57:58 | 00:00:00 | |
| DO3MHA-12 | 2026-09-02 12:26:55 | 48.58423 | 10.03655 | 126° | 51km/h | 20317m | -9.9m/s | -52.7°C | 4.0% | 55.8hPa | 2.6V | 00:00:00 | 01:57:58 | 00:00:00 | |
| IW2NTF | 2026-09-02 12:26:53 | 48.58442 | 10.03522 | 82° | 49km/h | 20388m | -10.7m/s | -52.9°C | 4.3% | 55.2hPa | 2.6V | 08:20:53 | 01:57:51 | 00:00:00 | |
| DK7TD | 2026-09-02 12:26:45 | 48.58435 | 10.03473 | 72° | 37km/h | 20422m | -11.5m/s | -53°C | 0.6% | 55hPa | 2.7V | 08:22:17 | 01:57:48 | 00:00:00 | |
| DK7TD | 2026-09-02 12:26:35 | 48.58455 | 10.03471 | 180° | 38km/h | 20535m | -11m/s | -53.2°C | 0.5% | 54hPa | 2.6V | 08:22:17 | 01:57:38 | 00:00:00 | |
| DK7TD | 2026-09-02 12:26:24 | 48.58490 | 10.03366 | 25° | 24km/h | 20658m | -11.4m/s | -53.2°C | 0.7% | 52.9hPa | 2.6V | 08:22:17 | 01:57:27 | 00:00:00 | |
| DK7TD | 2026-09-02 12:26:08 | 48.58534 | 10.03331 | 86° | 37km/h | 20834m | -10.9m/s | -53.1°C | 0.5% | 51.5hPa | 2.6V | 08:22:17 | 01:57:11 | 00:00:00 | |
| DK7TD | 2026-09-02 12:25:57 | 48.58491 | 10.03309 | 229° | 22km/h | 20962m | -11m/s | -53.4°C | 0.5% | 50.5hPa | 2.6V | 08:22:17 | 01:57:00 | 00:00:00 | |
| DK7TD | 2026-09-02 12:25:48 | 48.58539 | 10.03244 | 72° | 35km/h | 21078m | -11.6m/s | -53.7°C | 0.7% | 49.6hPa | 2.7V | 08:22:17 | 01:56:50 | 00:00:00 | |
| DK7TD | 2026-09-02 12:25:37 | 48.58507 | 10.03238 | 245° | 18km/h | 21192m | -11.8m/s | -53.7°C | 0.7% | 48.8hPa | 2.7V | 08:22:17 | 01:56:40 | 00:00:00 | |
| DK7TD | 2026-09-02 12:25:26 | 48.58532 | 10.03155 | 58° | 49km/h | 21324m | -12.8m/s | -53.2°C | 0.7% | 47.8hPa | 2.7V | 08:22:17 | 01:56:29 | 00:00:00 | |
| DK7TD | 2026-09-02 12:25:16 | 48.58473 | 10.03140 | 222° | 16km/h | 21443m | -11.3m/s | -52.9°C | 0.7% | 46.9hPa | 2.7V | 08:23:08 | 01:56:19 | 00:00:00 | |
| DK7TD | 2026-09-02 12:25:06 | 48.58530 | 10.03088 | 143° | 31km/h | 21551m | -11.1m/s | -52.5°C | 0.5% | 46.1hPa | 2.6V | 08:23:08 | 01:56:09 | 00:00:00 | |
| DK7TD | 2026-09-02 12:24:55 | 48.58623 | 10.03026 | 136° | 46km/h | 21675m | -12.8m/s | -51.9°C | 0.6% | 45.2hPa | 2.6V | 08:23:08 | 01:55:58 | 00:00:00 | |
| DO3MHA-12 | 2026-09-02 12:24:53 | 48.58638 | 10.02999 | 118° | 29km/h | 21700m | -12.8m/s | -51.8°C | 4.1% | 45.0hPa | 2.7V | 00:00:00 | 01:55:56 | 00:00:00 | |
| DO9LL-15 | 2026-09-02 12:24:52 | 48.58642 | 10.02982 | 107° | 31km/h | 21713m | -12.4m/s | -51.7°C | 4.1% | 44.9hPa | 2.7V | 00:00:00 | 01:55:55 | 00:00:00 | |
| DM7RM-13 | 2026-09-02 12:24:51 | 48.58642 | 10.02982 | 107° | 46km/h | 21713m | -12.4m/s | -51.7°C | 1.0% | 45.0hPa | 2.7V | 08:23:00 | 00:00:00 | 00:00:00 | |
| DK5PH-5 | 2026-09-02 12:24:50 | 48.58643 | 10.02951 | 84° | 31km/h | 21739m | -12.9m/s | -51.5°C | 3.9% | 44.7hPa | 2.7V | 00:00:00 | 01:55:53 | 00:00:00 | |
| IW2NTF | 2026-09-02 12:24:49 | 48.58635 | 10.02922 | 30° | 18km/h | 21775m | -11.5m/s | -51.8°C | 4% | 44.5hPa | 2.6V | 08:22:54 | 01:55:50 | 00:00:00 | |
| DK7TD | 2026-09-02 12:24:45 | 48.58628 | 10.02923 | 315° | 16km/h | 21798m | -11.3m/s | -51.8°C | 0.4% | 44.4hPa | 2.7V | 08:23:08 | 01:55:48 | 00:00:00 | |
| DK7TD | 2026-09-02 12:24:34 | 48.58676 | 10.02997 | 157° | 35km/h | 21936m | -12.4m/s | -51.3°C | 0.5% | 43.4hPa | 2.7V | 08:23:08 | 01:55:37 | 00:00:00 | |
| OE5DRO-10 | 2026-09-02 12:24:34 | 48.58676 | 10.02997 | 157° | 33km/h | 21936m | -12.4m/s | -51.3°C | 4.0% | 43.4hPa | 2.7V | 00:00:00 | 00:00:00 | 00:00:00 | |
| DO9HM | 2026-09-02 12:24:33 | 48.58683 | 10.02990 | 140° | 31km/h | 21949m | -12.0m/s | -51.4°C | 1.0% | 43.4hPa | 2.7V | 08:23:00 | 00:00:00 | 00:00:00 | |
| SONCRA | 2026-09-02 12:24:31 | 48.58690 | 10.02971 | 94° | 29km/h | 21972m | -11.4m/s | -51.6°C | 1.0% | 43.2hPa | 2.7V | 00:00:00 | 00:00:00 | 00:00:00 | |
| DJ8HS-15 | 2026-09-02 12:24:28 | 48.58681 | 10.02939 | 45° | 33km/h | 22009m | -12.7m/s | -51.7°C | 3.8% | 42.9hPa | 2.7V | 00:00:00 | 01:55:31 | 00:00:00 | |
| PG1ADW-2 | 2026-09-02 12:24:27 | 48.58675 | 10.02932 | 29° | 33km/h | 22021m | -12.9m/s | -51.7°C | 3.8% | 42.8hPa | 2.7V | 00:00:00 | 00:00:00 | 00:00:00 | |
| IW2NTF | 2026-09-02 12:24:26 | 48.58641 | 10.02934 | 325° | 33km/h | 22074m | -13.2m/s | -51.8°C | 3.8% | 42.5hPa | 2.7V | 08:23:18 | 01:55:26 | 00:00:00 | |
| DK7TD | 2026-09-02 12:24:23 | 48.58642 | 10.02934 | 325° | 33km/h | 22074m | -13.2m/s | -51.8°C | 0.3% | 42.5hPa | 2.7V | 08:23:59 | 01:55:26 | 00:00:00 | |
| DK7TD | 2026-09-02 12:24:13 | 48.58678 | 10.02966 | 125° | 33km/h | 22198m | -12.6m/s | -52.1°C | 0.4% | 41.7hPa | 2.6V | 08:23:59 | 01:55:16 | 00:00:00 | |
| DK7TD | 2026-09-02 12:24:02 | 48.58629 | 10.02932 | 289° | 24km/h | 22331m | -11.9m/s | -52.6°C | 0.6% | 40.9hPa | 2.6V | 08:23:59 | 01:55:05 | 00:00:00 | |
| DK7TD | 2026-09-02 12:23:51 | 48.58655 | 10.02985 | 150° | 26km/h | 22465m | -12.3m/s | -53.1°C | 0.6% | 40hPa | 2.7V | 08:23:59 | 01:54:54 | 00:00:00 | |
| DF7PN | 2026-09-02 12:23:50 | 48.58662 | 10.02980 | 151° | 29km/h | 22477m | -12.4m/s | -53.0°C | 1.1% | 40.0hPa | 2.6V | 00:00:00 | 00:00:00 | 00:00:00 | |
| DB0ND-19 | 2026-09-02 12:23:46 | 48.58689 | 10.02953 | 136° | 31km/h | 22528m | -13.0m/s | -52.6°C | 1.1% | 39.6hPa | 2.6V | 00:00:00 | 00:00:00 | 00:00:00 | |
| DK7TD | 2026-09-02 12:23:41 | 48.58697 | 10.02920 | 39° | 15km/h | 22589m | -11m/s | -52.6°C | 0.6% | 39.3hPa | 2.6V | 08:24:50 | 01:54:44 | 00:00:00 | |
| DB0UT-7 | 2026-09-02 12:23:40 | 48.58693 | 10.02917 | 24° | 20km/h | 22601m | -12.5m/s | -52.6°C | 4.2% | 39.1hPa | 2.7V | 00:00:00 | 00:00:00 | 00:00:00 | |
| IW2NTF | 2026-09-02 12:23:39 | 48.58681 | 10.02907 | 43° | 18km/h | 22640m | -12.9m/s | -52.5°C | 4.2% | 39hPa | 2.6V | 08:24:04 | 01:54:40 | 00:00:00 | |
| DK7TD | 2026-09-02 12:23:31 | 48.58673 | 10.02857 | 89° | 26km/h | 22716m | -13.4m/s | -52.3°C | 0.5% | 38.5hPa | 2.6V | 08:24:50 | 01:54:34 | 00:00:00 | |
| DK7TD | 2026-09-02 12:23:21 | 48.58652 | 10.02808 | 17° | 15km/h | 22865m | -13.2m/s | -52.3°C | 0.5% | 37.6hPa | 2.7V | 08:24:50 | 01:54:22 | 00:00:00 | |
| AZAK | 2026-09-02 12:23:20 | 48.58655 | 10.02810 | 30° | 15km/h | 22852m | -13.1m/s | -52.3°C | 1.0% | 37.7hPa | 2.6V | 08:24:00 | 00:00:00 | 00:00:00 | |
| DN1GJH-1 | 2026-09-02 12:23:19 | 48.58655 | 10.02810 | 30° | 15km/h | 22852m | -13.1m/s | -52.3°C | 1.1% | 37.7hPa | 2.6V | 08:24:00 | 00:00:00 | 00:00:00 | |
| IW2NTF | 2026-09-02 12:23:18 | 48.58640 | 10.02810 | 325° | 20km/h | 22902m | -12.1m/s | -52.5°C | 4.2% | 37.4hPa | 2.6V | 08:24:25 | 01:54:19 | 00:00:00 | |
| OE5DXL-15 | 2026-09-02 12:23:18 | 48.58648 | 10.02807 | 7° | 16km/h | 22878m | -12.5m/s | -52.4°C | 4.2% | 37.5hPa | 2.6V | 00:00:00 | 00:00:00 | 00:00:00 | |
| DO3MHA-11 | 2026-09-02 12:23:15 | 48.58636 | 10.02816 | 316° | 35km/h | 22914m | -11.9m/s | -52.3°C | 4.1% | 37.3hPa | 2.6V | 08:24:00 | 01:54:18 | 00:00:00 | |
| IW2NTF | 2026-09-02 12:23:13 | 48.58596 | 10.02924 | 286° | 22km/h | 23034m | -12.6m/s | -52.1°C | 3.9% | 36.6hPa | 2.6V | 08:24:35 | 01:54:09 | 00:00:00 | |
| DK7TD | 2026-09-02 12:23:12 | 48.58611 | 10.02876 | 300° | 44km/h | 22980m | -13.9m/s | -51.7°C | 0.4% | 36.9hPa | 2.6V | 08:24:50 | 01:54:13 | 00:00:00 | |
| DB0UT-7 | 2026-09-02 12:23:10 | 48.58611 | 10.02876 | 300° | 13km/h | 22981m | -13.9m/s | -51.7°C | 3.8% | 36.8hPa | 2.7V | 00:00:00 | 01:54:13 | 00:00:00 | |
| DM7RM-13 | 2026-09-02 12:23:09 | 48.58611 | 10.02876 | 301° | 44km/h | 22981m | -13.9m/s | -51.7°C | 1.0% | 36.9hPa | 2.7V | 08:24:00 | 00:00:00 | 00:00:00 | |
| DJ8HS-15 | 2026-09-02 12:23:08 | 48.58602 | 10.02903 | 296° | 9km/h | 23008m | -13.2m/s | -51.8°C | 3.9% | 36.7hPa | 2.7V | 00:00:00 | 01:54:11 | 00:00:00 | |
| DO3MHA-11 | 2026-09-02 12:23:06 | 48.58595 | 10.02930 | 282° | 5km/h | 23047m | -13.4m/s | -52.1°C | 4.0% | 36.5hPa | 2.7V | 00:00:00 | 01:54:08 | 00:00:00 | |
| DB0NH | 2026-09-02 12:23:05 | 48.58595 | 10.02930 | 282° | 7km/h | 23047m | -13.4m/s | -52.1°C | 4.0% | 36.5hPa | 2.7V | 00:00:00 | 01:54:08 | 00:00:00 | |
| DL9SK-14 | 2026-09-02 12:23:04 | 48.58595 | 10.02933 | 255° | 5km/h | 23061m | -13.6m/s | -52.1°C | 1.0% | 36.5hPa | 2.7V | 00:00:00 | 00:00:00 | 00:00:00 | |
| DO3MHA-12 | 2026-09-02 12:23:03 | 48.58595 | 10.02934 | 189° | 5km/h | 23074m | -13.9m/s | -52.0°C | 4.0% | 36.4hPa | 2.7V | 00:00:00 | 01:54:06 | 00:00:00 | |
| DL6DJ-15 | 2026-09-02 12:23:02 | 48.58596 | 10.02934 | 105° | 2km/h | 23101m | -12.5m/s | -52.2°C | 1.0% | 36.3hPa | 2.7V | 00:00:00 | 00:00:00 | 00:00:00 | |
| IW2NTF | 2026-09-02 12:23:01 | 48.58592 | 10.02923 | 55° | 11km/h | 23165m | -13.2m/s | -52.3°C | 4.2% | 35.9hPa | 2.7V | 08:24:45 | 01:53:59 | 00:00:00 | |
| DK7TD | 2026-09-02 12:23:00 | 48.58595 | 10.02931 | 59° | 5km/h | 23126m | -12.6m/s | -52.3°C | 0.6% | 36.1hPa | 2.6V | 08:24:50 | 01:54:02 | 00:00:00 | |
| SONCRA | 2026-09-02 12:22:58 | 48.58593 | 10.02926 | 58° | 9km/h | 23152m | -13.1m/s | -52.4°C | 1.0% | 36.0hPa | 2.7V | 00:00:00 | 00:00:00 | 00:00:00 | |
| NBG1-10 | 2026-09-02 12:22:55 | 48.58590 | 10.02919 | 58° | 11km/h | 23178m | -12.9m/s | -52.3°C | 4.2% | 35.8hPa | 2.7V | 00:00:00 | 01:53:58 | 00:00:00 | |
| DO3MHA-12 | 2026-09-02 12:22:53 | 48.58588 | 10.02914 | 50° | 7km/h | 23205m | -13.5m/s | -52.4°C | 4.2% | 35.6hPa | 2.7V | 00:00:00 | 01:53:56 | 00:00:00 | |
| DO9LL-15 | 2026-09-02 12:22:52 | 48.58587 | 10.02912 | 44° | 11km/h | 23218m | -13.1m/s | -52.4°C | 4.2% | 35.6hPa | 2.7V | 00:00:00 | 01:53:55 | 00:00:00 | |
| IW2NTF | 2026-09-02 12:22:51 | 48.58591 | 10.02924 | 225° | 11km/h | 23298m | -13.6m/s | -52.7°C | 4.3% | 35.2hPa | 2.7V | 08:24:55 | 01:53:49 | 00:00:00 | |
| DK7TD | 2026-09-02 12:22:49 | 48.58587 | 10.02915 | 246° | 5km/h | 23257m | -13.9m/s | -52.6°C | 0.6% | 35.4hPa | 2.6V | 08:25:41 | 01:53:52 | 00:00:00 | |
| OE5DXL-15 | 2026-09-02 12:22:48 | 48.58588 | 10.02917 | 239° | 13km/h | 23271m | -14.0m/s | -52.5°C | 4.2% | 35.3hPa | 2.6V | 00:00:00 | 00:00:00 | 00:00:00 | |
| PG1ADW-2 | 2026-09-02 12:22:46 | 48.58591 | 10.02924 | 226° | 13km/h | 23298m | -13.5m/s | -52.6°C | 4.3% | 35.1hPa | 2.6V | 00:00:00 | 00:00:00 | 00:00:00 | |
| DG1MJG | 2026-09-02 12:22:45 | 48.58593 | 10.02927 | 221° | 11km/h | 23312m | -13.6m/s | 0°C | 0% | 0hPa | 2.6V | 00:00:00 | 00:00:00 | 00:00:00 | |
| DO3MHA-12 | 2026-09-02 12:22:43 | 48.58598 | 10.02932 | 219° | 11km/h | 23338m | -12.9m/s | -52.4°C | 4.2% | 34.9hPa | 2.6V | 00:00:00 | 01:53:46 | 00:00:00 | |
| IW2NTF | 2026-09-02 12:22:40 | 48.58615 | 10.02922 | 127° | 16km/h | 23456m | -13.7m/s | -52°C | 3.9% | 34.3hPa | 2.6V | 08:25:07 | 01:53:37 | 00:00:00 | |
| DK7TD | 2026-09-02 12:22:39 | 48.58605 | 10.02936 | 170° | 7km/h | 23390m | -12.4m/s | -52.3°C | 0.6% | 34.7hPa | 2.6V | 08:25:41 | 01:53:42 | 00:00:00 | |
| DK7TD | 2026-09-02 12:22:28 | 48.58631 | 10.02894 | 114° | 18km/h | 23534m | -13.5m/s | -51.9°C | 0.5% | 33.9hPa | 2.6V | 08:25:41 | 01:53:31 | 00:00:00 | |
| DJ8HS-15 | 2026-09-02 12:22:28 | 48.58631 | 10.02893 | 114° | 26km/h | 23534m | -13.4m/s | -51.8°C | 4.0% | 33.9hPa | 2.6V | 00:00:00 | 01:53:31 | 00:00:00 | |
| SONCRA | 2026-09-02 12:22:27 | 48.58634 | 10.02881 | 115° | 15km/h | 23561m | -13.8m/s | -52.0°C | 0.9% | 33.8hPa | 2.6V | 00:00:00 | 00:00:00 | 00:00:00 | |
| PG1ADW-2 | 2026-09-02 12:22:26 | 48.58634 | 10.02881 | 116° | 27km/h | 23561m | -13.7m/s | -52.0°C | 3.9% | 33.7hPa | 2.6V | 00:00:00 | 01:53:29 | 00:00:00 | |
| DO3MHA-11 | 2026-09-02 12:22:25 | 48.58636 | 10.02877 | 138° | 18km/h | 23575m | -13.8m/s | -52.1°C | 4.0% | 33.6hPa | 2.6V | 00:00:00 | 01:53:28 | 00:00:00 | |
| IW2NTF | 2026-09-02 12:22:23 | 48.58644 | 10.02877 | 210° | 13km/h | 23615m | -13.8m/s | -52.4°C | 4% | 33.5hPa | 2.6V | 08:25:19 | 01:53:25 | 00:00:00 | |
| DK7TD | 2026-09-02 12:22:18 | 48.58655 | 10.02902 | 254° | 26km/h | 23673m | -14.6m/s | -52.7°C | 0.6% | 33.2hPa | 2.6V | 08:25:41 | 01:53:21 | 00:00:00 | |
| DN1GJH-1 | 2026-09-02 12:22:18 | 48.58655 | 10.02901 | 255° | 26km/h | 23673m | -14.6m/s | -52.7°C | 1.0% | 33.2hPa | 2.7V | 08:25:00 | 00:00:00 | 00:00:00 | |
| DF7PN | 2026-09-02 12:22:17 | 48.58656 | 10.02912 | 266° | 27km/h | 23687m | -14.5m/s | -52.7°C | 1.0% | 33.1hPa | 2.7V | 00:00:00 | 00:00:00 | 00:00:00 | |
| DO3MHA-11 | 2026-09-02 12:22:15 | 48.58654 | 10.02935 | 289° | 37km/h | 23717m | -15.0m/s | -52.8°C | 4.3% | 32.9hPa | 2.7V | 00:00:00 | 01:53:18 | 00:00:00 | |
| IW2NTF | 2026-09-02 12:22:14 | 48.58638 | 10.02968 | 321° | 38km/h | 23759m | -13.8m/s | -52.8°C | 4.3% | 32.7hPa | 2.6V | 08:25:29 | 01:53:15 | 00:00:00 | |
| DK7TD | 2026-09-02 12:22:08 | 48.58595 | 10.02982 | 13° | 37km/h | 23828m | -13.9m/s | -52.7°C | 0.7% | 32.4hPa | 2.7V | 08:25:41 | 01:53:10 | 00:00:00 | |
| PG1ADW-2 | 2026-09-02 12:22:06 | 48.58586 | 10.02978 | 22° | 35km/h | 23842m | -13.6m/s | -52.7°C | 4.3% | 32.3hPa | 2.7V | 08:25:00 | 00:00:00 | 00:00:00 | |
| IW2NTF | 2026-09-02 12:22:03 | 48.58504 | 10.02915 | 14° | 47km/h | 23955m | -15.1m/s | -52.5°C | 4.5% | 31.7hPa | 2.6V | 08:25:43 | 01:53:01 | 00:00:00 | |
| DK7TD | 2026-09-02 12:21:57 | 48.58493 | 10.02911 | 8° | 44km/h | 23970m | -15m/s | -52.3°C | 0.7% | 31.7hPa | 2.6V | 08:26:32 | 01:53:00 | 00:00:00 | |
| DO3MHA-11 | 2026-09-02 12:21:56 | 48.58472 | 10.02911 | 352° | 24km/h | 24000m | -14.7m/s | -51.9°C | 4.2% | 31.5hPa | 2.7V | 00:00:00 | 01:52:58 | 00:00:00 | |
| BAUMI2-15 | 2026-09-02 12:21:55 | 48.58472 | 10.02911 | 352° | 27km/h | 24000m | -14.7m/s | -51.9°C | 4.2% | 31.5hPa | 2.7V | 08:25:00 | 01:52:58 | 00:00:00 | |
| DO3MHA-12 | 2026-09-02 12:21:53 | 48.58456 | 10.02920 | 327° | 24km/h | 24030m | -15.3m/s | -51.7°C | 4.1% | 31.3hPa | 2.7V | 00:00:00 | 01:52:56 | 00:00:00 | |
| IW2NTF | 2026-09-02 12:21:52 | 48.58455 | 10.02945 | 185° | 18km/h | 24104m | -14.1m/s | -51.5°C | 4.1% | 31hPa | 2.7V | 08:25:53 | 01:52:51 | 00:00:00 | |
| DK7TD | 2026-09-02 12:21:46 | 48.58466 | 10.02940 | 146° | 27km/h | 24132m | -13.7m/s | -51.3°C | 0.5% | 30.9hPa | 2.6V | 08:26:32 | 01:52:49 | 00:00:00 | |
| PG1ADW-2 | 2026-09-02 12:21:46 | 48.58466 | 10.02940 | 147° | 35km/h | 24132m | -13.6m/s | -51.2°C | 4.0% | 30.8hPa | 2.6V | 00:00:00 | 00:00:00 | 00:00:00 | |
| DO3MHA-11 | 2026-09-02 12:21:45 | 48.58471 | 10.02933 | 135° | 40km/h | 24146m | -13.2m/s | -51.2°C | 4.0% | 30.7hPa | 2.6V | 08:25:00 | 01:52:48 | 00:00:00 | |
| EDDB2-11 | 2026-09-02 12:21:44 | 48.58481 | 10.02912 | 119° | 37km/h | 24172m | -13.2m/s | -51.1°C | 1.0% | 30.7hPa | 2.7V | 00:00:00 | 00:00:00 | 00:00:00 | |
| DO3MHA-12 | 2026-09-02 12:21:43 | 48.58481 | 10.02912 | 120° | 42km/h | 24172m | -13.1m/s | -51.1°C | 4.0% | 30.6hPa | 2.7V | 00:00:00 | 01:52:46 | 00:00:00 | |
| IW2NTF | 2026-09-02 12:21:42 | 48.58517 | 10.02809 | 130° | 42km/h | 24273m | -15m/s | -51°C | 4% | 30.2hPa | 2.7V | 08:26:05 | 01:52:39 | 00:00:00 | |
| DK7TD | 2026-09-02 12:21:36 | 48.58517 | 10.02809 | 130° | 42km/h | 24273m | -15m/s | -51°C | 0.5% | 30.2hPa | 2.7V | 08:26:32 | 01:52:39 | 00:00:00 | |
| DB0NH | 2026-09-02 12:21:35 | 48.58524 | 10.02798 | 140° | 31km/h | 24288m | -14.3m/s | -51.0°C | 3.9% | 30.1hPa | 2.7V | 00:00:00 | 01:52:38 | 00:00:00 | |
| DO3MHA-12 | 2026-09-02 12:21:33 | 48.58540 | 10.02784 | 163° | 24km/h | 24316m | -13.9m/s | -51.1°C | 4.0% | 30.0hPa | 2.7V | 00:00:00 | 01:52:36 | 00:00:00 | |
| DL9SK-14 | 2026-09-02 12:21:31 | 48.58564 | 10.02782 | 187° | 27km/h | 24360m | -15.0m/s | -51.2°C | 1.0% | 29.8hPa | 2.7V | 00:00:00 | 00:00:00 | 00:00:00 | |
| IW2NTF | 2026-09-02 12:21:30 | 48.58581 | 10.02808 | 301° | 15km/h | 24449m | -14.6m/s | -50.9°C | 3.9% | 29.4hPa | 2.7V | 08:26:17 | 01:52:27 | 00:00:00 | |
| DK7TD | 2026-09-02 12:21:25 | 48.58581 | 10.02808 | 302° | 15km/h | 24449m | -14.6m/s | -50.9°C | 0.5% | 29.4hPa | 2.7V | 08:26:32 | 01:52:27 | 00:00:00 | |
| SONCRA | 2026-09-02 12:21:25 | 48.58581 | 10.02808 | 301° | 13km/h | 24449m | -14.6m/s | -50.9°C | 0.9% | 29.4hPa | 2.7V | 00:00:00 | 00:00:00 | 00:00:00 | |
| OE5DRO-10 | 2026-09-02 12:21:24 | 48.58581 | 10.02808 | 302° | 33km/h | 24449m | -14.5m/s | -50.8°C | 3.9% | 29.3hPa | 2.7V | 00:00:00 | 00:00:00 | 00:00:00 | |
| DO3MHA-12 | 2026-09-02 12:21:23 | 48.58579 | 10.02812 | 324° | 29km/h | 24464m | -15.4m/s | -50.7°C | 3.9% | 29.3hPa | 2.7V | 00:00:00 | 01:52:26 | 00:00:00 | |
| DO9LL-15 | 2026-09-02 12:21:22 | 48.58575 | 10.02815 | 342° | 35km/h | 24480m | -15.9m/s | -50.6°C | 3.9% | 29.2hPa | 2.7V | 00:00:00 | 01:52:25 | 00:00:00 | |
| DF1GD-15 | 2026-09-02 12:21:21 | 48.58575 | 10.02815 | 343° | 16km/h | 24480m | -15.9m/s | -50.7°C | 1.0% | 29.3hPa | 2.7V | 08:26:00 | 00:00:00 | 00:00:00 | |
| DK5PH-5 | 2026-09-02 12:21:20 | 48.58566 | 10.02815 | 19° | 37km/h | 24511m | -15.3m/s | -50.5°C | 3.9% | 29.1hPa | 2.7V | 00:00:00 | 01:52:23 | 00:00:00 | |
| IW2NTF | 2026-09-02 12:21:19 | 48.58545 | 10.02733 | 101° | 42km/h | 24621m | -16.1m/s | -50°C | 3.8% | 28.6hPa | 2.7V | 08:26:28 | 01:52:16 | 00:00:00 | |
| DK7TD | 2026-09-02 12:21:14 | 48.58545 | 10.02733 | 101° | 42km/h | 24621m | -16.1m/s | -50°C | 0.4% | 28.6hPa | 2.7V | 08:26:32 | 01:52:16 | 00:00:00 | |
| DO3MHA-12 | 2026-09-02 12:21:13 | 48.58545 | 10.02733 | 102° | 42km/h | 24621m | -16.1m/s | -50.0°C | 3.8% | 28.6hPa | 2.7V | 00:00:00 | 01:52:16 | 00:00:00 | |
| EDDB2-11 | 2026-09-02 12:21:12 | 48.58548 | 10.02718 | 113° | 40km/h | 24637m | -15.7m/s | -49.9°C | 0.9% | 28.6hPa | 2.6V | 00:00:00 | 00:00:00 | 00:00:00 | |
| DB0ND-19 | 2026-09-02 12:21:11 | 48.58553 | 10.02704 | 127° | 40km/h | 24652m | -15.3m/s | -49.9°C | 0.9% | 28.5hPa | 2.6V | 00:00:00 | 00:00:00 | 00:00:00 | |
| DB0UT-7 | 2026-09-02 12:21:10 | 48.58560 | 10.02693 | 144° | 37km/h | 24668m | -15.6m/s | -49.9°C | 3.7% | 28.4hPa | 2.6V | 00:00:00 | 01:52:13 | 00:00:00 | |
| BAUMI2-15 | 2026-09-02 12:21:09 | 48.58569 | 10.02686 | 157° | 42km/h | 24683m | -15.4m/s | -49.9°C | 3.7% | 28.3hPa | 2.6V | 08:26:00 | 01:52:12 | 00:00:00 | |
| DJ8HS-15 | 2026-09-02 12:21:08 | 48.58580 | 10.02681 | 171° | 35km/h | 24699m | -15.9m/s | -49.9°C | 3.7% | 28.3hPa | 2.6V | 00:00:00 | 01:52:11 | 00:00:00 | |
| IW2NTF | 2026-09-02 12:21:06 | 48.58628 | 10.02702 | 222° | 40km/h | 24783m | -16.4m/s | -50.1°C | 3.7% | 27.9hPa | 2.6V | 08:26:38 | 01:52:06 | 00:00:00 | |
| DM0DOS-11 | 2026-09-02 12:21:06 | 48.58611 | 10.02687 | 200° | 42km/h | 24750m | -17.1m/s | 0°C | 0% | 0hPa | 2.7V | 00:00:00 | 01:52:08 | 00:00:00 | |
| DK7TD | 2026-09-02 12:21:03 | 48.58628 | 10.02702 | 223° | 40km/h | 24783m | -16.4m/s | -50.1°C | 0.3% | 27.9hPa | 2.6V | 08:27:23 | 01:52:06 | 00:00:00 | |
| DL9SK-14 | 2026-09-02 12:21:00 | 48.58643 | 10.02753 | 271° | 35km/h | 24848m | -16.1m/s | -50.0°C | 0.9% | 27.6hPa | 2.7V | 00:00:00 | 00:00:00 | 00:00:00 | |
| IW2NTF | 2026-09-02 12:20:58 | 48.58613 | 10.02805 | 353° | 31km/h | 24950m | -17.8m/s | -50°C | 3.8% | 27.2hPa | 2.7V | 08:26:48 | 01:51:56 | 00:00:00 | |
| DK7TD | 2026-09-02 12:20:52 | 48.58606 | 10.02805 | 11° | 31km/h | 24967m | -17.4m/s | -50°C | 0.4% | 27.1hPa | 2.6V | 08:27:23 | 01:51:55 | 00:00:00 | |
| DF3TZ-5 | 2026-09-02 12:20:49 | 48.58589 | 10.02785 | 69° | 29km/h | 25018m | -16.0m/s | -50.2°C | 0.9% | 26.9hPa | 2.7V | 00:00:00 | 00:00:00 | 00:00:00 | |
| OE5DXL-15 | 2026-09-02 12:20:48 | 48.58588 | 10.02774 | 91° | 29km/h | 25034m | -15.8m/s | -50.2°C | 3.9% | 26.8hPa | 2.7V | 00:00:00 | 00:00:00 | 00:00:00 | |
| IW2NTF | 2026-09-02 12:20:46 | 48.58615 | 10.02724 | 157° | 38km/h | 25116m | -17.2m/s | -50.1°C | 3.8% | 26.5hPa | 2.7V | 08:26:58 | 01:51:46 | 00:00:00 | |
| BIOWL9-15 | 2026-09-02 12:20:46 | 48.58599 | 10.02740 | 135° | 37km/h | 25082m | -16.8m/s | 0°C | -1.0% | -1.0hPa | 2.7V | 00:00:00 | 00:00:00 | 00:00:00 | |
| BIOWL1-15 | 2026-09-02 12:20:43 | 48.58615 | 10.02724 | 157° | 38km/h | 25116m | -17.3m/s | 0°C | 0% | 0hPa | 2.7V | 18:12:15 | 01:51:46 | 00:00:00 | |
| DK7TD | 2026-09-02 12:20:42 | 48.58624 | 10.02720 | 167° | 37km/h | 25134m | -17.1m/s | -50.1°C | 0.5% | 26.5hPa | 2.7V | 08:27:23 | 01:51:45 | 00:00:00 | |
| EDDB2-11 | 2026-09-02 12:20:41 | 48.58633 | 10.02718 | 177° | 33km/h | 25151m | -16.8m/s | -50.1°C | 0.9% | 26.4hPa | 2.6V | 00:00:00 | 00:00:00 | 00:00:00 | |
| DB0UT-7 | 2026-09-02 12:20:40 | 48.58641 | 10.02719 | 191° | 29km/h | 25168m | -16.6m/s | -50.0°C | 3.9% | 26.3hPa | 2.6V | 08:27:00 | 00:00:00 | 00:00:00 | |
| IW2NTF | 2026-09-02 12:20:36 | 48.58649 | 10.02770 | 303° | 27km/h | 25279m | -16.9m/s | -49.8°C | 3.8% | 25.9hPa | 2.7V | 08:27:08 | 01:51:36 | 00:00:00 | |
| DK7TD | 2026-09-02 12:20:32 | 48.58645 | 10.02779 | 313° | 29km/h | 25296m | -16.9m/s | -49.7°C | 0.4% | 25.8hPa | 2.7V | 08:27:23 | 01:51:35 | 00:00:00 | |
| DL9SK-14 | 2026-09-02 12:20:29 | 48.58620 | 10.02797 | 357° | 24km/h | 25364m | -16.8m/s | -49.1°C | 0.9% | 25.5hPa | 2.6V | 00:00:00 | 00:00:00 | 00:00:00 | |
| DJ8HS-15 | 2026-09-02 12:20:28 | 48.58620 | 10.02797 | 358° | 31km/h | 25364m | -16.7m/s | -49.0°C | 3.6% | 25.5hPa | 2.6V | 00:00:00 | 01:51:31 | 00:00:00 | |
| PG1ADW-2 | 2026-09-02 12:20:26 | 48.58609 | 10.02792 | 35° | 31km/h | 25396m | -15.4m/s | -48.8°C | 3.6% | 25.4hPa | 2.6V | 00:00:00 | 00:00:00 | 00:00:00 | |
| DO3MHA-11 | 2026-09-02 12:20:25 | 48.58605 | 10.02786 | 58° | 31km/h | 25411m | -15.5m/s | -48.8°C | 3.6% | 25.3hPa | 2.6V | 00:00:00 | 01:51:28 | 00:00:00 | |
| IW2NTF | 2026-09-02 12:20:24 | 48.58602 | 10.02769 | 86° | 27km/h | 25443m | -16.2m/s | -48.9°C | 3.6% | 25.2hPa | 2.6V | 08:27:18 | 01:51:26 | 00:00:00 | |
| DK7TD | 2026-09-02 12:20:22 | 48.58602 | 10.02758 | 94° | 29km/h | 25459m | -17.4m/s | -49°C | 0.4% | 25.2hPa | 2.6V | 08:27:23 | 01:51:25 | 00:00:00 | |
| DO9LL-15 | 2026-09-02 12:20:22 | 48.58602 | 10.02758 | 94° | 35km/h | 25460m | -17.3m/s | -48.9°C | 3.6% | 25.1hPa | 2.6V | 00:00:00 | 01:51:25 | 00:00:00 | |
| DK5PH-5 | 2026-09-02 12:20:20 | 48.58605 | 10.02736 | 109° | 35km/h | 25495m | -17.8m/s | -49.1°C | 3.6% | 25.0hPa | 2.7V | 00:00:00 | 01:51:23 | 00:00:00 | |
| DJ2DS-15 | 2026-09-02 12:20:18 | 48.58614 | 10.02714 | 133° | 35km/h | 25530m | -17.1m/s | -49.2°C | 3.6% | 24.8hPa | 2.6V | 00:00:00 | 01:51:21 | 00:00:00 | |
| IW2NTF | 2026-09-02 12:20:15 | 48.58670 | 10.02704 | 216° | 31km/h | 25644m | -16.3m/s | -49°C | 3.6% | 24.5hPa | 2.6V | 08:27:30 | 01:51:14 | 00:00:00 | |
| DK7TD | 2026-09-02 12:20:12 | 48.58670 | 10.02704 | 216° | 31km/h | 25644m | -16.3m/s | -49.1°C | 0.3% | 24.5hPa | 2.6V | 08:28:14 | 01:51:14 | 00:00:00 | |
| NBG1-10 | 2026-09-02 12:20:11 | 48.58675 | 10.02711 | 232° | 37km/h | 25660m | -15.8m/s | -49.0°C | 3.7% | 24.4hPa | 2.6V | 00:00:00 | 01:51:13 | 00:00:00 | |
| DB0UT-7 | 2026-09-02 12:20:10 | 48.58675 | 10.02711 | 232° | 37km/h | 25660m | -15.8m/s | -49.0°C | 3.7% | 24.4hPa | 2.7V | 00:00:00 | 01:51:13 | 00:00:00 | |
| DB0ND-19 | 2026-09-02 12:20:09 | 48.58679 | 10.02721 | 245° | 29km/h | 25676m | -16.3m/s | -48.9°C | 0.9% | 24.3hPa | 2.7V | 00:00:00 | 00:00:00 | 00:00:00 | |
| DJ8HS-15 | 2026-09-02 12:20:08 | 48.58682 | 10.02733 | 258° | 38km/h | 25693m | -16.8m/s | -48.8°C | 3.6% | 24.2hPa | 2.7V | 00:00:00 | 01:51:11 | 00:00:00 | |
| DB0NH | 2026-09-02 12:20:06 | 48.58680 | 10.02772 | 290° | 37km/h | 25746m | -18.2m/s | -48.7°C | 3.6% | 24.0hPa | 2.7V | 00:00:00 | 01:51:08 | 00:00:00 | |
| IW2NTF | 2026-09-02 12:20:04 | 48.58654 | 10.02805 | 351° | 37km/h | 25813m | -17.2m/s | -48.7°C | 3.6% | 23.8hPa | 2.7V | 08:27:40 | 01:51:04 | 00:00:00 | |
| DK7TD | 2026-09-02 12:20:01 | 48.58645 | 10.02806 | 6° | 37km/h | 25831m | -17.5m/s | -48.7°C | 0.3% | 23.8hPa | 2.7V | 08:28:14 | 01:51:03 | 00:00:00 | |
| DL9SK-14 | 2026-09-02 12:19:58 | 48.58621 | 10.02787 | 51° | 35km/h | 25883m | -17.5m/s | -48.6°C | 0.8% | 23.6hPa | 2.6V | 00:00:00 | 00:00:00 | 00:00:00 | |
| DL6DJ-15 | 2026-09-02 12:19:56 | 48.58615 | 10.02762 | 83° | 35km/h | 25916m | -16.9m/s | -48.5°C | 0.8% | 23.5hPa | 2.6V | 00:00:00 | 00:00:00 | 00:00:00 | |
| DO3MHA-11 | 2026-09-02 12:19:55 | 48.58614 | 10.02762 | 84° | 42km/h | 25916m | -16.9m/s | -48.4°C | 3.5% | 23.4hPa | 2.6V | 00:00:00 | 01:50:58 | 00:00:00 | |
| IW2NTF | 2026-09-02 12:19:54 | 48.58630 | 10.02711 | 141° | 44km/h | 25982m | -18.8m/s | -48.5°C | 3.5% | 23.2hPa | 2.6V | 08:27:50 | 01:50:54 | 00:00:00 | |
| DK7TD | 2026-09-02 12:19:50 | 48.58639 | 10.02701 | 147° | 46km/h | 26001m | -18.2m/s | -48.5°C | 0.3% | 23.1hPa | 2.7V | 08:28:14 | 01:50:53 | 00:00:00 | |
| DL1XH-west | 2026-09-02 12:19:48 | 48.58661 | 10.02688 | 169° | 47km/h | 26035m | -16.6m/s | -48.5°C | 0.3% | 23hPa | 2.7V | 08:28:14 | 01:50:51 | 00:00:00 | |
| DG1MJG | 2026-09-02 12:19:47 | 48.58661 | 10.02688 | 170° | 47km/h | 26035m | -16.6m/s | 0°C | 0% | 0hPa | 2.6V | 00:00:00 | 00:00:00 | 00:00:00 | |
| PG1ADW-2 | 2026-09-02 12:19:46 | 48.58683 | 10.02688 | 192° | 31km/h | 26069m | -17.8m/s | -48.4°C | 3.6% | 22.9hPa | 2.6V | 00:00:00 | 01:50:49 | 00:00:00 | |
| DO3MHA-11 | 2026-09-02 12:19:45 | 48.58692 | 10.02692 | 203° | 33km/h | 26087m | -18.6m/s | -48.3°C | 3.6% | 22.8hPa | 2.6V | 00:00:00 | 01:50:48 | 00:00:00 | |
| DM7RM-13 | 2026-09-02 12:19:44 | 48.58699 | 10.02699 | 216° | 33km/h | 26106m | -18.4m/s | -48.3°C | 0.9% | 22.8hPa | 2.6V | 08:28:00 | 00:00:00 | 00:00:00 | |
| IW2NTF | 2026-09-02 12:19:43 | 48.58701 | 10.02745 | 316° | 33km/h | 26191m | -17.4m/s | -48.5°C | 3.6% | 22.5hPa | 2.6V | 08:28:02 | 01:50:42 | 00:00:00 | |
| DK7TD | 2026-09-02 12:19:39 | 48.58701 | 10.02745 | 316° | 33km/h | 26191m | -17.4m/s | -48.5°C | 0.3% | 22.5hPa | 2.6V | 08:28:14 | 01:50:42 | 00:00:00 | |
| DL1XH-west | 2026-09-02 12:19:38 | 48.58686 | 10.02759 | 339° | 37km/h | 26226m | -17.3m/s | -48.4°C | 0.3% | 22.4hPa | 2.7V | 08:28:14 | 01:50:40 | 00:00:00 | |
| NBG1-10 | 2026-09-02 12:19:37 | 48.58686 | 10.02759 | 339° | 40km/h | 26227m | -17.2m/s | -48.3°C | 3.6% | 22.3hPa | 2.6V | 00:00:00 | 01:50:40 | 00:00:00 | |
| DO3MHA-11 | 2026-09-02 12:19:35 | 48.58669 | 10.02765 | 358° | 29km/h | 26262m | -17.9m/s | -48.1°C | 3.5% | 22.2hPa | 2.6V | 00:00:00 | 01:50:38 | 00:00:00 | |
| DO3MHA-12 | 2026-09-02 12:19:33 | 48.58652 | 10.02762 | 15° | 29km/h | 26296m | -16.6m/s | -47.9°C | 3.4% | 22.1hPa | 2.6V | 00:00:00 | 01:50:36 | 00:00:00 | |
| AZAK | 2026-09-02 12:19:31 | 48.58645 | 10.02758 | 29° | 27km/h | 26312m | -16.2m/s | -47.9°C | 0.8% | 22.1hPa | 2.6V | 08:28:00 | 00:00:00 | 00:00:00 | |
| IW2NTF | 2026-09-02 12:19:30 | 48.58632 | 10.02739 | 61° | 26km/h | 26358m | -16.3m/s | -47.8°C | 3.5% | 21.9hPa | 2.6V | 08:28:12 | 01:50:32 | 00:00:00 | |
| DK7TD | 2026-09-02 12:19:28 | 48.58629 | 10.02730 | 64° | 27km/h | 26375m | -16m/s | -47.8°C | 0.3% | 21.9hPa | 2.6V | 08:28:14 | 01:50:31 | 00:00:00 | |
| DL1XH-west | 2026-09-02 12:19:27 | 48.58627 | 10.02720 | 70° | 29km/h | 26391m | -16.3m/s | -47.8°C | 0.3% | 21.8hPa | 2.6V | 08:28:14 | 01:50:30 | 00:00:00 | |
| PG1ADW-2 | 2026-09-02 12:19:26 | 48.58624 | 10.02709 | 67° | 47km/h | 26408m | -17.3m/s | -47.8°C | 3.5% | 21.7hPa | 2.7V | 00:00:00 | 00:00:00 | 00:00:00 | |
| IW2NTF | 2026-09-02 12:19:25 | 48.58560 | 10.02666 | 347° | 55km/h | 26532m | -18.3m/s | -47.6°C | 3.4% | 21.3hPa | 2.7V | 08:28:22 | 01:50:22 | 00:00:00 | |
| DO3MHA-11 | 2026-09-02 12:19:25 | 48.58619 | 10.02698 | 58° | 49km/h | 26426m | -18.1m/s | -47.8°C | 3.5% | 21.6hPa | 2.6V | 00:00:00 | 01:50:28 | 00:00:00 | |
| DL6DJ-15 | 2026-09-02 12:19:24 | 48.58614 | 10.02687 | 45° | 38km/h | 26443m | -17.9m/s | -47.9°C | 0.9% | 21.7hPa | 2.6V | 00:00:00 | 00:00:00 | 00:00:00 | |
| DO3MHA-12 | 2026-09-02 12:19:23 | 48.58606 | 10.02678 | 33° | 53km/h | 26462m | -18.3m/s | -47.8°C | 3.5% | 21.5hPa | 2.6V | 00:00:00 | 01:50:26 | 00:00:00 | |
| OE3JTB-15 | 2026-09-02 12:19:22 | 48.58597 | 10.02670 | 26° | 35km/h | 26480m | -17.5m/s | -47.8°C | 3.5% | 21.5hPa | 2.6V | 00:00:00 | 00:00:00 | 00:00:00 | |
| DK5PH-5 | 2026-09-02 12:19:20 | 48.58573 | 10.02663 | 360° | 40km/h | 26514m | -17.8m/s | -47.6°C | 3.4% | 21.4hPa | 2.7V | 00:00:00 | 01:50:23 | 00:00:00 | |
| OE5DXL-15 | 2026-09-02 12:19:18 | 48.58547 | 10.02673 | 334° | 42km/h | 26551m | -18.8m/s | -47.5°C | 3.3% | 21.2hPa | 2.7V | 00:00:00 | 00:00:00 | 00:00:00 | |
| DK7TD | 2026-09-02 12:19:18 | 48.58547 | 10.02673 | 333° | 57km/h | 26550m | -18.9m/s | -47.5°C | 0.1% | 21.3hPa | 2.7V | 08:29:05 | 01:50:21 | 00:00:00 | |
| DO3MHA-11 | 2026-09-02 12:19:15 | 48.58517 | 10.02719 | 295° | 46km/h | 26608m | -19.4m/s | -47.3°C | 3.2% | 21.1hPa | 2.6V | 00:00:00 | 01:50:18 | 00:00:00 | |
| IW2NTF | 2026-09-02 12:19:13 | 48.58565 | 10.02789 | 119° | 33km/h | 26766m | -17.5m/s | -48°C | 3.6% | 20.6hPa | 2.7V | 08:28:35 | 01:50:09 | 00:00:00 | |
| DK7TD | 2026-09-02 12:19:07 | 48.58560 | 10.02799 | 137° | 35km/h | 26749m | -17.3m/s | -47.9°C | 0.3% | 20.6hPa | 2.7V | 08:29:05 | 01:50:10 | 00:00:00 | |
| DK7TD | 2026-09-02 12:18:57 | 48.58529 | 10.02756 | 339° | 35km/h | 26915m | -16m/s | -47.7°C | 0.3% | 20.1hPa | 2.6V | 08:29:05 | 01:50:00 | 00:00:00 | |
| DL9SK-14 | 2026-09-02 12:18:57 | 48.58511 | 10.02766 | 337° | 37km/h | 26947m | -16.0m/s | -47.6°C | 0.8% | 20.0hPa | 2.7V | 00:00:00 | 00:00:00 | 00:00:00 | |
| IW2NTF | 2026-09-02 12:18:55 | 48.58502 | 10.02772 | 341° | 42km/h | 26963m | -16.8m/s | -47.5°C | 3.5% | 20hPa | 2.7V | 08:28:47 | 01:49:57 | 00:00:00 | |
| DO3MHA-11 | 2026-09-02 12:18:55 | 48.58511 | 10.02766 | 338° | 40km/h | 26947m | -15.9m/s | -47.5°C | 3.4% | 20.0hPa | 2.6V | 00:00:00 | 01:49:58 | 00:00:00 | |
| DO3MHA-12 | 2026-09-02 12:18:53 | 48.58492 | 10.02776 | 346° | 38km/h | 26980m | -16.7m/s | -47.4°C | 3.4% | 19.9hPa | 2.6V | 00:00:00 | 01:49:56 | 00:00:00 | |
| OE5MMP-10 | 2026-09-02 12:18:51 | 48.58471 | 10.02782 | 355° | 42km/h | 27014m | -16.9m/s | -47.3°C | 3.4% | 19.8hPa | 2.6V | 00:00:00 | 01:49:54 | 00:00:00 | |
| DL1XH1-15 | 2026-09-02 12:18:50 | 48.58414 | 10.02773 | 25° | 31km/h | 27116m | -17.5m/s | -47.5°C | 3.5% | 19.5hPa | 2.6V | 08:28:56 | 01:49:48 | 00:00:00 | |
| DK7TD | 2026-09-02 12:18:47 | 48.58430 | 10.02781 | 11° | 37km/h | 27081m | -17m/s | -47.5°C | 0.3% | 19.6hPa | 2.6V | 08:29:05 | 01:49:50 | 00:00:00 | |
| IW2NTF | 2026-09-02 12:18:46 | 48.58406 | 10.02767 | 31° | 31km/h | 27133m | -17.2m/s | -47.5°C | 3.5% | 19.4hPa | 2.7V | 08:28:57 | 01:49:47 | 00:00:00 | |
| DL1XH-west | 2026-09-02 12:18:45 | 48.58406 | 10.02767 | 32° | 31km/h | 27133m | -17.3m/s | -47.5°C | 0.3% | 19.5hPa | 2.7V | 08:29:05 | 01:49:47 | 00:00:00 | |
| DK7TD | 2026-09-02 12:18:36 | 48.58375 | 10.02674 | 86° | 42km/h | 27268m | -18.5m/s | -47°C | 0.3% | 19hPa | 2.7V | 08:29:05 | 01:49:39 | 00:00:00 | |
| OE5WHR-10 | 2026-09-02 12:18:36 | 48.58375 | 10.02674 | 86° | 22km/h | 27269m | -18.5m/s | -47.0°C | 3.4% | 19.0hPa | 2.7V | 08:29:00 | 00:00:00 | 00:00:00 | |
| IW2NTF | 2026-09-02 12:18:35 | 48.58376 | 10.02644 | 97° | 37km/h | 27306m | -19m/s | -47°C | 3.4% | 19hPa | 2.6V | 08:30:00 | 01:49:37 | 00:00:00 | |
| DL1XH-west | 2026-09-02 12:18:33 | 48.58378 | 10.02630 | 105° | 35km/h | 27324m | -18.4m/s | -47°C | 0.2% | 18.9hPa | 2.6V | 08:29:56 | 01:49:36 | 00:00:00 | |
| DJ2DS-15 | 2026-09-02 12:18:33 | 48.58377 | 10.02630 | 106° | 22km/h | 27324m | -18.3m/s | -46.9°C | 3.4% | 18.9hPa | 2.7V | 00:00:00 | 01:49:36 | 00:00:00 | |
| NBG1-10 | 2026-09-02 12:18:31 | 48.58382 | 10.02610 | 119° | 26km/h | 27360m | -17.5m/s | -46.8°C | 3.4% | 18.8hPa | 2.7V | 08:29:00 | 01:49:34 | 00:00:00 | |
| DL1XH1-15 | 2026-09-02 12:18:30 | 48.58395 | 10.02602 | 217° | 9km/h | 27463m | -17.7m/s | -46.6°C | 3.4% | 18.5hPa | 2.7V | 08:29:16 | 01:49:28 | 00:00:00 | |
| DK7TD | 2026-09-02 12:18:26 | 48.58393 | 10.02601 | 205° | 7km/h | 27445m | -17.7m/s | -46.7°C | 0.3% | 18.6hPa | 2.7V | 08:29:56 | 01:49:29 | 00:00:00 | |
| IW2NTF | 2026-09-02 12:18:26 | 48.58397 | 10.02604 | 209° | 11km/h | 27480m | -17.5m/s | -46.6°C | 3.3% | 18.5hPa | 2.7V | 08:30:00 | 01:49:27 | 00:00:00 | |
| DL1XH-west | 2026-09-02 12:18:23 | 48.58399 | 10.02606 | 204° | 13km/h | 27498m | -17.4m/s | -46.5°C | 0.2% | 18.4hPa | 2.6V | 08:29:56 | 01:49:26 | 00:00:00 | |
| DO3MHA-12 | 2026-09-02 12:18:23 | 48.58399 | 10.02606 | 205° | 26km/h | 27498m | -17.3m/s | -46.5°C | 3.3% | 18.4hPa | 2.6V | 00:00:00 | 01:49:26 | 00:00:00 | |
| DL6DJ-15 | 2026-09-02 12:18:22 | 48.58403 | 10.02608 | 198° | 16km/h | 27515m | -17.1m/s | -46.5°C | 0.8% | 18.4hPa | 2.6V | 00:00:00 | 00:00:00 | 00:00:00 | |
| OE5MMP-10 | 2026-09-02 12:18:21 | 48.58408 | 10.02610 | 190° | 26km/h | 27533m | -17.2m/s | -46.4°C | 3.2% | 18.3hPa | 2.6V | 00:00:00 | 01:49:24 | 00:00:00 | |
| DK5PH-5 | 2026-09-02 12:18:20 | 48.58413 | 10.02611 | 187° | 31km/h | 27550m | -17.5m/s | -46.3°C | 3.2% | 18.2hPa | 2.6V | 00:00:00 | 01:49:23 | 00:00:00 | |
| BAUMI2-15 | 2026-09-02 12:18:19 | 48.58419 | 10.02612 | 184° | 31km/h | 27567m | -17.5m/s | -46.2°C | 3.2% | 18.2hPa | 2.6V | 00:00:00 | 01:49:22 | 00:00:00 | |
| DL1XH1-15 | 2026-09-02 12:18:18 | 48.58451 | 10.02617 | 194° | 31km/h | 27643m | -20.4m/s | -46.2°C | 3.3% | 18hPa | 2.6V | 08:29:26 | 01:49:18 | 00:00:00 | |
| DK7TD | 2026-09-02 12:18:16 | 48.58443 | 10.02615 | 188° | 35km/h | 27623m | -19.6m/s | -46.2°C | 0.2% | 18.1hPa | 2.6V | 08:29:56 | 01:49:19 | 00:00:00 | |
| IW2NTF | 2026-09-02 12:18:15 | 48.58459 | 10.02621 | 200° | 27km/h | 27663m | -20.8m/s | -46.1°C | 3.3% | 18hPa | 2.7V | 08:30:00 | 01:49:17 | 00:00:00 | |
| DL1XH-west | 2026-09-02 12:18:13 | 48.58468 | 10.02631 | 236° | 20km/h | 27703m | -19.2m/s | -46.2°C | 0.2% | 17.8hPa | 2.7V | 08:29:56 | 01:49:15 | 00:00:00 | |
| OE9MKV-15 | 2026-09-02 12:18:12 | 48.58468 | 10.02631 | 236° | 33km/h | 27703m | -19.1m/s | -46.1°C | 3.4% | 17.8hPa | 2.6V | 00:00:00 | 01:49:15 | 00:00:00 | |
| OE5MMP-10 | 2026-09-02 12:18:11 | 48.58470 | 10.02638 | 260° | 31km/h | 27722m | -18.4m/s | -46.1°C | 3.4% | 17.8hPa | 2.6V | 08:29:00 | 01:49:14 | 00:00:00 | |
| DL1XH1-15 | 2026-09-02 12:18:10 | 48.58454 | 10.02689 | 301° | 37km/h | 27833m | -19m/s | -46.1°C | 3.3% | 17.5hPa | 2.6V | 08:29:36 | 01:49:08 | 00:00:00 | |
| DK7TD | 2026-09-02 12:18:05 | 48.58454 | 10.02689 | 301° | 37km/h | 27833m | -19m/s | -46.1°C | 0.2% | 17.5hPa | 2.6V | 08:29:56 | 01:49:08 | 00:00:00 | |
| IW2NTF | 2026-09-02 12:18:04 | 48.58449 | 10.02702 | 294° | 40km/h | 27852m | -19.2m/s | -46°C | 3.3% | 17.4hPa | 2.6V | 08:30:00 | 01:49:07 | 00:00:00 | |
| DL1XH-west | 2026-09-02 12:18:01 | 48.58438 | 10.02747 | 285° | 42km/h | 27913m | -19.7m/s | -45.7°C | 0.1% | 17.3hPa | 2.7V | 08:29:56 | 01:49:04 | 00:00:00 | |
| DM7RM-13 | 2026-09-02 12:18:00 | 48.58438 | 10.02747 | 286° | 42km/h | 27913m | -19.7m/s | -45.7°C | 0.8% | 17.3hPa | 2.7V | 08:29:00 | 00:00:00 | 00:00:00 | |
| IW2NTF | 2026-09-02 12:17:59 | 48.58455 | 10.02817 | 190° | 27km/h | 28053m | -20.9m/s | -45.4°C | 3.2% | 16.9hPa | 2.7V | 08:30:00 | 01:48:57 | 00:00:00 | |
| BAUMI2-15 | 2026-09-02 12:17:59 | 48.58435 | 10.02777 | 271° | 31km/h | 27954m | -20.4m/s | -45.6°C | 3.2% | 17.2hPa | 2.7V | 00:00:00 | 01:49:02 | 00:00:00 | |
| DL1XH1-15 | 2026-09-02 12:17:58 | 48.58448 | 10.02814 | 200° | 26km/h | 28032m | -20.3m/s | -45.5°C | 3.2% | 17hPa | 2.7V | 08:29:46 | 01:48:58 | 00:00:00 | |
| DK7TD | 2026-09-02 12:17:55 | 48.58449 | 10.02814 | 201° | 26km/h | 28032m | -20.3m/s | -45.5°C | 0.1% | 17hPa | 2.7V | 08:29:56 | 01:48:58 | 00:00:00 | |
| DL1XH-west | 2026-09-02 12:17:50 | 48.58489 | 10.02810 | 163° | 37km/h | 28133m | -18.9m/s | -45.3°C | 0.1% | 16.7hPa | 2.7V | 08:29:56 | 01:48:53 | 00:00:00 | |
| DK5PH-5 | 2026-09-02 12:17:50 | 48.58489 | 10.02810 | 164° | 35km/h | 28134m | -18.8m/s | -45.2°C | 3.2% | 16.7hPa | 2.7V | 00:00:00 | 01:48:53 | 00:00:00 | |
| AZAK | 2026-09-02 12:17:49 | 48.58497 | 10.02805 | 158° | 35km/h | 28153m | -18.7m/s | -45.2°C | 0.8% | 16.7hPa | 2.7V | 08:29:00 | 00:00:00 | 00:00:00 | |
| IW2NTF | 2026-09-02 12:17:48 | 48.58532 | 10.02763 | 127° | 37km/h | 28248m | -19.4m/s | -44.9°C | 3% | 16.4hPa | 2.7V | 08:30:00 | 01:48:47 | 00:00:00 | |
| DK7TD | 2026-09-02 12:17:44 | 48.58532 | 10.02763 | 127° | 37km/h | 28248m | -19.4m/s | -44.9°C | 0% | 16.4hPa | 2.7V | 18:12:15 | 01:48:47 | 00:00:00 | |
| DL1XH-west | 2026-09-02 12:17:40 | 48.58552 | 10.02714 | 114° | 37km/h | 28324m | -19m/s | -44.8°C | 0% | 16.2hPa | 2.6V | 18:12:15 | 01:48:43 | 00:00:00 | |
| DB0UT-7 | 2026-09-02 12:17:40 | 48.58551 | 10.02714 | 114° | 27km/h | 28325m | -18.9m/s | -44.8°C | 3.0% | 16.2hPa | 2.6V | 00:00:00 | 00:00:00 | 00:00:00 | |
| DM7RM-13 | 2026-09-02 12:17:39 | 48.58552 | 10.02713 | 115° | 37km/h | 28325m | -19.0m/s | -44.8°C | 0.8% | 16.2hPa | 2.7V | 00:00:00 | 00:00:00 | 00:00:00 | |
| BAUMI2-15 | 2026-09-02 12:17:38 | 48.58558 | 10.02688 | 109° | 29km/h | 28363m | -19.5m/s | -44.7°C | 3.0% | 16.1hPa | 2.7V | 00:00:00 | 01:48:41 | 08:30:00 | |
| IW2NTF | 2026-09-02 12:17:37 | 48.58564 | 10.02645 | 88° | 24km/h | 28441m | -19.2m/s | -44.8°C | 3.1% | 16hPa | 2.7V | 08:30:00 | 01:48:37 | 00:00:00 | |
| DK7TD | 2026-09-02 12:17:34 | 48.58564 | 10.02645 | 89° | 26km/h | 28441m | -19.3m/s | -44.8°C | 0% | 16hPa | 2.7V | 18:12:15 | 01:48:37 | 00:00:00 | |
| DL1XH-west | 2026-09-02 12:17:30 | 48.58548 | 10.02602 | 43° | 33km/h | 28538m | -19.8m/s | -44.7°C | 0.1% | 15.8hPa | 2.7V | 18:12:15 | 01:48:32 | 00:00:00 | |
| BAUMI2-15 | 2026-09-02 12:17:28 | 48.58542 | 10.02593 | 38° | 40km/h | 28559m | -20.0m/s | -44.7°C | 3.1% | 15.7hPa | 2.6V | 00:00:00 | 01:48:31 | 00:00:00 | |
| IW2NTF | 2026-09-02 12:17:26 | 48.58506 | 10.02569 | 10° | 42km/h | 28641m | -20.7m/s | -44.7°C | 3.1% | 15.5hPa | 2.6V | 08:30:00 | 01:48:27 | 00:00:00 | |
| DK7TD | 2026-09-02 12:17:24 | 48.58506 | 10.02569 | 11° | 42km/h | 28641m | -20.7m/s | -44.7°C | 0% | 15.5hPa | 2.6V | 18:12:15 | 01:48:27 | 00:00:00 | |
| DL1XH-west | 2026-09-02 12:17:19 | 48.58464 | 10.02585 | 313° | 31km/h | 28750m | -26.2m/s | -44.3°C | 0% | 15.3hPa | 2.7V | 18:12:15 | 01:48:22 | 00:00:00 | |
| DM7RM-13 | 2026-09-02 12:17:19 | 48.58470 | 10.02577 | 327° | 33km/h | 28725m | -22.6m/s | -44.5°C | 0.7% | 15.3hPa | 2.7V | 00:00:00 | 00:00:00 | 00:00:00 | |
| DL1XH1-15 | 2026-09-02 12:17:18 | 48.58450 | 10.02595 | 13° | 11km/h | 28901m | -35.2m/s | -44.2°C | 2.9% | 15hPa | 2.7V | 08:30:00 | 01:48:18 | 00:00:00 | |
| DK7TD | 2026-09-02 12:17:13 | 48.58445 | 10.02594 | 13° | 11km/h | 28956m | -19.4m/s | -44.1°C | 0% | 14.8hPa | 2.7V | 18:12:15 | 01:48:16 | 00:00:00 | |
| DJ2DS-15 | 2026-09-02 12:17:13 | 48.58442 | 10.02593 | 13° | 11km/h | 28972m | -10.7m/s | -44.1°C | 0.7% | 14.7hPa | 2.6V | 00:00:00 | 00:00:00 | 00:00:00 | |
| OE5WHR-10 | 2026-09-02 12:17:12 | 48.58442 | 10.02592 | 14° | 13km/h | 28972m | -10.6m/s | -44.0°C | 2.9% | 14.7hPa | 2.6V | 00:00:00 | 00:00:00 | 00:00:00 | |
| OE5MMP-10 | 2026-09-02 12:17:11 | 48.58439 | 10.02592 | 12° | 13km/h | 28978m | -1.0m/s | -44.0°C | 2.9% | 14.7hPa | 2.6V | 00:00:00 | 01:48:14 | 00:00:00 | |
| DL1XH1-15 | 2026-09-02 12:17:10 | 48.58424 | 10.02590 | 47° | 7km/h | 28941m | 5.5m/s | -44.1°C | 2.9% | 14.8hPa | 2.6V | 08:30:00 | 01:48:08 | 00:00:00 | |
| DL1XH-west | 2026-09-02 12:17:09 | 48.58433 | 10.02591 | 358° | 15km/h | 28965m | 6.5m/s | -44.2°C | 0% | 14.7hPa | 2.7V | 18:12:15 | 01:48:12 | 00:00:00 | |
| DK7TD | 2026-09-02 12:17:02 | 48.58418 | 10.02579 | 45° | 18km/h | 28923m | 6m/s | -44.2°C | 0% | 14.8hPa | 2.7V | 18:12:15 | 01:48:05 | 00:00:00 | |
| DL1XH-west | 2026-09-02 12:16:59 | 48.58406 | 10.02559 | 63° | 13km/h | 28900m | 6.5m/s | -44.3°C | 0% | 14.9hPa | 2.6V | 18:12:15 | 01:48:01 | 00:00:00 | |
| PETON7-10 | 2026-09-02 12:16:59 | 48.58408 | 10.02564 | 53° | 13km/h | 28907m | 6.2m/s | 0°C | 0% | 0hPa | 2.7V | 00:00:00 | 00:00:00 | 00:00:00 | |
| DL1XH1-15 | 2026-09-02 12:16:58 | 48.58402 | 10.02554 | 340° | 7km/h | 28883m | 7m/s | -44.4°C | 2.9% | 14.9hPa | 2.7V | 08:30:00 | 01:47:58 | 00:00:00 | |
| DK7TD | 2026-09-02 12:16:52 | 48.58389 | 10.02564 | 341° | 15km/h | 28860m | 5.9m/s | -44.2°C | 0% | 14.9hPa | 2.7V | 18:12:15 | 01:47:54 | 00:00:00 | |
| DL1XH-west | 2026-09-02 12:16:49 | 48.58381 | 10.02562 | 49° | 11km/h | 28843m | 4.8m/s | -44.2°C | 0% | 15hPa | 2.6V | 18:12:15 | 01:47:51 | 00:00:00 | |
| SONCRA | 2026-09-02 12:16:45 | 48.58372 | 10.02551 | 23° | 18km/h | 28825m | 5.8m/s | -44.4°C | 0.7% | 15.0hPa | 2.6V | 00:00:00 | 00:00:00 | 00:00:00 | |
| DK7TD | 2026-09-02 12:16:41 | 48.58356 | 10.02550 | 327° | 9km/h | 28797m | 5.3m/s | -44.6°C | 0% | 15.1hPa | 2.6V | 18:12:15 | 01:47:43 | 00:00:00 | |
| DL1XH-west | 2026-09-02 12:16:39 | 48.58352 | 10.02554 | 328° | 13km/h | 28785m | 6.5m/s | -44.4°C | 0% | 15.1hPa | 2.7V | 18:12:15 | 01:47:41 | 00:00:00 | |
| IW2NTF | 2026-09-02 12:16:36 | 48.58338 | 10.02563 | 350° | 7km/h | 28756m | 5.4m/s | -44.6°C | 3% | 15.2hPa | 2.6V | 08:30:00 | 01:47:36 | 00:00:00 | |
| DK7TD | 2026-09-02 12:16:29 | 48.58324 | 10.02566 | 344° | 22km/h | 28733m | 5.4m/s | -44.8°C | 0% | 15.2hPa | 2.6V | 18:12:15 | 01:47:32 | 00:00:00 | |
| DL1XH-west | 2026-09-02 12:16:28 | 48.58315 | 10.02573 | 322° | 20km/h | 28721m | 6.8m/s | -44.8°C | 0% | 15.3hPa | 2.6V | 18:12:15 | 01:47:30 | 00:00:00 | |
| IW2NTF | 2026-09-02 12:16:26 | 48.58304 | 10.02601 | 294° | 24km/h | 28696m | 5.4m/s | -45°C | 3% | 15.3hPa | 2.6V | 08:30:00 | 01:47:26 | 00:00:00 | |
| DK7TD | 2026-09-02 12:16:20 | 48.58300 | 10.02627 | 269° | 11km/h | 28674m | 5.4m/s | -44.8°C | 0% | 15.4hPa | 2.7V | 18:12:15 | 01:47:22 | 00:00:00 | |
| DK5PH-5 | 2026-09-02 12:16:20 | 48.58300 | 10.02623 | 275° | 15km/h | 28680m | 6.7m/s | -44.8°C | 3.1% | 15.3hPa | 2.7V | 00:00:00 | 01:47:23 | 00:00:00 | |
| IW2NTF | 2026-09-02 12:16:19 | 48.58284 | 10.02649 | 313° | 18km/h | 28643m | 5.7m/s | -44.9°C | 3% | 15.4hPa | 2.7V | 08:30:00 | 01:47:16 | 00:00:00 | |
| DL1XH1-15 | 2026-09-02 12:16:19 | 48.58292 | 10.02640 | 332° | 20km/h | 28652m | 4.4m/s | -44.8°C | 3% | 15.4hPa | 2.6V | 08:30:00 | 01:47:18 | 00:00:00 | |
| DL1XH-west | 2026-09-02 12:16:18 | 48.58296 | 10.02637 | 329° | 15km/h | 28657m | 6.5m/s | -44.8°C | 0% | 15.4hPa | 2.6V | 18:12:15 | 01:47:19 | 00:00:00 | |
| OE5DXL-15 | 2026-09-02 12:16:16 | 48.58296 | 10.02637 | 329° | 15km/h | 28658m | 6.4m/s | -44.7°C | 3.0% | 15.4hPa | 2.6V | 00:00:00 | 00:00:00 | 00:00:00 | |
| DO3MHA-11 | 2026-09-02 12:16:15 | 48.58292 | 10.02640 | 333° | 20km/h | 28652m | 4.4m/s | -44.8°C | 3.0% | 15.4hPa | 2.6V | 00:00:00 | 01:47:18 | 00:00:00 | |
| SONCRA | 2026-09-02 12:16:14 | 48.58284 | 10.02649 | 313° | 18km/h | 28643m | 5.7m/s | -44.9°C | 0.7% | 15.5hPa | 2.7V | 00:00:00 | 00:00:00 | 00:00:00 | |
| DO3MHA-12 | 2026-09-02 12:16:13 | 48.58284 | 10.02649 | 314° | 20km/h | 28644m | 5.6m/s | -44.8°C | 3.0% | 15.4hPa | 2.7V | 00:00:00 | 01:47:16 | 08:30:00 | |
| OE9MKV-15 | 2026-09-02 12:16:12 | 48.58282 | 10.02654 | 294° | 13km/h | 28637m | 6.4m/s | -44.7°C | 3.0% | 15.4hPa | 2.6V | 00:00:00 | 01:47:15 | 00:00:00 | |
| OE5MMP-10 | 2026-09-02 12:16:11 | 48.58281 | 10.02660 | 271° | 16km/h | 28631m | 6.1m/s | -44.7°C | 2.9% | 15.4hPa | 2.7V | 00:00:00 | 01:47:14 | 00:00:00 | |
| DL1XH1-15 | 2026-09-02 12:16:10 | 48.58289 | 10.02708 | 255° | 20km/h | 28598m | 4.6m/s | -44.8°C | 3% | 15.6hPa | 2.7V | 08:30:00 | 01:47:08 | 00:00:00 | |
| DK7TD | 2026-09-02 12:16:09 | 48.58283 | 10.02675 | 249° | 22km/h | 28619m | 5.6m/s | -44.9°C | 0% | 15.5hPa | 2.7V | 18:12:15 | 01:47:12 | 00:00:00 | |
| OE5WHR-10 | 2026-09-02 12:16:09 | 48.58283 | 10.02675 | 250° | 15km/h | 28619m | 5.5m/s | -44.9°C | 3.0% | 15.5hPa | 2.6V | 00:00:00 | 00:00:00 | 00:00:00 | |
| IW2NTF | 2026-09-02 12:16:08 | 48.58292 | 10.02719 | 237° | 11km/h | 28586m | 5.7m/s | -44.9°C | 3.1% | 15.6hPa | 2.6V | 08:30:00 | 01:47:06 | 00:00:00 | |
| DL1XH-west | 2026-09-02 12:16:07 | 48.58288 | 10.02700 | 258° | 22km/h | 28602m | 4.3m/s | -44.8°C | 0% | 15.6hPa | 2.7V | 18:12:15 | 01:47:09 | 00:00:00 | |
| PG1ADW-2 | 2026-09-02 12:16:06 | 48.58288 | 10.02700 | 259° | 11km/h | 28602m | 4.3m/s | -44.8°C | 3.0% | 15.5hPa | 2.7V | 00:00:00 | 00:00:00 | 08:30:00 | |
| AZAK | 2026-09-02 12:16:05 | 48.58289 | 10.02708 | 257° | 20km/h | 28598m | 4.6m/s | -44.8°C | 0.7% | 15.6hPa | 2.7V | 00:00:00 | 00:00:00 | 00:00:00 | |
| DF7PN | 2026-09-02 12:16:04 | 48.58291 | 10.02715 | 248° | 15km/h | 28592m | 6.4m/s | -44.8°C | 0.7% | 15.6hPa | 2.7V | 00:00:00 | 00:00:00 | 00:00:00 | |
| DO3MHA-12 | 2026-09-02 12:16:03 | 48.58292 | 10.02719 | 238° | 9km/h | 28586m | 5.7m/s | -44.8°C | 3.1% | 15.5hPa | 2.7V | 00:00:00 | 01:47:06 | 00:00:00 | |
| DB0ND-19 | 2026-09-02 12:16:02 | 48.58293 | 10.02723 | 296° | 2km/h | 28576m | 5.5m/s | -45.1°C | 0.8% | 15.6hPa | 2.7V | 00:00:00 | 00:00:00 | 00:00:00 | |
| DJ2DS-15 | 2026-09-02 12:16:01 | 48.58292 | 10.02724 | 335° | 5km/h | 28570m | 6.8m/s | -45.1°C | 0.7% | 15.6hPa | 2.7V | 00:00:00 | 00:00:00 | 00:00:00 | |
| OE5MMP-10 | 2026-09-02 12:16:00 | 48.58292 | 10.02724 | 336° | 11km/h | 28570m | 6.8m/s | -45.0°C | 3.1% | 15.6hPa | 2.7V | 00:00:00 | 01:47:03 | 00:00:00 | |
| DL1XH1-15 | 2026-09-02 12:15:58 | 48.58285 | 10.02735 | 240° | 9km/h | 28541m | 6.5m/s | -45.1°C | 3.1% | 15.7hPa | 2.7V | 08:30:00 | 01:46:58 | 00:00:00 | |
| DK7TD | 2026-09-02 12:15:58 | 48.58288 | 10.02727 | 332° | 13km/h | 28558m | 4.6m/s | -45.2°C | 0% | 15.7hPa | 2.6V | 18:12:15 | 01:47:01 | 00:00:00 | |
| IW2NTF | 2026-09-02 12:15:57 | 48.58289 | 10.02743 | 226° | 16km/h | 28529m | 6.7m/s | -45°C | 3.1% | 15.7hPa | 2.7V | 08:30:00 | 01:46:56 | 00:00:00 | |
| DL1XH-west | 2026-09-02 12:15:56 | 48.58284 | 10.02732 | 284° | 7km/h | 28547m | 6.7m/s | -45.2°C | 0.1% | 15.7hPa | 2.6V | 18:12:15 | 01:46:59 | 00:00:00 | |
| DO9HM | 2026-09-02 12:15:56 | 48.58284 | 10.02732 | 285° | 7km/h | 28548m | 6.7m/s | -45.2°C | 0.8% | 15.7hPa | 2.6V | 00:00:00 | 00:00:00 | 00:00:00 | |
| DO3MHA-11 | 2026-09-02 12:15:55 | 48.58284 | 10.02735 | 241° | 13km/h | 28541m | 6.5m/s | -45.1°C | 3.1% | 15.7hPa | 2.6V | 00:00:00 | 01:46:58 | 00:00:00 | |
| DJ2DS-15 | 2026-09-02 12:15:53 | 48.58289 | 10.02743 | 227° | 11km/h | 28529m | 6.7m/s | 0°C | 0% | 0hPa | 2.6V | 00:00:00 | 01:46:56 | 00:00:00 | |
| OE5DRO-10 | 2026-09-02 12:15:51 | 48.58295 | 10.02751 | 219° | 11km/h | 28518m | 4.3m/s | -44.9°C | 3.1% | 15.7hPa | 2.6V | 00:00:00 | 00:00:00 | 00:00:00 | |
| DL1XH1-15 | 2026-09-02 12:15:50 | 48.58302 | 10.02745 | 31° | 11km/h | 28483m | 6.1m/s | -45°C | 3% | 15.8hPa | 2.6V | 08:30:00 | 01:46:48 | 00:00:00 | |
| DK7TD | 2026-09-02 12:15:48 | 48.58303 | 10.02754 | 141° | 9km/h | 28501m | 5.2m/s | -45°C | 0% | 15.8hPa | 2.7V | 18:12:15 | 01:46:51 | 00:00:00 | |
| DL6DJ-15 | 2026-09-02 12:15:47 | 48.58304 | 10.02748 | 67° | 9km/h | 28489m | 6.8m/s | -45.0°C | 0.7% | 15.8hPa | 2.7V | 00:00:00 | 00:00:00 | 00:00:00 | |
| IW2NTF | 2026-09-02 12:15:46 | 48.58297 | 10.02743 | 350° | 7km/h | 28474m | 4.1m/s | -44.8°C | 3% | 15.9hPa | 2.7V | 08:30:00 | 01:46:46 | 00:00:00 | |
| DL1XH-west | 2026-09-02 12:15:46 | 48.58302 | 10.02745 | 32° | 11km/h | 28483m | 6.1m/s | -45°C | 0% | 15.8hPa | 2.6V | 18:12:15 | 01:46:48 | 00:00:00 | |
| DK7TD | 2026-09-02 12:15:38 | 48.58307 | 10.02750 | 196° | 18km/h | 28446m | 4.7m/s | -44.9°C | 0.1% | 15.9hPa | 2.6V | 18:12:15 | 01:46:41 | 00:00:00 | |
| DL1XH1-15 | 2026-09-02 12:15:38 | 48.58314 | 10.02754 | 16° | 0km/h | 28431m | 5.1m/s | -45°C | 3.1% | 16hPa | 2.6V | 08:30:00 | 01:46:38 | 00:00:00 | |
| DL1XH-west | 2026-09-02 12:15:36 | 48.58313 | 10.02753 | 41° | 7km/h | 28425m | 5.6m/s | -45°C | 0% | 16hPa | 2.6V | 18:12:15 | 01:46:37 | 00:00:00 | |
| DO3MHA-11 | 2026-09-02 12:15:35 | 48.58314 | 10.02754 | 17° | 7km/h | 28431m | 5.1m/s | -45.0°C | 3.1% | 15.9hPa | 2.7V | 00:00:00 | 01:46:38 | 00:00:00 | |
| DO9HM | 2026-09-02 12:15:34 | 48.58314 | 10.02754 | 0° | 0km/h | 28431m | 5.1m/s | -45.1°C | 0.8% | 16.0hPa | 2.7V | 00:00:00 | 00:00:00 | 00:00:00 | |
| DO3MHA-12 | 2026-09-02 12:15:33 | 48.58312 | 10.02751 | 49° | 9km/h | 28420m | 6.2m/s | -45.0°C | 3.0% | 15.9hPa | 2.7V | 00:00:00 | 01:46:36 | 00:00:00 | |
| OE5DRO-10 | 2026-09-02 12:15:32 | 48.58310 | 10.02748 | 54° | 9km/h | 28413m | 5.4m/s | -45.0°C | 3.0% | 16.0hPa | 2.7V | 00:00:00 | 00:00:00 | 00:00:00 | |
| SONDE2-11 | 2026-09-02 12:15:31 | 48.58307 | 10.02744 | 18° | 4km/h | 28402m | 6.6m/s | -45.2°C | 0.7% | 16.0hPa | 2.7V | 00:00:00 | 00:00:00 | 00:00:00 | |
| DL1XH1-15 | 2026-09-02 12:15:30 | 48.58315 | 10.02755 | 182° | 11km/h | 28369m | 4.4m/s | -45°C | 3.1% | 16.1hPa | 2.7V | 08:30:00 | 01:46:27 | 00:00:00 | |
| KANTATE | 2026-09-02 12:15:30 | 48.58307 | 10.02744 | 19° | 5km/h | 28403m | 6.6m/s | -45.2°C | 0.7% | 16.0hPa | 2.7V | 00:00:00 | 00:00:00 | 00:00:00 | |
| DJ8HS-15 | 2026-09-02 12:15:28 | 48.58306 | 10.02747 | 259° | 9km/h | 28391m | 4.4m/s | -44.9°C | 3.0% | 16.0hPa | 2.7V | 00:00:00 | 01:46:31 | 00:00:00 | |
| DK7TD | 2026-09-02 12:15:28 | 48.58306 | 10.02747 | 258° | 9km/h | 28391m | 4.5m/s | -45°C | 0% | 16hPa | 2.7V | 18:12:15 | 01:46:31 | 00:00:00 | |
| PG1ADW-2 | 2026-09-02 12:15:27 | 48.58309 | 10.02753 | 213° | 9km/h | 28380m | 6.6m/s | -45.0°C | 3.0% | 16.0hPa | 2.7V | 00:00:00 | 00:00:00 | 00:00:00 | |
| IW2NTF | 2026-09-02 12:15:26 | 48.58318 | 10.02755 | 179° | 9km/h | 28364m | 5m/s | -45.1°C | 3.1% | 16.1hPa | 2.7V | 08:30:00 | 01:46:26 | 00:00:00 | |
| DL1XH-west | 2026-09-02 12:15:26 | 48.58312 | 10.02755 | 193° | 13km/h | 28374m | 5.2m/s | -45°C | 0% | 16.1hPa | 2.6V | 18:12:15 | 01:46:28 | 00:00:00 | |
| DJ2DS-15 | 2026-09-02 12:15:24 | 48.58315 | 10.02755 | 182° | 11km/h | 28369m | 4.4m/s | -45.0°C | 0.8% | 16.1hPa | 2.6V | 00:00:00 | 00:00:00 | 00:00:00 | |
| DO3MHA-12 | 2026-09-02 12:15:23 | 48.58318 | 10.02755 | 180° | 7km/h | 28365m | 4.9m/s | -45.0°C | 3.1% | 16.1hPa | 2.6V | 00:00:00 | 01:46:26 | 00:00:00 | |
| DN1GJH-1 | 2026-09-02 12:15:21 | 48.58319 | 10.02755 | 189° | 4km/h | 28359m | 6.0m/s | -45.1°C | 0.8% | 16.1hPa | 2.6V | 00:00:00 | 00:00:00 | 00:00:00 | |
| OE5MMP-10 | 2026-09-02 12:15:20 | 48.58319 | 10.02756 | 350° | 7km/h | 28348m | 4.8m/s | -45.1°C | 3.1% | 16.1hPa | 2.6V | 00:00:00 | 01:46:23 | 00:00:00 | |
| DL1XH1-15 | 2026-09-02 12:15:19 | 48.58311 | 10.02741 | 43° | 9km/h | 28314m | 6.5m/s | -45.2°C | 3% | 16.2hPa | 2.6V | 08:30:00 | 01:46:17 | 00:00:00 | |
| IW2NTF | 2026-09-02 12:15:19 | 48.58310 | 10.02739 | 11° | 5km/h | 28308m | 5.4m/s | -45.3°C | 3% | 16.3hPa | 2.6V | 08:30:00 | 01:46:16 | 00:00:00 | |
| DK7TD | 2026-09-02 12:15:18 | 48.58315 | 10.02752 | 65° | 11km/h | 28331m | 5.5m/s | -45°C | 0% | 16.2hPa | 2.7V | 18:12:15 | 01:46:20 | 00:00:00 | |
| DL1XH-west | 2026-09-02 12:15:15 | 48.58311 | 10.02741 | 44° | 9km/h | 28314m | 6.5m/s | -45.2°C | 0% | 16.2hPa | 2.6V | 18:12:15 | 01:46:17 | 00:00:00 | |
| DO3MHA-11 | 2026-09-02 12:15:15 | 48.58312 | 10.02743 | 61° | 7km/h | 28320m | 5.8m/s | -45.1°C | 3.0% | 16.2hPa | 2.6V | 00:00:00 | 01:46:18 | 00:00:00 | |
| NBG1-10 | 2026-09-02 12:15:13 | 48.58309 | 10.02739 | 12° | 7km/h | 28308m | 5.3m/s | -45.3°C | 3.0% | 16.2hPa | 2.6V | 00:00:00 | 01:46:16 | 00:00:00 | |
| SONCRA | 2026-09-02 12:15:12 | 48.58309 | 10.02741 | 227° | 4km/h | 28298m | 6.0m/s | -45.4°C | 0.7% | 16.3hPa | 2.6V | 00:00:00 | 00:00:00 | 00:00:00 | |
| DB0UT-7 | 2026-09-02 12:15:10 | 48.58310 | 10.02742 | 203° | 7km/h | 28291m | 6.9m/s | -45.3°C | 3.1% | 16.3hPa | 2.6V | 00:00:00 | 01:46:13 | 00:00:00 | |
| DL1XH1-15 | 2026-09-02 12:15:08 | 48.58319 | 10.02747 | 51° | 4km/h | 28257m | 5.7m/s | -45.5°C | 3.1% | 16.4hPa | 2.6V | 08:30:00 | 01:46:07 | 00:00:00 | |
| DK7TD | 2026-09-02 12:15:06 | 48.58320 | 10.02747 | 226° | 4km/h | 28268m | 5.6m/s | -45.4°C | 0% | 16.4hPa | 2.7V | 18:12:15 | 01:46:09 | 00:00:00 | |
| OE5WHR-10 | 2026-09-02 12:15:06 | 48.58319 | 10.02747 | 227° | 7km/h | 28268m | 5.5m/s | -45.3°C | 3.1% | 16.3hPa | 2.6V | 00:00:00 | 00:00:00 | 00:00:00 | |
| IW2NTF | 2026-09-02 12:15:05 | 48.58319 | 10.02746 | 68° | 7km/h | 28251m | 6.3m/s | -45.6°C | 3% | 16.4hPa | 2.6V | 08:30:00 | 01:46:06 | 00:00:00 | |
| DL1XH-west | 2026-09-02 12:15:04 | 48.58319 | 10.02747 | 51° | 4km/h | 28257m | 5.7m/s | -45.5°C | 0% | 16.4hPa | 2.6V | 18:12:15 | 01:46:07 | 00:00:00 | |
| AZAK | 2026-09-02 12:15:04 | 48.58319 | 10.02747 | 52° | 4km/h | 28258m | 5.7m/s | -45.5°C | 0.7% | 16.4hPa | 2.7V | 00:00:00 | 00:00:00 | 00:00:00 | |
| DL8DAS-14 | 2026-09-02 12:15:03 | 48.58318 | 10.02743 | 74° | 7km/h | 28246m | 4.9m/s | -45.6°C | 0.7% | 16.4hPa | 2.7V | 00:00:00 | 00:00:00 | 00:00:00 | |
| DF7PN | 2026-09-02 12:15:02 | 48.58318 | 10.02743 | 74° | 7km/h | 28246m | 4.9m/s | -45.6°C | 0.7% | 16.4hPa | 2.7V | 00:00:00 | 00:00:00 | 00:00:00 | |
| EDDB2-11 | 2026-09-02 12:15:00 | 48.58315 | 10.02737 | 11° | 7km/h | 28231m | 6.3m/s | -45.7°C | 0.8% | 16.4hPa | 2.7V | 00:00:00 | 00:00:00 | 00:00:00 | |
| DB0ND-19 | 2026-09-02 12:14:59 | 48.58313 | 10.02737 | 352° | 7km/h | 28225m | 5.4m/s | -45.5°C | 0.7% | 16.5hPa | 2.7V | 00:00:00 | 00:00:00 | 00:00:00 | |
| IW2NTF | 2026-09-02 12:14:56 | 48.58314 | 10.02739 | 192° | 9km/h | 28197m | 5.5m/s | -45.5°C | 3.2% | 16.6hPa | 2.7V | 08:30:00 | 01:45:56 | 00:00:00 | |
| DK7TD | 2026-09-02 12:14:55 | 48.58310 | 10.02738 | 181° | 4km/h | 28208m | 5.8m/s | -45.5°C | 0.1% | 16.5hPa | 2.6V | 18:12:15 | 01:45:58 | 00:00:00 | |
| DL1XH-west | 2026-09-02 12:14:53 | 48.58316 | 10.02740 | 210° | 9km/h | 28191m | 6.8m/s | -45.5°C | 0.1% | 16.5hPa | 2.7V | 18:12:15 | 01:45:55 | 00:00:00 | |
| DO3MHA-12 | 2026-09-02 12:14:53 | 48.58314 | 10.02739 | 193° | 7km/h | 28198m | 5.5m/s | -45.5°C | 3.2% | 16.5hPa | 2.6V | 00:00:00 | 01:45:56 | 00:00:00 | |
| DJ2DS-15 | 2026-09-02 12:14:52 | 48.58316 | 10.02740 | 210° | 9km/h | 28191m | 6.7m/s | 0°C | 0% | 0hPa | 2.6V | 00:00:00 | 01:45:55 | 00:00:00 | |
| DF1GD-15 | 2026-09-02 12:14:51 | 48.58316 | 10.02740 | 211° | 9km/h | 28191m | 6.8m/s | -45.5°C | 0.8% | 16.5hPa | 2.6V | 00:00:00 | 00:00:00 | 00:00:00 | |
| DK5PH-5 | 2026-09-02 12:14:50 | 48.58320 | 10.02745 | 234° | 5km/h | 28180m | 4.4m/s | -45.5°C | 3.2% | 16.5hPa | 2.6V | 00:00:00 | 01:45:53 | 00:00:00 | |
| DL1XH1-15 | 2026-09-02 12:14:49 | 48.58323 | 10.02750 | 199° | 7km/h | 28169m | 6.8m/s | -45.7°C | 3.2% | 16.6hPa | 2.6V | 08:30:00 | 01:45:51 | 00:00:00 | |
| DL9SK-14 | 2026-09-02 12:14:47 | 48.58326 | 10.02748 | 131° | 5km/h | 28157m | 5.6m/s | -45.9°C | 0.8% | 16.6hPa | 2.6V | 00:00:00 | 00:00:00 | 00:00:00 | |
| IW2NTF | 2026-09-02 12:14:46 | 48.58326 | 10.02745 | 333° | 4km/h | 28139m | 5.2m/s | -45.9°C | 3.1% | 16.7hPa | 2.6V | 08:30:00 | 01:45:46 | 00:00:00 | |
| DK7TD | 2026-09-02 12:14:45 | 48.58326 | 10.02746 | 110° | 5km/h | 28151m | 5.8m/s | -46°C | 0.1% | 16.7hPa | 2.7V | 18:12:15 | 01:45:48 | 00:00:00 | |
| DL6DJ-15 | 2026-09-02 12:14:44 | 48.58326 | 10.02745 | 60° | 2km/h | 28145m | 6.7m/s | -46.0°C | 0.8% | 16.6hPa | 2.6V | 00:00:00 | 00:00:00 | 00:00:00 | |
| DL1XH-west | 2026-09-02 12:14:43 | 48.58326 | 10.02745 | 333° | 4km/h | 28139m | 5.2m/s | -45.9°C | 0% | 16.7hPa | 2.6V | 18:12:15 | 01:45:46 | 00:00:00 | |
| DO3MHA-12 | 2026-09-02 12:14:43 | 48.58326 | 10.02745 | 334° | 9km/h | 28139m | 5.1m/s | -45.8°C | 3.1% | 16.6hPa | 2.6V | 00:00:00 | 01:45:46 | 08:30:00 | |
| OE9MKV-15 | 2026-09-02 12:14:42 | 48.58325 | 10.02746 | 307° | 7km/h | 28134m | 4.7m/s | -45.8°C | 3.1% | 16.6hPa | 2.6V | 00:00:00 | 01:45:45 | 00:00:00 | |
| SONCRA | 2026-09-02 12:14:41 | 48.58326 | 10.02748 | 203° | 4km/h | 28122m | 6.2m/s | -45.8°C | 0.8% | 16.7hPa | 2.6V | 00:00:00 | 00:00:00 | 00:00:00 | |
| OE5MMP-10 | 2026-09-02 12:14:40 | 48.58326 | 10.02747 | 204° | 2km/h | 28122m | 6.2m/s | -45.7°C | 3.1% | 16.7hPa | 2.6V | 00:00:00 | 01:45:43 | 00:00:00 | |
| DO9HM | 2026-09-02 12:14:39 | 48.58326 | 10.02747 | 204° | 5km/h | 28122m | 6.2m/s | -45.8°C | 0.8% | 16.7hPa | 2.6V | 00:00:00 | 00:00:00 | 00:00:00 | |
| DL1XH1-15 | 2026-09-02 12:14:38 | 48.58332 | 10.02752 | 217° | 13km/h | 28103m | 6.8m/s | -45.7°C | 3.2% | 16.8hPa | 2.6V | 08:30:00 | 01:45:40 | 00:00:00 | |
| DK7TD | 2026-09-02 12:14:36 | 48.58337 | 10.02759 | 225° | 13km/h | 28093m | 4.2m/s | -45.7°C | 0.1% | 16.8hPa | 2.7V | 18:12:15 | 01:45:38 | 00:00:00 | |
| IW2NTF | 2026-09-02 12:14:35 | 48.58342 | 10.02764 | 188° | 11km/h | 28082m | 6.6m/s | -45.8°C | 3.2% | 16.8hPa | 2.6V | 08:30:00 | 01:45:36 | 00:00:00 | |
| DL1XH-west | 2026-09-02 12:14:33 | 48.58342 | 10.02764 | 188° | 11km/h | 28082m | 6.6m/s | -45.8°C | 0.1% | 16.8hPa | 2.6V | 18:12:15 | 01:45:36 | 00:00:00 | |
| DO3MHA-12 | 2026-09-02 12:14:33 | 48.58342 | 10.02764 | 189° | 5km/h | 28082m | 6.5m/s | -45.8°C | 3.2% | 16.8hPa | 2.6V | 00:00:00 | 01:45:36 | 00:00:00 | |
| DL1XH1-15 | 2026-09-02 12:14:32 | 48.58349 | 10.02762 | 280° | 2km/h | 28046m | 5.5m/s | -46°C | 3.1% | 16.9hPa | 2.6V | 08:30:00 | 01:45:30 | 00:00:00 | |
| DJ2DS-15 | 2026-09-02 12:14:32 | 48.58344 | 10.02763 | 166° | 7km/h | 28076m | 5.9m/s | 0°C | 0% | 0hPa | 2.6V | 00:00:00 | 01:45:35 | 00:00:00 | |
| BAUMI2-15 | 2026-09-02 12:14:31 | 48.58347 | 10.02762 | 154° | 4km/h | 28070m | 5.2m/s | -45.9°C | 3.2% | 16.8hPa | 2.6V | 00:00:00 | 01:45:34 | 00:00:00 | |
| DF1GD-15 | 2026-09-02 12:14:30 | 48.58347 | 10.02762 | 155° | 9km/h | 28070m | 5.2m/s | -46.0°C | 0.8% | 16.9hPa | 2.6V | 00:00:00 | 00:00:00 | 00:00:00 | |
| SONDE2-11 | 2026-09-02 12:14:29 | 48.58349 | 10.02761 | 281° | 2km/h | 28052m | 5.4m/s | -46.1°C | 0.8% | 16.9hPa | 2.6V | 00:00:00 | 00:00:00 | 00:00:00 | |
| DJ8HS-15 | 2026-09-02 12:14:28 | 48.58349 | 10.02761 | 282° | 5km/h | 28052m | 5.4m/s | -46.1°C | 3.1% | 16.8hPa | 2.6V | 00:00:00 | 01:45:31 | 00:00:00 | |
| PETON7-10 | 2026-09-02 12:14:26 | 48.58349 | 10.02762 | 229° | 7km/h | 28041m | 6.3m/s | 0°C | 0% | 0hPa | 2.6V | 00:00:00 | 00:00:00 | 00:00:00 | |
| IW2NTF | 2026-09-02 12:14:25 | 48.58350 | 10.02763 | 285° | 2km/h | 28023m | 7m/s | -45.9°C | 3.2% | 17hPa | 2.6V | 08:30:00 | 01:45:26 | 00:00:00 | |
| DK7TD | 2026-09-02 12:14:24 | 48.58350 | 10.02763 | 214° | 2km/h | 28029m | 4.9m/s | -45.9°C | 0% | 17hPa | 2.7V | 18:12:15 | 01:45:27 | 00:00:00 | |
| DL1XH-west | 2026-09-02 12:14:23 | 48.58351 | 10.02771 | 207° | 7km/h | 27992m | 5.4m/s | -46°C | 0.1% | 17.1hPa | 2.7V | 18:12:15 | 01:45:21 | 00:00:00 | |
| OE5MMP-10 | 2026-09-02 12:14:23 | 48.58350 | 10.02763 | 286° | 7km/h | 28024m | 6.9m/s | -45.8°C | 3.2% | 16.9hPa | 2.6V | 00:00:00 | 01:45:26 | 00:00:00 | |
| AZAK | 2026-09-02 12:14:22 | 48.58350 | 10.02763 | 287° | 2km/h | 28024m | 7.0m/s | -45.9°C | 0.8% | 17.0hPa | 2.6V | 00:00:00 | 00:00:00 | 00:00:00 | |
| BAUMI2-15 | 2026-09-02 12:14:21 | 48.58349 | 10.02766 | 286° | 7km/h | 28011m | 5.3m/s | -45.8°C | 3.1% | 17.0hPa | 2.6V | 00:00:00 | 01:45:24 | 00:00:00 | |
| DL1XH1-15 | 2026-09-02 12:14:21 | 48.58353 | 10.02773 | 215° | 9km/h | 27987m | 5.2m/s | -46°C | 3.2% | 17.1hPa | 2.6V | 08:30:00 | 01:45:20 | 00:00:00 | |
| DK5PH-5 | 2026-09-02 12:14:20 | 48.58349 | 10.02768 | 259° | 7km/h | 28005m | 6.2m/s | -45.9°C | 3.1% | 17.0hPa | 2.7V | 00:00:00 | 01:45:23 | 08:30:00 | |
| IW2NTF | 2026-09-02 12:14:19 | 48.58353 | 10.02784 | 312° | 9km/h | 27964m | 5m/s | -46.3°C | 3.2% | 17.1hPa | 2.7V | 08:30:00 | 01:45:16 | 00:00:00 | |
| DK7TD | 2026-09-02 12:14:13 | 48.58353 | 10.02784 | 313° | 9km/h | 27964m | 5m/s | -46.3°C | 0.1% | 17.1hPa | 2.7V | 18:12:15 | 01:45:16 | 00:00:00 | |
| DL1XH-west | 2026-09-02 12:14:07 | 48.58342 | 10.02787 | 306° | 7km/h | 27922m | 4.9m/s | -46.5°C | 0.2% | 17.2hPa | 2.6V | 18:12:15 | 01:45:09 | 00:00:00 | |
| BAUMI2-15 | 2026-09-02 12:14:06 | 48.58342 | 10.02786 | 306° | 13km/h | 27922m | 4.9m/s | -46.5°C | 3.2% | 17.2hPa | 2.6V | 00:00:00 | 01:45:09 | 08:30:00 | |
| IW2NTF | 2026-09-02 12:14:05 | 48.58344 | 10.02794 | 222° | 13km/h | 27903m | 5.6m/s | -46.3°C | 3.2% | 17.3hPa | 2.7V | 08:30:00 | 01:45:06 | 00:00:00 | |
| DB0NH | 2026-09-02 12:14:05 | 48.58341 | 10.02789 | 269° | 7km/h | 27917m | 6.9m/s | -46.5°C | 3.3% | 17.2hPa | 2.7V | 00:00:00 | 01:45:08 | 00:00:00 | |
| DJTTGO | 2026-09-02 12:14:04 | 48.58341 | 10.02789 | 270° | 5km/h | 27917m | 7.0m/s | -46.5°C | 0.8% | 17.3hPa | 2.7V | 00:00:00 | 00:00:00 | 00:00:00 | |
| DO3MHA-12 | 2026-09-02 12:14:03 | 48.58343 | 10.02794 | 223° | 7km/h | 27904m | 5.6m/s | -46.3°C | 3.2% | 17.2hPa | 2.7V | 00:00:00 | 01:45:06 | 00:00:00 | |
| DL1XH1-15 | 2026-09-02 12:14:02 | 48.58350 | 10.02816 | 193° | 0km/h | 27867m | 6.5m/s | -46.3°C | 3.3% | 0hPa | 2.7V | 08:30:00 | 01:45:00 | 00:00:00 | |
| DK7TD | 2026-09-02 12:14:02 | 48.58346 | 10.02798 | 231° | 15km/h | 27898m | 5.9m/s | -46.3°C | 0.2% | 17.3hPa | 2.6V | 18:12:15 | 01:45:05 | 00:00:00 | |
| DL8DAS-14 | 2026-09-02 12:14:01 | 48.58349 | 10.02807 | 252° | 13km/h | 27885m | 5.5m/s | -46.3°C | 0.8% | 17.3hPa | 2.7V | 00:00:00 | 00:00:00 | 00:00:00 | |
| DF7PN | 2026-09-02 12:14:00 | 48.58349 | 10.02807 | 252° | 13km/h | 27885m | 5.5m/s | -46.3°C | 0.8% | 17.3hPa | 2.7V | 00:00:00 | 00:00:00 | 00:00:00 | |
| BAUMI2-15 | 2026-09-02 12:13:59 | 48.58350 | 10.02812 | 263° | 4km/h | 27880m | 5.2m/s | -46.2°C | 3.3% | 17.3hPa | 2.7V | 00:00:00 | 01:45:02 | 00:00:00 | |
| IW2NTF | 2026-09-02 12:13:58 | 48.58349 | 10.02812 | 23° | 4km/h | 27842m | 5.5m/s | -46.2°C | 3.2% | 17.4hPa | 2.7V | 08:30:00 | 01:44:56 | 00:00:00 | |
| DL1XH-west | 2026-09-02 12:13:57 | 48.58350 | 10.02815 | 97° | 4km/h | 27861m | 6m/s | -46.3°C | 0.2% | 17.4hPa | 2.6V | 18:12:15 | 01:44:59 | 00:00:00 | |
| DK7TD | 2026-09-02 12:13:51 | 48.58349 | 10.02810 | 120° | 4km/h | 27830m | 6.7m/s | -46.3°C | 0.1% | 17.5hPa | 2.7V | 18:12:15 | 01:44:54 | 00:00:00 | |
| DL1XH1-15 | 2026-09-02 12:13:50 | 48.58354 | 10.02804 | 164° | 5km/h | 27806m | 6.9m/s | -46.3°C | 0% | 0hPa | 2.7V | 08:30:00 | 01:44:50 | 00:00:00 | |
| DL1XH-west | 2026-09-02 12:13:46 | 48.58356 | 10.02805 | 200° | 4km/h | 27794m | 5.3m/s | -46.4°C | 0.2% | 17.6hPa | 2.7V | 18:12:15 | 01:44:48 | 00:00:00 | |
| DL9SK-14 | 2026-09-02 12:13:45 | 48.58357 | 10.02804 | 162° | 4km/h | 27789m | 5.6m/s | -46.4°C | 0.8% | 17.6hPa | 2.7V | 00:00:00 | 00:00:00 | 00:00:00 | |
| IW2NTF | 2026-09-02 12:13:45 | 48.58358 | 10.02803 | 143° | 9km/h | 27782m | 7.1m/s | -46.3°C | 3.3% | 17.6hPa | 2.6V | 08:30:00 | 01:44:46 | 00:00:00 | |
| DK7TD | 2026-09-02 12:13:40 | 48.58364 | 10.02794 | 114° | 11km/h | 27763m | 6.8m/s | -46.4°C | 0.2% | 17.6hPa | 2.7V | 18:12:15 | 01:44:43 | 00:00:00 | |
| DB0UT-7 | 2026-09-02 12:13:40 | 48.58364 | 10.02793 | 115° | 9km/h | 27764m | 6.7m/s | -46.3°C | 3.3% | 17.6hPa | 2.7V | 00:00:00 | 00:00:00 | 00:00:00 | |
| DL1XH1-15 | 2026-09-02 12:13:38 | 48.58364 | 10.02786 | 73° | 5km/h | 27745m | 5.6m/s | -46.2°C | 0% | 0hPa | 2.7V | 08:30:00 | 01:44:40 | 00:00:00 | |
| DL1XH-west | 2026-09-02 12:13:36 | 48.58363 | 10.02783 | 85° | 7km/h | 27739m | 6.9m/s | -46.3°C | 0.2% | 17.7hPa | 2.7V | 18:12:15 | 01:44:39 | 00:00:00 | |
| IW2NTF | 2026-09-02 12:13:35 | 48.58364 | 10.02774 | 89° | 7km/h | 27721m | 6.4m/s | -46.4°C | 3.2% | 17.8hPa | 2.6V | 08:30:00 | 01:44:36 | 00:00:00 | |
| DO3MHA-11 | 2026-09-02 12:13:35 | 48.58363 | 10.02780 | 96° | 7km/h | 27733m | 6.1m/s | -46.3°C | 3.2% | 17.7hPa | 2.6V | 00:00:00 | 01:44:38 | 00:00:00 | |
| NBG1-10 | 2026-09-02 12:13:34 | 48.58364 | 10.02777 | 97° | 11km/h | 27727m | 5.3m/s | -46.3°C | 3.2% | 17.7hPa | 2.6V | 00:00:00 | 01:44:37 | 08:30:00 | |
| DO3MHA-12 | 2026-09-02 12:13:33 | 48.58364 | 10.02774 | 90° | 7km/h | 27721m | 6.3m/s | -46.3°C | 3.2% | 17.7hPa | 2.6V | 00:00:00 | 01:44:36 | 00:00:00 | |
| DM7RM-13 | 2026-09-02 12:13:32 | 48.58364 | 10.02774 | 90° | 7km/h | 27721m | 6.4m/s | -46.4°C | 0.8% | 17.8hPa | 2.6V | 00:00:00 | 00:00:00 | 00:00:00 | |
| DL1XH1-15 | 2026-09-02 12:13:30 | 48.58363 | 10.02762 | 109° | 11km/h | 27684m | 5.8m/s | 0°C | 0% | 0hPa | 2.6V | 00:00:00 | 01:44:30 | 00:00:00 | |
| DK7TD | 2026-09-02 12:13:29 | 48.58362 | 10.02768 | 92° | 5km/h | 27697m | 7.1m/s | -46.3°C | 0.1% | 17.8hPa | 2.6V | 18:12:15 | 01:44:32 | 00:00:00 | |
| DL1XH-west | 2026-09-02 12:13:26 | 48.58364 | 10.02758 | 104° | 9km/h | 27678m | 5.8m/s | -46.3°C | 0.2% | 17.9hPa | 2.7V | 18:12:15 | 01:44:29 | 00:00:00 | |
| DK7TD | 2026-09-02 12:13:18 | 48.58356 | 10.02732 | 89° | 13km/h | 27631m | 5.6m/s | -46.2°C | 0.1% | 18hPa | 2.6V | 18:12:15 | 01:44:21 | 00:00:00 | |
| DL1XH-west | 2026-09-02 12:13:15 | 48.58350 | 10.02715 | 33° | 15km/h | 27605m | 5.5m/s | -46.1°C | 0.2% | 0hPa | 2.6V | 18:12:15 | 01:44:17 | 00:00:00 | |
| DO3MHA-11 | 2026-09-02 12:13:15 | 48.58352 | 10.02718 | 40° | 13km/h | 27612m | 6.2m/s | -46.1°C | 3.2% | 18.0hPa | 2.7V | 00:00:00 | 01:44:18 | 00:00:00 | |
| IW2NTF | 2026-09-02 12:13:14 | 48.58347 | 10.02712 | 38° | 13km/h | 27599m | 6.4m/s | -46.1°C | 3.3% | 18.1hPa | 2.6V | 08:30:00 | 01:44:16 | 00:00:00 | |
| BAUMI2-15 | 2026-09-02 12:13:14 | 48.58347 | 10.02712 | 39° | 11km/h | 27600m | 6.4m/s | -46.1°C | 3.3% | 18.0hPa | 2.6V | 00:00:00 | 01:44:16 | 00:00:00 | |
| DO3MHA-12 | 2026-09-02 12:13:13 | 48.58347 | 10.02712 | 39° | 13km/h | 27600m | 6.4m/s | -46.1°C | 3.3% | 18.0hPa | 2.6V | 00:00:00 | 01:44:16 | 08:30:00 | |
| OE9MKV-15 | 2026-09-02 12:13:12 | 48.58344 | 10.02709 | 47° | 16km/h | 27593m | 6.5m/s | -46.1°C | 3.2% | 18.1hPa | 2.6V | 00:00:00 | 01:44:15 | 08:30:00 | |
| DL6DJ-15 | 2026-09-02 12:13:11 | 48.58342 | 10.02706 | 49° | 9km/h | 27587m | 5.9m/s | -46.2°C | 0.8% | 18.1hPa | 2.7V | 00:00:00 | 00:00:00 | 00:00:00 | |
| DB0UT-7 | 2026-09-02 12:13:10 | 48.58340 | 10.02703 | 44° | 18km/h | 27581m | 6.0m/s | -46.2°C | 3.2% | 18.1hPa | 2.7V | 00:00:00 | 01:44:13 | 00:00:00 | |
| DO9LL-15 | 2026-09-02 12:13:09 | 48.58338 | 10.02700 | 30° | 20km/h | 27575m | 7.2m/s | -46.2°C | 3.1% | 18.1hPa | 2.7V | 00:00:00 | 01:44:12 | 08:30:00 | |
| IW2NTF | 2026-09-02 12:13:08 | 48.58322 | 10.02687 | 39° | 13km/h | 27536m | 6.3m/s | -46.3°C | 3.2% | 18.3hPa | 2.7V | 08:30:00 | 01:44:06 | 00:00:00 | |
| DK7TD | 2026-09-02 12:13:08 | 48.58332 | 10.02697 | 17° | 15km/h | 27561m | 5.5m/s | -46.3°C | 0.1% | 18.2hPa | 2.6V | 18:12:15 | 01:44:10 | 00:00:00 | |
| OE5MMP-10 | 2026-09-02 12:13:07 | 48.58332 | 10.02697 | 17° | 15km/h | 27562m | 5.5m/s | -46.3°C | 3.2% | 18.1hPa | 2.6V | 00:00:00 | 01:44:10 | 08:30:00 | |
| PG1ADW-2 | 2026-09-02 12:13:06 | 48.58329 | 10.02695 | 25° | 18km/h | 27556m | 6.4m/s | -46.3°C | 3.2% | 18.2hPa | 2.6V | 00:00:00 | 01:44:09 | 08:30:00 | |
| DO3MHA-11 | 2026-09-02 12:13:05 | 48.58327 | 10.02693 | 39° | 15km/h | 27549m | 7.1m/s | -46.3°C | 3.2% | 18.2hPa | 2.6V | 00:00:00 | 01:44:08 | 00:00:00 | |
| DL1XH1-15 | 2026-09-02 12:13:04 | 48.58316 | 10.02681 | 28° | 16km/h | 27523m | 5.5m/s | 0°C | 0% | 0hPa | 2.6V | 00:00:00 | 01:44:04 | 00:00:00 | |
| DL1XH-west | 2026-09-02 12:13:03 | 48.58322 | 10.02687 | 40° | 13km/h | 27536m | 6.3m/s | -46.3°C | 0.1% | 0hPa | 2.7V | 18:12:15 | 01:44:06 | 00:00:00 | |
| DO3MHA-12 | 2026-09-02 12:13:03 | 48.58322 | 10.02687 | 40° | 16km/h | 27537m | 6.3m/s | -46.3°C | 3.2% | 18.2hPa | 2.6V | 00:00:00 | 01:44:06 | 00:00:00 | |
| AZAK | 2026-09-02 12:13:01 | 48.58319 | 10.02684 | 32° | 15km/h | 27530m | 7.1m/s | -46.3°C | 0.8% | 18.3hPa | 2.6V | 00:00:00 | 00:00:00 | 00:00:00 | |
| DL8DAS-14 | 2026-09-02 12:12:59 | 48.58309 | 10.02674 | 38° | 15km/h | 27511m | 7.4m/s | -46.4°C | 0.8% | 18.4hPa | 2.6V | 00:00:00 | 00:00:00 | 00:00:00 | |
| BAUMI2-15 | 2026-09-02 12:12:58 | 48.58306 | 10.02670 | 46° | 18km/h | 27504m | 6.0m/s | -46.4°C | 3.3% | 18.3hPa | 2.6V | 00:00:00 | 01:44:01 | 00:00:00 | |
| IW2NTF | 2026-09-02 12:12:57 | 48.58286 | 10.02651 | 21° | 24km/h | 27473m | 5.7m/s | -46.7°C | 3.3% | 18.4hPa | 2.6V | 08:30:00 | 01:43:56 | 00:00:00 | |
| DK7TD | 2026-09-02 12:12:56 | 48.58300 | 10.02661 | 38° | 16km/h | 27492m | 5.6m/s | -46.5°C | 0.1% | 18.4hPa | 2.6V | 18:12:15 | 01:43:59 | 00:00:00 | |
| DL1XH-west | 2026-09-02 12:12:53 | 48.58286 | 10.02651 | 21° | 24km/h | 27473m | 5.7m/s | -46.7°C | 0.2% | 0hPa | 2.6V | 18:12:15 | 01:43:56 | 00:00:00 | |
| DK7TD | 2026-09-02 12:12:46 | 48.58254 | 10.02623 | 23° | 20km/h | 27429m | 5.4m/s | -46.6°C | 0.1% | 18.6hPa | 2.7V | 18:12:15 | 01:43:49 | 00:00:00 | |
| IW2NTF | 2026-09-02 12:12:45 | 48.58241 | 10.02614 | 24° | 20km/h | 27410m | 5.1m/s | -46.6°C | 3.3% | 18.6hPa | 2.6V | 08:30:00 | 01:43:46 | 00:00:00 | |
| DO3MHA-11 | 2026-09-02 12:12:45 | 48.58250 | 10.02620 | 26° | 22km/h | 27423m | 7.3m/s | -46.5°C | 3.3% | 18.6hPa | 2.7V | 00:00:00 | 01:43:48 | 08:30:00 | |
| DL9SK-14 | 2026-09-02 12:12:43 | 48.58236 | 10.02611 | 20° | 22km/h | 27404m | 7.0m/s | -46.7°C | 0.8% | 18.6hPa | 2.7V | 00:00:00 | 00:00:00 | 00:00:00 | |
| DL1XH-west | 2026-09-02 12:12:42 | 48.58225 | 10.02605 | 18° | 26km/h | 27392m | 5m/s | 0°C | 0% | 0hPa | 2.7V | 18:12:15 | 01:43:43 | 00:00:00 | |
| OE5MMP-10 | 2026-09-02 12:12:42 | 48.58236 | 10.02610 | 21° | 24km/h | 27405m | 6.9m/s | -46.6°C | 3.3% | 18.6hPa | 2.7V | 00:00:00 | 01:43:45 | 00:00:00 | |
| OE5DRO-10 | 2026-09-02 12:12:41 | 48.58231 | 10.02608 | 16° | 24km/h | 27398m | 6.3m/s | -46.5°C | 3.3% | 18.6hPa | 2.7V | 00:00:00 | 00:00:00 | 00:00:00 | |
| DB0UT-7 | 2026-09-02 12:12:40 | 48.58225 | 10.02605 | 18° | 22km/h | 27392m | 4.9m/s | -46.4°C | 3.2% | 18.6hPa | 2.7V | 00:00:00 | 00:00:00 | 00:00:00 | |
| IW2NTF | 2026-09-02 12:12:39 | 48.58191 | 10.02569 | 30° | 24km/h | 27349m | 4.6m/s | -46.8°C | 3.3% | 18.8hPa | 2.7V | 08:30:00 | 01:43:36 | 00:00:00 | |
| OE5WHR-10 | 2026-09-02 12:12:39 | 48.58219 | 10.02601 | 25° | 22km/h | 27387m | 5.9m/s | -46.4°C | 3.3% | 18.6hPa | 2.6V | 00:00:00 | 01:43:42 | 00:00:00 | |
| DL1XH1-15 | 2026-09-02 12:12:38 | 48.58209 | 10.02591 | 44° | 22km/h | 27373m | 6.1m/s | 0°C | 0% | 0hPa | 2.6V | 00:00:00 | 01:43:40 | 00:00:00 | |
| DK7TD | 2026-09-02 12:12:35 | 48.58200 | 10.02579 | 42° | 24km/h | 27361m | 7.2m/s | -46.8°C | 0.2% | 18.8hPa | 2.6V | 18:12:15 | 01:43:38 | 00:00:00 | |
| DL1XH-west | 2026-09-02 12:12:32 | 48.58186 | 10.02564 | 31° | 22km/h | 27344m | 6.2m/s | 0°C | 0% | 0hPa | 2.6V | 18:12:15 | 01:43:35 | 00:00:00 | |
| OE5MMP-10 | 2026-09-02 12:12:32 | 48.58186 | 10.02564 | 32° | 22km/h | 27344m | 6.2m/s | -46.6°C | 3.2% | 18.8hPa | 2.6V | 00:00:00 | 01:43:35 | 00:00:00 | |
| DM7RM-13 | 2026-09-02 12:12:31 | 48.58186 | 10.02564 | 32° | 22km/h | 27344m | 6.2m/s | -46.7°C | 0.8% | 18.8hPa | 2.7V | 00:00:00 | 00:00:00 | 00:00:00 | |
| DN1GJH-1 | 2026-09-02 12:12:30 | 48.58182 | 10.02560 | 33° | 20km/h | 27338m | 6.7m/s | -46.6°C | 0.8% | 18.8hPa | 2.7V | 00:00:00 | 00:00:00 | 00:00:00 | |
| NBG1-10 | 2026-09-02 12:12:28 | 48.58169 | 10.02551 | 14° | 20km/h | 27320m | 6.2m/s | -46.6°C | 3.2% | 18.9hPa | 2.7V | 00:00:00 | 01:43:31 | 00:00:00 | |
| DF7PN | 2026-09-02 12:12:27 | 48.58157 | 10.02549 | 2° | 27km/h | 27307m | 5.4m/s | -46.7°C | 0.8% | 18.9hPa | 2.7V | 00:00:00 | 00:00:00 | 00:00:00 | |
| PG1ADW-2 | 2026-09-02 12:12:26 | 48.58157 | 10.02549 | 3° | 20km/h | 27307m | 5.4m/s | -46.7°C | 3.2% | 18.9hPa | 2.7V | 00:00:00 | 00:00:00 | 00:00:00 | |
| IW2NTF | 2026-09-02 12:12:25 | 48.58138 | 10.02548 | 3° | 20km/h | 27289m | 5.9m/s | -46.6°C | 3.3% | 19hPa | 2.7V | 08:30:00 | 01:43:26 | 00:00:00 | |
| DO3MHA-11 | 2026-09-02 12:12:25 | 48.58150 | 10.02549 | 1° | 20km/h | 27302m | 5.0m/s | -46.7°C | 3.2% | 18.9hPa | 2.6V | 00:00:00 | 01:43:28 | 00:00:00 | |
| DK7TD | 2026-09-02 12:12:25 | 48.58150 | 10.02549 | 1° | 27km/h | 27301m | 5.1m/s | -46.8°C | 0.1% | 18.9hPa | 2.7V | 18:12:15 | 01:43:28 | 00:00:00 | |
| DL1XH1-15 | 2026-09-02 12:12:24 | 48.58125 | 10.02548 | 352° | 18km/h | 27272m | 7.1m/s | 0°C | 0% | 0hPa | 2.6V | 00:00:00 | 01:43:23 | 00:00:00 | |
| DB0ND-19 | 2026-09-02 12:12:24 | 48.58138 | 10.02548 | 3° | 18km/h | 27289m | 5.9m/s | -46.6°C | 0.8% | 19.0hPa | 2.7V | 00:00:00 | 00:00:00 | 00:00:00 | |
| DO3MHA-12 | 2026-09-02 12:12:23 | 48.58138 | 10.02548 | 4° | 18km/h | 27289m | 5.8m/s | -46.6°C | 3.3% | 19.0hPa | 2.7V | 00:00:00 | 01:43:26 | 00:00:00 | |
| OE5MMP-10 | 2026-09-02 12:12:22 | 48.58133 | 10.02548 | 4° | 18km/h | 27284m | 5.0m/s | -46.6°C | 3.3% | 19.0hPa | 2.7V | 00:00:00 | 01:43:25 | 00:00:00 | |
| DK5PH-5 | 2026-09-02 12:12:20 | 48.58125 | 10.02548 | 353° | 18km/h | 27273m | 7.0m/s | -46.7°C | 3.4% | 19.0hPa | 2.7V | 00:00:00 | 01:43:23 | 00:00:00 | |
| OE3JTB-15 | 2026-09-02 12:12:18 | 48.58105 | 10.02556 | 347° | 18km/h | 27248m | 6.9m/s | -46.9°C | 3.3% | 19.0hPa | 2.7V | 00:00:00 | 00:00:00 | 00:00:00 | |
| IW2NTF | 2026-09-02 12:12:17 | 48.58092 | 10.02557 | 4° | 18km/h | 27229m | 6.2m/s | -47°C | 3.2% | 19.1hPa | 2.7V | 08:30:00 | 01:43:16 | 00:00:00 | |
| DK7TD | 2026-09-02 12:12:14 | 48.58096 | 10.02557 | 2° | 16km/h | 27235m | 5.5m/s | -47°C | 0.1% | 19.1hPa | 2.6V | 18:12:15 | 01:43:17 | 00:00:00 | |
| DO3MHA-12 | 2026-09-02 12:12:13 | 48.58092 | 10.02557 | 5° | 18km/h | 27229m | 6.2m/s | -47.0°C | 3.2% | 19.1hPa | 2.7V | 00:00:00 | 01:43:16 | 00:00:00 | |
| OE9MKV-15 | 2026-09-02 12:12:12 | 48.58087 | 10.02556 | 3° | 20km/h | 27223m | 6.9m/s | -47.0°C | 3.3% | 19.1hPa | 2.7V | 00:00:00 | 01:43:15 | 00:00:00 | |
| DM7RM-13 | 2026-09-02 12:12:11 | 48.58087 | 10.02556 | 4° | 22km/h | 27223m | 7.0m/s | -47.0°C | 0.9% | 19.2hPa | 2.7V | 00:00:00 | 00:00:00 | 00:00:00 | |
| DB0UT-7 | 2026-09-02 12:12:10 | 48.58075 | 10.02556 | 1° | 18km/h | 27211m | 4.7m/s | -47.0°C | 3.4% | 19.2hPa | 2.7V | 00:00:00 | 01:43:13 | 00:00:00 | |
| DL6DJ-15 | 2026-09-02 12:12:09 | 48.58069 | 10.02556 | 0° | 20km/h | 27206m | 6.2m/s | -46.9°C | 0.8% | 19.2hPa | 2.7V | 00:00:00 | 00:00:00 | 00:00:00 | |
| DJ8HS-15 | 2026-09-02 12:12:08 | 48.58064 | 10.02556 | 4° | 16km/h | 27199m | 6.6m/s | -46.8°C | 3.4% | 19.2hPa | 2.7V | 00:00:00 | 01:43:11 | 00:00:00 | |
| HARRO8 | 2026-09-02 12:12:07 | 48.58058 | 10.02556 | 346° | 11km/h | 27188m | 5.4m/s | -46.9°C | 0.8% | 19.3hPa | 2.7V | 00:00:00 | 00:00:00 | 00:00:00 | |
| DO9LL-15 | 2026-09-02 12:12:06 | 48.58058 | 10.02556 | 347° | 16km/h | 27188m | 5.3m/s | -46.8°C | 3.4% | 19.2hPa | 2.7V | 00:00:00 | 01:43:09 | 00:00:00 | |
| IW2NTF | 2026-09-02 12:12:05 | 48.58048 | 10.02566 | 313° | 18km/h | 27169m | 5.5m/s | -47.1°C | 3.3% | 19.3hPa | 2.7V | 08:30:00 | 01:43:06 | 00:00:00 | |
| DK7TD | 2026-09-02 12:12:03 | 48.58048 | 10.02566 | 314° | 18km/h | 27169m | 5.5m/s | -47.1°C | 0.2% | 19.3hPa | 2.7V | 18:12:15 | 01:43:06 | 00:00:00 | |
| DO3MHA-12 | 2026-09-02 12:12:03 | 48.58048 | 10.02566 | 314° | 18km/h | 27170m | 5.4m/s | -47.1°C | 3.3% | 19.3hPa | 2.7V | 00:00:00 | 01:43:06 | 00:00:00 | |
| OE5MMP-10 | 2026-09-02 12:12:02 | 48.58045 | 10.02571 | 308° | 16km/h | 27163m | 7.3m/s | -47.2°C | 3.4% | 19.3hPa | 2.7V | 00:00:00 | 01:43:05 | 00:00:00 | |
| DF3TZ-5 | 2026-09-02 12:12:01 | 48.58043 | 10.02577 | 304° | 16km/h | 27156m | 6.0m/s | -47.2°C | 0.8% | 19.4hPa | 2.6V | 00:00:00 | 00:00:00 | 00:00:00 | |
| DF7PN | 2026-09-02 12:11:56 | 48.58019 | 10.02600 | 353° | 11km/h | 27121m | 6.2m/s | -47.1°C | 0.8% | 19.5hPa | 2.6V | 00:00:00 | 00:00:00 | 00:00:00 | |
| IW2NTF | 2026-09-02 12:11:55 | 48.58014 | 10.02600 | 358° | 9km/h | 27110m | 5.2m/s | -47°C | 3.4% | 19.5hPa | 2.6V | 08:30:00 | 01:42:56 | 00:00:00 | |
| DK7TD | 2026-09-02 12:11:53 | 48.58014 | 10.02600 | 358° | 9km/h | 27110m | 5.2m/s | -47°C | 0.3% | 19.5hPa | 2.6V | 18:12:15 | 01:42:56 | 00:00:00 | |
| DB0ND-19 | 2026-09-02 12:11:53 | 48.58012 | 10.02601 | 347° | 9km/h | 27105m | 6.4m/s | -46.9°C | 0.9% | 19.5hPa | 2.6V | 00:00:00 | 00:00:00 | 00:00:00 | |
| DK5PH-5 | 2026-09-02 12:11:50 | 48.58005 | 10.02606 | 324° | 16km/h | 27093m | 5.5m/s | -46.9°C | 3.4% | 19.5hPa | 2.6V | 00:00:00 | 01:42:53 | 00:00:00 | |
| OE3JTB-15 | 2026-09-02 12:11:49 | 48.57999 | 10.02616 | 301° | 15km/h | 27081m | 6.3m/s | -47.0°C | 3.4% | 19.5hPa | 2.6V | 00:00:00 | 01:42:51 | 00:00:00 | |
| DJ8HS-15 | 2026-09-02 12:11:48 | 48.57999 | 10.02616 | 301° | 16km/h | 27081m | 6.3m/s | -47.0°C | 3.4% | 19.5hPa | 2.6V | 00:00:00 | 01:42:51 | 08:30:00 | |
| PG1ADW-2 | 2026-09-02 12:11:46 | 48.57995 | 10.02630 | 281° | 16km/h | 27069m | 5.1m/s | -47.0°C | 3.3% | 19.6hPa | 2.6V | 00:00:00 | 01:42:49 | 00:00:00 | |
| IW2NTF | 2026-09-02 12:11:45 | 48.57991 | 10.02654 | 293° | 24km/h | 27051m | 5.6m/s | -46.9°C | 3.2% | 19.7hPa | 2.6V | 08:30:00 | 01:42:46 | 00:00:00 | |
| DK7TD | 2026-09-02 12:11:43 | 48.57991 | 10.02654 | 294° | 24km/h | 27052m | 5.6m/s | -46.9°C | 0.1% | 19.7hPa | 2.6V | 18:12:15 | 01:42:46 | 00:00:00 | |
| DO3MHA-12 | 2026-09-02 12:11:43 | 48.57991 | 10.02654 | 294° | 15km/h | 27052m | 5.6m/s | -46.9°C | 3.2% | 19.6hPa | 2.6V | 00:00:00 | 01:42:46 | 08:30:00 | |
| OE9MKV-15 | 2026-09-02 12:11:42 | 48.57988 | 10.02662 | 300° | 16km/h | 27047m | 4.5m/s | -46.8°C | 3.2% | 19.6hPa | 2.6V | 00:00:00 | 01:42:45 | 00:00:00 | |
| DB0UT-7 | 2026-09-02 12:11:40 | 48.57984 | 10.02674 | 306° | 13km/h | 27035m | 6.5m/s | -46.9°C | 3.3% | 19.7hPa | 2.7V | 00:00:00 | 00:00:00 | 08:30:00 | |
| DL6DJ-15 | 2026-09-02 12:11:38 | 48.57979 | 10.02681 | 316° | 13km/h | 27022m | 6.5m/s | -47.0°C | 0.8% | 19.8hPa | 2.6V | 00:00:00 | 00:00:00 | 00:00:00 | |
| OE5MMP-10 | 2026-09-02 12:11:37 | 48.57977 | 10.02685 | 317° | 16km/h | 27016m | 6.0m/s | -46.8°C | 3.3% | 19.8hPa | 2.6V | 00:00:00 | 01:42:40 | 00:00:00 | |
| IW2NTF | 2026-09-02 12:11:36 | 48.57972 | 10.02705 | 274° | 15km/h | 26987m | 5.7m/s | -47.1°C | 3.3% | 19.9hPa | 2.6V | 08:30:00 | 01:42:35 | 00:00:00 | |
| DK7TD | 2026-09-02 12:11:33 | 48.57972 | 10.02705 | 274° | 15km/h | 26987m | 5.7m/s | -47.1°C | 0.2% | 19.9hPa | 2.6V | 18:12:15 | 01:42:35 | 00:00:00 | |
| DO3MHA-12 | 2026-09-02 12:11:33 | 48.57972 | 10.02700 | 270° | 15km/h | 26993m | 5.4m/s | -46.9°C | 3.3% | 19.8hPa | 2.6V | 00:00:00 | 01:42:36 | 00:00:00 | |
| DO9LL-15 | 2026-09-02 12:11:32 | 48.57972 | 10.02705 | 275° | 15km/h | 26988m | 5.7m/s | -47.0°C | 3.3% | 19.8hPa | 2.6V | 00:00:00 | 01:42:35 | 00:00:00 | |
| DF3TZ-5 | 2026-09-02 12:11:30 | 48.57970 | 10.02717 | 287° | 18km/h | 26975m | 5.1m/s | -47.1°C | 0.8% | 19.9hPa | 2.6V | 00:00:00 | 00:00:00 | 00:00:00 | |
| DM7RM-13 | 2026-09-02 12:11:29 | 48.57970 | 10.02717 | 289° | 20km/h | 26975m | 5.1m/s | -47.1°C | 0.9% | 19.9hPa | 2.6V | 00:00:00 | 00:00:00 | 00:00:00 | |
| DJ8HS-15 | 2026-09-02 12:11:28 | 48.57967 | 10.02731 | 289° | 13km/h | 26965m | 5.7m/s | -47.0°C | 3.3% | 19.9hPa | 2.6V | 00:00:00 | 01:42:31 | 00:00:00 | |
| OE5MMP-10 | 2026-09-02 12:11:27 | 48.57966 | 10.02736 | 284° | 11km/h | 26959m | 6.1m/s | -47.1°C | 3.3% | 19.9hPa | 2.6V | 00:00:00 | 01:42:30 | 08:30:00 | |
| PG1ADW-2 | 2026-09-02 12:11:26 | 48.57965 | 10.02741 | 276° | 13km/h | 26953m | 5.6m/s | -47.1°C | 3.3% | 19.9hPa | 2.6V | 00:00:00 | 00:00:00 | 00:00:00 | |
| IW2NTF | 2026-09-02 12:11:25 | 48.57963 | 10.02757 | 283° | 13km/h | 26930m | 4.7m/s | -47.1°C | 3.3% | 20hPa | 2.6V | 08:30:00 | 01:42:25 | 00:00:00 | |
| DK7TD | 2026-09-02 12:11:22 | 48.57963 | 10.02757 | 284° | 13km/h | 26931m | 4.7m/s | -47.1°C | 0.2% | 20.1hPa | 2.6V | 18:12:15 | 01:42:25 | 00:00:00 | |
| NBG1-10 | 2026-09-02 12:11:22 | 48.57963 | 10.02757 | 284° | 13km/h | 26931m | 4.7m/s | -47.0°C | 3.3% | 20.0hPa | 2.7V | 00:00:00 | 01:42:25 | 00:00:00 | |
| DB0ND-19 | 2026-09-02 12:11:21 | 48.57963 | 10.02761 | 273° | 11km/h | 26925m | 5.8m/s | -47.1°C | 0.8% | 20.1hPa | 2.7V | 00:00:00 | 00:00:00 | 00:00:00 | |
| DK5PH-5 | 2026-09-02 12:11:20 | 48.57963 | 10.02765 | 257° | 13km/h | 26919m | 6.7m/s | -47.1°C | 3.4% | 20.0hPa | 2.7V | 00:00:00 | 01:42:23 | 00:00:00 | |
| AZAK | 2026-09-02 12:11:17 | 48.57965 | 10.02773 | 233° | 11km/h | 26908m | 4.1m/s | -47.2°C | 0.8% | 20.1hPa | 2.6V | 00:00:00 | 00:00:00 | 00:00:00 | |
| OE3JTB-15 | 2026-09-02 12:11:16 | 48.57969 | 10.02786 | 266° | 11km/h | 26891m | 5.8m/s | -47.4°C | 3.4% | 20.1hPa | 2.6V | 00:00:00 | 00:00:00 | 08:30:00 | |
| IW2NTF | 2026-09-02 12:11:15 | 48.57974 | 10.02810 | 232° | 16km/h | 26868m | 4.8m/s | -47.5°C | 3.3% | 20.2hPa | 2.6V | 08:30:00 | 01:42:14 | 00:00:00 | |
| DK7TD | 2026-09-02 12:11:11 | 48.57974 | 10.02810 | 233° | 16km/h | 26868m | 4.9m/s | -47.5°C | 0.2% | 20.2hPa | 2.6V | 18:12:15 | 01:42:14 | 00:00:00 | |
| DB0UT-7 | 2026-09-02 12:11:10 | 48.57976 | 10.02814 | 234° | 11km/h | 26863m | 5.0m/s | -47.6°C | 3.4% | 20.2hPa | 2.6V | 00:00:00 | 01:42:13 | 00:00:00 | |
| DL9SK-14 | 2026-09-02 12:11:09 | 48.57979 | 10.02819 | 242° | 13km/h | 26857m | 6.8m/s | -47.7°C | 0.9% | 20.3hPa | 2.6V | 00:00:00 | 00:00:00 | 00:00:00 | |
| DJ8HS-15 | 2026-09-02 12:11:08 | 48.57980 | 10.02824 | 255° | 11km/h | 26851m | 6.2m/s | -47.6°C | 3.4% | 20.3hPa | 2.6V | 00:00:00 | 01:42:11 | 00:00:00 | |
| OE9MKV-15 | 2026-09-02 12:11:07 | 48.57980 | 10.02829 | 257° | 13km/h | 26845m | 5.2m/s | -47.5°C | 3.4% | 20.3hPa | 2.6V | 00:00:00 | 01:42:10 | 00:00:00 | |
| PG1ADW-2 | 2026-09-02 12:11:06 | 48.57981 | 10.02833 | 250° | 11km/h | 26839m | 6.5m/s | -47.6°C | 3.4% | 20.3hPa | 2.6V | 00:00:00 | 00:00:00 | 00:00:00 | |
| IW2NTF | 2026-09-02 12:11:05 | 48.57985 | 10.02854 | 271° | 13km/h | 26810m | 5.3m/s | -47.7°C | 3.5% | 20.4hPa | 2.7V | 08:30:00 | 01:42:04 | 00:00:00 | |
| DK7TD | 2026-09-02 12:11:00 | 48.57985 | 10.02859 | 265° | 13km/h | 26805m | 5.3m/s | -47.8°C | 0.3% | 20.5hPa | 2.6V | 18:12:15 | 01:42:03 | 00:00:00 | |
| DF3TZ-5 | 2026-09-02 12:10:59 | 48.57986 | 10.02863 | 251° | 11km/h | 26799m | 6.3m/s | -47.8°C | 0.9% | 20.4hPa | 2.6V | 00:00:00 | 00:00:00 | 00:00:00 | |
| AZAK | 2026-09-02 12:10:57 | 48.57988 | 10.02870 | 242° | 11km/h | 26789m | 5.0m/s | -47.8°C | 0.9% | 20.5hPa | 2.6V | 00:00:00 | 00:00:00 | 00:00:00 | |
| DO3MHA-11 | 2026-09-02 12:10:55 | 48.57990 | 10.02878 | 263° | 9km/h | 26776m | 5.8m/s | -47.7°C | 3.5% | 20.5hPa | 2.6V | 00:00:00 | 01:41:58 | 00:00:00 | |
| OE5MMP-10 | 2026-09-02 12:10:54 | 48.57990 | 10.02882 | 262° | 11km/h | 26771m | 4.3m/s | -47.7°C | 3.5% | 20.5hPa | 2.6V | 00:00:00 | 01:41:57 | 00:00:00 | |
| DO3MHA-12 | 2026-09-02 12:10:53 | 48.57991 | 10.02885 | 249° | 9km/h | 26766m | 6.2m/s | -47.7°C | 3.5% | 20.5hPa | 2.7V | 00:00:00 | 01:41:56 | 00:00:00 | |
| IW2NTF | 2026-09-02 12:10:52 | 48.57990 | 10.02901 | 321° | 15km/h | 26731m | 4.4m/s | -47.5°C | 3.4% | 20.7hPa | 2.7V | 08:30:00 | 01:41:50 | 00:00:00 | |
| DK7TD | 2026-09-02 12:10:49 | 48.57994 | 10.02895 | 291° | 7km/h | 26743m | 6.9m/s | -47.5°C | 0.3% | 20.6hPa | 2.6V | 18:12:15 | 01:41:52 | 00:00:00 | |
| DK7TD | 2026-09-02 12:10:39 | 48.57986 | 10.02935 | 291° | 15km/h | 26688m | 5.5m/s | -47.3°C | 0.3% | 20.8hPa | 2.6V | 18:12:15 | 01:41:42 | 00:00:00 | |
| DK7TD | 2026-09-02 12:10:29 | 48.57975 | 10.02968 | 270° | 15km/h | 26630m | 6.6m/s | -47.1°C | 0.2% | 21hPa | 2.7V | 18:12:15 | 01:41:32 | 00:00:00 | |
| DJ8HS-15 | 2026-09-02 12:10:28 | 48.57975 | 10.02973 | 268° | 11km/h | 26624m | 5.4m/s | -47.1°C | 3.3% | 21.0hPa | 2.7V | 00:00:00 | 01:41:31 | 00:00:00 | |
| DM7RM-13 | 2026-09-02 12:10:27 | 48.57975 | 10.02973 | 269° | 15km/h | 26624m | 5.5m/s | -47.1°C | 0.8% | 21.0hPa | 2.7V | 00:00:00 | 00:00:00 | 00:00:00 | |
| BAUMI2-15 | 2026-09-02 12:10:26 | 48.57974 | 10.02984 | 291° | 11km/h | 26612m | 6.3m/s | -47.1°C | 3.3% | 21.0hPa | 2.7V | 00:00:00 | 01:41:29 | 00:00:00 | |
| DO3MHA-11 | 2026-09-02 12:10:25 | 48.57973 | 10.02989 | 302° | 11km/h | 26606m | 5.4m/s | -47.1°C | 3.3% | 21.0hPa | 2.7V | 00:00:00 | 01:41:28 | 00:00:00 | |
| IW2NTF | 2026-09-02 12:10:24 | 48.57963 | 10.03005 | 320° | 13km/h | 26571m | 6m/s | -47.3°C | 3.3% | 21.2hPa | 2.7V | 08:30:00 | 01:41:22 | 00:00:00 | |
| DK7TD | 2026-09-02 12:10:19 | 48.57963 | 10.03005 | 320° | 13km/h | 26571m | 6m/s | -47.3°C | 0.2% | 21.2hPa | 2.7V | 18:12:15 | 01:41:22 | 00:00:00 | |
| AZAK | 2026-09-02 12:10:16 | 48.57957 | 10.03016 | 298° | 13km/h | 26554m | 6.0m/s | -47.4°C | 0.8% | 21.3hPa | 2.6V | 00:00:00 | 00:00:00 | 00:00:00 | |
| DO3MHA-11 | 2026-09-02 12:10:15 | 48.57955 | 10.03021 | 292° | 13km/h | 26548m | 4.9m/s | -47.5°C | 3.4% | 21.2hPa | 2.6V | 00:00:00 | 01:41:18 | 00:00:00 | |
| DO3MHA-12 | 2026-09-02 12:10:13 | 48.57952 | 10.03030 | 299° | 13km/h | 26536m | 6.3m/s | -47.4°C | 3.4% | 21.3hPa | 2.7V | 00:00:00 | 01:41:16 | 08:30:00 | |
| IW2NTF | 2026-09-02 12:10:12 | 48.57940 | 10.03036 | 35° | 16km/h | 26502m | 6.9m/s | -47.9°C | 3.4% | 21.4hPa | 2.7V | 08:30:00 | 01:41:10 | 00:00:00 | |
| DK7TD | 2026-09-02 12:10:08 | 48.57943 | 10.03039 | 37° | 13km/h | 26508m | 5.1m/s | -47.9°C | 0.3% | 21.4hPa | 2.7V | 18:12:15 | 01:41:11 | 00:00:00 | |
| DK7TD | 2026-09-02 12:09:58 | 48.57923 | 10.03044 | 311° | 15km/h | 26451m | 4.8m/s | -47.9°C | 0.3% | 21.6hPa | 2.6V | 18:12:15 | 01:41:01 | 00:00:00 | |
| DF3TZ-5 | 2026-09-02 12:09:57 | 48.57919 | 10.03051 | 326° | 7km/h | 26440m | 6.1m/s | -47.9°C | 0.9% | 21.6hPa | 2.6V | 00:00:00 | 00:00:00 | 00:00:00 | |
| DO9LL-15 | 2026-09-02 12:09:56 | 48.57919 | 10.03051 | 327° | 9km/h | 26440m | 6.0m/s | -47.9°C | 3.6% | 21.5hPa | 2.6V | 00:00:00 | 01:40:59 | 00:00:00 | |
| DO3MHA-11 | 2026-09-02 12:09:55 | 48.57917 | 10.03052 | 344° | 11km/h | 26435m | 5.4m/s | -47.9°C | 3.5% | 21.6hPa | 2.7V | 00:00:00 | 01:40:58 | 00:00:00 | |
| IW2NTF | 2026-09-02 12:09:54 | 48.57912 | 10.03053 | 354° | 13km/h | 26423m | 7.1m/s | -47.8°C | 3.5% | 21.7hPa | 2.7V | 08:30:00 | 01:40:56 | 00:00:00 | |
| DK7TD | 2026-09-02 12:09:48 | 48.57897 | 10.03053 | 359° | 9km/h | 26392m | 5.3m/s | -47.9°C | 0.2% | 21.8hPa | 2.7V | 18:12:15 | 01:40:51 | 00:00:00 | |
| DK7TD | 2026-09-02 12:09:38 | 48.57879 | 10.03081 | 351° | 11km/h | 26333m | 5.2m/s | -48°C | 0.2% | 22hPa | 2.7V | 18:12:15 | 01:40:41 | 00:00:00 | |
| DL9SK-14 | 2026-09-02 12:09:37 | 48.57874 | 10.03080 | 32° | 7km/h | 26321m | 5.8m/s | -48.2°C | 0.8% | 22.0hPa | 2.6V | 00:00:00 | 00:00:00 | 00:00:00 | |
| DO3MHA-11 | 2026-09-02 12:09:35 | 48.57873 | 10.03079 | 38° | 5km/h | 26316m | 4.2m/s | -48.2°C | 3.5% | 22.0hPa | 2.6V | 00:00:00 | 01:40:38 | 00:00:00 | |
| DL6DJ-15 | 2026-09-02 12:09:34 | 48.57870 | 10.03077 | 347° | 5km/h | 26305m | 6.2m/s | -48.1°C | 0.9% | 22.1hPa | 2.6V | 00:00:00 | 00:00:00 | 00:00:00 | |
| DO3MHA-12 | 2026-09-02 12:09:33 | 48.57870 | 10.03077 | 348° | 5km/h | 26305m | 6.2m/s | -48.1°C | 3.5% | 22.0hPa | 2.6V | 00:00:00 | 01:40:36 | 00:00:00 | |
| DH7VM-15 | 2026-09-02 12:09:32 | 48.57870 | 10.03077 | 349° | 7km/h | 26305m | 6.2m/s | -48.1°C | 0.9% | 22.1hPa | 2.6V | 00:00:00 | 00:00:00 | 00:00:00 | |
| SONCRA | 2026-09-02 12:09:31 | 48.57865 | 10.03083 | 309° | 5km/h | 26288m | 5.8m/s | -48.2°C | 0.8% | 22.1hPa | 2.6V | 00:00:00 | 00:00:00 | 00:00:00 | |
| OE5WHR-10 | 2026-09-02 12:09:30 | 48.57865 | 10.03083 | 310° | 5km/h | 26288m | 5.8m/s | -48.1°C | 3.4% | 22.1hPa | 2.6V | 00:00:00 | 01:40:33 | 00:00:00 | |
| OE5MMP-10 | 2026-09-02 12:09:29 | 48.57864 | 10.03084 | 303° | 5km/h | 26282m | 6.5m/s | -48.2°C | 3.5% | 22.1hPa | 2.6V | 00:00:00 | 01:40:32 | 08:30:00 | |
| IW2NTF | 2026-09-02 12:09:28 | 48.57860 | 10.03082 | 47° | 7km/h | 26247m | 6.8m/s | -48.3°C | 3.5% | 22.3hPa | 2.6V | 08:30:00 | 01:40:26 | 00:00:00 | |
| DK7TD | 2026-09-02 12:09:27 | 48.57864 | 10.03085 | 95° | 2km/h | 26271m | 4.9m/s | -48.3°C | 0.3% | 22.2hPa | 2.7V | 18:12:15 | 01:40:30 | 00:00:00 | |
| DK7TD | 2026-09-02 12:09:17 | 48.57852 | 10.03067 | 37° | 7km/h | 26209m | 6.8m/s | -48.7°C | 0.3% | 22.4hPa | 2.6V | 18:12:15 | 01:40:20 | 00:00:00 | |
| OE5DXL-15 | 2026-09-02 12:09:16 | 48.57851 | 10.03065 | 51° | 9km/h | 26203m | 6.1m/s | -48.7°C | 3.7% | 22.4hPa | 2.7V | 00:00:00 | 00:00:00 | 00:00:00 | |
| DO3MHA-11 | 2026-09-02 12:09:15 | 48.57850 | 10.03063 | 49° | 7km/h | 26198m | 4.9m/s | -48.7°C | 3.7% | 22.4hPa | 2.7V | 00:00:00 | 01:40:18 | 00:00:00 | |
| IW2NTF | 2026-09-02 12:09:14 | 48.57848 | 10.03061 | 3° | 5km/h | 26185m | 6.6m/s | -48.7°C | 3.7% | 22.5hPa | 2.6V | 08:30:00 | 01:40:16 | 00:00:00 | |
| AZAK | 2026-09-02 12:09:14 | 48.57849 | 10.03062 | 29° | 5km/h | 26192m | 6.4m/s | -48.8°C | 0.9% | 22.4hPa | 2.6V | 00:00:00 | 00:00:00 | 00:00:00 | |
| DO3MHA-12 | 2026-09-02 12:09:13 | 48.57847 | 10.03061 | 4° | 7km/h | 26185m | 6.6m/s | -48.6°C | 3.7% | 22.4hPa | 2.6V | 00:00:00 | 01:40:16 | 00:00:00 | |
| OE3JTB-15 | 2026-09-02 12:09:12 | 48.57846 | 10.03061 | 360° | 11km/h | 26179m | 5.5m/s | -48.6°C | 3.7% | 22.4hPa | 2.7V | 00:00:00 | 00:00:00 | 00:00:00 | |
| DB0UT-7 | 2026-09-02 12:09:10 | 48.57844 | 10.03059 | 65° | 11km/h | 26167m | 6.7m/s | -48.7°C | 3.6% | 22.5hPa | 2.7V | 00:00:00 | 01:40:13 | 00:00:00 | |
| OE5WHR-10 | 2026-09-02 12:09:09 | 48.57843 | 10.03056 | 82° | 11km/h | 26161m | 5.6m/s | -48.6°C | 3.6% | 22.5hPa | 2.7V | 00:00:00 | 00:00:00 | 08:30:00 | |
| IW2NTF | 2026-09-02 12:09:08 | 48.57838 | 10.03039 | 94° | 7km/h | 26125m | 6.8m/s | -48.3°C | 3.4% | 22.7hPa | 2.7V | 08:30:00 | 01:40:06 | 00:00:00 | |
| DK7TD | 2026-09-02 12:09:06 | 48.57841 | 10.03046 | 46° | 9km/h | 26143m | 6.2m/s | -48.6°C | 0.3% | 22.6hPa | 2.6V | 18:12:15 | 01:40:09 | 00:00:00 | |
| DK7TD | 2026-09-02 12:08:56 | 48.57852 | 10.03035 | 160° | 13km/h | 26082m | 5.7m/s | -48.5°C | 0.4% | 22.8hPa | 2.7V | 18:12:15 | 01:39:59 | 00:00:00 | |
| DF3TZ-5 | 2026-09-02 12:08:55 | 48.57856 | 10.03030 | 121° | 9km/h | 26071m | 6.8m/s | -48.6°C | 0.9% | 22.9hPa | 2.7V | 00:00:00 | 00:00:00 | 00:00:00 | |
| IW2NTF | 2026-09-02 12:08:54 | 48.57854 | 10.03005 | 102° | 18km/h | 26042m | 5.7m/s | -48.8°C | 3.6% | 23hPa | 2.7V | 08:30:00 | 01:39:52 | 00:00:00 | |
| DK7TD | 2026-09-02 12:08:46 | 48.57861 | 10.02992 | 156° | 11km/h | 26024m | 7.3m/s | -48.5°C | 0.4% | 23hPa | 2.6V | 18:12:15 | 01:39:49 | 00:00:00 | |
| OE5DXL-15 | 2026-09-02 12:08:46 | 48.57861 | 10.02992 | 157° | 9km/h | 26024m | 7.2m/s | -48.5°C | 3.6% | 22.9hPa | 2.6V | 00:00:00 | 00:00:00 | 08:30:00 | |
| DO3MHA-11 | 2026-09-02 12:08:45 | 48.57863 | 10.02991 | 190° | 11km/h | 26017m | 6.3m/s | -48.5°C | 3.5% | 23.0hPa | 2.7V | 00:00:00 | 01:39:48 | 00:00:00 | |
| BAUMI2-15 | 2026-09-02 12:08:44 | 48.57866 | 10.02992 | 208° | 9km/h | 26012m | 5.2m/s | -48.5°C | 3.5% | 23.0hPa | 2.7V | 00:00:00 | 01:39:47 | 08:30:00 | |
| DO3MHA-12 | 2026-09-02 12:08:43 | 48.57868 | 10.02994 | 205° | 11km/h | 26006m | 5.1m/s | -48.5°C | 3.6% | 23.0hPa | 2.6V | 00:00:00 | 01:39:46 | 08:30:00 | |
| IW2NTF | 2026-09-02 12:08:42 | 48.57873 | 10.02987 | 81° | 11km/h | 25984m | 6.4m/s | -48.5°C | 3.5% | 23.2hPa | 2.7V | 08:30:00 | 01:39:42 | 00:00:00 | |
| DK7TD | 2026-09-02 12:08:35 | 48.57870 | 10.02970 | 100° | 11km/h | 25960m | 6.7m/s | -48.5°C | 0.3% | 23.3hPa | 2.6V | 18:12:15 | 01:39:38 | 00:00:00 | |
| DO3MHA-11 | 2026-09-02 12:08:35 | 48.57870 | 10.02970 | 100° | 7km/h | 25960m | 6.6m/s | -48.5°C | 3.5% | 23.2hPa | 2.6V | 00:00:00 | 01:39:38 | 00:00:00 | |
| IW2NTF | 2026-09-02 12:08:34 | 48.57879 | 10.02965 | 193° | 7km/h | 25924m | 6.7m/s | -48.7°C | 3.6% | 23.4hPa | 2.6V | 08:30:00 | 01:39:32 | 00:00:00 | |
| DK7TD | 2026-09-02 12:08:25 | 48.57881 | 10.02963 | 26° | 9km/h | 25899m | 6.2m/s | -48.7°C | 0.3% | 23.5hPa | 2.7V | 18:12:15 | 01:39:28 | 00:00:00 | |
| DO3MHA-11 | 2026-09-02 12:08:25 | 48.57881 | 10.02963 | 27° | 9km/h | 25900m | 6.1m/s | -48.7°C | 3.6% | 23.4hPa | 2.6V | 00:00:00 | 01:39:28 | 00:00:00 | |
| DF3TZ-5 | 2026-09-02 12:08:24 | 48.57876 | 10.02958 | 38° | 15km/h | 25889m | 6.0m/s | -48.9°C | 0.9% | 23.5hPa | 2.6V | 00:00:00 | 00:00:00 | 00:00:00 | |
| DO9LL-15 | 2026-09-02 12:08:23 | 48.57876 | 10.02958 | 39° | 11km/h | 25889m | 6.0m/s | -48.9°C | 3.6% | 23.5hPa | 2.6V | 00:00:00 | 01:39:26 | 08:30:00 | |
| DN1GJH-1 | 2026-09-02 12:08:22 | 48.57876 | 10.02958 | 39° | 15km/h | 25889m | 6.0m/s | -48.9°C | 0.9% | 23.5hPa | 2.7V | 00:00:00 | 00:00:00 | 00:00:00 | |
| IW2NTF | 2026-09-02 12:08:21 | 48.57869 | 10.02941 | 57° | 9km/h | 25865m | 6.8m/s | -48.9°C | 3.6% | 23.6hPa | 2.7V | 08:30:00 | 01:39:22 | 00:00:00 | |
| DK5PH-5 | 2026-09-02 12:08:20 | 48.57870 | 10.02945 | 66° | 9km/h | 25871m | 5.0m/s | -48.7°C | 3.6% | 23.6hPa | 2.7V | 00:00:00 | 01:39:23 | 00:00:00 | |
| DF7PN | 2026-09-02 12:08:18 | 48.57868 | 10.02940 | 22° | 4km/h | 25859m | 5.7m/s | -48.9°C | 0.9% | 23.6hPa | 2.7V | 00:00:00 | 00:00:00 | 00:00:00 | |
| OE5MMP-10 | 2026-09-02 12:08:17 | 48.57867 | 10.02940 | 326° | 7km/h | 25854m | 5.1m/s | -48.9°C | 3.6% | 23.6hPa | 2.7V | 00:00:00 | 01:39:20 | 00:00:00 | |
| OE5DXL-15 | 2026-09-02 12:08:16 | 48.57867 | 10.02940 | 258° | 9km/h | 25849m | 5.4m/s | -48.9°C | 3.6% | 23.6hPa | 2.7V | 00:00:00 | 00:00:00 | 00:00:00 | |
| DO3MHA-11 | 2026-09-02 12:08:15 | 48.57867 | 10.02942 | 212° | 9km/h | 25842m | 6.5m/s | -48.8°C | 3.6% | 23.6hPa | 2.7V | 00:00:00 | 01:39:18 | 08:30:00 | |
| IW2NTF | 2026-09-02 12:08:14 | 48.57866 | 10.02947 | 350° | 15km/h | 25809m | 5m/s | -48.9°C | 3.6% | 23.8hPa | 2.7V | 08:30:00 | 01:39:12 | 00:00:00 | |
| DK7TD | 2026-09-02 12:08:14 | 48.57869 | 10.02942 | 195° | 7km/h | 25836m | 5.7m/s | -48.9°C | 0.4% | 23.7hPa | 2.7V | 18:12:15 | 01:39:17 | 00:00:00 | |
| DK7TD | 2026-09-02 12:08:04 | 48.57849 | 10.02939 | 27° | 15km/h | 25780m | 6.5m/s | -48.8°C | 0.4% | 23.9hPa | 2.7V | 18:12:15 | 01:39:07 | 00:00:00 | |
| DK7TD | 2026-09-02 12:07:54 | 48.57836 | 10.02926 | 336° | 9km/h | 25721m | 6.5m/s | -48.8°C | 0.3% | 24.2hPa | 2.7V | 18:12:15 | 01:38:57 | 00:00:00 | |
| DF3TZ-5 | 2026-09-02 12:07:53 | 48.57832 | 10.02926 | 11° | 9km/h | 25710m | 5.2m/s | -49.0°C | 0.9% | 24.2hPa | 2.6V | 00:00:00 | 00:00:00 | 00:00:00 | |
| DF7PN | 2026-09-02 12:07:47 | 48.57819 | 10.02915 | 80° | 9km/h | 25681m | 6.6m/s | -49.2°C | 0.9% | 24.3hPa | 2.6V | 00:00:00 | 00:00:00 | 00:00:00 | |
| SONDE2-11 | 2026-09-02 12:07:45 | 48.57822 | 10.02906 | 151° | 5km/h | 25664m | 6.5m/s | -49.0°C | 0.9% | 24.4hPa | 2.6V | 00:00:00 | 00:00:00 | 00:00:00 | |
| DB0ND-19 | 2026-09-02 12:07:44 | 48.57822 | 10.02906 | 151° | 5km/h | 25664m | 6.5m/s | -49.0°C | 0.9% | 24.4hPa | 2.6V | 00:00:00 | 00:00:00 | 00:00:00 | |
| DK7TD | 2026-09-02 12:07:43 | 48.57824 | 10.02906 | 199° | 4km/h | 25657m | 5.5m/s | -49°C | 0.4% | 24.4hPa | 2.6V | 18:12:15 | 01:38:46 | 00:00:00 | |
| DO3MHA-12 | 2026-09-02 12:07:43 | 48.57824 | 10.02906 | 199° | 5km/h | 25658m | 5.4m/s | -48.9°C | 3.6% | 24.3hPa | 2.6V | 00:00:00 | 01:38:46 | 00:00:00 | |
| IW2NTF | 2026-09-02 12:07:41 | 48.57821 | 10.02914 | 345° | 9km/h | 25613m | 4.7m/s | -49.3°C | 3.8% | 24.5hPa | 2.6V | 08:30:00 | 01:38:38 | 00:00:00 | |
| DK7TD | 2026-09-02 12:07:33 | 48.57818 | 10.02915 | 124° | 2km/h | 25602m | 6.4m/s | -49.4°C | 0.5% | 24.6hPa | 2.7V | 18:12:15 | 01:38:36 | 00:00:00 | |
| DO3MHA-12 | 2026-09-02 12:07:33 | 48.57818 | 10.02914 | 125° | 13km/h | 25602m | 6.4m/s | -49.4°C | 3.8% | 24.6hPa | 2.7V | 00:00:00 | 01:38:36 | 00:00:00 | |
| DL9SK-14 | 2026-09-02 12:07:32 | 48.57822 | 10.02914 | 178° | 9km/h | 25591m | 5.2m/s | -49.6°C | 1.0% | 24.6hPa | 2.7V | 00:00:00 | 00:00:00 | 00:00:00 | |
| NBG1-10 | 2026-09-02 12:07:31 | 48.57821 | 10.02914 | 179° | 9km/h | 25591m | 5.2m/s | -49.5°C | 3.8% | 24.6hPa | 2.7V | 00:00:00 | 01:38:34 | 00:00:00 | |
| DL6DJ-15 | 2026-09-02 12:07:29 | 48.57828 | 10.02916 | 200° | 13km/h | 25579m | 5.8m/s | -49.5°C | 1.0% | 24.7hPa | 2.7V | 00:00:00 | 00:00:00 | 00:00:00 | |
| IW2NTF | 2026-09-02 12:07:28 | 48.57842 | 10.02925 | 207° | 16km/h | 25556m | 4.7m/s | -49.2°C | 3.7% | 24.8hPa | 2.7V | 08:30:00 | 01:38:28 | 00:00:00 | |
| DK7TD | 2026-09-02 12:07:23 | 48.57848 | 10.02932 | 237° | 13km/h | 25544m | 5.9m/s | -49.1°C | 0.4% | 24.8hPa | 2.7V | 18:12:15 | 01:38:26 | 00:00:00 | |
| DO3MHA-12 | 2026-09-02 12:07:23 | 48.57848 | 10.02932 | 238° | 9km/h | 25544m | 5.8m/s | -49.0°C | 3.6% | 24.8hPa | 2.6V | 00:00:00 | 01:38:26 | 00:00:00 | |
| DF3TZ-5 | 2026-09-02 12:07:21 | 48.57851 | 10.02939 | 223° | 7km/h | 25533m | 6.2m/s | -49.0°C | 0.9% | 24.9hPa | 2.6V | 00:00:00 | 00:00:00 | 00:00:00 | |
| DK5PH-5 | 2026-09-02 12:07:20 | 48.57853 | 10.02940 | 188° | 7km/h | 25527m | 6.0m/s | -49.0°C | 3.6% | 24.8hPa | 2.6V | 00:00:00 | 01:38:23 | 00:00:00 | |
| DF1GD-15 | 2026-09-02 12:07:19 | 48.57853 | 10.02940 | 189° | 9km/h | 25527m | 6.0m/s | -49.0°C | 0.9% | 24.9hPa | 2.6V | 00:00:00 | 00:00:00 | 00:00:00 | |
| DN1GJH-1 | 2026-09-02 12:07:18 | 48.57855 | 10.02940 | 166° | 11km/h | 25522m | 4.9m/s | -49.0°C | 1.0% | 24.9hPa | 2.6V | 00:00:00 | 00:00:00 | 00:00:00 | |
| IW2NTF | 2026-09-02 12:07:16 | 48.57865 | 10.02936 | 185° | 5km/h | 25499m | 5.5m/s | -48.9°C | 3.7% | 25hPa | 2.6V | 08:30:00 | 01:38:18 | 00:00:00 | |
| DK7TD | 2026-09-02 12:07:12 | 48.57870 | 10.02938 | 188° | 9km/h | 25481m | 5.9m/s | -48.9°C | 0.3% | 25hPa | 2.7V | 18:12:15 | 01:38:15 | 00:00:00 | |
| DB0UT-7 | 2026-09-02 12:07:10 | 48.57874 | 10.02940 | 229° | 7km/h | 25470m | 6.6m/s | -48.9°C | 3.5% | 25.1hPa | 2.6V | 00:00:00 | 01:38:13 | 08:30:00 | |
| DJ8HS-15 | 2026-09-02 12:07:08 | 48.57875 | 10.02945 | 260° | 5km/h | 25459m | 4.4m/s | -48.9°C | 3.5% | 25.1hPa | 2.6V | 00:00:00 | 01:38:11 | 00:00:00 | |
| IW2NTF | 2026-09-02 12:07:07 | 48.57880 | 10.02951 | 189° | 5km/h | 25436m | 6.4m/s | -48.8°C | 3.6% | 25.2hPa | 2.6V | 08:30:00 | 01:38:07 | 00:00:00 | |
| DK7TD | 2026-09-02 12:07:01 | 48.57883 | 10.02949 | 139° | 9km/h | 25420m | 5.5m/s | -48.8°C | 0.3% | 25.3hPa | 2.7V | 18:12:15 | 01:38:04 | 00:00:00 | |
| DL9SK-14 | 2026-09-02 12:07:01 | 48.57885 | 10.02947 | 136° | 11km/h | 25414m | 6.5m/s | -48.8°C | 0.9% | 25.3hPa | 2.6V | 00:00:00 | 00:00:00 | 00:00:00 | |
| DM7RM-13 | 2026-09-02 12:07:00 | 48.57883 | 10.02949 | 140° | 9km/h | 25420m | 5.5m/s | -48.8°C | 0.9% | 25.3hPa | 2.6V | 00:00:00 | 00:00:00 | 00:00:00 | |
| NBG1-10 | 2026-09-02 12:06:58 | 48.57890 | 10.02939 | 130° | 5km/h | 25404m | 4.6m/s | -48.9°C | 3.6% | 25.3hPa | 2.6V | 00:00:00 | 01:38:01 | 00:00:00 | |
| IW2NTF | 2026-09-02 12:06:57 | 48.57890 | 10.02932 | 346° | 4km/h | 25381m | 5.8m/s | -49.1°C | 3.5% | 25.4hPa | 2.7V | 08:30:00 | 01:37:57 | 00:00:00 | |
| DK7TD | 2026-09-02 12:06:51 | 48.57889 | 10.02934 | 242° | 2km/h | 25365m | 5.4m/s | -49.5°C | 0.4% | 25.5hPa | 2.6V | 18:12:15 | 01:37:54 | 00:00:00 | |
| DK5PH-5 | 2026-09-02 12:06:50 | 48.57889 | 10.02934 | 46° | 5km/h | 25359m | 5.8m/s | -49.5°C | 3.6% | 25.5hPa | 2.6V | 00:00:00 | 01:37:53 | 00:00:00 | |
| IW2NTF | 2026-09-02 12:06:49 | 48.57895 | 10.02927 | 148° | 11km/h | 25326m | 5.5m/s | -49.6°C | 3.8% | 25.6hPa | 2.6V | 08:30:00 | 01:37:47 | 00:00:00 | |
| DF7PN | 2026-09-02 12:06:45 | 48.57892 | 10.02929 | 155° | 9km/h | 25332m | 5.4m/s | -49.6°C | 1.0% | 25.6hPa | 2.7V | 00:00:00 | 00:00:00 | 00:00:00 | |
| DK7TD | 2026-09-02 12:06:41 | 48.57899 | 10.02918 | 116° | 9km/h | 25309m | 4.6m/s | -49.9°C | 0.5% | 25.7hPa | 2.7V | 18:12:15 | 01:37:44 | 00:00:00 | |
| DB0UT-7 | 2026-09-02 12:06:40 | 48.57901 | 10.02915 | 130° | 7km/h | 25304m | 6.1m/s | -49.9°C | 3.7% | 25.7hPa | 2.7V | 00:00:00 | 00:00:00 | 00:00:00 | |
| IW2NTF | 2026-09-02 12:06:39 | 48.57903 | 10.02912 | 4° | 2km/h | 25271m | 5.6m/s | -49.7°C | 3.7% | 25.9hPa | 2.7V | 08:30:00 | 01:37:37 | 00:00:00 | |
| DK7TD | 2026-09-02 12:06:30 | 48.57906 | 10.02909 | 120° | 7km/h | 25250m | 6m/s | -49.8°C | 0.5% | 26hPa | 2.6V | 18:12:15 | 01:37:33 | 00:00:00 | |
| DK7TD | 2026-09-02 12:06:19 | 48.57904 | 10.02887 | 327° | 7km/h | 25190m | 6.2m/s | -49.8°C | 0.4% | 26.2hPa | 2.6V | 18:12:15 | 01:37:22 | 00:00:00 | |
| DK7TD | 2026-09-02 12:06:08 | 48.57893 | 10.02849 | 50° | 13km/h | 25130m | 5.3m/s | -50.1°C | 0.5% | 26.4hPa | 2.7V | 18:12:15 | 01:37:11 | 00:00:00 | |
| DK7TD | 2026-09-02 12:05:58 | 48.57874 | 10.02854 | 143° | 5km/h | 25076m | 4.7m/s | -50°C | 0.5% | 26.6hPa | 2.6V | 18:12:15 | 01:37:01 | 00:00:00 | |
| BAUMI2-15 | 2026-09-02 12:05:57 | 48.57875 | 10.02852 | 136° | 5km/h | 25071m | 5.8m/s | -50.0°C | 3.9% | 26.6hPa | 2.7V | 00:00:00 | 01:37:00 | 08:30:00 | |
| IW2NTF | 2026-09-02 12:05:56 | 48.57877 | 10.02846 | 139° | 2km/h | 25054m | 4.8m/s | -50.2°C | 4% | 26.7hPa | 2.6V | 08:30:00 | 01:36:57 | 00:00:00 | |
| DK7TD | 2026-09-02 12:05:48 | 48.57875 | 10.02865 | 294° | 13km/h | 25020m | 4.5m/s | -50.2°C | 0.5% | 26.9hPa | 2.6V | 18:12:15 | 01:36:51 | 00:00:00 | |
| DJ8HS-15 | 2026-09-02 12:05:48 | 48.57875 | 10.02865 | 294° | 9km/h | 25021m | 4.5m/s | -50.1°C | 3.9% | 26.8hPa | 2.6V | 00:00:00 | 01:36:51 | 08:30:00 | |
| BAUMI2-15 | 2026-09-02 12:05:47 | 48.57874 | 10.02869 | 284° | 7km/h | 25016m | 5.9m/s | 0°C | 0% | 0hPa | 2.6V | 00:00:00 | 01:36:50 | 00:00:00 | |
| IW2NTF | 2026-09-02 12:05:46 | 48.57875 | 10.02879 | 239° | 5km/h | 24999m | 6.1m/s | -50°C | 3.8% | 27hPa | 2.6V | 08:30:00 | 01:36:47 | 00:00:00 | |
| AZAK | 2026-09-02 12:05:45 | 48.57874 | 10.02873 | 267° | 11km/h | 25010m | 5.3m/s | -50.1°C | 1.0% | 26.9hPa | 2.6V | 00:00:00 | 00:00:00 | 00:00:00 | |
| DO3MHA-12 | 2026-09-02 12:05:43 | 48.57876 | 10.02880 | 199° | 9km/h | 24994m | 5.6m/s | -49.8°C | 3.7% | 26.9hPa | 2.6V | 00:00:00 | 01:36:46 | 08:30:00 | |
| BAUMI2-15 | 2026-09-02 12:05:42 | 48.57877 | 10.02880 | 169° | 9km/h | 24988m | 4.5m/s | 0°C | 0% | 0hPa | 2.6V | 00:00:00 | 01:36:45 | 00:00:00 | |
| DB0ND-19 | 2026-09-02 12:05:41 | 48.57880 | 10.02880 | 192° | 9km/h | 24977m | 6.6m/s | -49.7°C | 0.9% | 27.1hPa | 2.6V | 00:00:00 | 00:00:00 | 00:00:00 | |
| DB0UT-7 | 2026-09-02 12:05:40 | 48.57880 | 10.02880 | 193° | 11km/h | 24977m | 6.5m/s | -49.6°C | 3.7% | 27.0hPa | 2.6V | 00:00:00 | 00:00:00 | 00:00:00 | |
| IW2NTF | 2026-09-02 12:05:39 | 48.57891 | 10.02898 | 270° | 9km/h | 24945m | 5.2m/s | -49.6°C | 3.8% | 27.2hPa | 2.6V | 08:30:00 | 01:36:37 | 00:00:00 | |
| DK7TD | 2026-09-02 12:05:37 | 48.57888 | 10.02888 | 227° | 13km/h | 24962m | 5.4m/s | -49.7°C | 0.5% | 27.1hPa | 2.7V | 18:12:15 | 01:36:40 | 00:00:00 | |
| DK7TD | 2026-09-02 12:05:26 | 48.57899 | 10.02920 | 212° | 13km/h | 24901m | 6m/s | -49.6°C | 0.4% | 27.4hPa | 2.7V | 18:12:15 | 01:36:29 | 00:00:00 | |
| OE5MMP-10 | 2026-09-02 12:05:26 | 48.57899 | 10.02919 | 212° | 11km/h | 24901m | 6.0m/s | -49.5°C | 3.7% | 27.3hPa | 2.7V | 00:00:00 | 01:36:29 | 00:00:00 | |
| IW2NTF | 2026-09-02 12:05:25 | 48.57905 | 10.02926 | 224° | 15km/h | 24891m | 4.5m/s | -49.4°C | 3.7% | 27.4hPa | 2.7V | 08:30:00 | 01:36:27 | 00:00:00 | |
| DK7TD | 2026-09-02 12:05:16 | 48.57920 | 10.02952 | 237° | 18km/h | 24847m | 4.5m/s | -49.8°C | 0.4% | 27.6hPa | 2.7V | 18:12:15 | 01:36:19 | 00:00:00 | |
| OE5MMP-10 | 2026-09-02 12:05:16 | 48.57920 | 10.02951 | 237° | 15km/h | 24847m | 4.5m/s | -49.7°C | 3.7% | 27.5hPa | 2.7V | 00:00:00 | 01:36:19 | 00:00:00 | |
| DN1GJH-1 | 2026-09-02 12:05:15 | 48.57920 | 10.02951 | 238° | 18km/h | 24847m | 4.5m/s | -49.8°C | 0.9% | 27.6hPa | 2.7V | 00:00:00 | 00:00:00 | 00:00:00 | |
| IW2NTF | 2026-09-02 12:05:13 | 48.57930 | 10.02971 | 191° | 5km/h | 24813m | 5.2m/s | -49.8°C | 3.8% | 27.8hPa | 2.7V | 08:30:00 | 01:36:13 | 00:00:00 | |
| DO3MHA-12 | 2026-09-02 12:05:13 | 48.57925 | 10.02965 | 238° | 7km/h | 24830m | 5.1m/s | -49.7°C | 3.7% | 27.6hPa | 2.6V | 00:00:00 | 01:36:16 | 00:00:00 | |
| DF7PN | 2026-09-02 12:05:12 | 48.57928 | 10.02970 | 217° | 7km/h | 24818m | 5.4m/s | -49.8°C | 0.9% | 27.7hPa | 2.6V | 00:00:00 | 00:00:00 | 00:00:00 | |
| DB0UT-7 | 2026-09-02 12:05:10 | 48.57929 | 10.02971 | 192° | 9km/h | 24813m | 5.1m/s | -49.7°C | 3.8% | 27.7hPa | 2.6V | 00:00:00 | 01:36:13 | 00:00:00 | |
| DB0ND-19 | 2026-09-02 12:05:09 | 48.57931 | 10.02971 | 158° | 5km/h | 24807m | 6.8m/s | -49.7°C | 0.9% | 27.8hPa | 2.6V | 00:00:00 | 00:00:00 | 00:00:00 | |
| DJ8HS-15 | 2026-09-02 12:05:08 | 48.57932 | 10.02969 | 133° | 7km/h | 24800m | 5.9m/s | -49.6°C | 3.7% | 27.7hPa | 2.6V | 00:00:00 | 01:36:11 | 00:00:00 | |
| BAUMI2-15 | 2026-09-02 12:05:07 | 48.57933 | 10.02968 | 149° | 9km/h | 24795m | 5.1m/s | 0°C | 0% | 0hPa | 2.6V | 00:00:00 | 01:36:10 | 00:00:00 | |
| PG1ADW-2 | 2026-09-02 12:05:06 | 48.57935 | 10.02967 | 177° | 9km/h | 24789m | 6.4m/s | -49.6°C | 3.7% | 27.8hPa | 2.6V | 00:00:00 | 01:36:09 | 00:00:00 | |
| DK7TD | 2026-09-02 12:05:06 | 48.57935 | 10.02967 | 176° | 7km/h | 24789m | 6.4m/s | -49.6°C | 0.4% | 27.9hPa | 2.6V | 18:12:15 | 01:36:09 | 00:00:00 | |
| IW2NTF | 2026-09-02 12:05:05 | 48.57946 | 10.02982 | 244° | 11km/h | 24755m | 6.3m/s | -49.6°C | 3.8% | 28hPa | 2.7V | 08:30:00 | 01:36:03 | 00:00:00 | |
| DK7TD | 2026-09-02 12:04:55 | 48.57950 | 10.02992 | 75° | 4km/h | 24728m | 5.8m/s | -49.8°C | 0.4% | 28.1hPa | 2.6V | 18:12:15 | 01:35:58 | 00:00:00 | |
| DK7TD | 2026-09-02 12:04:45 | 48.57970 | 10.02996 | 191° | 15km/h | 24670m | 4.7m/s | -49.7°C | 0.4% | 28.4hPa | 2.7V | 18:12:15 | 01:35:48 | 00:00:00 | |
| AZAK | 2026-09-02 12:04:43 | 48.57977 | 10.02995 | 159° | 11km/h | 24660m | 7.0m/s | -49.7°C | 0.9% | 28.4hPa | 2.6V | 00:00:00 | 00:00:00 | 00:00:00 | |
| BAUMI2-15 | 2026-09-02 12:04:42 | 48.57978 | 10.02993 | 126° | 15km/h | 24653m | 6.0m/s | 0°C | 0% | 0hPa | 2.6V | 00:00:00 | 01:35:45 | 00:00:00 | |
| DB0UT-7 | 2026-09-02 12:04:40 | 48.57981 | 10.02985 | 118° | 15km/h | 24641m | 6.8m/s | -49.6°C | 3.6% | 28.5hPa | 2.6V | 00:00:00 | 00:00:00 | 00:00:00 | |
| SONDE2-11 | 2026-09-02 12:04:39 | 48.57985 | 10.02976 | 130° | 13km/h | 24630m | 4.6m/s | -49.8°C | 0.9% | 28.6hPa | 2.6V | 00:00:00 | 00:00:00 | 00:00:00 | |
| DB0ND-19 | 2026-09-02 12:04:38 | 48.57985 | 10.02976 | 130° | 13km/h | 24630m | 4.6m/s | -49.8°C | 0.9% | 28.6hPa | 2.6V | 00:00:00 | 00:00:00 | 00:00:00 | |
| DO9HM | 2026-09-02 12:04:36 | 48.57988 | 10.02973 | 132° | 13km/h | 24625m | 5.6m/s | -50.0°C | 1.0% | 28.6hPa | 2.6V | 00:00:00 | 00:00:00 | 00:00:00 | |
| IW2NTF | 2026-09-02 12:04:35 | 48.58006 | 10.02962 | 168° | 15km/h | 24584m | 6.3m/s | -50.3°C | 3.7% | 28.7hPa | 2.6V | 08:30:00 | 01:35:33 | 00:00:00 | |
| DK7TD | 2026-09-02 12:04:34 | 48.57992 | 10.02965 | 151° | 9km/h | 24608m | 4.8m/s | -50.1°C | 0.3% | 28.6hPa | 2.7V | 18:12:15 | 01:35:37 | 00:00:00 | |
| DO3MHA-12 | 2026-09-02 12:04:33 | 48.57995 | 10.02963 | 168° | 15km/h | 24602m | 6.5m/s | -50.1°C | 3.7% | 28.6hPa | 2.6V | 00:00:00 | 01:35:36 | 00:00:00 | |
| DF1GD-15 | 2026-09-02 12:04:32 | 48.57995 | 10.02963 | 168° | 11km/h | 24602m | 6.5m/s | -50.2°C | 1.0% | 28.7hPa | 2.6V | 00:00:00 | 00:00:00 | 00:00:00 | |
| DH7VM-15 | 2026-09-02 12:04:31 | 48.57998 | 10.02963 | 178° | 15km/h | 24596m | 6.2m/s | -50.3°C | 0.9% | 28.7hPa | 2.6V | 00:00:00 | 00:00:00 | 00:00:00 | |
| DJ8HS-15 | 2026-09-02 12:04:28 | 48.58012 | 10.02957 | 135° | 16km/h | 24572m | 4.9m/s | -50.3°C | 3.8% | 28.7hPa | 2.6V | 00:00:00 | 01:35:31 | 00:00:00 | |
| DL9SK-14 | 2026-09-02 12:04:26 | 48.58019 | 10.02943 | 118° | 16km/h | 24555m | 5.2m/s | -50.6°C | 1.0% | 28.9hPa | 2.6V | 00:00:00 | 00:00:00 | 00:00:00 | |
| IW2NTF | 2026-09-02 12:04:24 | 48.58023 | 10.02916 | 122° | 13km/h | 24526m | 6.7m/s | -50.4°C | 3.9% | 29hPa | 2.6V | 08:30:00 | 01:35:23 | 00:00:00 | |
| DK7TD | 2026-09-02 12:04:24 | 48.58021 | 10.02937 | 108° | 16km/h | 24550m | 6.1m/s | -50.6°C | 0.5% | 28.9hPa | 2.6V | 18:12:15 | 01:35:27 | 00:00:00 | |
| DO9LL-15 | 2026-09-02 12:04:23 | 48.58022 | 10.02931 | 97° | 16km/h | 24543m | 6.4m/s | -50.6°C | 3.9% | 28.9hPa | 2.6V | 00:00:00 | 01:35:26 | 00:00:00 | |
| DJTTGO | 2026-09-02 12:04:22 | 48.58021 | 10.02931 | 97° | 16km/h | 24543m | 6.5m/s | -50.6°C | 1.0% | 29.0hPa | 2.6V | 00:00:00 | 00:00:00 | 00:00:00 | |
| DK5PH-5 | 2026-09-02 12:04:20 | 48.58023 | 10.02916 | 123° | 16km/h | 24527m | 6.7m/s | -50.4°C | 3.9% | 28.9hPa | 2.6V | 00:00:00 | 01:35:23 | 00:00:00 | |
| OE5DRO-10 | 2026-09-02 12:04:16 | 48.58036 | 10.02899 | 129° | 16km/h | 24504m | 5.8m/s | -50.4°C | 3.7% | 29.1hPa | 2.6V | 00:00:00 | 00:00:00 | 00:00:00 | |
| DF3TZ-5 | 2026-09-02 12:04:15 | 48.58039 | 10.02893 | 123° | 18km/h | 24498m | 5.1m/s | -50.5°C | 0.9% | 29.1hPa | 2.6V | 00:00:00 | 00:00:00 | 00:00:00 | |
| IW2NTF | 2026-09-02 12:04:14 | 48.58049 | 10.02864 | 101° | 20km/h | 24469m | 6.7m/s | -50.7°C | 3.8% | 29.3hPa | 2.6V | 08:30:00 | 01:35:13 | 00:00:00 | |
| DK7TD | 2026-09-02 12:04:13 | 48.58044 | 10.02882 | 126° | 18km/h | 24487m | 6.1m/s | -50.6°C | 0.4% | 29.2hPa | 2.7V | 18:12:15 | 01:35:16 | 00:00:00 | |
| DO9HM | 2026-09-02 12:04:13 | 48.58044 | 10.02882 | 127° | 18km/h | 24487m | 6.1m/s | -50.6°C | 1.0% | 29.2hPa | 2.7V | 00:00:00 | 00:00:00 | 00:00:00 | |
| OE5WHR-10 | 2026-09-02 12:04:12 | 48.58046 | 10.02876 | 120° | 16km/h | 24481m | 4.9m/s | -50.5°C | 3.7% | 29.2hPa | 2.7V | 00:00:00 | 01:35:15 | 00:00:00 | |
| DF7PN | 2026-09-02 12:04:10 | 48.58050 | 10.02856 | 98° | 20km/h | 24463m | 5.5m/s | -50.7°C | 0.9% | 29.3hPa | 2.7V | 00:00:00 | 00:00:00 | 00:00:00 | |
| SONDE2-11 | 2026-09-02 12:04:08 | 48.58052 | 10.02842 | 110° | 16km/h | 24451m | 6.3m/s | -50.7°C | 1.0% | 29.4hPa | 2.7V | 00:00:00 | 00:00:00 | 00:00:00 | |
| DB0ND-19 | 2026-09-02 12:04:07 | 48.58052 | 10.02842 | 110° | 16km/h | 24451m | 6.3m/s | -50.7°C | 1.0% | 29.4hPa | 2.7V | 00:00:00 | 00:00:00 | 00:00:00 | |
| PG1ADW-2 | 2026-09-02 12:04:06 | 48.58054 | 10.02836 | 121° | 15km/h | 24446m | 5.1m/s | -50.7°C | 3.9% | 29.3hPa | 2.7V | 00:00:00 | 00:00:00 | 08:30:00 | |
| IW2NTF | 2026-09-02 12:04:05 | 48.58068 | 10.02807 | 137° | 9km/h | 24411m | 5.1m/s | -50.9°C | 3.9% | 29.5hPa | 2.6V | 08:30:00 | 01:35:03 | 00:00:00 | |
| DK7TD | 2026-09-02 12:04:02 | 48.58063 | 10.02814 | 127° | 15km/h | 24423m | 5.5m/s | -50.9°C | 0.6% | 29.5hPa | 2.7V | 18:12:15 | 01:35:05 | 00:00:00 | |
| OE5DRO-10 | 2026-09-02 12:03:57 | 48.58069 | 10.02797 | 84° | 15km/h | 24394m | 5.6m/s | -50.9°C | 3.8% | 29.6hPa | 2.7V | 00:00:00 | 00:00:00 | 00:00:00 | |
| IW2NTF | 2026-09-02 12:03:55 | 48.58072 | 10.02753 | 97° | 16km/h | 24355m | 6.2m/s | -51°C | 4% | 29.8hPa | 2.7V | 08:30:00 | 01:34:53 | 00:00:00 | |
| DK7TD | 2026-09-02 12:03:52 | 48.58070 | 10.02765 | 108° | 15km/h | 24367m | 5.3m/s | -51°C | 0.5% | 29.7hPa | 2.6V | 18:12:15 | 01:34:55 | 00:00:00 | |
| DO9LL-15 | 2026-09-02 12:03:52 | 48.58070 | 10.02765 | 108° | 13km/h | 24367m | 5.3m/s | 0°C | 0% | 0hPa | 2.7V | 00:00:00 | 01:34:55 | 08:30:00 | |
| OE5WHR-10 | 2026-09-02 12:03:51 | 48.58071 | 10.02760 | 107° | 13km/h | 24362m | 5.7m/s | -51.0°C | 4.0% | 29.7hPa | 2.7V | 00:00:00 | 00:00:00 | 00:00:00 | |
| DK5PH-5 | 2026-09-02 12:03:50 | 48.58072 | 10.02753 | 98° | 13km/h | 24356m | 6.1m/s | -51.0°C | 4.0% | 29.7hPa | 2.7V | 00:00:00 | 01:34:53 | 00:00:00 | |
| DJ8HS-15 | 2026-09-02 12:03:48 | 48.58072 | 10.02741 | 80° | 13km/h | 24345m | 4.7m/s | -51.0°C | 4.0% | 29.8hPa | 2.6V | 00:00:00 | 01:34:51 | 00:00:00 | |
| OE5DXL-15 | 2026-09-02 12:03:46 | 48.58070 | 10.02733 | 61° | 13km/h | 24333m | 5.8m/s | -51.1°C | 4.0% | 29.8hPa | 2.7V | 00:00:00 | 00:00:00 | 00:00:00 | |
| IW2NTF | 2026-09-02 12:03:43 | 48.58067 | 10.02706 | 100° | 16km/h | 24299m | 6.3m/s | -51°C | 3.9% | 30hPa | 2.7V | 08:30:00 | 01:34:43 | 00:00:00 | |
| DK7TD | 2026-09-02 12:03:42 | 48.58066 | 10.02718 | 86° | 16km/h | 24311m | 5.5m/s | -50.9°C | 0.5% | 30hPa | 2.7V | 18:12:15 | 01:34:45 | 00:00:00 | |
| AZAK | 2026-09-02 12:03:41 | 48.58067 | 10.02718 | 87° | 16km/h | 24311m | 5.5m/s | -50.9°C | 1.0% | 30.0hPa | 2.6V | 00:00:00 | 00:00:00 | 00:00:00 | |
| DB0UT-7 | 2026-09-02 12:03:40 | 48.58067 | 10.02706 | 101° | 13km/h | 24299m | 6.3m/s | -51.0°C | 3.9% | 30.0hPa | 2.6V | 00:00:00 | 00:00:00 | 00:00:00 | |
| OE5DRO-10 | 2026-09-02 12:03:38 | 48.58069 | 10.02694 | 103° | 13km/h | 24288m | 5.9m/s | -51.1°C | 3.9% | 30.1hPa | 2.6V | 00:00:00 | 00:00:00 | 00:00:00 | |
| DB0ND-19 | 2026-09-02 12:03:36 | 48.58070 | 10.02681 | 93° | 16km/h | 24277m | 4.2m/s | -51.0°C | 1.0% | 30.1hPa | 2.6V | 00:00:00 | 00:00:00 | 00:00:00 | |
| DB0NH | 2026-09-02 12:03:35 | 48.58070 | 10.02675 | 94° | 15km/h | 24272m | 5.0m/s | -51.0°C | 3.9% | 30.1hPa | 2.6V | 00:00:00 | 01:34:38 | 00:00:00 | |
| IW2NTF | 2026-09-02 12:03:33 | 48.58068 | 10.02663 | 51° | 11km/h | 24243m | 6.4m/s | -51°C | 3.9% | 30.3hPa | 2.6V | 08:30:00 | 01:34:33 | 00:00:00 | |
| DK7TD | 2026-09-02 12:03:31 | 48.58070 | 10.02665 | 47° | 5km/h | 24249m | 5.3m/s | -51.1°C | 0.5% | 30.3hPa | 2.6V | 18:12:15 | 01:34:34 | 00:00:00 | |
| OE5WHR-10 | 2026-09-02 12:03:30 | 48.58068 | 10.02663 | 52° | 11km/h | 24244m | 6.4m/s | -50.9°C | 3.9% | 30.2hPa | 2.7V | 00:00:00 | 00:00:00 | 00:00:00 | |
| DN1GJH-1 | 2026-09-02 12:03:29 | 48.58068 | 10.02663 | 53° | 11km/h | 24244m | 6.4m/s | -51.0°C | 1.0% | 30.3hPa | 2.7V | 00:00:00 | 00:00:00 | 00:00:00 | |
| DJ8HS-15 | 2026-09-02 12:03:28 | 48.58064 | 10.02653 | 60° | 15km/h | 24233m | 5.0m/s | -50.8°C | 3.9% | 30.3hPa | 2.7V | 00:00:00 | 01:34:31 | 00:00:00 | |
| PG1ADW-2 | 2026-09-02 12:03:26 | 48.58061 | 10.02643 | 71° | 15km/h | 24222m | 5.4m/s | -50.9°C | 3.9% | 30.4hPa | 2.7V | 00:00:00 | 00:00:00 | 00:00:00 | |
| IW2NTF | 2026-09-02 12:03:23 | 48.58054 | 10.02611 | 72° | 9km/h | 24188m | 6.1m/s | -51.2°C | 3.9% | 30.6hPa | 2.7V | 08:30:00 | 01:34:23 | 00:00:00 | |
| DK7TD | 2026-09-02 12:03:20 | 48.58054 | 10.02611 | 73° | 9km/h | 24188m | 6.1m/s | -51.2°C | 0.5% | 30.6hPa | 2.7V | 18:12:15 | 01:34:23 | 00:00:00 | |
| DK5PH-5 | 2026-09-02 12:03:20 | 48.58054 | 10.02611 | 73° | 16km/h | 24188m | 6.0m/s | -51.1°C | 3.9% | 30.5hPa | 2.6V | 00:00:00 | 01:34:23 | 00:00:00 | |
| OE5DRO-10 | 2026-09-02 12:03:19 | 48.58053 | 10.02608 | 76° | 16km/h | 24183m | 4.5m/s | -51.1°C | 3.8% | 30.6hPa | 2.6V | 00:00:00 | 00:00:00 | 00:00:00 | |
| OE5DXL-15 | 2026-09-02 12:03:16 | 48.58050 | 10.02599 | 55° | 18km/h | 24166m | 5.4m/s | -51.2°C | 3.8% | 30.6hPa | 2.6V | 00:00:00 | 00:00:00 | 00:00:00 | |
| DO3MHA-12 | 2026-09-02 12:03:13 | 48.58042 | 10.02586 | 46° | 18km/h | 24149m | 5.0m/s | -51.1°C | 3.8% | 30.7hPa | 2.6V | 00:00:00 | 01:34:16 | 00:00:00 | |
| IW2NTF | 2026-09-02 12:03:11 | 48.58032 | 10.02570 | 45° | 24km/h | 24132m | 5.2m/s | -51.3°C | 3.9% | 30.8hPa | 2.6V | 08:30:00 | 01:34:13 | 00:00:00 | |
| DK7TD | 2026-09-02 12:03:09 | 48.58028 | 10.02564 | 47° | 22km/h | 24127m | 3.9m/s | -51.3°C | 0.5% | 30.9hPa | 2.7V | 18:12:15 | 01:34:12 | 00:00:00 | |
| DO9HM | 2026-09-02 12:03:09 | 48.58028 | 10.02564 | 48° | 22km/h | 24128m | 3.9m/s | -51.3°C | 1.0% | 30.8hPa | 2.6V | 00:00:00 | 00:00:00 | 00:00:00 | |
| DJ8HS-15 | 2026-09-02 12:03:08 | 48.58024 | 10.02558 | 47° | 18km/h | 24123m | 5.9m/s | -51.4°C | 3.9% | 30.8hPa | 2.6V | 00:00:00 | 01:34:11 | 00:00:00 | |
| NBG1-10 | 2026-09-02 12:03:07 | 48.58021 | 10.02553 | 48° | 20km/h | 24117m | 5.6m/s | -51.5°C | 3.9% | 30.9hPa | 2.6V | 00:00:00 | 01:34:10 | 00:00:00 | |
| PG1ADW-2 | 2026-09-02 12:03:06 | 48.58018 | 10.02548 | 54° | 18km/h | 24112m | 4.8m/s | -51.6°C | 3.9% | 30.9hPa | 2.6V | 00:00:00 | 00:00:00 | 00:00:00 | |
| DB0NH | 2026-09-02 12:03:05 | 48.58016 | 10.02543 | 57° | 20km/h | 24106m | 6.1m/s | -51.6°C | 3.9% | 30.9hPa | 2.6V | 00:00:00 | 01:34:08 | 00:00:00 | |
| DO3MHA-12 | 2026-09-02 12:03:03 | 48.58011 | 10.02531 | 61° | 18km/h | 24095m | 4.8m/s | -51.6°C | 3.9% | 31.0hPa | 2.6V | 00:00:00 | 01:34:06 | 00:00:00 | |
| IW2NTF | 2026-09-02 12:03:02 | 48.58003 | 10.02512 | 55° | 18km/h | 24077m | 4.9m/s | -52.1°C | 3.9% | 31.1hPa | 2.6V | 08:30:00 | 01:34:03 | 00:00:00 | |
| DK7TD | 2026-09-02 12:02:59 | 48.58000 | 10.02506 | 53° | 22km/h | 24072m | 6.6m/s | -52.1°C | 0.6% | 31.1hPa | 2.6V | 18:12:15 | 01:34:02 | 00:00:00 | |
| IW2NTF | 2026-09-02 12:02:55 | 48.57979 | 10.02453 | 62° | 24km/h | 24025m | 4.4m/s | -52.7°C | 4.2% | 31.4hPa | 2.7V | 08:30:00 | 01:33:53 | 00:00:00 | |
| DK7TD | 2026-09-02 12:02:49 | 48.57977 | 10.02445 | 63° | 24km/h | 24019m | 6.2m/s | -52.8°C | 0.7% | 31.4hPa | 2.7V | 18:12:15 | 01:33:52 | 00:00:00 | |
| DJ8HS-15 | 2026-09-02 12:02:49 | 48.57974 | 10.02437 | 65° | 20km/h | 24014m | 5.1m/s | -52.9°C | 4.3% | 31.3hPa | 2.7V | 00:00:00 | 01:33:51 | 08:30:00 | |
| IW2NTF | 2026-09-02 12:02:46 | 48.57941 | 10.02396 | 29° | 18km/h | 23970m | 6.1m/s | -53.2°C | 4.3% | 31.6hPa | 2.6V | 08:30:00 | 01:33:43 | 00:00:00 | |
| DK7TD | 2026-09-02 12:02:38 | 48.57932 | 10.02388 | 35° | 18km/h | 23959m | 4.5m/s | -53.2°C | 0.7% | 31.7hPa | 2.6V | 18:12:15 | 01:33:41 | 00:00:00 | |
| DF7PN | 2026-09-02 12:02:38 | 48.57926 | 10.02380 | 40° | 13km/h | 23948m | 6.0m/s | -53.1°C | 1.1% | 31.8hPa | 2.6V | 00:00:00 | 00:00:00 | 00:00:00 | |
| IW2NTF | 2026-09-02 12:02:36 | 48.57904 | 10.02357 | 32° | 18km/h | 23916m | 6m/s | -53.1°C | 4.5% | 31.9hPa | 2.6V | 08:30:00 | 01:33:33 | 00:00:00 | |
| DK7TD | 2026-09-02 12:02:27 | 48.57893 | 10.02348 | 22° | 16km/h | 23900m | 5.8m/s | -53.3°C | 0.8% | 31.9hPa | 2.7V | 18:12:15 | 01:33:30 | 00:00:00 | |
| OE5WHR-10 | 2026-09-02 12:02:27 | 48.57893 | 10.02348 | 22° | 15km/h | 23900m | 5.7m/s | 0°C | 0% | 0hPa | 2.6V | 00:00:00 | 00:00:00 | 00:00:00 | |
| IW2NTF | 2026-09-02 12:02:26 | 48.57868 | 10.02339 | 3° | 15km/h | 23862m | 5.3m/s | -53°C | 4.3% | 32.1hPa | 2.6V | 08:30:00 | 01:33:23 | 00:00:00 | |
| DK7TD | 2026-09-02 12:02:17 | 48.57858 | 10.02340 | 347° | 11km/h | 23846m | 5.9m/s | -53.2°C | 0.8% | 32.2hPa | 2.7V | 18:12:15 | 01:33:20 | 00:00:00 | |
| IW2NTF | 2026-09-02 12:02:16 | 48.57835 | 10.02339 | 352° | 13km/h | 23808m | 5.3m/s | -53.1°C | 4.4% | 32.4hPa | 2.7V | 08:30:00 | 01:33:13 | 00:00:00 | |
| DK7TD | 2026-09-02 12:02:06 | 48.57821 | 10.02347 | 326° | 15km/h | 23787m | 6.2m/s | -53°C | 0.9% | 32.5hPa | 2.7V | 18:12:15 | 01:33:09 | 00:00:00 | |
| IW2NTF | 2026-09-02 12:02:06 | 48.57802 | 10.02371 | 329° | 22km/h | 23756m | 3.7m/s | -53°C | 4.3% | 32.7hPa | 2.7V | 08:30:00 | 01:33:03 | 00:00:00 | |
| DK7TD | 2026-09-02 12:01:55 | 48.57782 | 10.02387 | 336° | 16km/h | 23731m | 5.9m/s | -52.9°C | 0.8% | 32.8hPa | 2.7V | 18:12:15 | 01:32:58 | 00:00:00 | |
| DK7TD | 2026-09-02 12:01:45 | 48.57756 | 10.02420 | 324° | 15km/h | 23680m | 6m/s | -52.7°C | 0.8% | 33.1hPa | 2.7V | 18:12:15 | 01:32:48 | 00:00:00 | |
| DK7TD | 2026-09-02 12:01:34 | 48.57734 | 10.02450 | 336° | 9km/h | 23626m | 4.7m/s | -52.3°C | 0.7% | 33.4hPa | 2.7V | 18:12:15 | 01:32:37 | 00:00:00 | |
| DK7TD | 2026-09-02 12:01:25 | 48.57719 | 10.02475 | 324° | 4km/h | 23574m | 5.6m/s | -52°C | 0.6% | 33.6hPa | 2.6V | 18:12:15 | 01:32:27 | 00:00:00 | |
| DK7TD | 2026-09-02 12:01:14 | 48.57695 | 10.02476 | 326° | 15km/h | 23524m | 4.6m/s | -52.1°C | 0.7% | 33.9hPa | 2.6V | 18:12:15 | 01:32:17 | 00:00:00 | |
| DK7TD | 2026-09-02 12:01:03 | 48.57676 | 10.02482 | 10° | 9km/h | 23467m | 4.1m/s | -52°C | 0.6% | 34.2hPa | 2.6V | 18:12:15 | 01:32:06 | 00:00:00 | |
| DO3MHA-11 | 2026-09-02 12:01:03 | 48.57675 | 10.02482 | 11° | 11km/h | 23467m | 4.0m/s | -51.9°C | 4.1% | 34.2hPa | 2.6V | 00:00:00 | 01:32:06 | 00:00:00 | |
| OE5WHR-10 | 2026-09-02 12:01:02 | 48.57673 | 10.02482 | 354° | 13km/h | 23462m | 4.9m/s | 0°C | 0% | 0hPa | 2.6V | 00:00:00 | 01:32:05 | 00:00:00 | |
| DB0ND-19 | 2026-09-02 12:01:01 | 48.57671 | 10.02483 | 333° | 7km/h | 23457m | 6.0m/s | -52.1°C | 1.0% | 34.3hPa | 2.6V | 00:00:00 | 00:00:00 | 00:00:00 | |
| IW2NTF | 2026-09-02 12:01:00 | 48.57668 | 10.02486 | 327° | 9km/h | 23446m | 5.2m/s | -52.2°C | 4% | 34.3hPa | 2.6V | 08:30:00 | 01:32:02 | 00:00:00 | |
| DO9LL-15 | 2026-09-02 12:01:00 | 48.57669 | 10.02484 | 324° | 15km/h | 23451m | 4.8m/s | 0°C | 0% | 0hPa | 2.6V | 00:00:00 | 01:32:03 | 00:00:00 | |
| OE3JTB-15 | 2026-09-02 12:00:57 | 48.57658 | 10.02488 | 8° | 15km/h | 23431m | 4.1m/s | -52.0°C | 4.1% | 34.4hPa | 2.6V | 00:00:00 | 01:31:59 | 00:00:00 | |
| AZAK | 2026-09-02 12:00:56 | 48.57658 | 10.02488 | 8° | 16km/h | 23431m | 4.2m/s | -52.1°C | 1.0% | 34.4hPa | 2.6V | 00:00:00 | 00:00:00 | 00:00:00 | |
| IW2NTF | 2026-09-02 12:00:55 | 48.57632 | 10.02482 | 3° | 11km/h | 23394m | 6m/s | -52.2°C | 4.2% | 34.6hPa | 2.6V | 08:30:00 | 01:31:52 | 00:00:00 | |
| DK7TD | 2026-09-02 12:00:53 | 48.57647 | 10.02485 | 14° | 13km/h | 23415m | 4.7m/s | -52.1°C | 0.7% | 34.5hPa | 2.6V | 18:12:15 | 01:31:56 | 00:00:00 | |
| DL9SK-14 | 2026-09-02 12:00:48 | 48.57630 | 10.02482 | 3° | 9km/h | 23389m | 4.7m/s | -52.2°C | 1.0% | 34.6hPa | 2.6V | 00:00:00 | 00:00:00 | 00:00:00 | |
| DL6DJ-15 | 2026-09-02 12:00:46 | 48.57620 | 10.02480 | 6° | 15km/h | 23373m | 4.7m/s | -52.4°C | 1.1% | 34.7hPa | 2.6V | 00:00:00 | 00:00:00 | 00:00:00 | |
| DK7TD | 2026-09-02 12:00:43 | 48.57610 | 10.02479 | 2° | 11km/h | 23357m | 5.3m/s | -52.3°C | 0.6% | 34.8hPa | 2.6V | 18:12:15 | 01:31:45 | 00:00:00 | |
| DK7TD | 2026-09-02 12:00:31 | 48.57573 | 10.02497 | 356° | 13km/h | 23297m | 5.4m/s | -52.5°C | 0.7% | 35.1hPa | 2.7V | 18:12:15 | 01:31:34 | 00:00:00 | |
| IW2NTF | 2026-09-02 12:00:30 | 48.57557 | 10.02518 | 270° | 16km/h | 23261m | 4.8m/s | -52.4°C | 4.3% | 35.3hPa | 2.6V | 08:30:00 | 01:31:27 | 00:00:00 | |
| DK7TD | 2026-09-02 12:00:21 | 48.57556 | 10.02537 | 290° | 16km/h | 23246m | 4.7m/s | -52.3°C | 0.7% | 35.4hPa | 2.7V | 18:12:15 | 01:31:24 | 00:00:00 | |
| DK5PH-5 | 2026-09-02 12:00:20 | 48.57554 | 10.02543 | 293° | 18km/h | 23241m | 4.9m/s | -52.3°C | 4.3% | 35.4hPa | 2.6V | 00:00:00 | 01:31:23 | 00:00:00 | |
| OE5WHR-10 | 2026-09-02 12:00:18 | 48.57551 | 10.02554 | 292° | 16km/h | 23230m | 5.1m/s | 0°C | 0% | 0hPa | 2.6V | 00:00:00 | 00:00:00 | 00:00:00 | |
| IW2NTF | 2026-09-02 12:00:17 | 48.57541 | 10.02573 | 319° | 16km/h | 23209m | 4.4m/s | -52.4°C | 4.2% | 35.6hPa | 2.6V | 08:30:00 | 01:31:17 | 00:00:00 | |
| DK7TD | 2026-09-02 12:00:11 | 48.57536 | 10.02584 | 280° | 11km/h | 23193m | 4.7m/s | -52.3°C | 0.7% | 35.7hPa | 2.6V | 18:12:15 | 01:31:14 | 00:00:00 | |
| DO9HM | 2026-09-02 12:00:11 | 48.57536 | 10.02584 | 281° | 11km/h | 23193m | 4.7m/s | -52.3°C | 1.1% | 35.7hPa | 2.7V | 00:00:00 | 00:00:00 | 00:00:00 | |
| IW2NTF | 2026-09-02 12:00:09 | 48.57531 | 10.02624 | 278° | 20km/h | 23157m | 5.1m/s | -52.2°C | 4.2% | 35.9hPa | 2.7V | 08:30:00 | 01:31:07 | 00:00:00 | |
| DK7TD | 2026-09-02 12:00:01 | 48.57526 | 10.02650 | 284° | 26km/h | 23141m | 4.3m/s | -52.2°C | 0.6% | 36hPa | 2.6V | 18:12:15 | 01:31:04 | 00:00:00 | |
| DB0ND-19 | 2026-09-02 11:59:59 | 48.57525 | 10.02669 | 269° | 26km/h | 23131m | 5.2m/s | -52.3°C | 1.1% | 36.0hPa | 2.6V | 00:00:00 | 00:00:00 | 00:00:00 | |
| OE3JTB-15 | 2026-09-02 11:59:58 | 48.57525 | 10.02679 | 267° | 15km/h | 23126m | 4.6m/s | -52.4°C | 4.2% | 36.0hPa | 2.6V | 00:00:00 | 00:00:00 | 00:00:00 | |
| IW2NTF | 2026-09-02 11:59:57 | 48.57523 | 10.02713 | 280° | 18km/h | 23105m | 4.4m/s | -52.3°C | 4.1% | 36.2hPa | 2.6V | 08:30:00 | 01:30:57 | 00:00:00 | |
| DK7TD | 2026-09-02 11:59:51 | 48.57523 | 10.02732 | 257° | 15km/h | 23089m | 4.6m/s | -52.3°C | 0.6% | 36.3hPa | 2.7V | 18:12:15 | 01:30:54 | 00:00:00 | |
| IW2NTF | 2026-09-02 11:59:50 | 48.57528 | 10.02778 | 257° | 20km/h | 23053m | 5.6m/s | -52.6°C | 4.2% | 36.5hPa | 2.6V | 08:30:00 | 01:30:47 | 00:00:00 | |
| DL9SK-14 | 2026-09-02 11:59:46 | 48.57527 | 10.02770 | 254° | 20km/h | 23059m | 4.8m/s | -52.6°C | 1.1% | 36.5hPa | 2.7V | 00:00:00 | 00:00:00 | 00:00:00 | |
| DK7TD | 2026-09-02 11:59:40 | 48.57532 | 10.02801 | 240° | 13km/h | 23031m | 6.1m/s | -52.7°C | 0.8% | 36.6hPa | 2.7V | 18:12:15 | 01:30:43 | 00:00:00 | |
| DH7VM-15 | 2026-09-02 11:59:38 | 48.57533 | 10.02805 | 229° | 11km/h | 23026m | 5.1m/s | -52.7°C | 1.1% | 36.6hPa | 2.6V | 00:00:00 | 00:00:00 | 00:00:00 | |
| IW2NTF | 2026-09-02 11:59:36 | 48.57543 | 10.02813 | 203° | 15km/h | 22998m | 5.4m/s | -52.7°C | 4.3% | 36.8hPa | 2.6V | 08:30:00 | 01:30:37 | 00:00:00 | |
| DK7TD | 2026-09-02 11:59:29 | 48.57558 | 10.02832 | 245° | 15km/h | 22971m | 4.5m/s | -52.8°C | 0.7% | 36.9hPa | 2.7V | 18:12:15 | 01:30:32 | 00:00:00 | |
| DK7TD | 2026-09-02 11:59:19 | 48.57590 | 10.02852 | 166° | 18km/h | 22915m | 6.2m/s | -52.6°C | 0.7% | 37.2hPa | 2.7V | 18:12:15 | 01:30:22 | 00:00:00 | |
| NBG1-10 | 2026-09-02 11:59:16 | 48.57602 | 10.02850 | 197° | 15km/h | 22900m | 6.1m/s | -52.6°C | 4.2% | 37.3hPa | 2.7V | 00:00:00 | 01:30:19 | 00:00:00 | |
| DL9SK-14 | 2026-09-02 11:59:15 | 48.57607 | 10.02856 | 232° | 11km/h | 22889m | 5.3m/s | -52.7°C | 1.1% | 37.5hPa | 2.7V | 00:00:00 | 00:00:00 | 00:00:00 | |
| DO3MHA-12 | 2026-09-02 11:59:13 | 48.57609 | 10.02859 | 241° | 15km/h | 22883m | 5.9m/s | -52.7°C | 4.3% | 37.4hPa | 2.7V | 00:00:00 | 01:30:16 | 00:00:00 | |
| OE5DRO-10 | 2026-09-02 11:59:12 | 48.57610 | 10.02862 | 228° | 13km/h | 22878m | 4.5m/s | -52.7°C | 4.4% | 37.4hPa | 2.6V | 00:00:00 | 00:00:00 | 08:30:00 | |
| HARRO8 | 2026-09-02 11:59:11 | 48.57614 | 10.02864 | 182° | 9km/h | 22869m | 5.8m/s | -52.6°C | 1.1% | 37.5hPa | 2.6V | 00:00:00 | 00:00:00 | 00:00:00 | |
| IW2NTF | 2026-09-02 11:59:10 | 48.57640 | 10.02849 | 142° | 15km/h | 22837m | 4.8m/s | -52.5°C | 4.3% | 37.7hPa | 2.6V | 08:30:00 | 01:30:07 | 00:00:00 | |
| DK7TD | 2026-09-02 11:59:08 | 48.57622 | 10.02862 | 168° | 22km/h | 22858m | 4.7m/s | -52.6°C | 0.7% | 37.6hPa | 2.7V | 18:12:15 | 01:30:11 | 00:00:00 | |
| DK7TD | 2026-09-02 11:58:58 | 48.57655 | 10.02849 | 178° | 9km/h | 22806m | 6m/s | -52.2°C | 0.7% | 37.9hPa | 2.7V | 18:12:15 | 01:30:01 | 00:00:00 | |
| DB0ND-19 | 2026-09-02 11:58:57 | 48.57660 | 10.02846 | 144° | 11km/h | 22795m | 5.3m/s | -52.4°C | 1.1% | 38.0hPa | 2.6V | 00:00:00 | 00:00:00 | 00:00:00 | |
| IW2NTF | 2026-09-02 11:58:56 | 48.57667 | 10.02840 | 154° | 18km/h | 22784m | 6.3m/s | -52.2°C | 4.2% | 38hPa | 2.6V | 08:30:00 | 01:29:57 | 00:00:00 | |
| AZAK | 2026-09-02 11:58:54 | 48.57671 | 10.02837 | 163° | 20km/h | 22779m | 5.5m/s | -52.3°C | 1.1% | 38.1hPa | 2.6V | 00:00:00 | 00:00:00 | 00:00:00 | |
| DO3MHA-12 | 2026-09-02 11:58:53 | 48.57671 | 10.02837 | 162° | 15km/h | 22779m | 5.5m/s | -52.2°C | 4.2% | 38.0hPa | 2.6V | 00:00:00 | 01:29:56 | 00:00:00 | |
| OE5MMP-10 | 2026-09-02 11:58:52 | 48.57676 | 10.02835 | 164° | 15km/h | 22774m | 4.7m/s | 0°C | 0% | 0hPa | 2.6V | 00:00:00 | 01:29:55 | 00:00:00 | |
| DK5PH-5 | 2026-09-02 11:58:50 | 48.57686 | 10.02830 | 162° | 15km/h | 22762m | 5.2m/s | -52.4°C | 4.3% | 38.1hPa | 2.6V | 00:00:00 | 01:29:53 | 00:00:00 | |
| IW2NTF | 2026-09-02 11:58:49 | 48.57704 | 10.02823 | 122° | 11km/h | 22730m | 5.6m/s | -52.4°C | 4.2% | 38.4hPa | 2.6V | 08:30:00 | 01:29:47 | 00:00:00 | |
| DK7TD | 2026-09-02 11:58:47 | 48.57697 | 10.02827 | 180° | 13km/h | 22746m | 4.2m/s | -52.3°C | 0.7% | 38.3hPa | 2.7V | 18:12:15 | 01:29:50 | 00:00:00 | |
| OE5DXL-15 | 2026-09-02 11:58:46 | 48.57700 | 10.02827 | 172° | 13km/h | 22742m | 4.4m/s | -52.3°C | 4.2% | 38.2hPa | 2.6V | 00:00:00 | 00:00:00 | 00:00:00 | |
| DL9SK-14 | 2026-09-02 11:58:44 | 48.57706 | 10.02819 | 117° | 13km/h | 22726m | 4.8m/s | -52.4°C | 1.1% | 38.4hPa | 2.6V | 00:00:00 | 00:00:00 | 00:00:00 | |
| DO3MHA-12 | 2026-09-02 11:58:43 | 48.57706 | 10.02819 | 118° | 18km/h | 22726m | 4.8m/s | -52.3°C | 4.1% | 38.3hPa | 2.6V | 00:00:00 | 01:29:46 | 00:00:00 | |
| DF1GD-15 | 2026-09-02 11:58:42 | 48.57708 | 10.02814 | 126° | 16km/h | 22721m | 4.6m/s | -52.2°C | 1.1% | 38.4hPa | 2.7V | 00:00:00 | 00:00:00 | 00:00:00 | |
| DL6DJ-15 | 2026-09-02 11:58:41 | 48.57711 | 10.02809 | 138° | 16km/h | 22716m | 5.7m/s | -52.2°C | 1.1% | 38.5hPa | 2.7V | 00:00:00 | 00:00:00 | 00:00:00 | |
| HARRO8 | 2026-09-02 11:58:40 | 48.57719 | 10.02803 | 161° | 20km/h | 22705m | 5.5m/s | -52.3°C | 1.1% | 38.5hPa | 2.7V | 00:00:00 | 00:00:00 | 00:00:00 | |
| IW2NTF | 2026-09-02 11:58:38 | 48.57743 | 10.02792 | 167° | 16km/h | 22677m | 5.2m/s | -52.3°C | 4.3% | 38.7hPa | 2.7V | 08:30:00 | 01:29:37 | 00:00:00 | |
| DK7TD | 2026-09-02 11:58:37 | 48.57729 | 10.02798 | 160° | 22km/h | 22693m | 5.5m/s | -52.3°C | 0.7% | 38.6hPa | 2.6V | 18:12:15 | 01:29:40 | 00:00:00 | |
| DK7TD | 2026-09-02 11:58:27 | 48.57753 | 10.02765 | 119° | 5km/h | 22632m | 5.7m/s | -52.5°C | 0.6% | 39hPa | 2.6V | 18:12:15 | 01:29:29 | 00:00:00 | |
| IW2NTF | 2026-09-02 11:58:26 | 48.57756 | 10.02761 | 153° | 9km/h | 22621m | 4.9m/s | -52.4°C | 4.2% | 39hPa | 2.7V | 08:30:00 | 01:29:27 | 00:00:00 | |
| DB0ND-19 | 2026-09-02 11:58:26 | 48.57754 | 10.02763 | 133° | 7km/h | 22627m | 5.9m/s | -52.5°C | 1.1% | 39.0hPa | 2.7V | 00:00:00 | 00:00:00 | 00:00:00 | |
| DO3MHA-11 | 2026-09-02 11:58:24 | 48.57758 | 10.02760 | 172° | 9km/h | 22616m | 5.6m/s | -52.3°C | 4.2% | 39.0hPa | 2.7V | 00:00:00 | 01:29:26 | 00:00:00 | |
| DM7RM-13 | 2026-09-02 11:58:23 | 48.57758 | 10.02760 | 172° | 11km/h | 22616m | 5.6m/s | -52.4°C | 1.1% | 39.0hPa | 2.7V | 00:00:00 | 00:00:00 | 00:00:00 | |
| DH7VM-15 | 2026-09-02 11:58:22 | 48.57758 | 10.02760 | 172° | 11km/h | 22616m | 5.6m/s | -52.4°C | 1.1% | 39.0hPa | 2.7V | 00:00:00 | 00:00:00 | 00:00:00 | |
| DK5PH-5 | 2026-09-02 11:58:20 | 48.57768 | 10.02762 | 190° | 9km/h | 22600m | 5.1m/s | -52.4°C | 4.4% | 39.1hPa | 2.7V | 00:00:00 | 01:29:23 | 00:00:00 | |
| DO9LL-15 | 2026-09-02 11:58:19 | 48.57771 | 10.02762 | 177° | 7km/h | 22594m | 6.0m/s | 0°C | 0% | 0hPa | 2.7V | 00:00:00 | 01:29:22 | 00:00:00 | |
| IW2NTF | 2026-09-02 11:58:16 | 48.57775 | 10.02757 | 5° | 7km/h | 22567m | 5.3m/s | -52.5°C | 4.1% | 39.3hPa | 2.7V | 08:30:00 | 01:29:17 | 00:00:00 | |
| DK7TD | 2026-09-02 11:58:15 | 48.57776 | 10.02757 | 21° | 4km/h | 22573m | 6.2m/s | -52.6°C | 0.7% | 39.3hPa | 2.6V | 18:12:15 | 01:29:18 | 00:00:00 | |
| OE5DRO-10 | 2026-09-02 11:58:14 | 48.57775 | 10.02756 | 6° | 7km/h | 22567m | 5.3m/s | -52.5°C | 4.1% | 39.3hPa | 2.7V | 00:00:00 | 00:00:00 | 00:00:00 | |
| DO3MHA-12 | 2026-09-02 11:58:13 | 48.57773 | 10.02756 | 8° | 11km/h | 22561m | 6.1m/s | -52.5°C | 4.1% | 39.3hPa | 2.7V | 00:00:00 | 01:29:16 | 08:30:00 | |
| AZAK | 2026-09-02 11:58:12 | 48.57771 | 10.02756 | 12° | 7km/h | 22556m | 5.4m/s | -52.5°C | 1.1% | 39.4hPa | 2.6V | 00:00:00 | 00:00:00 | 00:00:00 | |
| NBG1-10 | 2026-09-02 11:58:10 | 48.57768 | 10.02756 | 311° | 9km/h | 22546m | 6.0m/s | -52.4°C | 4.2% | 39.4hPa | 2.6V | 00:00:00 | 01:29:13 | 00:00:00 | |
| DJ8HS-15 | 2026-09-02 11:58:08 | 48.57769 | 10.02761 | 226° | 9km/h | 22536m | 4.4m/s | -52.3°C | 4.2% | 39.5hPa | 2.6V | 00:00:00 | 01:29:11 | 00:00:00 | |
| IW2NTF | 2026-09-02 11:58:06 | 48.57783 | 10.02762 | 165° | 15km/h | 22515m | 5.1m/s | -52.3°C | 4.3% | 39.6hPa | 2.6V | 08:30:00 | 01:29:07 | 00:00:00 | |
| DK7TD | 2026-09-02 11:58:05 | 48.57779 | 10.02763 | 170° | 16km/h | 22519m | 4.1m/s | -52.3°C | 0.7% | 39.6hPa | 2.6V | 18:12:15 | 01:29:08 | 00:00:00 | |
| DF3TZ-5 | 2026-09-02 11:58:03 | 48.57788 | 10.02760 | 152° | 4km/h | 22504m | 5.5m/s | -52.4°C | 1.1% | 39.7hPa | 2.6V | 00:00:00 | 00:00:00 | 00:00:00 | |
| DM7RM-13 | 2026-09-02 11:58:02 | 48.57788 | 10.02759 | 153° | 5km/h | 22504m | 5.5m/s | -52.4°C | 1.1% | 39.7hPa | 2.6V | 00:00:00 | 00:00:00 | 00:00:00 | |
| DF7PN | 2026-09-02 11:57:57 | 48.57785 | 10.02752 | 261° | 2km/h | 22471m | 4.9m/s | -52.7°C | 1.1% | 39.9hPa | 2.6V | 00:00:00 | 00:00:00 | 00:00:00 | |
| IW2NTF | 2026-09-02 11:57:55 | 48.57788 | 10.02753 | 181° | 9km/h | 22461m | 5.5m/s | -52.6°C | 4.2% | 40hPa | 2.6V | 08:30:00 | 01:28:57 | 00:00:00 | |
| DK7TD | 2026-09-02 11:57:54 | 48.57788 | 10.02753 | 181° | 9km/h | 22461m | 5.5m/s | -52.6°C | 0.7% | 40hPa | 2.6V | 18:12:15 | 01:28:57 | 00:00:00 | |
| DO3MHA-12 | 2026-09-02 11:57:53 | 48.57791 | 10.02753 | 166° | 11km/h | 22456m | 5.7m/s | -52.6°C | 4.3% | 40.0hPa | 2.7V | 00:00:00 | 01:28:56 | 00:00:00 | |
| DN1GJH-1 | 2026-09-02 11:57:52 | 48.57791 | 10.02752 | 167° | 13km/h | 22456m | 5.7m/s | -52.6°C | 1.1% | 40.0hPa | 2.7V | 00:00:00 | 00:00:00 | 00:00:00 | |
| AZAK | 2026-09-02 11:57:51 | 48.57798 | 10.02748 | 152° | 16km/h | 22445m | 5.2m/s | -52.6°C | 1.1% | 40.1hPa | 2.7V | 00:00:00 | 00:00:00 | 00:00:00 | |
| DK5PH-5 | 2026-09-02 11:57:50 | 48.57801 | 10.02745 | 148° | 7km/h | 22440m | 5.3m/s | -52.5°C | 4.3% | 40.1hPa | 2.7V | 00:00:00 | 01:28:53 | 00:00:00 | |
| IW2NTF | 2026-09-02 11:57:49 | 48.57811 | 10.02729 | 94° | 4km/h | 22406m | 5.2m/s | -52.5°C | 4.4% | 40.3hPa | 2.6V | 08:30:00 | 01:28:47 | 00:00:00 | |
| DK7TD | 2026-09-02 11:57:44 | 48.57811 | 10.02729 | 95° | 4km/h | 22407m | 5.2m/s | -52.5°C | 0.8% | 40.4hPa | 2.6V | 18:12:15 | 01:28:47 | 00:00:00 | |
| DK7TD | 2026-09-02 11:57:33 | 48.57816 | 10.02707 | 348° | 5km/h | 22348m | 4.6m/s | -52.5°C | 0.7% | 40.7hPa | 2.6V | 18:12:15 | 01:28:36 | 00:00:00 | |
| DK7TD | 2026-09-02 11:57:22 | 48.57808 | 10.02707 | 46° | 7km/h | 22290m | 4.6m/s | -52.5°C | 0.7% | 41.1hPa | 2.6V | 18:12:15 | 01:28:25 | 00:00:00 | |
| DK7TD | 2026-09-02 11:57:11 | 48.57806 | 10.02729 | 203° | 7km/h | 22234m | 4.8m/s | -52.1°C | 0.7% | 41.4hPa | 2.6V | 18:12:15 | 01:28:14 | 00:00:00 | |
| DL9SK-14 | 2026-09-02 11:57:11 | 48.57808 | 10.02730 | 208° | 4km/h | 22229m | 6.1m/s | -52.1°C | 1.1% | 41.5hPa | 2.7V | 00:00:00 | 00:00:00 | 00:00:00 | |
| AZAK | 2026-09-02 11:57:09 | 48.57808 | 10.02731 | 247° | 2km/h | 22223m | 5.1m/s | -52.0°C | 1.1% | 41.5hPa | 2.7V | 00:00:00 | 00:00:00 | 00:00:00 | |
| IW2NTF | 2026-09-02 11:57:08 | 48.57809 | 10.02734 | 245° | 5km/h | 22213m | 5.9m/s | -52.1°C | 4.2% | 41.6hPa | 2.7V | 08:30:00 | 01:28:10 | 00:00:00 | |
| DK7TD | 2026-09-02 11:57:01 | 48.57818 | 10.02741 | 178° | 5km/h | 22182m | 4.7m/s | -52.2°C | 0.6% | 41.8hPa | 2.7V | 18:12:15 | 01:28:04 | 00:00:00 | |
| DB0NH | 2026-09-02 11:57:01 | 48.57818 | 10.02741 | 178° | 9km/h | 22182m | 4.6m/s | -52.2°C | 4.1% | 41.7hPa | 2.6V | 00:00:00 | 01:28:04 | 00:00:00 | |
| IW2NTF | 2026-09-02 11:57:00 | 48.57827 | 10.02735 | 143° | 9km/h | 22143m | 5.4m/s | -52.1°C | 4.3% | 42hPa | 2.6V | 08:30:00 | 01:27:57 | 00:00:00 | |
| DK7TD | 2026-09-02 11:56:50 | 48.57833 | 10.02719 | 101° | 15km/h | 22121m | 5.2m/s | -52.1°C | 0.7% | 42.1hPa | 2.7V | 18:12:15 | 01:27:53 | 00:00:00 | |
| DK5PH-5 | 2026-09-02 11:56:50 | 48.57833 | 10.02719 | 101° | 7km/h | 22121m | 5.1m/s | -52.0°C | 4.2% | 42.1hPa | 2.7V | 00:00:00 | 01:27:53 | 00:00:00 | |
| IW2NTF | 2026-09-02 11:56:48 | 48.57838 | 10.02697 | 78° | 7km/h | 22088m | 5.3m/s | -52.2°C | 4.1% | 42.4hPa | 2.7V | 08:30:00 | 01:27:47 | 00:00:00 | |
| DK7TD | 2026-09-02 11:56:40 | 48.57838 | 10.02692 | 106° | 2km/h | 22068m | 4.9m/s | -52.1°C | 0.7% | 42.5hPa | 2.7V | 18:12:15 | 01:27:43 | 00:00:00 | |
| DL9SK-14 | 2026-09-02 11:56:40 | 48.57838 | 10.02691 | 97° | 4km/h | 22062m | 6.0m/s | -52.0°C | 1.1% | 42.5hPa | 2.7V | 00:00:00 | 00:00:00 | 00:00:00 | |
| DM7RM-13 | 2026-09-02 11:56:39 | 48.57838 | 10.02691 | 98° | 4km/h | 22062m | 6.0m/s | -52.0°C | 1.1% | 42.5hPa | 2.7V | 00:00:00 | 00:00:00 | 00:00:00 | |
| DL6DJ-15 | 2026-09-02 11:56:37 | 48.57840 | 10.02687 | 132° | 7km/h | 22052m | 5.3m/s | -51.9°C | 1.1% | 42.6hPa | 2.7V | 00:00:00 | 00:00:00 | 00:00:00 | |
| OE3JTB-15 | 2026-09-02 11:56:35 | 48.57844 | 10.02684 | 169° | 9km/h | 22040m | 4.8m/s | -51.8°C | 4.2% | 42.7hPa | 2.7V | 00:00:00 | 01:27:38 | 00:00:00 | |
| IW2NTF | 2026-09-02 11:56:34 | 48.57850 | 10.02682 | 164° | 11km/h | 22030m | 6m/s | -51.9°C | 4.2% | 42.8hPa | 2.7V | 08:30:00 | 01:27:36 | 00:00:00 | |
| DK7TD | 2026-09-02 11:56:30 | 48.57855 | 10.02681 | 208° | 7km/h | 22014m | 5.9m/s | -52.1°C | 0.6% | 42.9hPa | 2.6V | 18:12:15 | 01:27:33 | 00:00:00 | |
| DF3TZ-5 | 2026-09-02 11:56:29 | 48.57858 | 10.02684 | 235° | 4km/h | 22004m | 5.6m/s | -52.0°C | 1.1% | 42.9hPa | 2.6V | 00:00:00 | 00:00:00 | 00:00:00 | |
| IW2NTF | 2026-09-02 11:56:28 | 48.57864 | 10.02690 | 172° | 11km/h | 21968m | 6m/s | -51.8°C | 4% | 43.2hPa | 2.6V | 08:30:00 | 01:27:24 | 00:00:00 | |
| DK7TD | 2026-09-02 11:56:19 | 48.57871 | 10.02687 | 162° | 15km/h | 21957m | 4.7m/s | -51.9°C | 0.6% | 43.3hPa | 2.6V | 18:12:15 | 01:27:22 | 00:00:00 | |
| DM7RM-13 | 2026-09-02 11:56:18 | 48.57874 | 10.02685 | 169° | 15km/h | 21952m | 6.3m/s | -52.0°C | 1.1% | 43.3hPa | 2.7V | 00:00:00 | 00:00:00 | 00:00:00 | |
| DF1GD-15 | 2026-09-02 11:56:17 | 48.57874 | 10.02685 | 169° | 15km/h | 21952m | 6.3m/s | -52.0°C | 1.1% | 43.3hPa | 2.7V | 00:00:00 | 00:00:00 | 00:00:00 | |
| OE5DXL-15 | 2026-09-02 11:56:16 | 48.57881 | 10.02684 | 172° | 15km/h | 21942m | 4.5m/s | -52.0°C | 4.1% | 43.3hPa | 2.7V | 00:00:00 | 00:00:00 | 00:00:00 | |
| IW2NTF | 2026-09-02 11:56:15 | 48.57891 | 10.02679 | 176° | 7km/h | 21916m | 4.8m/s | -52°C | 4.1% | 43.5hPa | 2.7V | 08:30:00 | 01:27:14 | 00:00:00 | |
| DK7TD | 2026-09-02 11:56:08 | 48.57899 | 10.02675 | 153° | 15km/h | 21900m | 4.8m/s | -52°C | 0.6% | 43.6hPa | 2.6V | 18:12:15 | 01:27:11 | 00:00:00 | |
| DJ8HS-15 | 2026-09-02 11:56:08 | 48.57899 | 10.02675 | 154° | 16km/h | 21900m | 4.7m/s | -52.0°C | 4.1% | 43.6hPa | 2.7V | 00:00:00 | 01:27:11 | 00:00:00 | |
| OE3JTB-15 | 2026-09-02 11:56:06 | 48.57906 | 10.02670 | 165° | 18km/h | 21890m | 5.8m/s | -52.1°C | 4.1% | 43.6hPa | 2.7V | 00:00:00 | 00:00:00 | 00:00:00 | |
| IW2NTF | 2026-09-02 11:56:05 | 48.57928 | 10.02657 | 142° | 15km/h | 21864m | 5.1m/s | -52.3°C | 4.1% | 43.9hPa | 2.7V | 08:30:00 | 01:27:04 | 00:00:00 | |
| DK7TD | 2026-09-02 11:55:58 | 48.57935 | 10.02647 | 127° | 13km/h | 21849m | 5.9m/s | -52.4°C | 0.7% | 44hPa | 2.6V | 18:12:15 | 01:27:01 | 00:00:00 | |
| NBG1-10 | 2026-09-02 11:55:58 | 48.57935 | 10.02647 | 127° | 20km/h | 21849m | 5.9m/s | -52.3°C | 4.2% | 43.9hPa | 2.7V | 00:00:00 | 01:27:01 | 00:00:00 | |
| DF1GD-15 | 2026-09-02 11:55:57 | 48.57936 | 10.02643 | 119° | 15km/h | 21843m | 5.6m/s | -52.3°C | 1.2% | 44.0hPa | 2.7V | 00:00:00 | 00:00:00 | 00:00:00 | |
| IW2NTF | 2026-09-02 11:55:54 | 48.57947 | 10.02608 | 111° | 22km/h | 21813m | 5.1m/s | -52.5°C | 4.2% | 44.2hPa | 2.7V | 08:30:00 | 01:26:54 | 00:00:00 | |
| DK7TD | 2026-09-02 11:55:48 | 48.57954 | 10.02587 | 132° | 18km/h | 21797m | 5.4m/s | -52.4°C | 0.7% | 44.3hPa | 2.6V | 18:12:15 | 01:26:51 | 00:00:00 | |
| DJ8HS-15 | 2026-09-02 11:55:48 | 48.57954 | 10.02587 | 132° | 22km/h | 21797m | 5.3m/s | -52.3°C | 4.1% | 44.3hPa | 2.6V | 00:00:00 | 01:26:51 | 00:00:00 | |
| DJTTGO | 2026-09-02 11:55:47 | 48.57954 | 10.02587 | 133° | 18km/h | 21797m | 5.4m/s | -52.4°C | 1.1% | 44.3hPa | 2.6V | 00:00:00 | 00:00:00 | 00:00:00 | |
| AZAK | 2026-09-02 11:55:46 | 48.57961 | 10.02578 | 143° | 18km/h | 21787m | 6.0m/s | -52.5°C | 1.1% | 44.4hPa | 2.6V | 00:00:00 | 00:00:00 | 00:00:00 | |
| IW2NTF | 2026-09-02 11:55:45 | 48.57983 | 10.02560 | 150° | 22km/h | 21761m | 4.6m/s | -52.5°C | 4.1% | 44.6hPa | 2.6V | 08:30:00 | 01:26:44 | 00:00:00 | |
| DK7TD | 2026-09-02 11:55:37 | 48.58001 | 10.02534 | 130° | 22km/h | 21740m | 5.9m/s | -52.6°C | 0.7% | 44.7hPa | 2.6V | 18:12:15 | 01:26:40 | 00:00:00 | |
| DK7TD | 2026-09-02 11:55:26 | 48.58056 | 10.02496 | 163° | 29km/h | 21685m | 4.8m/s | -52.7°C | 0.7% | 45.1hPa | 2.6V | 18:12:15 | 01:26:29 | 00:00:00 | |
| NBG1-10 | 2026-09-02 11:55:25 | 48.58063 | 10.02493 | 162° | 16km/h | 21680m | 5.2m/s | -52.6°C | 4.3% | 45.1hPa | 2.6V | 00:00:00 | 01:26:28 | 00:00:00 | |
| IW2NTF | 2026-09-02 11:55:24 | 48.58086 | 10.02467 | 129° | 20km/h | 21655m | 5.7m/s | -52.8°C | 4.2% | 45.3hPa | 2.6V | 08:30:00 | 01:26:23 | 00:00:00 | |
| DK7TD | 2026-09-02 11:55:15 | 48.58102 | 10.02449 | 153° | 16km/h | 21630m | 3.9m/s | -52.8°C | 0.7% | 45.5hPa | 2.6V | 18:12:15 | 01:26:18 | 00:00:00 | |
| DK7TD | 2026-09-02 11:55:05 | 48.58136 | 10.02412 | 138° | 18km/h | 21579m | 5.5m/s | -52.7°C | 0.6% | 45.9hPa | 2.7V | 18:12:15 | 01:26:08 | 00:00:00 | |
| AZAK | 2026-09-02 11:55:05 | 48.58136 | 10.02412 | 138° | 18km/h | 21579m | 5.5m/s | -52.7°C | 1.1% | 45.9hPa | 2.7V | 00:00:00 | 00:00:00 | 00:00:00 | |
| IW2NTF | 2026-09-02 11:55:05 | 48.58153 | 10.02401 | 186° | 9km/h | 21553m | 3.8m/s | -52.8°C | 4.1% | 46hPa | 2.7V | 08:30:00 | 01:26:03 | 00:00:00 | |
| DL6DJ-15 | 2026-09-02 11:55:04 | 48.58144 | 10.02404 | 152° | 16km/h | 21568m | 5.0m/s | -52.7°C | 1.1% | 45.9hPa | 2.7V | 00:00:00 | 00:00:00 | 00:00:00 | |
| DO3MHA-11 | 2026-09-02 11:55:03 | 48.58144 | 10.02404 | 153° | 13km/h | 21569m | 4.9m/s | -52.7°C | 4.1% | 45.9hPa | 2.7V | 00:00:00 | 01:26:06 | 00:00:00 | |
| DB0NH | 2026-09-02 11:55:01 | 48.58150 | 10.02401 | 181° | 11km/h | 21558m | 5.0m/s | -52.8°C | 4.1% | 46.0hPa | 2.7V | 00:00:00 | 01:26:04 | 00:00:00 | |
| DF1GD-15 | 2026-09-02 11:54:56 | 48.58164 | 10.02395 | 135° | 15km/h | 21534m | 4.9m/s | -53.1°C | 1.1% | 46.2hPa | 2.7V | 00:00:00 | 00:00:00 | 00:00:00 | |
| IW2NTF | 2026-09-02 11:54:55 | 48.58171 | 10.02361 | 89° | 16km/h | 21503m | 5.8m/s | -53.5°C | 4.4% | 46.4hPa | 2.7V | 08:30:00 | 01:25:53 | 00:00:00 | |
| DK7TD | 2026-09-02 11:54:54 | 48.58168 | 10.02386 | 112° | 15km/h | 21523m | 4.8m/s | -53.4°C | 0.7% | 46.2hPa | 2.7V | 18:12:15 | 01:25:57 | 00:00:00 | |
| DF7PN | 2026-09-02 11:54:50 | 48.58171 | 10.02361 | 89° | 15km/h | 21503m | 5.8m/s | -53.5°C | 1.2% | 46.4hPa | 2.6V | 00:00:00 | 00:00:00 | 00:00:00 | |
| SONDE2-11 | 2026-09-02 11:54:49 | 48.58170 | 10.02351 | 67° | 9km/h | 21492m | 4.5m/s | 0°C | -1.0% | -1.0hPa | 2.6V | 00:00:00 | 00:00:00 | 00:00:00 | |
| DJ8HS-15 | 2026-09-02 11:54:48 | 48.58170 | 10.02351 | 68° | 9km/h | 21493m | 4.4m/s | -53.4°C | 4.4% | 46.4hPa | 2.6V | 00:00:00 | 01:25:51 | 00:00:00 | |
| OE5DXL-15 | 2026-09-02 11:54:46 | 48.58169 | 10.02345 | 82° | 7km/h | 21482m | 5.0m/s | -53.4°C | 4.4% | 46.5hPa | 2.6V | 00:00:00 | 00:00:00 | 00:00:00 | |
| IW2NTF | 2026-09-02 11:54:45 | 48.58165 | 10.02330 | 68° | 13km/h | 21451m | 4.1m/s | -53.8°C | 4.4% | 46.8hPa | 2.6V | 08:30:00 | 01:25:43 | 00:00:00 | |
| DK7TD | 2026-09-02 11:54:43 | 48.58167 | 10.02339 | 54° | 5km/h | 21466m | 4.8m/s | -53.5°C | 0.7% | 46.7hPa | 2.7V | 18:12:15 | 01:25:46 | 00:00:00 | |
| DK7TD | 2026-09-02 11:54:33 | 48.58149 | 10.02299 | 77° | 7km/h | 21417m | 4.7m/s | -53.9°C | 0.8% | 47hPa | 2.7V | 18:12:15 | 01:25:36 | 00:00:00 | |
| DL6DJ-15 | 2026-09-02 11:54:33 | 48.58149 | 10.02297 | 84° | 4km/h | 21412m | 5.8m/s | -54.0°C | 1.2% | 47.0hPa | 2.7V | 00:00:00 | 00:00:00 | 00:00:00 | |
| DB0NH | 2026-09-02 11:54:30 | 48.58150 | 10.02295 | 147° | 11km/h | 21402m | 4.4m/s | -54.1°C | 4.4% | 47.1hPa | 2.7V | 00:00:00 | 01:25:33 | 00:00:00 | |
| IW2NTF | 2026-09-02 11:54:28 | 48.58153 | 10.02288 | 98° | 9km/h | 21387m | 4.2m/s | -54.5°C | 4.6% | 47.2hPa | 2.7V | 08:30:00 | 01:25:30 | 00:00:00 | |
| DK7TD | 2026-09-02 11:54:23 | 48.58148 | 10.02275 | 48° | 15km/h | 21367m | 5.7m/s | -54.5°C | 1% | 47.4hPa | 2.7V | 18:12:15 | 01:25:26 | 00:00:00 | |
| DO3MHA-11 | 2026-09-02 11:54:23 | 48.58148 | 10.02275 | 48° | 16km/h | 21367m | 5.6m/s | -54.4°C | 4.7% | 47.4hPa | 2.6V | 00:00:00 | 01:25:26 | 00:00:00 | |
| AZAK | 2026-09-02 11:54:22 | 48.58148 | 10.02275 | 49° | 15km/h | 21367m | 5.7m/s | -54.5°C | 1.3% | 47.4hPa | 2.6V | 00:00:00 | 00:00:00 | 00:00:00 | |
| IW2NTF | 2026-09-02 11:54:20 | 48.58129 | 10.02234 | 56° | 13km/h | 21325m | 5.4m/s | -54.2°C | 4.5% | 47.7hPa | 2.6V | 08:30:00 | 01:25:18 | 00:00:00 | |
| DK7TD | 2026-09-02 11:54:12 | 48.58122 | 10.02226 | 24° | 11km/h | 21310m | 3.9m/s | -54.3°C | 0.8% | 47.8hPa | 2.7V | 18:12:15 | 01:25:15 | 00:00:00 | |
| DK7TD | 2026-09-02 11:54:01 | 48.58111 | 10.02188 | 10° | 7km/h | 21253m | 5.9m/s | -54.7°C | 0.9% | 48.2hPa | 2.6V | 18:12:15 | 01:25:04 | 00:00:00 | |
| DK7TD | 2026-09-02 11:53:51 | 48.58116 | 10.02166 | 126° | 18km/h | 21200m | 4.7m/s | -54.7°C | 0.9% | 48.7hPa | 2.7V | 18:12:15 | 01:24:54 | 00:00:00 | |
| DF7PN | 2026-09-02 11:53:48 | 48.58121 | 10.02153 | 112° | 5km/h | 21185m | 4.7m/s | -54.6°C | 1.3% | 48.8hPa | 2.6V | 00:00:00 | 00:00:00 | 00:00:00 | |
| DB0ND-19 | 2026-09-02 11:53:47 | 48.58121 | 10.02147 | 67° | 9km/h | 21175m | 6.1m/s | -54.6°C | 1.3% | 48.8hPa | 2.6V | 00:00:00 | 00:00:00 | 00:00:00 | |
| DK7TD | 2026-09-02 11:53:40 | 48.58115 | 10.02123 | 82° | 13km/h | 21145m | 4.9m/s | -54.4°C | 0.9% | 49.1hPa | 2.6V | 18:12:15 | 01:24:43 | 00:00:00 | |
| DK7TD | 2026-09-02 11:53:30 | 48.58112 | 10.02071 | 67° | 7km/h | 21092m | 5.8m/s | -54°C | 0.9% | 49.5hPa | 2.7V | 18:12:15 | 01:24:33 | 00:00:00 | |
| DK7TD | 2026-09-02 11:53:19 | 48.58103 | 10.02026 | 80° | 13km/h | 21033m | 5.5m/s | -53.6°C | 0.8% | 50hPa | 2.6V | 18:12:15 | 01:24:22 | 00:00:00 | |
| DK7TD | 2026-09-02 11:53:09 | 48.58096 | 10.02005 | 57° | 7km/h | 20983m | 5.1m/s | -53.5°C | 0.8% | 50.4hPa | 2.6V | 18:12:15 | 01:24:12 | 00:00:00 | |
| DK7TD | 2026-09-02 11:52:59 | 48.58096 | 10.01975 | 146° | 7km/h | 20929m | 6.3m/s | -53.6°C | 0.8% | 50.8hPa | 2.6V | 18:12:15 | 01:24:02 | 00:00:00 | |
| DK7TD | 2026-09-02 11:52:48 | 48.58112 | 10.01935 | 122° | 20km/h | 20868m | 6.2m/s | -53.6°C | 0.8% | 51.3hPa | 2.7V | 18:12:15 | 01:23:51 | 00:00:00 | |
| DF7PN | 2026-09-02 11:52:46 | 48.58119 | 10.01923 | 134° | 20km/h | 20858m | 4.1m/s | -53.5°C | 1.2% | 51.3hPa | 2.6V | 00:00:00 | 00:00:00 | 00:00:00 | |
| IW2NTF | 2026-09-02 11:52:45 | 48.58127 | 10.01909 | 131° | 15km/h | 20842m | 4.6m/s | -53.4°C | 4.4% | 51.4hPa | 2.6V | 08:30:00 | 01:23:46 | 00:00:00 | |
| DB0ND-19 | 2026-09-02 11:52:44 | 48.58125 | 10.01914 | 132° | 15km/h | 20847m | 5.5m/s | -53.5°C | 1.2% | 51.4hPa | 2.6V | 00:00:00 | 00:00:00 | 00:00:00 | |
| DO3MHA-12 | 2026-09-02 11:52:43 | 48.58127 | 10.01909 | 132° | 18km/h | 20843m | 4.5m/s | -53.4°C | 4.4% | 51.4hPa | 2.6V | 00:00:00 | 01:23:46 | 00:00:00 | |
| OE3JTB-15 | 2026-09-02 11:52:42 | 48.58130 | 10.01905 | 130° | 13km/h | 20837m | 5.9m/s | -53.4°C | 4.4% | 51.4hPa | 2.6V | 00:00:00 | 00:00:00 | 00:00:00 | |
| NBG1-10 | 2026-09-02 11:52:40 | 48.58134 | 10.01894 | 110° | 13km/h | 20826m | 5.7m/s | -53.4°C | 4.3% | 51.5hPa | 2.6V | 00:00:00 | 01:23:43 | 00:00:00 | |
| AZAK | 2026-09-02 11:52:39 | 48.58134 | 10.01894 | 110° | 18km/h | 20826m | 5.7m/s | -53.4°C | 1.1% | 51.6hPa | 2.6V | 00:00:00 | 00:00:00 | 00:00:00 | |
| IW2NTF | 2026-09-02 11:52:38 | 48.58143 | 10.01848 | 117° | 13km/h | 20789m | 5.6m/s | -53.5°C | 4.4% | 51.9hPa | 2.6V | 08:30:00 | 01:23:36 | 00:00:00 | |
| DK7TD | 2026-09-02 11:52:37 | 48.58136 | 10.01873 | 101° | 20km/h | 20811m | 6.2m/s | -53.6°C | 0.8% | 51.7hPa | 2.6V | 18:12:15 | 01:23:40 | 00:00:00 | |
| DK7TD | 2026-09-02 11:52:26 | 48.58155 | 10.01814 | 101° | 15km/h | 20754m | 4.3m/s | -53.5°C | 0.8% | 52.2hPa | 2.7V | 18:12:15 | 01:23:29 | 00:00:00 | |
| IW2NTF | 2026-09-02 11:52:25 | 48.58158 | 10.01797 | 111° | 15km/h | 20738m | 4.3m/s | -53.6°C | 4.6% | 52.3hPa | 2.6V | 08:30:00 | 01:23:26 | 00:00:00 | |
| DK7TD | 2026-09-02 11:52:16 | 48.58164 | 10.01778 | 150° | 5km/h | 20701m | 5.6m/s | -53.5°C | 0.7% | 52.6hPa | 2.7V | 18:12:15 | 01:23:19 | 00:00:00 | |
| IW2NTF | 2026-09-02 11:52:16 | 48.58167 | 10.01775 | 134° | 7km/h | 20685m | 6.2m/s | -53.4°C | 4.5% | 52.7hPa | 2.6V | 08:30:00 | 01:23:16 | 00:00:00 | |
| DK7TD | 2026-09-02 11:52:06 | 48.58183 | 10.01746 | 140° | 18km/h | 20647m | 5.3m/s | -53.2°C | 0.8% | 53.1hPa | 2.6V | 18:12:15 | 01:23:09 | 00:00:00 | |
| IW2NTF | 2026-09-02 11:52:06 | 48.58193 | 10.01737 | 160° | 15km/h | 20631m | 4.2m/s | -53.2°C | 4.3% | 53.2hPa | 2.7V | 08:30:00 | 01:23:06 | 00:00:00 | |
| DO3MHA-12 | 2026-09-02 11:52:03 | 48.58193 | 10.01737 | 161° | 20km/h | 20632m | 4.1m/s | -53.1°C | 4.3% | 53.2hPa | 2.7V | 00:00:00 | 01:23:06 | 00:00:00 | |
| DL9SK-14 | 2026-09-02 11:52:00 | 48.58205 | 10.01731 | 162° | 18km/h | 20616m | 4.5m/s | -53.2°C | 1.2% | 53.3hPa | 2.7V | 00:00:00 | 00:00:00 | 00:00:00 | |
| DL6DJ-15 | 2026-09-02 11:51:57 | 48.58239 | 10.01695 | 129° | 22km/h | 20574m | 5.1m/s | -53.1°C | 1.2% | 53.7hPa | 2.7V | 00:00:00 | 00:00:00 | 00:00:00 | |
| IW2NTF | 2026-09-02 11:51:56 | 48.58235 | 10.01701 | 130° | 24km/h | 20579m | 5.4m/s | -53.1°C | 4.4% | 53.6hPa | 2.7V | 08:30:00 | 01:22:56 | 00:00:00 | |
| DK7TD | 2026-09-02 11:51:55 | 48.58227 | 10.01714 | 139° | 24km/h | 20589m | 4.4m/s | -53°C | 0.7% | 53.5hPa | 2.6V | 18:12:15 | 01:22:58 | 00:00:00 | |
| OE5DRO-10 | 2026-09-02 11:51:54 | 48.58231 | 10.01708 | 136° | 24km/h | 20585m | 5.4m/s | -53.0°C | 4.4% | 53.5hPa | 2.6V | 00:00:00 | 00:00:00 | 00:00:00 | |
| DO3MHA-12 | 2026-09-02 11:51:53 | 48.58235 | 10.01701 | 131° | 24km/h | 20579m | 5.3m/s | -53.0°C | 4.4% | 53.6hPa | 2.6V | 00:00:00 | 01:22:56 | 00:00:00 | |
| DK5PH-5 | 2026-09-02 11:51:50 | 48.58247 | 10.01680 | 133° | 27km/h | 20563m | 5.4m/s | -53.0°C | 4.3% | 53.7hPa | 2.6V | 00:00:00 | 01:22:53 | 08:30:00 | |
| DO9HM | 2026-09-02 11:51:49 | 48.58247 | 10.01680 | 134° | 27km/h | 20563m | 5.4m/s | -53.1°C | 1.2% | 53.8hPa | 2.7V | 00:00:00 | 00:00:00 | 00:00:00 | |
| DJ8HS-15 | 2026-09-02 11:51:48 | 48.58258 | 10.01665 | 141° | 24km/h | 20554m | 5.2m/s | -53.0°C | 4.3% | 53.8hPa | 2.7V | 00:00:00 | 01:22:51 | 00:00:00 | |
| IW2NTF | 2026-09-02 11:51:46 | 48.58280 | 10.01642 | 141° | 24km/h | 20528m | 5.1m/s | -53°C | 4.3% | 54hPa | 2.7V | 08:30:00 | 01:22:46 | 00:00:00 | |
| DK7TD | 2026-09-02 11:51:44 | 48.58276 | 10.01647 | 147° | 22km/h | 20534m | 5.9m/s | -53°C | 0.7% | 54hPa | 2.6V | 18:12:15 | 01:22:47 | 00:00:00 | |
| OE3JTB-15 | 2026-09-02 11:51:44 | 48.58275 | 10.01647 | 147° | 29km/h | 20534m | 5.9m/s | -53.0°C | 4.3% | 54.0hPa | 2.6V | 00:00:00 | 00:00:00 | 00:00:00 | |
| DN1GJH-1 | 2026-09-02 11:51:43 | 48.58280 | 10.01642 | 142° | 24km/h | 20529m | 5.1m/s | -53.0°C | 1.2% | 54.0hPa | 2.7V | 00:00:00 | 00:00:00 | 00:00:00 | |
| DB0ND-19 | 2026-09-02 11:51:42 | 48.58285 | 10.01636 | 135° | 22km/h | 20523m | 5.0m/s | -53.0°C | 1.2% | 54.1hPa | 2.7V | 00:00:00 | 00:00:00 | 00:00:00 | |
| AZAK | 2026-09-02 11:51:38 | 48.58299 | 10.01606 | 124° | 27km/h | 20503m | 5.9m/s | -53.0°C | 1.2% | 54.3hPa | 2.7V | 00:00:00 | 00:00:00 | 00:00:00 | |
| IW2NTF | 2026-09-02 11:51:35 | 48.58317 | 10.01563 | 123° | 26km/h | 20478m | 4.8m/s | -53.2°C | 4.3% | 54.5hPa | 2.7V | 08:30:00 | 01:22:36 | 00:00:00 | |
| DK7TD | 2026-09-02 11:51:33 | 48.58317 | 10.01563 | 124° | 26km/h | 20478m | 4.8m/s | -53.2°C | 0.7% | 54.5hPa | 2.7V | 18:12:15 | 01:22:36 | 00:00:00 | |
| DO3MHA-12 | 2026-09-02 11:51:33 | 48.58317 | 10.01563 | 124° | 27km/h | 20478m | 4.8m/s | -53.1°C | 4.3% | 54.4hPa | 2.7V | 00:00:00 | 01:22:36 | 00:00:00 | |
| DB0UT-7 | 2026-09-02 11:51:32 | 48.58321 | 10.01555 | 128° | 22km/h | 20473m | 5.5m/s | -53.1°C | 4.3% | 54.5hPa | 2.7V | 00:00:00 | 00:00:00 | 00:00:00 | |
| OE5DXL-15 | 2026-09-02 11:51:29 | 48.58332 | 10.01531 | 121° | 35km/h | 20458m | 5.1m/s | -53.1°C | 4.3% | 54.6hPa | 2.7V | 00:00:00 | 00:00:00 | 00:00:00 | |
| DM7RM-13 | 2026-09-02 11:51:28 | 48.58335 | 10.01523 | 117° | 24km/h | 20453m | 4.4m/s | -53.1°C | 1.2% | 54.7hPa | 2.7V | 00:00:00 | 00:00:00 | 00:00:00 | |
| DO9HM | 2026-09-02 11:51:27 | 48.58335 | 10.01523 | 117° | 24km/h | 20453m | 4.4m/s | -53.1°C | 1.2% | 54.7hPa | 2.7V | 00:00:00 | 00:00:00 | 00:00:00 | |
| DL6DJ-15 | 2026-09-02 11:51:26 | 48.58341 | 10.01504 | 113° | 29km/h | 20442m | 5.3m/s | -53.0°C | 1.1% | 54.8hPa | 2.7V | 00:00:00 | 00:00:00 | 00:00:00 | |
| IW2NTF | 2026-09-02 11:51:25 | 48.58354 | 10.01437 | 104° | 42km/h | 20415m | 5.3m/s | -53.1°C | 4.4% | 55hPa | 2.7V | 08:30:00 | 01:22:24 | 00:00:00 | |
| DK7TD | 2026-09-02 11:51:22 | 48.58351 | 10.01452 | 103° | 40km/h | 20421m | 5.9m/s | -53.1°C | 0.7% | 55hPa | 2.7V | 18:12:15 | 01:22:25 | 00:00:00 | |
| OE9MKV-15 | 2026-09-02 11:51:22 | 48.58351 | 10.01452 | 104° | 37km/h | 20421m | 5.8m/s | -53.0°C | 4.3% | 54.9hPa | 2.7V | 00:00:00 | 01:22:25 | 00:00:00 | |
| DN1GJH-1 | 2026-09-02 11:51:21 | 48.58351 | 10.01452 | 104° | 40km/h | 20421m | 5.9m/s | -53.1°C | 1.2% | 55.0hPa | 2.7V | 00:00:00 | 00:00:00 | 00:00:00 | |
| DK5PH-5 | 2026-09-02 11:51:20 | 48.58356 | 10.01422 | 104° | 37km/h | 20411m | 4.2m/s | -53.2°C | 4.4% | 55.0hPa | 2.7V | 00:00:00 | 01:22:23 | 00:00:00 | |
| DF3TZ-5 | 2026-09-02 11:51:19 | 48.58358 | 10.01408 | 100° | 37km/h | 20405m | 6.0m/s | -53.3°C | 1.2% | 55.1hPa | 2.7V | 00:00:00 | 00:00:00 | 00:00:00 | |
| AZAK | 2026-09-02 11:51:18 | 48.58360 | 10.01394 | 98° | 33km/h | 20400m | 4.9m/s | -53.2°C | 1.2% | 55.1hPa | 2.7V | 00:00:00 | 00:00:00 | 00:00:00 | |
| IW2NTF | 2026-09-02 11:51:16 | 48.58368 | 10.01319 | 90° | 29km/h | 20366m | 4.7m/s | -53.4°C | 4.4% | 55.4hPa | 2.7V | 08:30:00 | 01:22:14 | 00:00:00 | |
| DK7TD | 2026-09-02 11:51:11 | 48.58368 | 10.01319 | 90° | 29km/h | 20366m | 4.7m/s | -53.4°C | 0.7% | 55.4hPa | 2.7V | 18:12:15 | 01:22:14 | 00:00:00 | |
| DO9HM | 2026-09-02 11:51:08 | 48.58369 | 10.01266 | 92° | 38km/h | 20347m | 4.4m/s | -53.4°C | 1.2% | 55.6hPa | 2.6V | 00:00:00 | 00:00:00 | 00:00:00 | |
| DM7RM-13 | 2026-09-02 11:51:07 | 48.58369 | 10.01266 | 92° | 38km/h | 20347m | 4.4m/s | -53.4°C | 1.2% | 55.6hPa | 2.6V | 00:00:00 | 00:00:00 | 00:00:00 | |
| IW2NTF | 2026-09-02 11:51:05 | 48.58362 | 10.01175 | 83° | 40km/h | 20315m | 4.1m/s | -53.2°C | 4.4% | 55.9hPa | 2.6V | 08:30:00 | 01:22:04 | 00:00:00 | |
| DK7TD | 2026-09-02 11:51:00 | 48.58361 | 10.01161 | 81° | 38km/h | 20310m | 5.6m/s | -53.3°C | 0.8% | 55.9hPa | 2.7V | 18:12:15 | 01:22:03 | 00:00:00 | |
| DL9SK-14 | 2026-09-02 11:50:58 | 48.58355 | 10.01118 | 80° | 38km/h | 20297m | 5.5m/s | -53.5°C | 1.2% | 56.0hPa | 2.6V | 00:00:00 | 00:00:00 | 00:00:00 | |
| AZAK | 2026-09-02 11:50:57 | 48.58355 | 10.01118 | 81° | 40km/h | 20297m | 5.5m/s | -53.5°C | 1.2% | 56.0hPa | 2.6V | 00:00:00 | 00:00:00 | 00:00:00 | |
| IW2NTF | 2026-09-02 11:50:56 | 48.58340 | 10.01027 | 78° | 40km/h | 20265m | 4.9m/s | -53.5°C | 4.4% | 56.3hPa | 2.6V | 08:30:00 | 01:21:54 | 00:00:00 | |
| DK7TD | 2026-09-02 11:50:50 | 48.58338 | 10.01013 | 80° | 38km/h | 20260m | 4.2m/s | -53.5°C | 0.8% | 56.4hPa | 2.6V | 18:12:15 | 01:21:53 | 00:00:00 | |
| DF3TZ-5 | 2026-09-02 11:50:48 | 48.58334 | 10.00976 | 83° | 27km/h | 20245m | 5.4m/s | -53.5°C | 1.2% | 56.5hPa | 2.7V | 00:00:00 | 00:00:00 | 00:00:00 | |
| DK7TD | 2026-09-02 11:50:40 | 48.58326 | 10.00894 | 78° | 38km/h | 20208m | 5m/s | -53.1°C | 0.7% | 56.8hPa | 2.7V | 18:12:15 | 01:21:43 | 00:00:00 | |
| OE5DRO-10 | 2026-09-02 11:50:38 | 48.58321 | 10.00866 | 70° | 27km/h | 20199m | 5.9m/s | -53.1°C | 4.4% | 56.8hPa | 2.7V | 00:00:00 | 00:00:00 | 08:30:00 | |
| AZAK | 2026-09-02 11:50:36 | 48.58317 | 10.00854 | 65° | 35km/h | 20194m | 4.4m/s | -53.1°C | 1.2% | 57.0hPa | 2.6V | 00:00:00 | 00:00:00 | 00:00:00 | |
| IW2NTF | 2026-09-02 11:50:34 | 48.58298 | 10.00801 | 63° | 20km/h | 20162m | 5.8m/s | -53°C | 4.3% | 57.2hPa | 2.6V | 08:30:00 | 01:21:34 | 00:00:00 | |
| DK7TD | 2026-09-02 11:50:29 | 48.58295 | 10.00786 | 75° | 22km/h | 20152m | 3.9m/s | -53.1°C | 0.6% | 57.3hPa | 2.7V | 18:12:15 | 01:21:32 | 00:00:00 | |
| DK7TD | 2026-09-02 11:50:19 | 48.58272 | 10.00692 | 65° | 24km/h | 20103m | 5.7m/s | -52.9°C | 0.7% | 57.8hPa | 2.6V | 18:12:15 | 01:21:22 | 00:00:00 | |
| DK7TD | 2026-09-02 11:50:08 | 48.58234 | 10.00604 | 60° | 24km/h | 20047m | 5.9m/s | -52.6°C | 0.6% | 58.3hPa | 2.6V | 18:12:15 | 01:21:11 | 00:00:00 | |
| DJ8HS-15 | 2026-09-02 11:50:08 | 48.58234 | 10.00604 | 61° | 20km/h | 20047m | 5.9m/s | -52.5°C | 4.2% | 58.2hPa | 2.6V | 00:00:00 | 01:21:11 | 00:00:00 | |
| DF1GD-15 | 2026-09-02 11:50:06 | 48.58232 | 10.00596 | 70° | 24km/h | 20041m | 5.7m/s | -52.6°C | 1.2% | 58.3hPa | 2.6V | 00:00:00 | 00:00:00 | 00:00:00 | |
| IW2NTF | 2026-09-02 11:50:04 | 48.58223 | 10.00556 | 69° | 20km/h | 20017m | 5.3m/s | -52.6°C | 4.2% | 58.5hPa | 2.6V | 08:30:00 | 01:21:05 | 00:00:00 | |
| DK7TD | 2026-09-02 11:49:56 | 48.58209 | 10.00516 | 44° | 20km/h | 19986m | 5.2m/s | -52.6°C | 0.6% | 58.8hPa | 2.7V | 18:12:15 | 01:20:59 | 00:00:00 | |
| DL9SK-14 | 2026-09-02 11:49:56 | 48.58206 | 10.00511 | 54° | 18km/h | 19981m | 5.3m/s | -52.6°C | 1.1% | 58.9hPa | 2.7V | 00:00:00 | 00:00:00 | 00:00:00 | |
| AZAK | 2026-09-02 11:49:55 | 48.58206 | 10.00511 | 56° | 18km/h | 19981m | 5.3m/s | -52.6°C | 1.1% | 58.9hPa | 2.7V | 00:00:00 | 00:00:00 | 00:00:00 | |
| IW2NTF | 2026-09-02 11:49:54 | 48.58200 | 10.00492 | 72° | 18km/h | 19966m | 5.2m/s | -52.6°C | 4.1% | 59hPa | 2.7V | 08:30:00 | 01:20:55 | 00:00:00 | |
| DK7TD | 2026-09-02 11:49:45 | 48.58201 | 10.00428 | 84° | 26km/h | 19930m | 4.7m/s | -52.9°C | 0.6% | 59.3hPa | 2.7V | 18:12:15 | 01:20:48 | 00:00:00 | |
| DH7VM-15 | 2026-09-02 11:49:45 | 48.58201 | 10.00428 | 85° | 26km/h | 19930m | 4.7m/s | -52.9°C | 1.1% | 59.3hPa | 2.6V | 00:00:00 | 00:00:00 | 00:00:00 | |
| IW2NTF | 2026-09-02 11:49:44 | 48.58197 | 10.00399 | 75° | 27km/h | 19913m | 6m/s | -53°C | 4.2% | 59.5hPa | 2.6V | 08:30:00 | 01:20:45 | 00:00:00 | |
| DO9HM | 2026-09-02 11:49:43 | 48.58199 | 10.00409 | 81° | 26km/h | 19919m | 5.5m/s | -53.0°C | 1.2% | 59.5hPa | 2.6V | 00:00:00 | 00:00:00 | 00:00:00 | |
| OE5DRO-10 | 2026-09-02 11:49:41 | 48.58195 | 10.00389 | 72° | 27km/h | 19907m | 5.6m/s | -53.0°C | 4.3% | 59.5hPa | 2.6V | 00:00:00 | 00:00:00 | 00:00:00 | |
| DF7PN | 2026-09-02 11:49:40 | 48.58191 | 10.00369 | 77° | 26km/h | 19899m | 5.4m/s | -53.2°C | 1.2% | 59.6hPa | 2.7V | 00:00:00 | 00:00:00 | 00:00:00 | |
| DB0ND-19 | 2026-09-02 11:49:38 | 48.58190 | 10.00359 | 85° | 27km/h | 19893m | 5.6m/s | -53.3°C | 1.2% | 59.7hPa | 2.7V | 00:00:00 | 00:00:00 | 00:00:00 | |
| IW2NTF | 2026-09-02 11:49:36 | 48.58197 | 10.00266 | 88° | 27km/h | 19851m | 5.5m/s | -53.5°C | 4.4% | 60.1hPa | 2.7V | 08:30:00 | 01:20:33 | 00:00:00 | |
| DK7TD | 2026-09-02 11:49:34 | 48.58192 | 10.00313 | 100° | 33km/h | 19871m | 6.1m/s | -53.3°C | 0.7% | 59.9hPa | 2.6V | 18:12:15 | 01:20:37 | 00:00:00 | |
| AZAK | 2026-09-02 11:49:34 | 48.58192 | 10.00313 | 101° | 33km/h | 19871m | 6.1m/s | -53.3°C | 1.2% | 59.9hPa | 2.6V | 00:00:00 | 00:00:00 | 00:00:00 | |
| DO3MHA-12 | 2026-09-02 11:49:33 | 48.58193 | 10.00301 | 104° | 26km/h | 19866m | 4.7m/s | -53.3°C | 4.3% | 59.9hPa | 2.6V | 00:00:00 | 01:20:36 | 00:00:00 | |
| OE5DXL-15 | 2026-09-02 11:49:29 | 48.58197 | 10.00256 | 81° | 27km/h | 19846m | 4.9m/s | -53.6°C | 4.4% | 60.1hPa | 2.6V | 00:00:00 | 00:00:00 | 00:00:00 | |
| DJ8HS-15 | 2026-09-02 11:49:28 | 48.58195 | 10.00247 | 80° | 24km/h | 19841m | 5.4m/s | -53.5°C | 4.3% | 60.1hPa | 2.6V | 00:00:00 | 01:20:31 | 00:00:00 | |
| PG1ADW-2 | 2026-09-02 11:49:27 | 48.58195 | 10.00238 | 84° | 24km/h | 19836m | 5.5m/s | -53.6°C | 4.4% | 60.2hPa | 2.6V | 00:00:00 | 01:20:30 | 00:00:00 | |
| DL9SK-14 | 2026-09-02 11:49:25 | 48.58193 | 10.00212 | 85° | 22km/h | 19820m | 5.3m/s | -53.7°C | 1.2% | 60.4hPa | 2.6V | 00:00:00 | 00:00:00 | 00:00:00 | |
| IW2NTF | 2026-09-02 11:49:24 | 48.58199 | 10.00176 | 111° | 27km/h | 19799m | 5.2m/s | -53.7°C | 4.5% | 60.5hPa | 2.6V | 08:30:00 | 01:20:23 | 00:00:00 | |
| DK7TD | 2026-09-02 11:49:22 | 48.58194 | 10.00195 | 103° | 26km/h | 19809m | 6.4m/s | -53.7°C | 0.8% | 60.5hPa | 2.6V | 18:12:15 | 01:20:25 | 00:00:00 | |
| DO9HM | 2026-09-02 11:49:22 | 48.58194 | 10.00195 | 104° | 26km/h | 19810m | 6.4m/s | -53.7°C | 1.2% | 60.5hPa | 2.6V | 00:00:00 | 00:00:00 | 00:00:00 | |
| DK5PH-5 | 2026-09-02 11:49:20 | 48.58199 | 10.00175 | 112° | 29km/h | 19799m | 5.2m/s | -53.7°C | 4.5% | 60.5hPa | 2.6V | 00:00:00 | 01:20:23 | 00:00:00 | |
| OE3JTB-15 | 2026-09-02 11:49:19 | 48.58201 | 10.00166 | 111° | 29km/h | 19793m | 5.3m/s | -53.7°C | 4.5% | 60.6hPa | 2.6V | 00:00:00 | 01:20:22 | 00:00:00 | |
| DF3TZ-5 | 2026-09-02 11:49:15 | 48.58213 | 10.00116 | 100° | 20km/h | 19763m | 6.6m/s | -53.7°C | 1.2% | 60.9hPa | 2.6V | 00:00:00 | 00:00:00 | 00:00:00 | |
| IW2NTF | 2026-09-02 11:49:14 | 48.58214 | 10.00091 | 92° | 24km/h | 19748m | 5.1m/s | -53.8°C | 4.4% | 61hPa | 2.6V | 08:30:00 | 01:20:13 | 00:00:00 | |
| DK7TD | 2026-09-02 11:49:12 | 48.58214 | 10.00108 | 92° | 22km/h | 19757m | 5m/s | -53.8°C | 0.8% | 61hPa | 2.7V | 18:12:15 | 01:20:15 | 00:00:00 | |
| OE9MKV-15 | 2026-09-02 11:49:09 | 48.58215 | 10.00081 | 101° | 33km/h | 19743m | 5.4m/s | -53.8°C | 4.4% | 61.0hPa | 2.7V | 00:00:00 | 01:20:12 | 00:00:00 | |
| DJ8HS-15 | 2026-09-02 11:49:08 | 48.58216 | 10.00071 | 104° | 33km/h | 19738m | 4.2m/s | -53.8°C | 4.4% | 61.1hPa | 2.7V | 00:00:00 | 01:20:11 | 00:00:00 | |
| PG1ADW-2 | 2026-09-02 11:49:07 | 48.58218 | 10.00060 | 104° | 33km/h | 19733m | 6.1m/s | -53.9°C | 4.5% | 61.2hPa | 2.7V | 00:00:00 | 00:00:00 | 00:00:00 | |
| IW2NTF | 2026-09-02 11:49:04 | 48.58235 | 9.99972 | 104° | 33km/h | 19695m | 5m/s | -53.7°C | 4.5% | 61.5hPa | 2.7V | 08:30:00 | 01:20:03 | 00:00:00 | |
| DK7TD | 2026-09-02 11:49:01 | 48.58233 | 9.99985 | 103° | 33km/h | 19700m | 5.1m/s | -53.8°C | 0.8% | 61.5hPa | 2.6V | 18:12:15 | 01:20:04 | 00:00:00 | |
| DO9HM | 2026-09-02 11:49:00 | 48.58233 | 9.99984 | 104° | 33km/h | 19700m | 5.1m/s | -53.8°C | 1.3% | 61.5hPa | 2.7V | 00:00:00 | 00:00:00 | 00:00:00 | |
| OE5DXL-15 | 2026-09-02 11:48:59 | 48.58237 | 9.99960 | 106° | 37km/h | 19689m | 5.6m/s | -53.7°C | 4.4% | 61.6hPa | 2.7V | 00:00:00 | 00:00:00 | 00:00:00 | |
| IW2NTF | 2026-09-02 11:48:54 | 48.58257 | 9.99824 | 103° | 31km/h | 19629m | 5.4m/s | -54°C | 4.5% | 62.1hPa | 2.6V | 08:30:00 | 01:19:51 | 00:00:00 | |
| DK7TD | 2026-09-02 11:48:50 | 48.58254 | 9.99848 | 99° | 33km/h | 19641m | 4.8m/s | -53.8°C | 0.7% | 62.1hPa | 2.6V | 18:12:15 | 01:19:53 | 00:00:00 | |
| DK5PH-5 | 2026-09-02 11:48:50 | 48.58254 | 9.99847 | 99° | 35km/h | 19641m | 4.7m/s | -53.8°C | 4.4% | 62.0hPa | 2.6V | 00:00:00 | 01:19:53 | 00:00:00 | |
| NBG1-10 | 2026-09-02 11:48:49 | 48.58256 | 9.99836 | 102° | 33km/h | 19636m | 6.4m/s | -53.8°C | 4.4% | 62.1hPa | 2.6V | 00:00:00 | 01:19:52 | 08:30:00 | |
| DJ8HS-15 | 2026-09-02 11:48:48 | 48.58257 | 9.99824 | 104° | 38km/h | 19630m | 5.4m/s | -54.0°C | 4.5% | 62.1hPa | 2.6V | 00:00:00 | 01:19:51 | 00:00:00 | |
| PG1ADW-2 | 2026-09-02 11:48:47 | 48.58259 | 9.99812 | 102° | 38km/h | 19624m | 5.4m/s | -54.1°C | 4.6% | 62.2hPa | 2.7V | 00:00:00 | 00:00:00 | 00:00:00 | |
| IW2NTF | 2026-09-02 11:48:44 | 48.58265 | 9.99676 | 89° | 42km/h | 19576m | 5.6m/s | -54.3°C | 4.7% | 62.7hPa | 2.7V | 08:30:00 | 01:19:41 | 00:00:00 | |
| DK7TD | 2026-09-02 11:48:40 | 48.58265 | 9.99709 | 87° | 44km/h | 19586m | 5m/s | -54.4°C | 0.9% | 62.6hPa | 2.7V | 18:12:15 | 01:19:43 | 00:00:00 | |
| OE9MKV-15 | 2026-09-02 11:48:39 | 48.58264 | 9.99692 | 88° | 29km/h | 19582m | 4.8m/s | -54.4°C | 4.7% | 62.6hPa | 2.7V | 00:00:00 | 01:19:42 | 00:00:00 | |
| DF7PN | 2026-09-02 11:48:38 | 48.58265 | 9.99661 | 93° | 40km/h | 19571m | 4.7m/s | -54.3°C | 1.3% | 62.7hPa | 2.6V | 00:00:00 | 00:00:00 | 00:00:00 | |
| DB0ND-19 | 2026-09-02 11:48:36 | 48.58265 | 9.99645 | 94° | 40km/h | 19566m | 4.6m/s | -54.4°C | 1.3% | 62.8hPa | 2.6V | 00:00:00 | 00:00:00 | 00:00:00 | |
| DJTTGO | 2026-09-02 11:48:35 | 48.58265 | 9.99645 | 95° | 40km/h | 19566m | 4.6m/s | -54.4°C | 1.3% | 62.8hPa | 2.6V | 00:00:00 | 00:00:00 | 00:00:00 | |
| IW2NTF | 2026-09-02 11:48:34 | 48.58269 | 9.99534 | 87° | 29km/h | 19523m | 6.6m/s | -54°C | 4.6% | 63.2hPa | 2.6V | 08:30:00 | 01:19:31 | 00:00:00 | |
| DK7TD | 2026-09-02 11:48:26 | 48.58268 | 9.99515 | 86° | 26km/h | 19512m | 4.8m/s | -53.9°C | 0.8% | 63.3hPa | 2.7V | 18:12:15 | 01:19:29 | 00:00:00 | |
| OE5DRO-10 | 2026-09-02 11:48:25 | 48.58268 | 9.99505 | 84° | 26km/h | 19507m | 5.9m/s | -53.9°C | 4.5% | 63.3hPa | 2.6V | 00:00:00 | 00:00:00 | 00:00:00 | |
| DO3MHA-12 | 2026-09-02 11:48:23 | 48.58267 | 9.99485 | 91° | 26km/h | 19496m | 6.0m/s | -53.7°C | 4.5% | 63.4hPa | 2.6V | 00:00:00 | 01:19:26 | 00:00:00 | |
| IW2NTF | 2026-09-02 11:48:22 | 48.58269 | 9.99436 | 93° | 24km/h | 19470m | 5.2m/s | -53.6°C | 4.5% | 63.8hPa | 2.6V | 08:30:00 | 01:19:21 | 00:00:00 | |
| DK7TD | 2026-09-02 11:48:16 | 48.58270 | 9.99419 | 99° | 22km/h | 19459m | 4.5m/s | -53.5°C | 0.8% | 63.9hPa | 2.6V | 18:12:15 | 01:19:19 | 00:00:00 | |
| NBG1-10 | 2026-09-02 11:48:16 | 48.58270 | 9.99419 | 100° | 20km/h | 19460m | 4.5m/s | -53.4°C | 4.5% | 63.8hPa | 2.7V | 00:00:00 | 01:19:19 | 00:00:00 | |
| IW2NTF | 2026-09-02 11:48:14 | 48.58273 | 9.99339 | 89° | 29km/h | 19418m | 5.4m/s | -53.5°C | 4.3% | 64.3hPa | 2.7V | 08:30:00 | 01:19:11 | 00:00:00 | |
| DK7TD | 2026-09-02 11:48:06 | 48.58273 | 9.99319 | 94° | 22km/h | 19408m | 5.7m/s | -53.5°C | 0.8% | 64.4hPa | 2.7V | 18:12:15 | 01:19:09 | 00:00:00 | |
| OE5DRO-10 | 2026-09-02 11:48:06 | 48.58273 | 9.99319 | 94° | 15km/h | 19408m | 5.6m/s | -53.4°C | 4.4% | 64.3hPa | 2.6V | 00:00:00 | 00:00:00 | 00:00:00 | |
| DB0ND-19 | 2026-09-02 11:48:05 | 48.58275 | 9.99299 | 92° | 15km/h | 19393m | 5.7m/s | -53.5°C | 1.2% | 64.5hPa | 2.6V | 00:00:00 | 00:00:00 | 00:00:00 | |
| IW2NTF | 2026-09-02 11:48:04 | 48.58280 | 9.99271 | 109° | 16km/h | 19367m | 6.1m/s | -53.5°C | 4.5% | 64.8hPa | 2.6V | 08:30:00 | 01:19:01 | 00:00:00 | |
| DK7TD | 2026-09-02 11:47:55 | 48.58283 | 9.99252 | 106° | 16km/h | 19353m | 4.8m/s | -53.5°C | 0.8% | 64.9hPa | 2.7V | 18:12:15 | 01:18:58 | 00:00:00 | |
| DB0UT-7 | 2026-09-02 11:47:55 | 48.58283 | 9.99252 | 107° | 26km/h | 19353m | 4.8m/s | -53.5°C | 4.4% | 64.9hPa | 2.7V | 00:00:00 | 01:18:58 | 08:30:00 | |
| IW2NTF | 2026-09-02 11:47:54 | 48.58289 | 9.99220 | 107° | 16km/h | 19317m | 4.8m/s | -53.7°C | 4.5% | 65.3hPa | 2.7V | 08:30:00 | 01:18:51 | 00:00:00 | |
| DK7TD | 2026-09-02 11:47:45 | 48.58293 | 9.99197 | 101° | 24km/h | 19303m | 4.3m/s | -53.6°C | 0.8% | 65.4hPa | 2.6V | 18:12:15 | 01:18:48 | 00:00:00 | |
| DK7TD | 2026-09-02 11:47:35 | 48.58319 | 9.99113 | 117° | 22km/h | 19254m | 4.7m/s | -53.6°C | 0.7% | 66hPa | 2.7V | 18:12:15 | 01:18:38 | 00:00:00 | |
| IW2NTF | 2026-09-02 11:47:35 | 48.58340 | 9.99057 | 118° | 31km/h | 19224m | 4m/s | -53.5°C | 4.4% | 66.2hPa | 2.7V | 08:30:00 | 01:18:32 | 00:00:00 | |
| DO3MHA-12 | 2026-09-02 11:47:33 | 48.58324 | 9.99097 | 121° | 31km/h | 19245m | 5.6m/s | -53.4°C | 4.3% | 66.0hPa | 2.7V | 00:00:00 | 01:18:36 | 00:00:00 | |
| AZAK | 2026-09-02 11:47:31 | 48.58332 | 9.99078 | 121° | 31km/h | 19235m | 5.2m/s | -53.6°C | 1.2% | 66.1hPa | 2.7V | 00:00:00 | 00:00:00 | 00:00:00 | |
| OE5DXL-15 | 2026-09-02 11:47:29 | 48.58340 | 9.99057 | 119° | 35km/h | 19224m | 4.0m/s | -53.5°C | 4.4% | 66.2hPa | 2.7V | 00:00:00 | 00:00:00 | 00:00:00 | |
| OE5DRO-10 | 2026-09-02 11:47:28 | 48.58343 | 9.99047 | 123° | 35km/h | 19220m | 4.1m/s | -53.5°C | 4.4% | 66.2hPa | 2.7V | 00:00:00 | 00:00:00 | 00:00:00 | |
| PG1ADW-2 | 2026-09-02 11:47:27 | 48.58348 | 9.99038 | 129° | 35km/h | 19215m | 5.7m/s | -53.6°C | 4.4% | 66.3hPa | 2.7V | 00:00:00 | 00:00:00 | 00:00:00 | |
| IW2NTF | 2026-09-02 11:47:25 | 48.58392 | 9.98974 | 134° | 31km/h | 19176m | 4.8m/s | -53.9°C | 4.5% | 66.7hPa | 2.6V | 08:30:00 | 01:18:22 | 00:00:00 | |
| DK7TD | 2026-09-02 11:47:24 | 48.58365 | 9.99013 | 138° | 29km/h | 19200m | 5.4m/s | -53.9°C | 0.9% | 66.5hPa | 2.6V | 18:12:15 | 01:18:27 | 00:00:00 | |
| DK7TD | 2026-09-02 11:47:14 | 48.58420 | 9.98923 | 130° | 40km/h | 19152m | 3.8m/s | -54°C | 0.8% | 67hPa | 2.7V | 18:12:15 | 01:18:17 | 00:00:00 | |
| DO3MHA-12 | 2026-09-02 11:47:13 | 48.58426 | 9.98911 | 130° | 37km/h | 19148m | 5.7m/s | -54.0°C | 4.5% | 67.0hPa | 2.6V | 00:00:00 | 01:18:16 | 00:00:00 | |
| AZAK | 2026-09-02 11:47:11 | 48.58447 | 9.98875 | 135° | 42km/h | 19132m | 4.5m/s | -54.1°C | 1.3% | 67.2hPa | 2.6V | 00:00:00 | 00:00:00 | 00:00:00 | |
| NBG1-10 | 2026-09-02 11:47:10 | 48.58447 | 9.98875 | 134° | 38km/h | 19132m | 4.4m/s | -54.1°C | 4.6% | 67.2hPa | 2.6V | 00:00:00 | 01:18:13 | 00:00:00 | |
| OE5DRO-10 | 2026-09-02 11:47:09 | 48.58455 | 9.98864 | 136° | 37km/h | 19128m | 4.2m/s | -54.0°C | 4.6% | 67.2hPa | 2.7V | 00:00:00 | 00:00:00 | 00:00:00 | |
| DJ8HS-15 | 2026-09-02 11:47:08 | 48.58462 | 9.98854 | 135° | 37km/h | 19123m | 5.7m/s | -54.0°C | 4.6% | 67.2hPa | 2.7V | 00:00:00 | 01:18:11 | 00:00:00 | |
| IW2NTF | 2026-09-02 11:47:07 | 48.58493 | 9.98797 | 120° | 33km/h | 19095m | 5.8m/s | -53.8°C | 4.5% | 67.6hPa | 2.7V | 08:30:00 | 01:18:05 | 00:00:00 | |
| DK7TD | 2026-09-02 11:47:04 | 48.58483 | 9.98817 | 130° | 33km/h | 19103m | 4.1m/s | -54°C | 0.9% | 67.5hPa | 2.6V | 18:12:15 | 01:18:07 | 00:00:00 | |
| DO3MHA-11 | 2026-09-02 11:47:03 | 48.58488 | 9.98807 | 126° | 38km/h | 19100m | 3.9m/s | -53.8°C | 4.6% | 67.5hPa | 2.6V | 00:00:00 | 01:18:06 | 00:00:00 | |
| DF1GD-15 | 2026-09-02 11:47:00 | 48.58497 | 9.98786 | 118° | 35km/h | 19089m | 4.7m/s | -53.7°C | 1.3% | 67.7hPa | 2.6V | 00:00:00 | 00:00:00 | 00:00:00 | |
| OE5DXL-15 | 2026-09-02 11:46:59 | 48.58506 | 9.98760 | 119° | 40km/h | 19079m | 5.1m/s | -53.7°C | 4.4% | 67.7hPa | 2.6V | 00:00:00 | 00:00:00 | 00:00:00 | |
| DM7RM-13 | 2026-09-02 11:46:58 | 48.58506 | 9.98760 | 119° | 42km/h | 19079m | 5.1m/s | -53.8°C | 1.2% | 67.8hPa | 2.6V | 00:00:00 | 00:00:00 | 00:00:00 | |
| DO9HM | 2026-09-02 11:46:57 | 48.58516 | 9.98731 | 116° | 44km/h | 19070m | 5.5m/s | -53.8°C | 1.3% | 67.8hPa | 2.6V | 00:00:00 | 00:00:00 | 00:00:00 | |
| IW2NTF | 2026-09-02 11:46:56 | 48.58538 | 9.98664 | 119° | 35km/h | 19046m | 5.6m/s | -53.8°C | 4.4% | 68.1hPa | 2.6V | 08:30:00 | 01:17:55 | 00:00:00 | |
| DK7TD | 2026-09-02 11:46:53 | 48.58534 | 9.98675 | 121° | 37km/h | 19050m | 3.7m/s | -53.7°C | 0.7% | 68hPa | 2.6V | 18:12:15 | 01:17:56 | 00:00:00 | |
| DO3MHA-12 | 2026-09-02 11:46:53 | 48.58534 | 9.98675 | 121° | 38km/h | 19051m | 3.6m/s | -53.6°C | 4.3% | 68.0hPa | 2.7V | 00:00:00 | 01:17:56 | 00:00:00 | |
| OE3JTB-15 | 2026-09-02 11:46:51 | 48.58542 | 9.98652 | 117° | 40km/h | 19041m | 4.7m/s | -53.8°C | 4.4% | 68.1hPa | 2.7V | 00:00:00 | 00:00:00 | 00:00:00 | |
| OE5DRO-10 | 2026-09-02 11:46:50 | 48.58546 | 9.98640 | 118° | 40km/h | 19036m | 4.6m/s | -53.7°C | 4.4% | 68.2hPa | 2.7V | 00:00:00 | 00:00:00 | 00:00:00 | |
| AZAK | 2026-09-02 11:46:49 | 48.58550 | 9.98629 | 119° | 35km/h | 19031m | 5.5m/s | -53.9°C | 1.2% | 68.3hPa | 2.7V | 00:00:00 | 00:00:00 | 00:00:00 | |
| DJ8HS-15 | 2026-09-02 11:46:48 | 48.58554 | 9.98617 | 116° | 42km/h | 19027m | 3.5m/s | -53.9°C | 4.5% | 68.2hPa | 2.7V | 00:00:00 | 01:17:51 | 00:00:00 | |
| IW2NTF | 2026-09-02 11:46:47 | 48.58580 | 9.98527 | 112° | 49km/h | 18996m | 5.7m/s | -53.9°C | 4.4% | 68.6hPa | 2.7V | 08:30:00 | 01:17:45 | 00:00:00 | |
| DL6DJ-15 | 2026-09-02 11:46:47 | 48.58562 | 9.98591 | 110° | 40km/h | 19017m | 4.2m/s | -54.0°C | 1.2% | 68.4hPa | 2.7V | 00:00:00 | 00:00:00 | 00:00:00 | |
| HARRO8 | 2026-09-02 11:46:46 | 48.58566 | 9.98576 | 112° | 42km/h | 19012m | 5.1m/s | -54.0°C | 1.2% | 68.5hPa | 2.7V | 00:00:00 | 00:00:00 | 00:00:00 | |
| DK7TD | 2026-09-02 11:46:43 | 48.58575 | 9.98544 | 114° | 49km/h | 19002m | 4.8m/s | -54°C | 0.8% | 68.6hPa | 2.7V | 18:12:15 | 01:17:46 | 00:00:00 | |
| DO3MHA-12 | 2026-09-02 11:46:43 | 48.58575 | 9.98544 | 115° | 42km/h | 19002m | 4.7m/s | -53.9°C | 4.5% | 68.5hPa | 2.7V | 00:00:00 | 01:17:46 | 00:00:00 | |
| DF1GD-15 | 2026-09-02 11:46:39 | 48.58590 | 9.98493 | 116° | 46km/h | 18987m | 5.0m/s | -54.0°C | 1.3% | 68.7hPa | 2.7V | 00:00:00 | 00:00:00 | 00:00:00 | |
| OE9MKV-15 | 2026-09-02 11:46:38 | 48.58599 | 9.98464 | 119° | 38km/h | 18977m | 3.7m/s | -54.0°C | 4.5% | 68.8hPa | 2.7V | 00:00:00 | 01:17:41 | 00:00:00 | |
| DO9HM | 2026-09-02 11:46:37 | 48.58604 | 9.98451 | 118° | 37km/h | 18973m | 5.0m/s | -54.1°C | 1.3% | 68.9hPa | 2.7V | 00:00:00 | 00:00:00 | 00:00:00 | |
| IW2NTF | 2026-09-02 11:46:36 | 48.58625 | 9.98351 | 104° | 40km/h | 18938m | 5.7m/s | -54.1°C | 4.6% | 69.3hPa | 2.7V | 08:30:00 | 01:17:33 | 00:00:00 | |
| DK7TD | 2026-09-02 11:46:33 | 48.58616 | 9.98396 | 106° | 40km/h | 18954m | 5.4m/s | -54.2°C | 0.8% | 69.1hPa | 2.6V | 18:12:15 | 01:17:36 | 00:00:00 | |
| DK7TD | 2026-09-02 11:46:22 | 48.58641 | 9.98245 | 106° | 35km/h | 18899m | 5.6m/s | -54.3°C | 0.9% | 69.7hPa | 2.7V | 18:12:15 | 01:17:25 | 00:00:00 | |
| DK7TD | 2026-09-02 11:46:12 | 48.58644 | 9.98098 | 83° | 42km/h | 18848m | 6.2m/s | -54.1°C | 0.8% | 70.2hPa | 2.6V | 18:12:15 | 01:17:15 | 00:00:00 | |
| OE5DRO-10 | 2026-09-02 11:46:12 | 48.58644 | 9.98098 | 83° | 38km/h | 18848m | 6.1m/s | -54.0°C | 4.5% | 70.2hPa | 2.6V | 00:00:00 | 00:00:00 | 00:00:00 | |
| DJ8HS-15 | 2026-09-02 11:46:08 | 48.58641 | 9.98042 | 87° | 38km/h | 18827m | 4.5m/s | -53.9°C | 4.5% | 70.4hPa | 2.6V | 00:00:00 | 01:17:11 | 00:00:00 | |
| IW2NTF | 2026-09-02 11:46:07 | 48.58630 | 9.97947 | 72° | 44km/h | 18791m | 5.1m/s | -53.9°C | 4.6% | 70.8hPa | 2.6V | 08:30:00 | 01:17:04 | 00:00:00 | |
| DK7TD | 2026-09-02 11:46:02 | 48.58633 | 9.97962 | 73° | 42km/h | 18796m | 5.5m/s | -53.9°C | 0.9% | 70.8hPa | 2.7V | 18:12:15 | 01:17:05 | 00:00:00 | |
| DB0ND-19 | 2026-09-02 11:46:01 | 48.58629 | 9.97947 | 72° | 44km/h | 18791m | 5.1m/s | -53.9°C | 1.3% | 70.9hPa | 2.6V | 00:00:00 | 00:00:00 | 00:00:00 | |
| OE5DXL-15 | 2026-09-02 11:45:59 | 48.58622 | 9.97915 | 68° | 40km/h | 18781m | 5.5m/s | -53.8°C | 4.6% | 70.9hPa | 2.6V | 00:00:00 | 00:00:00 | 08:30:00 | |
| DF1GD-15 | 2026-09-02 11:45:58 | 48.58622 | 9.97915 | 69° | 44km/h | 18781m | 5.5m/s | -53.8°C | 1.3% | 71.0hPa | 2.6V | 00:00:00 | 00:00:00 | 00:00:00 | |
| DM7RM-13 | 2026-09-02 11:45:57 | 48.58613 | 9.97885 | 67° | 40km/h | 18772m | 3.4m/s | -53.8°C | 1.3% | 71.1hPa | 2.6V | 00:00:00 | 00:00:00 | 00:00:00 | |
| DO3MHA-12 | 2026-09-02 11:45:53 | 48.58602 | 9.97829 | 78° | 40km/h | 18753m | 5.9m/s | -53.7°C | 4.5% | 71.2hPa | 2.6V | 00:00:00 | 01:16:56 | 00:00:00 | |
| IW2NTF | 2026-09-02 11:45:52 | 48.58586 | 9.97742 | 70° | 42km/h | 18723m | 6m/s | -53.5°C | 4.4% | 71.6hPa | 2.6V | 08:30:00 | 01:16:50 | 00:00:00 | |
| DK7TD | 2026-09-02 11:45:51 | 48.58597 | 9.97802 | 73° | 38km/h | 18743m | 4.3m/s | -53.7°C | 0.8% | 71.4hPa | 2.7V | 18:12:15 | 01:16:54 | 00:00:00 | |
| DL9SK-14 | 2026-09-02 11:45:47 | 48.58586 | 9.97742 | 70° | 42km/h | 18723m | 6.0m/s | -53.5°C | 1.2% | 71.6hPa | 2.6V | 00:00:00 | 00:00:00 | 00:00:00 | |
| DL6DJ-15 | 2026-09-02 11:45:44 | 48.58575 | 9.97697 | 70° | 40km/h | 18707m | 5.1m/s | -53.6°C | 1.3% | 71.8hPa | 2.6V | 00:00:00 | 00:00:00 | 00:00:00 | |
| DK7TD | 2026-09-02 11:45:40 | 48.58561 | 9.97638 | 77° | 42km/h | 18688m | 5.6m/s | -53.4°C | 0.8% | 72hPa | 2.6V | 18:12:15 | 01:16:43 | 00:00:00 | |
| DK7TD | 2026-09-02 11:45:30 | 48.58543 | 9.97480 | 74° | 38km/h | 18638m | 4.4m/s | -53.2°C | 0.8% | 72.6hPa | 2.6V | 18:12:15 | 01:16:33 | 00:00:00 | |
| DJ8HS-15 | 2026-09-02 11:45:29 | 48.58538 | 9.97453 | 74° | 37km/h | 18628m | 4.3m/s | -53.1°C | 4.4% | 72.6hPa | 2.6V | 00:00:00 | 01:16:31 | 00:00:00 | |
| AZAK | 2026-09-02 11:45:28 | 48.58538 | 9.97453 | 75° | 35km/h | 18628m | 4.3m/s | -53.1°C | 1.2% | 72.7hPa | 2.6V | 00:00:00 | 00:00:00 | 00:00:00 | |
| IW2NTF | 2026-09-02 11:45:26 | 48.58530 | 9.97415 | 72° | 37km/h | 18612m | 5.3m/s | -53°C | 4.4% | 72.8hPa | 2.6V | 08:30:00 | 01:16:28 | 00:00:00 | |
| DK7TD | 2026-09-02 11:45:19 | 48.58516 | 9.97321 | 82° | 42km/h | 18582m | 6m/s | -52.7°C | 0.8% | 73.2hPa | 2.7V | 18:12:15 | 01:16:22 | 00:00:00 | |
| DK7TD | 2026-09-02 11:45:08 | 48.58500 | 9.97178 | 78° | 42km/h | 18529m | 4.1m/s | -52.6°C | 0.7% | 73.8hPa | 2.7V | 18:12:15 | 01:16:11 | 00:00:00 | |
| DJ8HS-15 | 2026-09-02 11:45:08 | 48.58500 | 9.97178 | 78° | 33km/h | 18529m | 4.0m/s | -52.6°C | 4.3% | 73.8hPa | 2.6V | 00:00:00 | 01:16:11 | 00:00:00 | |
| IW2NTF | 2026-09-02 11:45:06 | 48.58490 | 9.97085 | 89° | 27km/h | 18495m | 6.2m/s | -52.3°C | 4.1% | 74.2hPa | 2.6V | 08:30:00 | 01:16:04 | 00:00:00 | |
| DK7TD | 2026-09-02 11:44:57 | 48.58491 | 9.97044 | 94° | 29km/h | 18474m | 4.9m/s | -52.3°C | 0.6% | 74.4hPa | 2.7V | 18:12:15 | 01:16:00 | 00:00:00 | |
| IW2NTF | 2026-09-02 11:44:56 | 48.58495 | 9.96970 | 94° | 33km/h | 18443m | 5.7m/s | -52.2°C | 4.1% | 74.8hPa | 2.7V | 08:30:00 | 01:15:54 | 00:00:00 | |
| OE5DRO-10 | 2026-09-02 11:44:56 | 48.58492 | 9.97033 | 97° | 33km/h | 18469m | 6.2m/s | -52.2°C | 4.1% | 74.4hPa | 2.6V | 00:00:00 | 00:00:00 | 08:30:00 | |
| DF1GD-15 | 2026-09-02 11:44:55 | 48.58492 | 9.97033 | 98° | 31km/h | 18469m | 6.3m/s | -52.2°C | 1.2% | 74.5hPa | 2.6V | 00:00:00 | 00:00:00 | 00:00:00 | |
| DO3MHA-12 | 2026-09-02 11:44:52 | 48.58494 | 9.96983 | 92° | 31km/h | 18448m | 4.0m/s | -52.1°C | 4.1% | 74.7hPa | 2.6V | 00:00:00 | 01:15:55 | 00:00:00 | |
| DK5PH-5 | 2026-09-02 11:44:50 | 48.58495 | 9.96958 | 100° | 37km/h | 18438m | 5.0m/s | -52.2°C | 4.1% | 74.8hPa | 2.6V | 00:00:00 | 01:15:53 | 00:00:00 | |
| DJ8HS-15 | 2026-09-02 11:44:48 | 48.58499 | 9.96934 | 102° | 35km/h | 18429m | 4.7m/s | -52.2°C | 4.1% | 74.9hPa | 2.6V | 00:00:00 | 01:15:51 | 08:30:00 | |
| IW2NTF | 2026-09-02 11:44:47 | 48.58508 | 9.96857 | 95° | 35km/h | 18394m | 4.3m/s | -52.4°C | 4.2% | 75.4hPa | 2.6V | 08:30:00 | 01:15:44 | 00:00:00 | |
| DK7TD | 2026-09-02 11:44:46 | 48.58501 | 9.96912 | 98° | 27km/h | 18419m | 4.3m/s | -52.3°C | 0.7% | 75.1hPa | 2.7V | 18:12:15 | 01:15:49 | 00:00:00 | |
| DL9SK-14 | 2026-09-02 11:44:46 | 48.58502 | 9.96901 | 101° | 26km/h | 18414m | 5.7m/s | -52.4°C | 1.2% | 75.1hPa | 2.6V | 00:00:00 | 00:00:00 | 00:00:00 | |
| DK7TD | 2026-09-02 11:44:36 | 48.58511 | 9.96781 | 89° | 40km/h | 18368m | 4.9m/s | -52.6°C | 0.7% | 75.7hPa | 2.6V | 18:12:15 | 01:15:39 | 00:00:00 | |
| DK7TD | 2026-09-02 11:44:26 | 48.58517 | 9.96644 | 89° | 44km/h | 18319m | 5.3m/s | -52.5°C | 0.6% | 76.2hPa | 2.7V | 18:12:15 | 01:15:29 | 00:00:00 | |
| AZAK | 2026-09-02 11:44:26 | 48.58517 | 9.96644 | 90° | 44km/h | 18319m | 5.3m/s | -52.5°C | 1.2% | 76.2hPa | 2.7V | 00:00:00 | 00:00:00 | 00:00:00 | |
| NBG1-10 | 2026-09-02 11:44:25 | 48.58516 | 9.96627 | 88° | 37km/h | 18315m | 4.8m/s | -52.4°C | 4.2% | 76.2hPa | 2.7V | 00:00:00 | 01:15:28 | 00:00:00 | |
| DO3MHA-12 | 2026-09-02 11:44:22 | 48.58512 | 9.96579 | 77° | 35km/h | 18300m | 4.8m/s | -52.5°C | 4.2% | 76.4hPa | 2.7V | 00:00:00 | 01:15:25 | 00:00:00 | |
| DK5PH-5 | 2026-09-02 11:44:20 | 48.58508 | 9.96552 | 83° | 37km/h | 18291m | 5.2m/s | -52.6°C | 4.3% | 76.6hPa | 2.7V | 00:00:00 | 01:15:23 | 00:00:00 | |
| OE5DRO-10 | 2026-09-02 11:44:18 | 48.58507 | 9.96528 | 86° | 37km/h | 18282m | 4.9m/s | -52.4°C | 4.3% | 76.6hPa | 2.6V | 00:00:00 | 00:00:00 | 00:00:00 | |
| IW2NTF | 2026-09-02 11:44:16 | 48.58506 | 9.96429 | 89° | 42km/h | 18249m | 5.2m/s | -52.2°C | 4.2% | 77.1hPa | 2.6V | 08:30:00 | 01:15:14 | 00:00:00 | |
| DF1GD-15 | 2026-09-02 11:44:15 | 48.58506 | 9.96504 | 86° | 33km/h | 18272m | 4.4m/s | -52.4°C | 1.3% | 76.8hPa | 2.7V | 00:00:00 | 00:00:00 | 00:00:00 | |
| DK7TD | 2026-09-02 11:44:15 | 48.58505 | 9.96491 | 87° | 37km/h | 18267m | 3.7m/s | -52.4°C | 0.7% | 76.9hPa | 2.6V | 18:12:15 | 01:15:18 | 00:00:00 | |
| DM7RM-13 | 2026-09-02 11:44:14 | 48.58505 | 9.96477 | 91° | 38km/h | 18263m | 5.3m/s | -52.4°C | 1.2% | 76.9hPa | 2.7V | 00:00:00 | 00:00:00 | 00:00:00 | |
| DO3MHA-11 | 2026-09-02 11:44:12 | 48.58506 | 9.96445 | 93° | 38km/h | 18254m | 3.9m/s | -52.2°C | 4.2% | 77.0hPa | 2.7V | 00:00:00 | 01:15:15 | 08:30:00 | |
| DL6DJ-15 | 2026-09-02 11:44:11 | 48.58506 | 9.96429 | 89° | 42km/h | 18249m | 5.2m/s | -52.2°C | 1.2% | 77.1hPa | 2.6V | 00:00:00 | 00:00:00 | 00:00:00 | |
| OE3JTB-15 | 2026-09-02 11:44:10 | 48.58505 | 9.96413 | 84° | 37km/h | 18244m | 5.4m/s | -52.1°C | 4.2% | 77.1hPa | 2.6V | 00:00:00 | 00:00:00 | 08:30:00 | |
| OE9MKV-15 | 2026-09-02 11:44:08 | 48.58501 | 9.96382 | 76° | 37km/h | 18235m | 4.3m/s | -52.1°C | 4.1% | 77.2hPa | 2.7V | 00:00:00 | 01:15:11 | 00:00:00 | |
| IW2NTF | 2026-09-02 11:44:06 | 48.58490 | 9.96292 | 86° | 37km/h | 18201m | 4.2m/s | -52°C | 4% | 77.7hPa | 2.7V | 08:30:00 | 01:15:04 | 00:00:00 | |
| DK7TD | 2026-09-02 11:44:05 | 48.58494 | 9.96342 | 80° | 31km/h | 18219m | 4.3m/s | -52.1°C | 0.6% | 77.5hPa | 2.6V | 18:12:15 | 01:15:08 | 00:00:00 | |
| DK7TD | 2026-09-02 11:43:54 | 48.58494 | 9.96190 | 97° | 37km/h | 18163m | 4.9m/s | -52.4°C | 0.6% | 78.1hPa | 2.6V | 18:12:15 | 01:14:57 | 00:00:00 | |
| IW2NTF | 2026-09-02 11:43:52 | 48.58502 | 9.96105 | 99° | 35km/h | 18127m | 4.9m/s | -52.5°C | 4.1% | 78.6hPa | 2.7V | 08:30:00 | 01:14:50 | 00:00:00 | |
| DK7TD | 2026-09-02 11:43:44 | 48.58508 | 9.96063 | 107° | 38km/h | 18113m | 5m/s | -52.5°C | 0.6% | 78.7hPa | 2.6V | 18:12:15 | 01:14:47 | 00:00:00 | |
| DB0UT-7 | 2026-09-02 11:43:44 | 48.58508 | 9.96063 | 107° | 37km/h | 18113m | 5.0m/s | -52.5°C | 4.1% | 78.7hPa | 2.6V | 00:00:00 | 00:00:00 | 00:00:00 | |
| DL9SK-14 | 2026-09-02 11:43:43 | 48.58511 | 9.96049 | 107° | 38km/h | 18108m | 4.5m/s | -52.6°C | 1.2% | 78.8hPa | 2.7V | 00:00:00 | 00:00:00 | 00:00:00 | |
| DO3MHA-12 | 2026-09-02 11:43:42 | 48.58514 | 9.96034 | 106° | 38km/h | 18104m | 5.7m/s | -52.5°C | 4.1% | 78.8hPa | 2.7V | 00:00:00 | 01:14:45 | 00:00:00 | |
| OE3JTB-15 | 2026-09-02 11:43:41 | 48.58517 | 9.96019 | 104° | 42km/h | 18098m | 4.4m/s | -52.5°C | 4.1% | 78.9hPa | 2.7V | 00:00:00 | 00:00:00 | 00:00:00 | |
| OE5DRO-10 | 2026-09-02 11:43:40 | 48.58519 | 9.96003 | 105° | 44km/h | 18094m | 4.9m/s | -52.6°C | 4.0% | 78.9hPa | 2.7V | 00:00:00 | 00:00:00 | 00:00:00 | |
| OE9MKV-15 | 2026-09-02 11:43:38 | 48.58524 | 9.95975 | 102° | 42km/h | 18084m | 4.6m/s | -52.6°C | 4.2% | 79.1hPa | 2.7V | 00:00:00 | 01:14:41 | 00:00:00 | |
| DN1GJH-1 | 2026-09-02 11:43:36 | 48.58525 | 9.95961 | 97° | 37km/h | 18079m | 5.6m/s | -52.9°C | 1.2% | 79.2hPa | 2.7V | 00:00:00 | 00:00:00 | 00:00:00 | |
| IW2NTF | 2026-09-02 11:43:35 | 48.58525 | 9.95857 | 91° | 46km/h | 18045m | 6m/s | -53.3°C | 4.4% | 79.6hPa | 2.7V | 08:30:00 | 01:14:33 | 00:00:00 | |
| DK7TD | 2026-09-02 11:43:33 | 48.58524 | 9.95903 | 89° | 38km/h | 18059m | 5.4m/s | -53.2°C | 0.7% | 79.4hPa | 2.6V | 18:12:15 | 01:14:36 | 00:00:00 | |
| DK7TD | 2026-09-02 11:43:22 | 48.58529 | 9.95711 | 92° | 47km/h | 18007m | 5m/s | -53°C | 0.8% | 80hPa | 2.6V | 18:12:15 | 01:14:25 | 00:00:00 | |
| DK7TD | 2026-09-02 11:43:12 | 48.58526 | 9.95558 | 90° | 38km/h | 17957m | 5.6m/s | -53.3°C | 0.7% | 80.7hPa | 2.7V | 18:12:15 | 01:14:15 | 00:00:00 | |
| DK7TD | 2026-09-02 11:43:01 | 48.58544 | 9.95393 | 98° | 40km/h | 17901m | 6m/s | -53.3°C | 0.7% | 81.4hPa | 2.6V | 18:12:15 | 01:14:04 | 00:00:00 | |
| DK7TD | 2026-09-02 11:42:50 | 48.58554 | 9.95210 | 90° | 38km/h | 17846m | 5.5m/s | -53.4°C | 0.7% | 82.1hPa | 2.6V | 18:12:15 | 01:13:53 | 00:00:00 | |
| DK7TD | 2026-09-02 11:42:39 | 48.58540 | 9.95056 | 80° | 38km/h | 17790m | 5.1m/s | -53.5°C | 0.8% | 82.8hPa | 2.6V | 18:12:15 | 01:13:42 | 00:00:00 | |
| DK7TD | 2026-09-02 11:42:28 | 48.58527 | 9.94920 | 73° | 31km/h | 17737m | 4.3m/s | -53.8°C | 0.7% | 83.5hPa | 2.6V | 18:12:15 | 01:13:31 | 00:00:00 | |
| DJ8HS-15 | 2026-09-02 11:42:28 | 48.58527 | 9.94920 | 73° | 35km/h | 17737m | 4.3m/s | -53.7°C | 4.4% | 83.4hPa | 2.6V | 00:00:00 | 01:13:31 | 00:00:00 | |
| IW2NTF | 2026-09-02 11:42:25 | 48.58519 | 9.94876 | 79° | 31km/h | 17720m | 4.6m/s | -53.7°C | 4.4% | 83.7hPa | 2.6V | 08:30:00 | 01:13:27 | 00:00:00 | |
| DK7TD | 2026-09-02 11:42:18 | 48.58518 | 9.94798 | 94° | 38km/h | 17690m | 4.8m/s | -53.9°C | 0.7% | 84.1hPa | 2.8V | 18:12:15 | 01:13:21 | 00:00:00 | |
| IW2NTF | 2026-09-02 11:42:15 | 48.58523 | 9.94725 | 96° | 40km/h | 17666m | 5.8m/s | -54°C | 4.5% | 84.4hPa | 2.6V | 08:30:00 | 01:13:16 | 00:00:00 | |
| DK7TD | 2026-09-02 11:42:07 | 48.58525 | 9.94642 | 85° | 31km/h | 17637m | 5.4m/s | -53.9°C | 0.8% | 84.8hPa | 2.7V | 18:12:15 | 01:13:10 | 00:00:00 | |
| DK7TD | 2026-09-02 11:41:56 | 48.58527 | 9.94508 | 95° | 31km/h | 17583m | 4.2m/s | -54.1°C | 0.9% | 85.5hPa | 2.7V | 18:12:15 | 01:12:59 | 00:00:00 | |
| DK7TD | 2026-09-02 11:41:46 | 48.58544 | 9.94391 | 107° | 33km/h | 17535m | 5.5m/s | -54.2°C | 0.9% | 86.1hPa | 2.7V | 18:12:15 | 01:12:49 | 00:00:00 | |
| DK7TD | 2026-09-02 11:41:36 | 48.58580 | 9.94264 | 115° | 42km/h | 17489m | 4.3m/s | -54°C | 0.9% | 86.8hPa | 2.6V | 18:12:15 | 01:12:39 | 00:00:00 | |
| DK7TD | 2026-09-02 11:41:26 | 48.58618 | 9.94091 | 110° | 49km/h | 17437m | 3.9m/s | -53.9°C | 0.8% | 87.5hPa | 2.6V | 18:12:15 | 01:12:28 | 00:00:00 | |
| DK7TD | 2026-09-02 11:41:14 | 48.58650 | 9.93908 | 106° | 42km/h | 17383m | 4.5m/s | -54°C | 0.8% | 88.2hPa | 2.6V | 18:12:15 | 01:12:17 | 00:00:00 | |
| DK7TD | 2026-09-02 11:41:03 | 48.58679 | 9.93745 | 103° | 42km/h | 17332m | 4.9m/s | -54.2°C | 0.9% | 88.9hPa | 2.8V | 18:12:15 | 01:12:06 | 00:00:00 | |
| DO3MHA-12 | 2026-09-02 11:41:02 | 48.58681 | 9.93729 | 103° | 49km/h | 17328m | 3.3m/s | -54.2°C | 4.6% | 88.9hPa | 2.6V | 00:00:00 | 01:12:05 | 00:00:00 | |
| IW2NTF | 2026-09-02 11:41:00 | 48.58692 | 9.93577 | 89° | 53km/h | 17290m | 5.2m/s | -54.4°C | 4.7% | 89.5hPa | 2.6V | 08:30:00 | 01:11:57 | 00:00:00 | |
| DK7TD | 2026-09-02 11:40:52 | 48.58692 | 9.93539 | 92° | 47km/h | 17281m | 3.9m/s | -54.3°C | 0.9% | 89.6hPa | 2.7V | 18:12:15 | 01:11:55 | 00:00:00 | |
| DF7PN | 2026-09-02 11:40:52 | 48.58693 | 9.93520 | 94° | 47km/h | 17276m | 5.1m/s | -54.3°C | 1.4% | 89.7hPa | 2.8V | 00:00:00 | 00:00:00 | 00:00:00 | |
| DB0ND-19 | 2026-09-02 11:40:51 | 48.58694 | 9.93502 | 96° | 47km/h | 17272m | 3.7m/s | -54.3°C | 1.4% | 89.7hPa | 2.8V | 00:00:00 | 00:00:00 | 00:00:00 | |
| DK7TD | 2026-09-02 11:40:42 | 48.58707 | 9.93374 | 94° | 42km/h | 17234m | 4.9m/s | -54°C | 1% | 90.3hPa | 2.8V | 18:12:15 | 01:11:45 | 00:00:00 | |
| IW2NTF | 2026-09-02 11:40:42 | 48.58706 | 9.93324 | 83° | 46km/h | 17220m | 3.6m/s | -53.8°C | 4.6% | 90.5hPa | 2.6V | 08:30:00 | 01:11:42 | 00:00:00 | |
| DK7TD | 2026-09-02 11:40:32 | 48.58702 | 9.93221 | 95° | 38km/h | 17190m | 3.9m/s | -53.9°C | 0.9% | 90.9hPa | 2.7V | 18:12:15 | 01:11:35 | 00:00:00 | |
| DK7TD | 2026-09-02 11:40:21 | 48.58698 | 9.93052 | 85° | 38km/h | 17138m | 4.7m/s | -54.1°C | 0.9% | 91.7hPa | 2.6V | 18:12:15 | 01:11:24 | 00:00:00 | |
| DK7TD | 2026-09-02 11:40:11 | 48.58682 | 9.92908 | 80° | 35km/h | 17094m | 4.5m/s | -53.9°C | 0.9% | 92.3hPa | 2.7V | 18:12:15 | 01:11:14 | 00:00:00 | |
| DK7TD | 2026-09-02 11:40:00 | 48.58680 | 9.92761 | 90° | 37km/h | 17044m | 4.2m/s | -53.8°C | 0.9% | 93hPa | 2.6V | 18:12:15 | 01:11:03 | 00:00:00 | |
| DK7TD | 2026-09-02 11:39:49 | 48.58688 | 9.92613 | 100° | 40km/h | 16994m | 3.8m/s | -53.5°C | 0.8% | 93.8hPa | 2.6V | 18:12:15 | 01:10:52 | 00:00:00 | |
| DK7TD | 2026-09-02 11:39:39 | 48.58700 | 9.92483 | 99° | 38km/h | 16950m | 5.1m/s | -53.5°C | 0.8% | 94.4hPa | 2.6V | 18:12:15 | 01:10:42 | 00:00:00 | |
| DK7TD | 2026-09-02 11:39:28 | 48.58721 | 9.92312 | 96° | 40km/h | 16899m | 4.9m/s | -53.8°C | 1% | 95.1hPa | 2.8V | 18:12:15 | 01:10:31 | 00:00:00 | |
| DK7TD | 2026-09-02 11:39:17 | 48.58737 | 9.92116 | 100° | 46km/h | 16852m | 4m/s | -53.8°C | 1% | 95.8hPa | 2.8V | 18:12:15 | 01:10:20 | 00:00:00 | |
| DK7TD | 2026-09-02 11:39:07 | 48.58751 | 9.91957 | 94° | 38km/h | 16807m | 4.2m/s | -53.9°C | 1% | 96.5hPa | 2.6V | 18:12:15 | 01:10:10 | 00:00:00 | |
| DK7TD | 2026-09-02 11:38:56 | 48.58773 | 9.91787 | 98° | 40km/h | 16757m | 4.7m/s | -54°C | 1.1% | 97.2hPa | 2.6V | 18:12:15 | 01:09:59 | 00:00:00 | |
| DK7TD | 2026-09-02 11:38:46 | 48.58788 | 9.91644 | 104° | 42km/h | 16713m | 3.9m/s | -54.2°C | 1.1% | 97.9hPa | 2.6V | 18:12:15 | 01:09:49 | 00:00:00 | |
| OE3JTB-15 | 2026-09-02 11:38:46 | 48.58788 | 9.91644 | 104° | 37km/h | 16713m | 3.8m/s | -54.1°C | 4.8% | 97.9hPa | 2.7V | 00:00:00 | 01:09:49 | 00:00:00 | |
| DM7RM-13 | 2026-09-02 11:38:44 | 48.58790 | 9.91629 | 103° | 44km/h | 16709m | 5.6m/s | -54.2°C | 1.5% | 98.0hPa | 2.7V | 00:00:00 | 00:00:00 | 00:00:00 | |
| DF1GD-15 | 2026-09-02 11:38:43 | 48.58792 | 9.91612 | 101° | 42km/h | 16704m | 4.0m/s | -54.2°C | 1.6% | 98.1hPa | 2.7V | 00:00:00 | 00:00:00 | 00:00:00 | |
| DO3MHA-12 | 2026-09-02 11:38:42 | 48.58797 | 9.91581 | 102° | 35km/h | 16695m | 4.0m/s | -54.2°C | 4.8% | 98.2hPa | 2.7V | 00:00:00 | 01:09:45 | 08:30:00 | |
| IW2NTF | 2026-09-02 11:38:41 | 48.58804 | 9.91511 | 101° | 31km/h | 16671m | 4.5m/s | -54.1°C | 0% | 98.6hPa | 2.8V | 00:00:00 | 01:09:40 | 00:00:00 | |
| DK7TD | 2026-09-02 11:38:36 | 48.58805 | 9.91500 | 102° | 29km/h | 16667m | 4.3m/s | -54.2°C | 1.1% | 98.6hPa | 2.8V | 18:12:15 | 01:09:39 | 00:00:00 | |
| OE5DRO-10 | 2026-09-02 11:38:36 | 48.58805 | 9.91500 | 103° | 35km/h | 16667m | 4.2m/s | -54.1°C | 4.7% | 98.6hPa | 2.8V | 00:00:00 | 00:00:00 | 00:00:00 | |
| IW2NTF | 2026-09-02 11:38:32 | 48.58819 | 9.91386 | 105° | 40km/h | 16627m | 5.3m/s | -53.9°C | 0% | 0hPa | 2.8V | 00:00:00 | 01:09:30 | 00:00:00 | |
| DK7TD | 2026-09-02 11:38:26 | 48.58825 | 9.91358 | 110° | 35km/h | 16618m | 4.1m/s | -53.9°C | 1.1% | 99.4hPa | 2.8V | 18:12:15 | 01:09:28 | 00:00:00 | |
| DM7RM-13 | 2026-09-02 11:38:25 | 48.58828 | 9.91346 | 110° | 35km/h | 16613m | 5.1m/s | -53.9°C | 1.5% | 99.5hPa | 2.6V | 00:00:00 | 00:00:00 | 00:00:00 | |
| DF1GD-15 | 2026-09-02 11:38:24 | 48.58828 | 9.91346 | 110° | 35km/h | 16613m | 5.1m/s | -53.9°C | 1.5% | 99.5hPa | 2.6V | 00:00:00 | 00:00:00 | 00:00:00 | |
| DO3MHA-12 | 2026-09-02 11:38:22 | 48.58833 | 9.91321 | 105° | 35km/h | 16605m | 3.6m/s | -53.8°C | 4.7% | 99.5hPa | 2.6V | 00:00:00 | 01:09:25 | 00:00:00 | |
| IW2NTF | 2026-09-02 11:38:21 | 48.58844 | 9.91260 | 105° | 35km/h | 16582m | 3.4m/s | -53.7°C | 0% | 0hPa | 2.6V | 00:00:00 | 01:09:20 | 00:00:00 | |
| DK7TD | 2026-09-02 11:38:15 | 48.58854 | 9.91223 | 116° | 37km/h | 16569m | 3.8m/s | -53.7°C | 1% | 100.2hPa | 2.8V | 18:12:15 | 01:09:17 | 00:00:00 | |
| AZAK | 2026-09-02 11:38:15 | 48.58850 | 9.91236 | 116° | 35km/h | 16573m | 4.2m/s | -53.7°C | 1.5% | 100.1hPa | 2.6V | 00:00:00 | 00:00:00 | 00:00:00 | |
| IW2NTF | 2026-09-02 11:38:12 | 48.58883 | 9.91127 | 110° | 38km/h | 16538m | 3.3m/s | -53.9°C | 0% | 0hPa | 2.6V | 00:00:00 | 01:09:10 | 00:00:00 | |
| DK7TD | 2026-09-02 11:38:04 | 48.58895 | 9.91090 | 123° | 37km/h | 16525m | 4.6m/s | -53.9°C | 1.1% | 100.8hPa | 2.8V | 18:12:15 | 01:09:07 | 00:00:00 | |
| DM7RM-13 | 2026-09-02 11:38:03 | 48.58900 | 9.91078 | 125° | 37km/h | 16521m | 3.8m/s | -54.0°C | 1.5% | 100.9hPa | 2.8V | 00:00:00 | 00:00:00 | 00:00:00 | |
| DO3MHA-12 | 2026-09-02 11:38:02 | 48.58905 | 9.91066 | 123° | 40km/h | 16516m | 5.0m/s | -53.9°C | 4.7% | 100.9hPa | 2.8V | 00:00:00 | 01:09:05 | 00:00:00 | |
| IW2NTF | 2026-09-02 11:38:01 | 48.58929 | 9.91001 | 113° | 40km/h | 16494m | 4m/s | -53.9°C | 0% | 0hPa | 2.8V | 00:00:00 | 01:09:00 | 00:00:00 | |
| DK7TD | 2026-09-02 11:37:58 | 48.58941 | 9.90942 | 109° | 42km/h | 16476m | 5.2m/s | -53.9°C | 1% | 101.6hPa | 2.8V | 18:12:15 | 01:08:56 | 00:00:00 | |
| OE5DRO-10 | 2026-09-02 11:37:58 | 48.58924 | 9.91015 | 118° | 42km/h | 16498m | 3.4m/s | -53.9°C | 4.7% | 101.2hPa | 2.8V | 00:00:00 | 00:00:00 | 00:00:00 | |
| AZAK | 2026-09-02 11:37:54 | 48.58935 | 9.90972 | 106° | 42km/h | 16485m | 4.1m/s | -53.9°C | 1.5% | 101.5hPa | 2.8V | 00:00:00 | 00:00:00 | 00:00:00 | |
| DO3MHA-11 | 2026-09-02 11:37:52 | 48.58945 | 9.90927 | 113° | 42km/h | 16472m | 4.0m/s | -53.8°C | 4.6% | 101.6hPa | 2.8V | 00:00:00 | 01:08:55 | 00:00:00 | |
| IW2NTF | 2026-09-02 11:37:51 | 48.58966 | 9.90858 | 117° | 44km/h | 16450m | 4.8m/s | 0°C | 0% | 0hPa | 2.8V | 00:00:00 | 01:08:50 | 00:00:00 | |
| DF7PN | 2026-09-02 11:37:45 | 48.58976 | 9.90827 | 113° | 44km/h | 16440m | 5.3m/s | -54.1°C | 1.6% | 102.2hPa | 2.6V | 00:00:00 | 00:00:00 | 00:00:00 | |
| DB0ND-19 | 2026-09-02 11:37:44 | 48.58980 | 9.90811 | 107° | 44km/h | 16435m | 4.6m/s | -54.1°C | 1.5% | 102.3hPa | 2.6V | 00:00:00 | 00:00:00 | 00:00:00 | |
| DK7TD | 2026-09-02 11:37:43 | 48.58983 | 9.90795 | 103° | 46km/h | 16431m | 3.8m/s | -54.1°C | 1% | 102.3hPa | 2.6V | 18:12:15 | 01:08:46 | 00:00:00 | |
| IW2NTF | 2026-09-02 11:37:42 | 48.58993 | 9.90699 | 97° | 37km/h | 16404m | 4.4m/s | 0°C | 0% | 0hPa | 2.6V | 00:00:00 | 01:08:40 | 00:00:00 | |
| DK7TD | 2026-09-02 11:37:32 | 48.59001 | 9.90627 | 100° | 40km/h | 16380m | 5.3m/s | -54.1°C | 1% | 103.1hPa | 2.6V | 18:12:15 | 01:08:35 | 00:00:00 | |
| DO3MHA-12 | 2026-09-02 11:37:32 | 48.59001 | 9.90627 | 100° | 38km/h | 16381m | 5.3m/s | -54.1°C | 4.7% | 103.1hPa | 2.6V | 00:00:00 | 01:08:35 | 00:00:00 | |
| IW2NTF | 2026-09-02 11:37:31 | 48.59012 | 9.90553 | 106° | 38km/h | 16357m | 5.3m/s | 0°C | 0% | 0hPa | 2.6V | 00:00:00 | 01:08:30 | 00:00:00 | |
| DK7TD | 2026-09-02 11:37:22 | 48.59025 | 9.90485 | 102° | 38km/h | 16334m | 5m/s | -54.1°C | 1% | 103.9hPa | 2.6V | 18:12:15 | 01:08:25 | 00:00:00 | |
| DK7TD | 2026-09-02 11:37:12 | 48.59057 | 9.90353 | 123° | 31km/h | 16286m | 4.2m/s | -53.8°C | 1% | 104.7hPa | 2.6V | 18:12:15 | 01:08:15 | 00:00:00 | |
| DO3MHA-12 | 2026-09-02 11:37:12 | 48.59057 | 9.90353 | 123° | 38km/h | 16287m | 4.2m/s | -53.8°C | 4.7% | 104.6hPa | 2.6V | 00:00:00 | 01:08:15 | 08:30:00 | |
| IW2NTF | 2026-09-02 11:37:11 | 48.59079 | 9.90293 | 107° | 40km/h | 16262m | 4.3m/s | 0°C | 0% | 0hPa | 2.8V | 00:00:00 | 01:08:10 | 00:00:00 | |
| DK7TD | 2026-09-02 11:37:01 | 48.59108 | 9.90200 | 121° | 49km/h | 16232m | 5.7m/s | -53.5°C | 0.9% | 105.5hPa | 2.6V | 18:12:15 | 01:08:04 | 00:00:00 | |
| DK7TD | 2026-09-02 11:36:50 | 48.59156 | 9.90044 | 112° | 46km/h | 16178m | 5.2m/s | -53.2°C | 0.9% | 106.4hPa | 2.8V | 18:12:15 | 01:07:53 | 00:00:00 | |
| DF3TZ-5 | 2026-09-02 11:36:49 | 48.59182 | 9.89976 | 125° | 53km/h | 16157m | 4.5m/s | -53.3°C | 1.4% | 106.8hPa | 2.6V | 00:00:00 | 00:00:00 | 00:00:00 | |
| DK7TD | 2026-09-02 11:36:39 | 48.59232 | 9.89854 | 120° | 51km/h | 16120m | 4.1m/s | -53.3°C | 0.8% | 107.4hPa | 2.6V | 18:12:15 | 01:07:42 | 00:00:00 | |
| DK7TD | 2026-09-02 11:36:28 | 48.59301 | 9.89643 | 117° | 62km/h | 16068m | 4.7m/s | -53.8°C | 1% | 108.3hPa | 2.6V | 18:12:15 | 01:07:31 | 00:00:00 | |
| DK7TD | 2026-09-02 11:36:19 | 48.59364 | 9.89432 | 113° | 62km/h | 16020m | 4.3m/s | -54°C | 1% | 109.1hPa | 2.6V | 18:12:15 | 01:07:21 | 00:00:00 | |
| DK7TD | 2026-09-02 11:36:08 | 48.59414 | 9.89211 | 103° | 58km/h | 15972m | 5.6m/s | -54°C | 1% | 109.9hPa | 2.8V | 18:12:15 | 01:07:11 | 00:00:00 | |
| DK7TD | 2026-09-02 11:35:57 | 48.59452 | 9.88973 | 110° | 58km/h | 15918m | 4.5m/s | -54.2°C | 1% | 110.8hPa | 2.6V | 18:12:15 | 01:07:00 | 00:00:00 | |
| DK7TD | 2026-09-02 11:35:47 | 48.59487 | 9.88765 | 97° | 53km/h | 15871m | 3.6m/s | -54.2°C | 1% | 111.6hPa | 2.8V | 18:12:15 | 01:06:50 | 00:00:00 | |
| DK7TD | 2026-09-02 11:35:36 | 48.59526 | 9.88543 | 106° | 58km/h | 15819m | 5m/s | -54.4°C | 1.1% | 112.6hPa | 2.6V | 18:12:15 | 01:06:39 | 00:00:00 | |
| DK7TD | 2026-09-02 11:35:25 | 48.59582 | 9.88286 | 110° | 69km/h | 15765m | 5.3m/s | -54.8°C | 1.1% | 113.5hPa | 2.6V | 18:12:15 | 01:06:28 | 00:00:00 | |
| DK7TD | 2026-09-02 11:35:15 | 48.59630 | 9.88032 | 101° | 73km/h | 15717m | 4.2m/s | -55.2°C | 1.2% | 114.4hPa | 2.8V | 18:12:15 | 01:06:18 | 00:00:00 | |
| DK7TD | 2026-09-02 11:35:04 | 48.59664 | 9.87752 | 105° | 64km/h | 15662m | 5.5m/s | -55.6°C | 1.3% | 115.3hPa | 2.6V | 18:12:15 | 01:06:07 | 00:00:00 | |
| DK7TD | 2026-09-02 11:34:54 | 48.59697 | 9.87507 | 101° | 62km/h | 15614m | 4.2m/s | -55.8°C | 1.4% | 116.2hPa | 2.8V | 18:12:15 | 01:05:57 | 00:00:00 | |
| DK7TD | 2026-09-02 11:34:44 | 48.59718 | 9.87285 | 95° | 57km/h | 15564m | 4.8m/s | -55.4°C | 1.3% | 117.1hPa | 2.8V | 18:12:15 | 01:05:47 | 00:00:00 | |
| DK7TD | 2026-09-02 11:34:33 | 48.59736 | 9.87055 | 100° | 53km/h | 15509m | 4.4m/s | -55.1°C | 1.3% | 118.2hPa | 2.8V | 18:12:15 | 01:05:36 | 00:00:00 | |
| DK7TD | 2026-09-02 11:34:23 | 48.59749 | 9.86856 | 90° | 47km/h | 15460m | 5.4m/s | -54.8°C | 1.2% | 119hPa | 2.7V | 18:12:15 | 01:05:26 | 00:00:00 | |
| DK7TD | 2026-09-02 11:34:13 | 48.59771 | 9.86670 | 101° | 51km/h | 15414m | 3.6m/s | -54.3°C | 1.2% | 119.9hPa | 2.8V | 18:12:15 | 01:05:16 | 00:00:00 | |
| DK7TD | 2026-09-02 11:34:02 | 48.59789 | 9.86474 | 107° | 51km/h | 15364m | 5.6m/s | -54°C | 1.1% | 120.8hPa | 2.8V | 18:12:15 | 01:05:05 | 00:00:00 | |
| DK7TD | 2026-09-02 11:33:52 | 48.59825 | 9.86294 | 108° | 40km/h | 15311m | 5.2m/s | -53.6°C | 1.1% | 121.9hPa | 2.8V | 18:12:15 | 01:04:54 | 00:00:00 | |
| DL6DJ-15 | 2026-09-02 11:33:50 | 48.59833 | 9.86265 | 114° | 42km/h | 15301m | 5.0m/s | -53.5°C | 1.6% | 122.0hPa | 2.8V | 00:00:00 | 00:00:00 | 00:00:00 | |
| DK7TD | 2026-09-02 11:33:41 | 48.59867 | 9.86134 | 116° | 49km/h | 15263m | 4.1m/s | -53.4°C | 1.1% | 122.8hPa | 2.8V | 18:12:15 | 01:04:44 | 00:00:00 | |
| DK7TD | 2026-09-02 11:33:30 | 48.59927 | 9.85960 | 119° | 51km/h | 15213m | 4.3m/s | -53.4°C | 1.1% | 123.7hPa | 2.8V | 18:12:15 | 01:04:33 | 00:00:00 | |
| DK7TD | 2026-09-02 11:33:20 | 48.59995 | 9.85806 | 126° | 53km/h | 15168m | 4.7m/s | -53.2°C | 1% | 124.6hPa | 2.7V | 18:12:15 | 01:04:23 | 00:00:00 | |
| DK7TD | 2026-09-02 11:33:10 | 48.60072 | 9.85652 | 122° | 55km/h | 15127m | 4.7m/s | -53.3°C | 1.1% | 125.4hPa | 2.8V | 18:12:15 | 01:04:13 | 00:00:00 | |
| DK7TD | 2026-09-02 11:33:00 | 48.60139 | 9.85475 | 121° | 55km/h | 15084m | 4.5m/s | -52.9°C | 1.1% | 126.2hPa | 2.7V | 18:12:15 | 01:04:03 | 00:00:00 | |
| DK7TD | 2026-09-02 11:32:49 | 48.60209 | 9.85261 | 110° | 64km/h | 15030m | 3.9m/s | -52.4°C | 1.1% | 127.3hPa | 2.7V | 18:12:15 | 01:03:52 | 00:00:00 | |
| DL6DJ-15 | 2026-09-02 11:32:48 | 48.60221 | 9.85217 | 116° | 60km/h | 15021m | 5.8m/s | -52.4°C | 1.5% | 127.5hPa | 2.7V | 00:00:00 | 00:00:00 | 00:00:00 | |
| DK7TD | 2026-09-02 11:32:38 | 48.60289 | 9.85025 | 104° | 64km/h | 14977m | 5.3m/s | -52.5°C | 1% | 128.4hPa | 2.7V | 18:12:15 | 01:03:41 | 00:00:00 | |
| DK7TD | 2026-09-02 11:32:28 | 48.60352 | 9.84764 | 113° | 75km/h | 14928m | 4.3m/s | -53°C | 1.2% | 129.3hPa | 2.8V | 18:12:15 | 01:03:31 | 00:00:00 | |
| DK7TD | 2026-09-02 11:32:18 | 48.60421 | 9.84519 | 111° | 71km/h | 14886m | 4.9m/s | -53.6°C | 1.4% | 130.2hPa | 2.7V | 18:12:15 | 01:03:21 | 00:00:00 | |
| DK7TD | 2026-09-02 11:32:07 | 48.60498 | 9.84227 | 113° | 77km/h | 14838m | 4.1m/s | -53.9°C | 1.5% | 131.2hPa | 2.7V | 18:12:15 | 01:03:10 | 00:00:00 | |
| DK7TD | 2026-09-02 11:31:57 | 48.60570 | 9.83952 | 112° | 78km/h | 14797m | 4.5m/s | -54.5°C | 1.6% | 132hPa | 2.8V | 18:12:15 | 01:03:00 | 00:00:00 | |
| DK7TD | 2026-09-02 11:31:47 | 48.60638 | 9.83635 | 102° | 89km/h | 14750m | 4.3m/s | -54.4°C | 1.7% | 133hPa | 2.8V | 18:12:15 | 01:02:49 | 00:00:00 | |
| DL6DJ-15 | 2026-09-02 11:31:46 | 48.60642 | 9.83601 | 101° | 89km/h | 14746m | 4.6m/s | -54.5°C | 1.9% | 133.0hPa | 2.8V | 00:00:00 | 00:00:00 | 00:00:00 | |
| DK7TD | 2026-09-02 11:31:36 | 48.60689 | 9.83306 | 101° | 86km/h | 14709m | 4.1m/s | -54.7°C | 1.8% | 133.9hPa | 2.8V | 18:12:15 | 01:02:39 | 00:00:00 | |
| DK7TD | 2026-09-02 11:31:26 | 48.60728 | 9.83000 | 107° | 77km/h | 14664m | 5.5m/s | -54.5°C | 1.7% | 134.8hPa | 2.7V | 18:12:15 | 01:02:29 | 00:00:00 | |
| DK7TD | 2026-09-02 11:31:15 | 48.60777 | 9.82697 | 104° | 73km/h | 14615m | 4.1m/s | -54.3°C | 1.8% | 135.8hPa | 2.7V | 18:12:15 | 01:02:18 | 00:00:00 | |
| DK7TD | 2026-09-02 11:31:06 | 48.60831 | 9.82431 | 111° | 69km/h | 14570m | 5.5m/s | -53.9°C | 1.8% | 136.8hPa | 2.8V | 18:12:15 | 01:02:08 | 00:00:00 | |
| DK7TD | 2026-09-02 11:30:54 | 48.60894 | 9.82152 | 112° | 71km/h | 14523m | 4.4m/s | -53.5°C | 1.7% | 137.8hPa | 2.8V | 18:12:15 | 01:01:57 | 00:00:00 | |
| DK7TD | 2026-09-02 11:30:44 | 48.60969 | 9.81904 | 114° | 71km/h | 14480m | 3.8m/s | -54.2°C | 2% | 138.7hPa | 2.7V | 18:12:15 | 01:01:47 | 00:00:00 | |
| DK7TD | 2026-09-02 11:30:34 | 48.61055 | 9.81653 | 117° | 80km/h | 14435m | 5.1m/s | -54.6°C | 2.2% | 139.7hPa | 2.7V | 18:12:15 | 01:01:37 | 00:00:00 | |
| DK7TD | 2026-09-02 11:30:24 | 48.61144 | 9.81387 | 116° | 73km/h | 14394m | 4.1m/s | -54.6°C | 2% | 140.6hPa | 2.8V | 18:12:15 | 01:01:27 | 00:00:00 | |
| DK7TD | 2026-09-02 11:30:13 | 48.61226 | 9.81097 | 111° | 73km/h | 14348m | 4.9m/s | -55.9°C | 2.2% | 141.6hPa | 2.8V | 18:12:15 | 01:01:16 | 00:00:00 | |
| DK7TD | 2026-09-02 11:30:02 | 48.61312 | 9.80808 | 111° | 77km/h | 14299m | 4m/s | -57.1°C | 2.3% | 142.7hPa | 2.7V | 18:12:15 | 01:01:05 | 00:00:00 | |
| DK7TD | 2026-09-02 11:29:52 | 48.61375 | 9.80533 | 110° | 77km/h | 14255m | 4.1m/s | -57°C | 2.3% | 143.7hPa | 2.7V | 18:12:15 | 01:00:55 | 00:00:00 | |
| DL9SK-14 | 2026-09-02 11:29:44 | 48.61419 | 9.80317 | 106° | 69km/h | 14220m | 4.1m/s | -56.8°C | 2.3% | 144.5hPa | 2.8V | 00:00:00 | 00:00:00 | 00:00:00 | |
| DK7TD | 2026-09-02 11:29:41 | 48.61435 | 9.80241 | 107° | 68km/h | 14206m | 5.1m/s | -56.7°C | 2.2% | 144.8hPa | 2.8V | 18:12:15 | 01:00:44 | 00:00:00 | |
| DK7TD | 2026-09-02 11:29:30 | 48.61485 | 9.79957 | 105° | 69km/h | 14159m | 3.9m/s | -56.3°C | 2.1% | 145.9hPa | 2.8V | 18:12:15 | 01:00:33 | 00:00:00 | |
| DK7TD | 2026-09-02 11:29:20 | 48.61525 | 9.79703 | 100° | 68km/h | 14115m | 4.2m/s | -56.1°C | 2.1% | 147hPa | 2.7V | 18:12:15 | 01:00:23 | 00:00:00 | |
| DK7TD | 2026-09-02 11:29:09 | 48.61566 | 9.79441 | 105° | 64km/h | 14064m | 4m/s | -55.7°C | 2% | 148.1hPa | 2.7V | 18:12:15 | 01:00:12 | 00:00:00 | |
| DK7TD | 2026-09-02 11:28:58 | 48.61602 | 9.79185 | 105° | 64km/h | 14014m | 6m/s | -55.3°C | 2% | 149.3hPa | 2.7V | 18:12:15 | 01:00:01 | 00:00:00 | |
| DK7TD | 2026-09-02 11:28:48 | 48.61649 | 9.78966 | 109° | 58km/h | 13963m | 7.4m/s | -55.1°C | 1.9% | 150.5hPa | 2.8V | 18:12:15 | 00:59:51 | 00:00:00 | |
| DK7TD | 2026-09-02 11:28:37 | 48.61699 | 9.78718 | 111° | 58km/h | 13909m | 2.5m/s | -54.8°C | 1.9% | 151.8hPa | 2.8V | 18:12:15 | 00:59:40 | 00:00:00 | |
| DK7TD | 2026-09-02 11:28:27 | 48.61753 | 9.78512 | 114° | 60km/h | 13864m | 3.4m/s | -54.5°C | 1.9% | 152.9hPa | 2.8V | 18:12:15 | 00:59:30 | 00:00:00 | |
| DK7TD | 2026-09-02 11:28:16 | 48.61812 | 9.78289 | 106° | 60km/h | 13815m | 5m/s | -54.3°C | 1.9% | 154.1hPa | 2.7V | 18:12:15 | 00:59:19 | 00:00:00 | |
| DK7TD | 2026-09-02 11:28:05 | 48.61882 | 9.78106 | 107° | 44km/h | 13759m | 7.8m/s | -53.9°C | 1.8% | 155.4hPa | 2.7V | 18:12:15 | 00:59:08 | 00:00:00 | |
| DK7TD | 2026-09-02 11:27:56 | 48.61952 | 9.77875 | 114° | 60km/h | 13696m | 9.2m/s | -53.4°C | 1.9% | 156.9hPa | 2.8V | 18:12:15 | 00:58:58 | 00:00:00 | |
| DK7TD | 2026-09-02 11:27:45 | 48.62019 | 9.77676 | 125° | 100km/h | 13625m | 7.6m/s | -52.9°C | 1.8% | 158.6hPa | 2.7V | 18:12:15 | 00:58:48 | 00:00:00 | |
| DK7TD | 2026-09-02 11:27:34 | 48.62130 | 9.77439 | 123° | 75km/h | 13554m | 5.2m/s | -52.4°C | 1.8% | 160.4hPa | 2.7V | 18:12:15 | 00:58:37 | 00:00:00 | |
| DK7TD | 2026-09-02 11:27:23 | 48.62279 | 9.77186 | 120° | 64km/h | 13494m | 6.8m/s | -52°C | 1.8% | 161.8hPa | 2.8V | 18:12:15 | 00:58:26 | 00:00:00 | |
| DK7TD | 2026-09-02 11:27:13 | 48.62382 | 9.76961 | 123° | 89km/h | 13428m | 5.5m/s | -53°C | 2.1% | 163.5hPa | 2.7V | 18:12:15 | 00:58:16 | 00:00:00 | |
| DK7TD | 2026-09-02 11:27:02 | 48.62518 | 9.76634 | 126° | 89km/h | 13375m | 4.3m/s | -53.2°C | 2.4% | 164.9hPa | 2.8V | 18:12:15 | 00:58:05 | 00:00:00 | |
| DK7TD | 2026-09-02 11:26:52 | 48.62639 | 9.76368 | 127° | 86km/h | 13332m | 4m/s | -53.1°C | 2.6% | 166hPa | 2.8V | 18:12:15 | 00:57:55 | 00:00:00 | |
| DK7TD | 2026-09-02 11:26:41 | 48.62799 | 9.76093 | 128° | 86km/h | 13282m | 4.8m/s | -53.8°C | 3% | 167.2hPa | 2.8V | 18:12:15 | 00:57:44 | 00:00:00 | |
| DK7TD | 2026-09-02 11:26:30 | 48.62968 | 9.75829 | 136° | 99km/h | 13231m | 3.9m/s | -53.8°C | 3.1% | 168.6hPa | 2.7V | 18:12:15 | 00:57:33 | 00:00:00 | |
| DK7TD | 2026-09-02 11:26:19 | 48.63151 | 9.75541 | 132° | 99km/h | 13182m | 5.3m/s | -53.6°C | 3.1% | 169.9hPa | 2.7V | 18:12:15 | 00:57:22 | 00:00:00 | |
| DK7TD | 2026-09-02 11:26:08 | 48.63322 | 9.75245 | 131° | 95km/h | 13134m | 3.6m/s | -53.2°C | 3.1% | 171.2hPa | 2.7V | 18:12:15 | 00:57:11 | 00:00:00 | |
| DK7TD | 2026-09-02 11:25:58 | 48.63485 | 9.74973 | 132° | 89km/h | 13090m | 4.5m/s | -52.8°C | 3.1% | 172.3hPa | 2.7V | 18:12:15 | 00:57:01 | 00:00:00 | |
| DK7TD | 2026-09-02 11:25:48 | 48.63646 | 9.74700 | 131° | 91km/h | 13045m | 3.8m/s | -53°C | 3.4% | 173.6hPa | 2.8V | 18:12:15 | 00:56:51 | 00:00:00 | |
| DK7TD | 2026-09-02 11:25:37 | 48.63834 | 9.74447 | 141° | 108km/h | 12992m | 5.8m/s | -53.6°C | 4.1% | 174.9hPa | 2.8V | 18:12:15 | 00:56:40 | 00:00:00 | |
| DK7TD | 2026-09-02 11:25:26 | 48.64027 | 9.74179 | 138° | 99km/h | 12911m | 7.2m/s | -53.3°C | 4% | 177.1hPa | 2.8V | 18:12:15 | 00:56:29 | 00:00:00 | |
| DK7TD | 2026-09-02 11:25:15 | 48.64237 | 9.73756 | 123° | 117km/h | 12839m | 5.3m/s | -53°C | 4.1% | 179.1hPa | 2.7V | 18:12:15 | 00:56:18 | 00:00:00 | |
| DK7TD | 2026-09-02 11:25:04 | 48.64421 | 9.73344 | 122° | 131km/h | 12788m | 4m/s | -53.2°C | 4.6% | 180.5hPa | 2.7V | 18:12:15 | 00:56:07 | 00:00:00 | |
| DK7TD | 2026-09-02 11:24:54 | 48.64574 | 9.72963 | 126° | 111km/h | 12731m | 7.3m/s | -53.2°C | 4.7% | 182.1hPa | 2.7V | 18:12:15 | 00:55:57 | 00:00:00 | |
| DF7PN | 2026-09-02 11:24:48 | 48.64669 | 9.72761 | 125° | 106km/h | 12695m | 3.7m/s | -53.2°C | 3.9% | 183.2hPa | 2.7V | 00:00:00 | 00:00:00 | 00:00:00 | |
| DK7TD | 2026-09-02 11:24:43 | 48.64746 | 9.72600 | 126° | 104km/h | 12675m | 4.3m/s | -53.2°C | 5.1% | 183.8hPa | 2.7V | 18:12:15 | 00:55:46 | 00:00:00 | |
| DK7TD | 2026-09-02 11:24:33 | 48.64900 | 9.72282 | 125° | 102km/h | 12634m | 3.6m/s | -53.6°C | 5.4% | 184.9hPa | 2.7V | 18:12:15 | 00:55:36 | 00:00:00 | |
| DK7TD | 2026-09-02 11:24:24 | 48.65063 | 9.71939 | 125° | 102km/h | 12589m | 4.1m/s | -53.9°C | 6.2% | 186.2hPa | 2.7V | 18:12:15 | 00:55:25 | 00:00:00 | |
| DK7TD | 2026-09-02 11:24:11 | 48.65229 | 9.71593 | 124° | 102km/h | 12541m | 3m/s | -53.9°C | 7.9% | 187.6hPa | 2.7V | 18:12:15 | 00:55:14 | 00:00:00 | |
| DK7TD | 2026-09-02 11:24:01 | 48.65379 | 9.71296 | 128° | 97km/h | 12496m | 5.1m/s | -54.7°C | 9.9% | 188.9hPa | 2.7V | 18:12:15 | 00:55:04 | 00:00:00 | |
| DK7TD | 2026-09-02 11:23:50 | 48.65571 | 9.70967 | 134° | 110km/h | 12447m | 3.6m/s | -54.7°C | 11.4% | 190.4hPa | 2.7V | 18:12:15 | 00:54:53 | 00:00:00 | |
| DF7PN | 2026-09-02 11:23:46 | 48.65651 | 9.70850 | 137° | 110km/h | 12429m | 3.9m/s | -54.8°C | 8.9% | 190.9hPa | 2.8V | 00:00:00 | 00:00:00 | 00:00:00 | |
| DK7TD | 2026-09-02 11:23:40 | 48.65779 | 9.70680 | 140° | 111km/h | 12403m | 4.8m/s | -55°C | 13% | 191.7hPa | 2.8V | 18:12:15 | 00:54:43 | 00:00:00 | |
| DK7TD | 2026-09-02 11:23:30 | 48.65982 | 9.70383 | 137° | 120km/h | 12356m | 4.7m/s | -55°C | 14.8% | 193.1hPa | 2.8V | 18:12:15 | 00:54:33 | 00:00:00 | |
| DK7TD | 2026-09-02 11:23:19 | 48.66233 | 9.70051 | 142° | 120km/h | 12304m | 4.7m/s | -55.1°C | 15.9% | 194.7hPa | 2.7V | 18:12:15 | 00:54:22 | 00:00:00 | |
| DK7TD | 2026-09-02 11:23:09 | 48.66475 | 9.69736 | 140° | 130km/h | 12257m | 5m/s | -54.8°C | 16.8% | 196.2hPa | 2.7V | 18:12:15 | 00:54:12 | 00:00:00 | |
| DK7TD | 2026-09-02 11:22:59 | 48.66724 | 9.69416 | 140° | 130km/h | 12209m | 4.7m/s | -55°C | 16.9% | 197.7hPa | 2.8V | 18:12:15 | 00:54:02 | 00:00:00 | |
| DK7TD | 2026-09-02 11:22:48 | 48.67008 | 9.69047 | 140° | 137km/h | 12155m | 5.8m/s | -55°C | 17% | 199.3hPa | 2.8V | 18:12:15 | 00:53:51 | 00:00:00 | |
| DF7PN | 2026-09-02 11:22:45 | 48.67112 | 9.68915 | 138° | 131km/h | 12135m | 4.5m/s | -54.8°C | 13.1% | 199.9hPa | 2.7V | 00:00:00 | 00:00:00 | 00:00:00 | |
| DK7TD | 2026-09-02 11:22:38 | 48.67264 | 9.68706 | 138° | 139km/h | 12105m | 4.5m/s | -54.6°C | 17.1% | 200.9hPa | 2.7V | 18:12:15 | 00:53:41 | 00:00:00 | |
| DK7TD | 2026-09-02 11:22:27 | 48.67537 | 9.68328 | 136° | 133km/h | 12050m | 5m/s | -54.5°C | 18.1% | 202.6hPa | 2.7V | 18:12:15 | 00:53:30 | 00:00:00 | |
| DK7TD | 2026-09-02 11:22:17 | 48.67787 | 9.67976 | 137° | 139km/h | 12002m | 4.5m/s | -54.4°C | 19% | 204.1hPa | 2.8V | 18:12:15 | 00:53:20 | 00:00:00 | |
| DK7TD | 2026-09-02 11:22:07 | 48.68034 | 9.67608 | 135° | 142km/h | 11955m | 5.7m/s | -54.3°C | 18.8% | 205.6hPa | 2.8V | 18:12:15 | 00:53:10 | 00:00:00 | |
| DK7TD | 2026-09-02 11:21:57 | 48.68294 | 9.67231 | 137° | 141km/h | 11905m | 5.4m/s | -54.2°C | 17.2% | 207.2hPa | 2.7V | 18:12:15 | 00:53:00 | 00:00:00 | |
| DK7TD | 2026-09-02 11:21:48 | 48.68550 | 9.66857 | 138° | 142km/h | 11861m | 5m/s | -53.9°C | 15.6% | 208.6hPa | 2.8V | 18:12:15 | 00:52:50 | 00:00:00 | |
| DK7TD | 2026-09-02 11:21:37 | 48.68800 | 9.66506 | 135° | 135km/h | 11813m | 5.8m/s | -53.7°C | 14.9% | 210.2hPa | 2.7V | 18:12:15 | 00:52:40 | 00:00:00 | |
| DK7TD | 2026-09-02 11:21:26 | 48.69081 | 9.66113 | 137° | 130km/h | 11758m | 6.1m/s | -53.7°C | 15.6% | 211.9hPa | 2.8V | 18:12:15 | 00:52:29 | 00:00:00 | |
| DK7TD | 2026-09-02 11:21:16 | 48.69312 | 9.65766 | 136° | 126km/h | 11708m | 3.6m/s | -53.9°C | 16.8% | 213.6hPa | 2.7V | 18:12:15 | 00:52:19 | 00:00:00 | |
| DK7TD | 2026-09-02 11:21:06 | 48.69555 | 9.65390 | 134° | 124km/h | 11661m | 3.9m/s | -54.2°C | 17.6% | 215.2hPa | 2.7V | 18:12:15 | 00:52:08 | 00:00:00 | |
| DK7TD | 2026-09-02 11:20:54 | 48.69796 | 9.65022 | 138° | 122km/h | 11614m | 4.8m/s | -54.2°C | 18.5% | 216.8hPa | 2.8V | 18:12:15 | 00:51:57 | 00:00:00 | |
| DL6DJ-15 | 2026-09-02 11:20:53 | 48.69842 | 9.64959 | 136° | 122km/h | 11606m | 5.1m/s | -54.2°C | 14.8% | 217.1hPa | 2.8V | 00:00:00 | 00:00:00 | 00:00:00 | |
| DF3TZ-5 | 2026-09-02 11:20:47 | 48.69954 | 9.64785 | 134° | 131km/h | 11584m | 4.0m/s | -54.0°C | 14.5% | 217.8hPa | 2.8V | 00:00:00 | 00:00:00 | 00:00:00 | |
| DK7TD | 2026-09-02 11:20:43 | 48.70047 | 9.64647 | 134° | 124km/h | 11566m | 5.9m/s | -53.8°C | 19.4% | 218.4hPa | 2.8V | 18:12:15 | 00:51:46 | 00:00:00 | |
| DK7TD | 2026-09-02 11:20:33 | 48.70256 | 9.64315 | 136° | 126km/h | 11521m | 3.8m/s | -53.9°C | 19.9% | 220hPa | 2.9V | 18:12:15 | 00:51:36 | 00:00:00 | |
| DK7TD | 2026-09-02 11:20:23 | 48.70466 | 9.63971 | 133° | 131km/h | 11476m | 5.1m/s | -53.7°C | 22.4% | 221.5hPa | 2.9V | 18:12:15 | 00:51:26 | 00:00:00 | |
| DK7TD | 2026-09-02 11:20:12 | 48.70704 | 9.63623 | 136° | 122km/h | 11429m | 6.8m/s | -53.9°C | 25.2% | 223.1hPa | 2.9V | 18:12:15 | 00:51:15 | 00:00:00 | |
| DK7TD | 2026-09-02 11:20:02 | 48.70936 | 9.63275 | 134° | 137km/h | 11382m | 4m/s | -53.9°C | 25.5% | 224.8hPa | 2.9V | 18:12:15 | 00:51:05 | 00:00:00 | |
| DK7TD | 2026-09-02 11:19:52 | 48.71196 | 9.62873 | 132° | 130km/h | 11339m | 4.5m/s | -53.8°C | 26.2% | 226.3hPa | 2.9V | 18:12:15 | 00:50:54 | 00:00:00 | |
| DL6DJ-15 | 2026-09-02 11:19:50 | 48.71218 | 9.62836 | 131° | 126km/h | 11335m | 3.2m/s | -53.8°C | 21.8% | 226.4hPa | 2.9V | 00:00:00 | 00:00:00 | 00:00:00 | |
| DF3TZ-5 | 2026-09-02 11:19:45 | 48.71347 | 9.62617 | 131° | 126km/h | 11312m | 3.8m/s | -53.7°C | 21.3% | 227.3hPa | 2.9V | 00:00:00 | 00:00:00 | 00:00:00 | |
| DK7TD | 2026-09-02 11:19:40 | 48.71432 | 9.62469 | 132° | 130km/h | 11296m | 4.1m/s | -53.6°C | 26.5% | 227.8hPa | 2.9V | 18:12:15 | 00:50:43 | 00:00:00 | |
| DK7TD | 2026-09-02 11:19:30 | 48.71645 | 9.62108 | 131° | 120km/h | 11257m | 3.3m/s | -53.5°C | 27% | 229.2hPa | 2.9V | 18:12:15 | 00:50:33 | 00:00:00 | |
| DK7TD | 2026-09-02 11:19:19 | 48.71873 | 9.61718 | 130° | 120km/h | 11214m | 4.4m/s | -53.4°C | 27.7% | 230.7hPa | 2.9V | 18:12:15 | 00:50:22 | 00:00:00 | |
| DK7TD | 2026-09-02 11:19:09 | 48.72074 | 9.61376 | 131° | 120km/h | 11172m | 5m/s | -53.1°C | 27.3% | 232.2hPa | 2.8V | 18:12:15 | 00:50:12 | 00:00:00 | |
| DK7TD | 2026-09-02 11:18:58 | 48.72297 | 9.61013 | 133° | 117km/h | 11125m | 4.5m/s | -52.9°C | 27.5% | 233.9hPa | 2.8V | 18:12:15 | 00:50:01 | 00:00:00 | |
| DK7TD | 2026-09-02 11:18:47 | 48.72518 | 9.60670 | 135° | 117km/h | 11080m | 5m/s | -52.6°C | 27.3% | 235.5hPa | 2.9V | 18:12:15 | 00:49:50 | 00:00:00 | |
| DK7TD | 2026-09-02 11:18:36 | 48.72746 | 9.60333 | 138° | 111km/h | 11032m | 4.7m/s | -52.3°C | 27.4% | 237.3hPa | 2.9V | 18:12:15 | 00:49:39 | 00:00:00 | |
| DK7TD | 2026-09-02 11:18:25 | 48.72973 | 9.60008 | 136° | 110km/h | 10985m | 4.7m/s | -52°C | 27.6% | 239hPa | 2.9V | 18:12:15 | 00:49:28 | 00:00:00 | |
| DK7TD | 2026-09-02 11:18:15 | 48.73181 | 9.59729 | 138° | 110km/h | 10941m | 2.9m/s | -51.9°C | 28% | 240.6hPa | 2.9V | 18:12:15 | 00:49:18 | 00:00:00 | |
| DK7TD | 2026-09-02 11:18:05 | 48.73391 | 9.59446 | 138° | 113km/h | 10898m | 4.2m/s | -51.9°C | 28.3% | 242.2hPa | 2.8V | 18:12:15 | 00:49:08 | 00:00:00 | |
| DK7TD | 2026-09-02 11:17:54 | 48.73617 | 9.59156 | 138° | 106km/h | 10851m | 4.8m/s | -51.5°C | 28.3% | 244hPa | 2.8V | 18:12:15 | 00:48:57 | 00:00:00 | |
| DL9SK-14 | 2026-09-02 11:17:49 | 48.73719 | 9.59019 | 139° | 108km/h | 10829m | 3.4m/s | -51.4°C | 23.3% | 244.8hPa | 2.8V | 00:00:00 | 00:00:00 | 00:00:00 | |
| DL6DJ-15 | 2026-09-02 11:17:47 | 48.73783 | 9.58936 | 139° | 111km/h | 10817m | 3.2m/s | -51.2°C | 23.9% | 245.3hPa | 2.8V | 00:00:00 | 00:00:00 | 00:00:00 | |
| DK7TD | 2026-09-02 11:17:43 | 48.73846 | 9.58854 | 139° | 106km/h | 10805m | 4.5m/s | -51.3°C | 29.3% | 245.7hPa | 2.8V | 18:12:15 | 00:48:46 | 00:00:00 | |
| DK7TD | 2026-09-02 11:17:33 | 48.74054 | 9.58584 | 142° | 111km/h | 10762m | 5.4m/s | -51.1°C | 30.3% | 247.4hPa | 2.8V | 18:12:15 | 00:48:36 | 00:00:00 | |
| DK7TD | 2026-09-02 11:17:22 | 48.74272 | 9.58274 | 138° | 106km/h | 10713m | 5.3m/s | -50.9°C | 31.8% | 249.2hPa | 2.8V | 18:12:15 | 00:48:25 | 00:00:00 | |
| DK7TD | 2026-09-02 11:17:12 | 48.74469 | 9.58006 | 136° | 108km/h | 10672m | 4.3m/s | -51°C | 37% | 250.8hPa | 2.9V | 18:12:15 | 00:48:15 | 00:00:00 | |
| DK7TD | 2026-09-02 11:17:02 | 48.74661 | 9.57730 | 138° | 102km/h | 10627m | 4.1m/s | -50.8°C | 44.9% | 252.5hPa | 2.9V | 18:12:15 | 00:48:05 | 00:00:00 | |
| DK7TD | 2026-09-02 11:16:52 | 48.74861 | 9.57458 | 137° | 99km/h | 10583m | 4.7m/s | -50.7°C | 55.9% | 254.2hPa | 2.8V | 18:12:15 | 00:47:55 | 00:00:00 | |
| DL9SK-14 | 2026-09-02 11:16:47 | 48.74958 | 9.57330 | 140° | 106km/h | 10561m | 4.9m/s | -50.6°C | 58.2% | 255.0hPa | 2.8V | 00:00:00 | 00:00:00 | 00:00:00 | |
| DL6DJ-15 | 2026-09-02 11:16:44 | 48.75022 | 9.57251 | 140° | 108km/h | 10548m | 3.9m/s | -50.6°C | 59.5% | 255.6hPa | 2.8V | 00:00:00 | 00:00:00 | 00:00:00 | |
| DK7TD | 2026-09-02 11:16:42 | 48.75064 | 9.57196 | 140° | 110km/h | 10540m | 4.9m/s | -50.7°C | 65.1% | 255.9hPa | 2.8V | 18:12:15 | 00:47:45 | 00:00:00 | |
| DK7TD | 2026-09-02 11:16:32 | 48.75269 | 9.56927 | 139° | 110km/h | 10498m | 3.7m/s | -50.4°C | 60.2% | 257.6hPa | 2.9V | 18:12:15 | 00:47:35 | 00:00:00 | |
| DK7TD | 2026-09-02 11:16:21 | 48.75495 | 9.56641 | 139° | 110km/h | 10454m | 3.8m/s | -50.1°C | 57.5% | 259.3hPa | 2.9V | 18:12:15 | 00:47:24 | 00:00:00 | |
| DK7TD | 2026-09-02 11:16:10 | 48.75724 | 9.56344 | 138° | 97km/h | 10406m | 5.3m/s | -49.6°C | 55.2% | 261.2hPa | 2.9V | 18:12:15 | 00:47:13 | 00:00:00 | |
| DK7TD | 2026-09-02 11:16:00 | 48.75934 | 9.56086 | 143° | 106km/h | 10356m | 6.8m/s | -49.3°C | 54.2% | 263.2hPa | 2.8V | 18:12:15 | 00:47:03 | 00:00:00 | |
| DK7TD | 2026-09-02 11:15:50 | 48.76133 | 9.55824 | 137° | 100km/h | 10299m | 5.8m/s | -48.8°C | 53.4% | 265.4hPa | 2.9V | 18:12:15 | 00:46:53 | 00:00:00 | |
| DL9SK-14 | 2026-09-02 11:15:45 | 48.76222 | 9.55686 | 130° | 100km/h | 10269m | 3.9m/s | -48.6°C | 49.5% | 266.7hPa | 2.9V | 00:00:00 | 00:00:00 | 00:00:00 | |
| DK7TD | 2026-09-02 11:15:39 | 48.76326 | 9.55518 | 137° | 104km/h | 10237m | 4.2m/s | -48.4°C | 51.3% | 268hPa | 2.9V | 18:12:15 | 00:46:42 | 00:00:00 | |
| DK7TD | 2026-09-02 11:15:28 | 48.76532 | 9.55238 | 135° | 106km/h | 10175m | 8m/s | -48°C | 49.4% | 270.5hPa | 2.8V | 18:12:15 | 00:46:31 | 00:00:00 | |
| DK7TD | 2026-09-02 11:15:17 | 48.76727 | 9.54930 | 136° | 100km/h | 10109m | 6.4m/s | -47.6°C | 47.9% | 273.2hPa | 2.9V | 18:12:15 | 00:46:20 | 00:00:00 | |
| DK7TD | 2026-09-02 11:15:06 | 48.76914 | 9.54625 | 131° | 104km/h | 10048m | 6m/s | -47.1°C | 46.1% | 275.9hPa | 2.9V | 18:12:15 | 00:46:09 | 00:00:00 | |
| DK7TD | 2026-09-02 11:14:56 | 48.77080 | 9.54329 | 132° | 97km/h | 10003m | 4.6m/s | -46.8°C | 44.7% | 277.7hPa | 2.8V | 18:12:15 | 00:45:59 | 00:00:00 | |
| DK7TD | 2026-09-02 11:14:45 | 48.77265 | 9.54012 | 134° | 100km/h | 9954m | 3.1m/s | -46.2°C | 43% | 279.7hPa | 2.9V | 18:12:15 | 00:45:48 | 00:00:00 | |
| DK7TD | 2026-09-02 11:14:35 | 48.77426 | 9.53715 | 130° | 95km/h | 9903m | 6.8m/s | -45.9°C | 44.4% | 281.9hPa | 2.9V | 18:12:15 | 00:45:38 | 00:00:00 | |
| DK7TD | 2026-09-02 11:14:24 | 48.77589 | 9.53403 | 128° | 104km/h | 9841m | 4.7m/s | -45.5°C | 46.1% | 284.4hPa | 2.8V | 18:12:15 | 00:45:27 | 00:00:00 | |
| DK7TD | 2026-09-02 11:14:13 | 48.77756 | 9.53068 | 124° | 104km/h | 9786m | 4.4m/s | -45°C | 44.8% | 286.9hPa | 2.9V | 18:12:15 | 00:45:16 | 00:00:00 | |
| DK7TD | 2026-09-02 11:14:03 | 48.77905 | 9.52778 | 127° | 100km/h | 9728m | 6.2m/s | -44.5°C | 45.6% | 289.3hPa | 2.8V | 18:12:15 | 00:45:06 | 00:00:00 | |
| DK7TD | 2026-09-02 11:13:52 | 48.78046 | 9.52426 | 125° | 97km/h | 9660m | 3.4m/s | -44°C | 46.5% | 292.3hPa | 2.9V | 18:12:15 | 00:44:55 | 00:00:00 | |
| DK7TD | 2026-09-02 11:13:42 | 48.78176 | 9.52124 | 124° | 93km/h | 9605m | 6.7m/s | -43.6°C | 46.2% | 294.7hPa | 2.8V | 18:12:15 | 00:44:45 | 00:00:00 | |
| DK7TD | 2026-09-02 11:13:32 | 48.78314 | 9.51820 | 125° | 91km/h | 9557m | 4.5m/s | -43.2°C | 47.2% | 296.8hPa | 2.9V | 18:12:15 | 00:44:35 | 00:00:00 | |
| DK7TD | 2026-09-02 11:13:21 | 48.78449 | 9.51510 | 124° | 95km/h | 9506m | 3.3m/s | -42.8°C | 49.5% | 299.1hPa | 2.9V | 18:12:15 | 00:44:24 | 00:00:00 | |
| DK7TD | 2026-09-02 11:13:11 | 48.78582 | 9.51216 | 125° | 93km/h | 9459m | 4.6m/s | -42.5°C | 54.4% | 301.1hPa | 2.9V | 18:12:15 | 00:44:14 | 00:00:00 | |
| DK7TD | 2026-09-02 11:13:00 | 48.78722 | 9.50891 | 126° | 100km/h | 9400m | 6.5m/s | -42.1°C | 54.6% | 303.8hPa | 2.9V | 18:12:15 | 00:44:03 | 00:00:00 | |
| DK7TD | 2026-09-02 11:12:50 | 48.78860 | 9.50586 | 124° | 89km/h | 9333m | 6.9m/s | -41.8°C | 55.9% | 306.8hPa | 2.8V | 18:12:15 | 00:43:53 | 00:00:00 | |
| DK7TD | 2026-09-02 11:12:39 | 48.79010 | 9.50292 | 130° | 100km/h | 9268m | 7.2m/s | -41.3°C | 58.1% | 309.7hPa | 2.9V | 18:12:15 | 00:43:42 | 00:00:00 | |
| DK7TD | 2026-09-02 11:12:28 | 48.79179 | 9.49976 | 131° | 89km/h | 9209m | 3.8m/s | -40.8°C | 58.9% | 312.6hPa | 2.9V | 18:12:15 | 00:43:31 | 00:00:00 | |
| DK7TD | 2026-09-02 11:12:18 | 48.79325 | 9.49709 | 129° | 91km/h | 9157m | 4.4m/s | -40.3°C | 56.5% | 315hPa | 2.8V | 18:12:15 | 00:43:21 | 00:00:00 | |
| DK7TD | 2026-09-02 11:12:07 | 48.79478 | 9.49408 | 124° | 89km/h | 9105m | 4.5m/s | -39.9°C | 55.1% | 317.4hPa | 2.9V | 18:12:15 | 00:43:10 | 00:00:00 | |
| DK7TD | 2026-09-02 11:11:57 | 48.79630 | 9.49134 | 126° | 91km/h | 9059m | 5.3m/s | -39.6°C | 55.6% | 319.4hPa | 2.9V | 18:12:15 | 00:43:00 | 00:00:00 | |
| DK7TD | 2026-09-02 11:11:46 | 48.79772 | 9.48826 | 136° | 95km/h | 9007m | 5.1m/s | -39.2°C | 55.8% | 321.8hPa | 2.8V | 18:12:15 | 00:42:49 | 00:00:00 | |
| DK7TD | 2026-09-02 11:11:35 | 48.79905 | 9.48503 | 124° | 91km/h | 8943m | 5.1m/s | -38.7°C | 60% | 324.8hPa | 2.9V | 18:12:15 | 00:42:38 | 00:00:00 | |
| DK7TD | 2026-09-02 11:11:24 | 48.80038 | 9.48246 | 119° | 73km/h | 8874m | 3.9m/s | -38.2°C | 60.7% | 328.1hPa | 2.9V | 18:12:15 | 00:42:27 | 00:00:00 | |
| DK7TD | 2026-09-02 11:11:13 | 48.80167 | 9.47962 | 113° | 77km/h | 8817m | 5.5m/s | -37.8°C | 57.7% | 330.8hPa | 2.9V | 18:12:15 | 00:42:16 | 00:00:00 | |
| DK7TD | 2026-09-02 11:11:03 | 48.80274 | 9.47686 | 128° | 86km/h | 8760m | 3.7m/s | -37.2°C | 56% | 333.6hPa | 2.9V | 18:12:15 | 00:42:06 | 00:00:00 | |
| DK7TD | 2026-09-02 11:10:52 | 48.80360 | 9.47375 | 117° | 86km/h | 8704m | 6.6m/s | -36.7°C | 54% | 336.3hPa | 2.9V | 18:12:15 | 00:41:55 | 00:00:00 | |
| DB0ND-19 | 2026-09-02 11:10:51 | 48.80381 | 9.47323 | 125° | 77km/h | 8694m | 4.0m/s | -36.6°C | 52.9% | 336.8hPa | 2.9V | 00:00:00 | 00:00:00 | 00:00:00 | |
| DF7PN | 2026-09-02 11:10:50 | 48.80393 | 9.47299 | 128° | 75km/h | 8689m | 7.2m/s | -36.5°C | 52.3% | 337.0hPa | 2.9V | 00:00:00 | 00:00:00 | 00:00:00 | |
| DK7TD | 2026-09-02 11:10:41 | 48.80455 | 9.47111 | 104° | 73km/h | 8637m | 5.7m/s | -36.1°C | 52.2% | 339.5hPa | 2.9V | 18:12:15 | 00:41:44 | 00:00:00 | |
| DK7TD | 2026-09-02 11:10:30 | 48.80535 | 9.46808 | 111° | 66km/h | 8568m | 7.8m/s | -35.5°C | 49% | 342.9hPa | 2.8V | 18:12:15 | 00:41:33 | 00:00:00 | |
| DK7TD | 2026-09-02 11:10:19 | 48.80597 | 9.46496 | 110° | 60km/h | 8500m | 6.1m/s | -34.8°C | 48.5% | 346.2hPa | 2.9V | 18:12:15 | 00:41:22 | 00:00:00 | |
| DK7TD | 2026-09-02 11:10:09 | 48.80665 | 9.46246 | 121° | 80km/h | 8440m | 6.5m/s | -34.2°C | 46.1% | 349.3hPa | 2.9V | 18:12:15 | 00:41:12 | 00:00:00 | |
| DK7TD | 2026-09-02 11:09:58 | 48.80750 | 9.45961 | 122° | 77km/h | 8373m | 6.8m/s | -33.5°C | 43% | 352.6hPa | 2.9V | 18:12:15 | 00:41:01 | 00:00:00 | |
| DK7TD | 2026-09-02 11:09:48 | 48.80828 | 9.45678 | 116° | 75km/h | 8303m | 6.1m/s | -32.8°C | 41.6% | 356.3hPa | 2.9V | 18:12:15 | 00:40:51 | 00:00:00 | |
| DF7PN | 2026-09-02 11:09:48 | 48.80836 | 9.45652 | 112° | 68km/h | 8296m | 7.7m/s | -32.8°C | 39.1% | 356.6hPa | 2.9V | 00:00:00 | 00:00:00 | 00:00:00 | |
| DK7TD | 2026-09-02 11:09:37 | 48.80901 | 9.45401 | 116° | 82km/h | 8226m | 6m/s | -32.1°C | 40.2% | 360.1hPa | 2.9V | 18:12:15 | 00:40:40 | 00:00:00 | |
| DK7TD | 2026-09-02 11:09:26 | 48.80953 | 9.45122 | 109° | 78km/h | 8157m | 6.7m/s | -31.4°C | 37% | 363.6hPa | 2.9V | 18:12:15 | 00:40:29 | 00:00:00 | |
| DK7TD | 2026-09-02 11:09:16 | 48.81016 | 9.44869 | 106° | 66km/h | 8106m | 5.8m/s | -30.9°C | 36.4% | 366.2hPa | 2.9V | 18:12:15 | 00:40:19 | 00:00:00 | |
| DK7TD | 2026-09-02 11:09:06 | 48.81067 | 9.44631 | 115° | 68km/h | 8043m | 4.9m/s | -30.3°C | 34.8% | 369.5hPa | 2.9V | 18:12:15 | 00:40:09 | 00:00:00 | |
| DK7TD | 2026-09-02 11:08:56 | 48.81115 | 9.44337 | 113° | 77km/h | 7983m | 6.6m/s | -29.8°C | 34% | 372.7hPa | 2.9V | 18:12:15 | 00:39:59 | 00:00:00 | |
| DK7TD | 2026-09-02 11:08:45 | 48.81161 | 9.44054 | 103° | 80km/h | 7912m | 7.8m/s | -29.2°C | 34.5% | 376.3hPa | 2.9V | 18:12:15 | 00:39:48 | 00:00:00 | |
| DK7TD | 2026-09-02 11:08:34 | 48.81232 | 9.43745 | 110° | 69km/h | 7846m | 5.6m/s | -28.7°C | 35% | 379.8hPa | 2.9V | 18:12:15 | 00:39:37 | 00:00:00 | |
| DK7TD | 2026-09-02 11:08:24 | 48.81278 | 9.43460 | 109° | 80km/h | 7775m | 7.8m/s | -28.2°C | 40% | 383.6hPa | 2.9V | 18:12:15 | 00:39:27 | 00:00:00 | |
| DK7TD | 2026-09-02 11:08:14 | 48.81352 | 9.43139 | 112° | 58km/h | 7714m | 8m/s | -27.6°C | 41.2% | 386.9hPa | 2.8V | 18:12:15 | 00:39:16 | 00:00:00 | |
| DK7TD | 2026-09-02 11:08:02 | 48.81435 | 9.42829 | 114° | 84km/h | 7647m | 6.2m/s | -27.1°C | 42.3% | 390.6hPa | 2.8V | 18:12:15 | 00:39:05 | 00:00:00 | |
| DK7TD | 2026-09-02 11:07:52 | 48.81520 | 9.42571 | 117° | 66km/h | 7586m | 4.2m/s | -26.5°C | 40.7% | 393.8hPa | 2.9V | 18:12:15 | 00:38:55 | 00:00:00 | |
| DF3TZ-5 | 2026-09-02 11:07:51 | 48.81533 | 9.42522 | 107° | 71km/h | 7578m | 5.3m/s | -26.5°C | 39.4% | 394.2hPa | 2.9V | 00:00:00 | 00:00:00 | 00:00:00 | |
| DB0ND-19 | 2026-09-02 11:07:44 | 48.81555 | 9.42355 | 102° | 68km/h | 7550m | 3.6m/s | -26.3°C | 43.4% | 395.8hPa | 2.9V | 00:00:00 | 00:00:00 | 00:00:00 | |
| DK7TD | 2026-09-02 11:07:41 | 48.81570 | 9.42278 | 111° | 71km/h | 7531m | 7.9m/s | -26.2°C | 46% | 396.8hPa | 2.9V | 18:12:15 | 00:38:44 | 00:00:00 | |
| DK7TD | 2026-09-02 11:07:31 | 48.81650 | 9.42035 | 122° | 84km/h | 7476m | 6.5m/s | -25.6°C | 46.9% | 399.8hPa | 2.8V | 18:12:15 | 00:38:34 | 00:00:00 | |
| DK7TD | 2026-09-02 11:07:21 | 48.81725 | 9.41772 | 115° | 66km/h | 7420m | 6.8m/s | -25.2°C | 47.6% | 402.9hPa | 2.9V | 18:12:15 | 00:38:24 | 00:00:00 | |
| DK7TD | 2026-09-02 11:07:10 | 48.81826 | 9.41497 | 110° | 73km/h | 7349m | 7.9m/s | -24.8°C | 60.2% | 406.9hPa | 2.8V | 18:12:15 | 00:38:13 | 00:00:00 | |
| DK7TD | 2026-09-02 11:06:59 | 48.81914 | 9.41216 | 118° | 73km/h | 7288m | 4.5m/s | -24.2°C | 58.7% | 410.3hPa | 2.9V | 18:12:15 | 00:38:02 | 00:00:00 | |
| DK7TD | 2026-09-02 11:06:48 | 48.82007 | 9.40927 | 114° | 77km/h | 7232m | 5.7m/s | -23.7°C | 57.3% | 413.5hPa | 2.9V | 18:12:15 | 00:37:51 | 00:00:00 | |
| DK7TD | 2026-09-02 11:06:38 | 48.82091 | 9.40666 | 118° | 69km/h | 7186m | 3.2m/s | -23.4°C | 60.4% | 416hPa | 2.9V | 18:12:15 | 00:37:41 | 00:00:00 | |
| DK7TD | 2026-09-02 11:06:28 | 48.82170 | 9.40398 | 117° | 77km/h | 7144m | 4.8m/s | -23.1°C | 59.9% | 418.5hPa | 2.9V | 18:12:15 | 00:37:31 | 00:00:00 | |
| DK7TD | 2026-09-02 11:06:17 | 48.82261 | 9.40119 | 115° | 71km/h | 7096m | 4.1m/s | -23°C | 52.2% | 421.2hPa | 2.9V | 18:12:15 | 00:37:20 | 00:00:00 | |
| DK7TD | 2026-09-02 11:06:07 | 48.82346 | 9.39880 | 115° | 69km/h | 7048m | 6.9m/s | -22.9°C | 63.5% | 424hPa | 2.9V | 18:12:15 | 00:37:10 | 00:00:00 | |
| DK7TD | 2026-09-02 11:05:56 | 48.82434 | 9.39610 | 113° | 77km/h | 6984m | 3.5m/s | -22.7°C | 70.3% | 427.7hPa | 2.9V | 18:12:15 | 00:36:59 | 00:00:00 | |
| DK7TD | 2026-09-02 11:05:45 | 48.82514 | 9.39341 | 107° | 62km/h | 6926m | 7.4m/s | -22.6°C | 83.3% | 431hPa | 2.9V | 18:12:15 | 00:36:48 | 00:00:00 | |
| DK7TD | 2026-09-02 11:05:35 | 48.82597 | 9.39096 | 119° | 68km/h | 6867m | 6.6m/s | -22.2°C | 88.3% | 434.4hPa | 2.9V | 18:12:15 | 00:36:38 | 00:00:00 | |
| DK7TD | 2026-09-02 11:05:25 | 48.82669 | 9.38880 | 112° | 57km/h | 6807m | 5.4m/s | -21.6°C | 86.4% | 437.9hPa | 2.9V | 18:12:15 | 00:36:28 | 00:00:00 | |
| DK7TD | 2026-09-02 11:05:14 | 48.82747 | 9.38658 | 114° | 58km/h | 6746m | 6.6m/s | -21.1°C | 82.1% | 441.7hPa | 2.9V | 18:12:15 | 00:36:17 | 00:00:00 | |
| DK7TD | 2026-09-02 11:05:04 | 48.82824 | 9.38435 | 123° | 68km/h | 6691m | 4.4m/s | -20.5°C | 77.3% | 444.8hPa | 2.9V | 18:12:15 | 00:36:06 | 00:00:00 | |
| DK7TD | 2026-09-02 11:04:53 | 48.82888 | 9.38222 | 115° | 51km/h | 6639m | 6.7m/s | -20.1°C | 79.8% | 448hPa | 2.8V | 18:12:15 | 00:35:56 | 00:00:00 | |
| DL9SK-14 | 2026-09-02 11:04:53 | 48.82888 | 9.38222 | 114° | 51km/h | 6638m | 6.7m/s | -20.1°C | 83.5% | 448.0hPa | 3V | 00:00:00 | 00:00:00 | 00:00:00 | |
| HARRO8 | 2026-09-02 11:04:51 | 48.82905 | 9.38146 | 109° | 58km/h | 6611m | 5.9m/s | -19.8°C | 83.3% | 449.8hPa | 3V | 00:00:00 | 00:00:00 | 00:00:00 | |
| DF3TZ-5 | 2026-09-02 11:04:45 | 48.82937 | 9.38040 | 116° | 57km/h | 6582m | 5.3m/s | -19.6°C | 85.2% | 451.5hPa | 3V | 00:00:00 | 00:00:00 | 00:00:00 | |
| DK7TD | 2026-09-02 11:04:40 | 48.82960 | 9.37961 | 114° | 58km/h | 6563m | 4.7m/s | -19.4°C | 80.2% | 452.6hPa | 3V | 18:12:15 | 00:35:43 | 00:00:00 | |
| DK7TD | 2026-09-02 11:04:30 | 48.83013 | 9.37753 | 116° | 58km/h | 6518m | 4.3m/s | -19°C | 78.9% | 455.4hPa | 3V | 18:12:15 | 00:35:33 | 00:00:00 | |
| DK7TD | 2026-09-02 11:04:20 | 48.83079 | 9.37551 | 116° | 55km/h | 6474m | 6.2m/s | -18.6°C | 77.5% | 458.2hPa | 2.9V | 18:12:15 | 00:35:23 | 00:00:00 | |
| DK7TD | 2026-09-02 11:04:09 | 48.83140 | 9.37379 | 114° | 51km/h | 6416m | 6.4m/s | -18.1°C | 74.6% | 461.7hPa | 3V | 18:12:15 | 00:35:12 | 00:00:00 | |
| DK7TD | 2026-09-02 11:03:58 | 48.83192 | 9.37151 | 113° | 57km/h | 6362m | 7.1m/s | -17.6°C | 74.9% | 465hPa | 3V | 18:12:15 | 00:35:01 | 00:00:00 | |
| DK7TD | 2026-09-02 11:03:48 | 48.83250 | 9.36962 | 110° | 55km/h | 6319m | 4.1m/s | -17.3°C | 75.4% | 467.8hPa | 3V | 18:12:15 | 00:34:51 | 00:00:00 | |
| DK7TD | 2026-09-02 11:03:38 | 48.83300 | 9.36766 | 111° | 60km/h | 6282m | 3.5m/s | -17°C | 75.5% | 470.2hPa | 3V | 18:12:15 | 00:34:41 | 00:00:00 | |
| DK7TD | 2026-09-02 11:03:27 | 48.83359 | 9.36542 | 105° | 58km/h | 6237m | 4.2m/s | -17.2°C | 87.7% | 473hPa | 2.9V | 18:12:15 | 00:34:30 | 00:00:00 | |
| DK7TD | 2026-09-02 11:03:16 | 48.83396 | 9.36329 | 106° | 55km/h | 6187m | 5.9m/s | -17.6°C | 71.3% | 476hPa | 3V | 18:12:15 | 00:34:19 | 00:00:00 | |
| DK7TD | 2026-09-02 11:03:06 | 48.83447 | 9.36115 | 117° | 62km/h | 6140m | 2.6m/s | -17.3°C | 61.3% | 479.1hPa | 3V | 18:12:15 | 00:34:09 | 00:00:00 | |
| DK7TD | 2026-09-02 11:02:56 | 48.83502 | 9.35908 | 109° | 68km/h | 6088m | 6.8m/s | -17°C | 50.4% | 482.3hPa | 3V | 18:12:15 | 00:33:59 | 00:00:00 | |
| DK7TD | 2026-09-02 11:02:46 | 48.83540 | 9.35679 | 106° | 55km/h | 6034m | 3.4m/s | -16.5°C | 44.1% | 485.9hPa | 3V | 18:12:15 | 00:33:49 | 00:00:00 | |
| DK7TD | 2026-09-02 11:02:36 | 48.83564 | 9.35439 | 103° | 49km/h | 5986m | 4.9m/s | -16°C | 43.9% | 489hPa | 3V | 18:12:15 | 00:33:38 | 00:00:00 | |
| DK7TD | 2026-09-02 11:02:25 | 48.83594 | 9.35225 | 103° | 62km/h | 5932m | 4.3m/s | -15.5°C | 42.5% | 492.5hPa | 3V | 18:12:15 | 00:33:28 | 00:00:00 | |
| DK7TD | 2026-09-02 11:02:14 | 48.83632 | 9.34972 | 105° | 77km/h | 5888m | 3.2m/s | -15.1°C | 40.8% | 495.4hPa | 3V | 18:12:15 | 00:33:17 | 00:00:00 | |
| DK7TD | 2026-09-02 11:02:04 | 48.83664 | 9.34729 | 90° | 55km/h | 5835m | 5.2m/s | -14.7°C | 39.1% | 498.7hPa | 3V | 18:12:15 | 00:33:07 | 00:00:00 | |
| NBG1-10 | 2026-09-02 11:02:04 | 48.83664 | 9.34729 | 91° | 60km/h | 5836m | 5.2m/s | -14.7°C | 39.4% | 498.7hPa | 2.9V | 00:00:00 | 00:33:07 | 00:00:00 | |
| DB0ND-19 | 2026-09-02 11:02:03 | 48.83664 | 9.34707 | 93° | 60km/h | 5830m | 6.1m/s | -14.7°C | 36.6% | 499.2hPa | 2.9V | 00:00:00 | 00:00:00 | 00:00:00 | |
| DF1GD-15 | 2026-09-02 11:02:02 | 48.83664 | 9.34706 | 94° | 62km/h | 5830m | 6.1m/s | -14.7°C | 36.7% | 499.2hPa | 2.9V | 00:00:00 | 00:00:00 | 00:00:00 | |
| DK7TD | 2026-09-02 11:01:44 | 48.83720 | 9.34250 | 102° | 71km/h | 5727m | 3.7m/s | -13.9°C | 43% | 505.9hPa | 2.9V | 18:12:15 | 00:32:47 | 00:00:00 | |
| DK7TD | 2026-09-02 11:01:33 | 48.83750 | 9.34009 | 90° | 49km/h | 5679m | 4.5m/s | -13.5°C | 39.2% | 509.3hPa | 3V | 18:12:15 | 00:32:36 | 00:00:00 | |
| DK7TD | 2026-09-02 11:01:22 | 48.83781 | 9.33782 | 108° | 66km/h | 5618m | 5.1m/s | -13°C | 50.9% | 513.3hPa | 3V | 18:12:15 | 00:32:25 | 00:00:00 | |
| DK7TD | 2026-09-02 11:01:11 | 48.83801 | 9.33546 | 104° | 49km/h | 5563m | 5m/s | -12.5°C | 41.2% | 517.2hPa | 3V | 18:12:15 | 00:32:14 | 00:00:00 | |
| DK7TD | 2026-09-02 11:01:00 | 48.83822 | 9.33314 | 114° | 55km/h | 5508m | 6.4m/s | -12.2°C | 46.2% | 520.7hPa | 3V | 18:12:15 | 00:32:03 | 00:00:00 | |
| DK7TD | 2026-09-02 11:00:49 | 48.83848 | 9.33108 | 86° | 55km/h | 5451m | 4.9m/s | -11.7°C | 46.3% | 524.8hPa | 3V | 18:12:15 | 00:31:52 | 00:00:00 | |
| DL9SK-14 | 2026-09-02 11:00:44 | 48.83849 | 9.33001 | 95° | 46km/h | 5429m | 4.0m/s | -11.6°C | 44.2% | 526.3hPa | 3V | 00:00:00 | 00:00:00 | 00:00:00 | |
| DK7TD | 2026-09-02 11:00:38 | 48.83860 | 9.32899 | 89° | 58km/h | 5393m | 5.9m/s | -11.4°C | 48.7% | 528.8hPa | 3V | 18:12:15 | 00:31:41 | 00:00:00 | |
| DK7TD | 2026-09-02 11:00:27 | 48.83853 | 9.32670 | 107° | 51km/h | 5332m | 4.7m/s | -11°C | 33.6% | 533hPa | 3V | 18:12:15 | 00:31:30 | 00:00:00 | |
| DK7TD | 2026-09-02 11:00:17 | 48.83870 | 9.32477 | 109° | 49km/h | 5276m | 5.2m/s | -10.5°C | 27.9% | 536.8hPa | 3V | 18:12:15 | 00:31:19 | 00:00:00 | |
| DK7TD | 2026-09-02 11:00:05 | 48.83870 | 9.32280 | 93° | 55km/h | 5214m | 5.1m/s | -10.1°C | 21.4% | 541.1hPa | 3V | 18:12:15 | 00:31:08 | 00:00:00 | |
| DK7TD | 2026-09-02 10:59:54 | 48.83874 | 9.32051 | 86° | 64km/h | 5161m | 5.9m/s | -9.9°C | 47.5% | 545.1hPa | 3V | 18:12:15 | 00:30:57 | 00:00:00 | |
| DK7TD | 2026-09-02 10:59:43 | 48.83876 | 9.31812 | 95° | 51km/h | 5102m | 3.5m/s | -9.8°C | 18.1% | 549.3hPa | 3V | 18:12:15 | 00:30:46 | 00:00:00 | |
| DK7TD | 2026-09-02 10:59:32 | 48.83868 | 9.31591 | 88° | 55km/h | 5055m | 5.7m/s | -10.3°C | 32.3% | 552.6hPa | 3V | 18:12:15 | 00:30:35 | 00:00:00 | |
| DK7TD | 2026-09-02 10:59:21 | 48.83858 | 9.31346 | 77° | 57km/h | 5004m | 7.2m/s | -10°C | 32.8% | 556.1hPa | 3V | 18:12:15 | 00:30:24 | 00:00:00 | |
| DK7TD | 2026-09-02 10:59:11 | 48.83840 | 9.31115 | 83° | 64km/h | 4937m | 4.7m/s | -9.9°C | 51.2% | 561hPa | 3V | 18:12:15 | 00:30:13 | 00:00:00 | |
| DK7TD | 2026-09-02 10:59:00 | 48.83827 | 9.30893 | 99° | 51km/h | 4886m | 3.5m/s | -9.7°C | 57.3% | 564.8hPa | 3V | 18:12:15 | 00:30:03 | 00:00:00 | |
| DK7TD | 2026-09-02 10:58:50 | 48.83843 | 9.30684 | 93° | 62km/h | 4837m | 6.4m/s | -9.6°C | 72.6% | 568.4hPa | 3V | 18:12:15 | 00:29:53 | 00:00:00 | |
| DK7TD | 2026-09-02 10:58:39 | 48.83845 | 9.30414 | 92° | 69km/h | 4779m | 3.6m/s | -9.2°C | 66.6% | 572.7hPa | 3V | 18:12:15 | 00:29:42 | 00:00:00 | |
| DK7TD | 2026-09-02 10:58:29 | 48.83846 | 9.30149 | 87° | 64km/h | 4735m | 4m/s | -9°C | 79% | 576hPa | 3V | 18:12:15 | 00:29:32 | 00:00:00 | |
| DK7TD | 2026-09-02 10:58:18 | 48.83824 | 9.29909 | 82° | 71km/h | 4679m | 5.3m/s | -8.6°C | 85.5% | 580hPa | 3V | 18:12:15 | 00:29:21 | 00:00:00 | |
| DK7TD | 2026-09-02 10:58:07 | 48.83807 | 9.29638 | 93° | 58km/h | 4613m | 4.5m/s | -8°C | 82.1% | 585.1hPa | 3V | 18:12:15 | 00:29:10 | 00:00:00 | |
| DK7TD | 2026-09-02 10:57:57 | 48.83792 | 9.29407 | 86° | 71km/h | 4567m | 4.4m/s | -7.6°C | 74.7% | 588.5hPa | 3V | 18:12:15 | 00:29:00 | 00:00:00 | |
| DK7TD | 2026-09-02 10:57:46 | 48.83782 | 9.29169 | 81° | 55km/h | 4517m | 4.9m/s | -7.1°C | 74.4% | 592.4hPa | 3V | 18:12:15 | 00:28:49 | 00:00:00 | |
| DK7TD | 2026-09-02 10:57:36 | 48.83763 | 9.28940 | 90° | 71km/h | 4460m | 6.4m/s | -6.6°C | 73.2% | 596.8hPa | 3V | 18:12:15 | 00:28:39 | 00:00:00 | |
| DK7TD | 2026-09-02 10:57:26 | 48.83751 | 9.28723 | 84° | 57km/h | 4404m | 5.1m/s | -6.1°C | 67.9% | 600.9hPa | 3V | 18:12:15 | 00:28:29 | 00:00:00 | |
| DK7TD | 2026-09-02 10:57:15 | 48.83733 | 9.28480 | 76° | 55km/h | 4340m | 5.4m/s | -5.4°C | 64.4% | 606hPa | 3V | 18:12:15 | 00:28:18 | 00:00:00 | |
| DK7TD | 2026-09-02 10:57:05 | 48.83724 | 9.28254 | 82° | 49km/h | 4282m | 4.7m/s | -4.8°C | 34.8% | 610.4hPa | 3V | 18:12:15 | 00:28:08 | 00:00:00 | |
| DK7TD | 2026-09-02 10:56:54 | 48.83706 | 9.28046 | 94° | 46km/h | 4233m | 3.6m/s | -4.4°C | 30% | 614.1hPa | 3V | 18:12:15 | 00:27:57 | 00:00:00 | |
| DK7TD | 2026-09-02 10:56:44 | 48.83691 | 9.27832 | 81° | 49km/h | 4183m | 7.2m/s | -4°C | 22.8% | 618.1hPa | 3V | 18:12:15 | 00:27:47 | 00:00:00 | |
| DK7TD | 2026-09-02 10:56:33 | 48.83667 | 9.27610 | 79° | 47km/h | 4131m | 4m/s | -3.6°C | 11.6% | 622.2hPa | 3V | 18:12:15 | 00:27:36 | 00:00:00 | |
| DK7TD | 2026-09-02 10:56:23 | 48.83652 | 9.27416 | 95° | 55km/h | 4075m | 5.4m/s | -3.2°C | 10.5% | 626.8hPa | 3V | 18:12:15 | 00:27:26 | 00:00:00 | |
| DK7TD | 2026-09-02 10:56:13 | 48.83643 | 9.27218 | 79° | 57km/h | 4025m | 4.3m/s | -3°C | 21.9% | 630.6hPa | 3V | 18:12:15 | 00:27:15 | 00:00:00 | |
| DK7TD | 2026-09-02 10:56:01 | 48.83629 | 9.26993 | 92° | 46km/h | 3979m | 3.6m/s | -2.9°C | 24.2% | 634.4hPa | 3V | 18:12:15 | 00:27:04 | 00:00:00 | |
| DK7TD | 2026-09-02 10:55:52 | 48.83610 | 9.26781 | 81° | 53km/h | 3931m | 3.2m/s | -2.7°C | 23.9% | 638hPa | 3V | 18:12:15 | 00:26:54 | 00:00:00 | |
| DB0ND-19 | 2026-09-02 10:55:51 | 48.83609 | 9.26762 | 84° | 46km/h | 3927m | 4.4m/s | -2.7°C | 21.7% | 638.3hPa | 3V | 00:00:00 | 00:00:00 | 00:00:00 | |
| DF7PN | 2026-09-02 10:55:49 | 48.83608 | 9.26745 | 87° | 40km/h | 3922m | 4.9m/s | -2.6°C | 21.5% | 638.7hPa | 3V | 00:00:00 | 00:00:00 | 00:00:00 | |
| DK7TD | 2026-09-02 10:55:40 | 48.83598 | 9.26595 | 91° | 47km/h | 3870m | 6.7m/s | -2.3°C | 22.3% | 642.8hPa | 3V | 18:12:15 | 00:26:43 | 00:00:00 | |
| DK7TD | 2026-09-02 10:55:30 | 48.83605 | 9.26400 | 79° | 49km/h | 3827m | 5.8m/s | -1.9°C | 21.8% | 646.4hPa | 3V | 18:12:15 | 00:26:33 | 00:00:00 | |
| DK7TD | 2026-09-02 10:55:19 | 48.83608 | 9.26180 | 101° | 53km/h | 3745m | 8.5m/s | -1.3°C | 24% | 653.1hPa | 3V | 18:12:15 | 00:26:22 | 00:00:00 | |
| DK7TD | 2026-09-02 10:55:08 | 48.83587 | 9.25924 | 78° | 57km/h | 3683m | 6.9m/s | -0.8°C | 20.7% | 658.1hPa | 3V | 18:12:15 | 00:26:11 | 00:00:00 | |
| DK7TD | 2026-09-02 10:54:58 | 48.83570 | 9.25702 | 84° | 66km/h | 3627m | 2.9m/s | -0.4°C | 16.5% | 662.9hPa | 3V | 18:12:15 | 00:26:01 | 00:00:00 | |
| DF3TZ-5 | 2026-09-02 10:54:55 | 48.83563 | 9.25612 | 78° | 55km/h | 3608m | 6.8m/s | -0.3°C | 15.2% | 664.6hPa | 3V | 00:00:00 | 00:00:00 | 00:00:00 | |
| DB0ND-19 | 2026-09-02 10:54:49 | 48.83544 | 9.25474 | 79° | 53km/h | 3572m | 5.0m/s | -0.0°C | 15.3% | 667.6hPa | 3V | 00:00:00 | 00:00:00 | 00:00:00 | |
| DK7TD | 2026-09-02 10:54:49 | 48.83544 | 9.25474 | 80° | 53km/h | 3573m | 5m/s | -0°C | 16.2% | 667.6hPa | 3V | 18:12:15 | 00:25:51 | 00:00:00 | |
| DK7TD | 2026-09-02 10:54:37 | 48.83529 | 9.25248 | 95° | 58km/h | 3513m | 5.2m/s | 0.4°C | 13.7% | 672.4hPa | 3V | 18:12:15 | 00:25:40 | 00:00:00 | |
| DK7TD | 2026-09-02 10:54:27 | 48.83512 | 9.25045 | 90° | 53km/h | 3460m | 5m/s | 0.7°C | 14.5% | 676.9hPa | 3V | 18:12:15 | 00:25:30 | 00:00:00 | |
| DK7TD | 2026-09-02 10:54:16 | 48.83510 | 9.24819 | 79° | 49km/h | 3412m | 4.4m/s | 1°C | 14.6% | 680.9hPa | 3V | 18:12:15 | 00:25:19 | 00:00:00 | |
| DK7TD | 2026-09-02 10:54:06 | 48.83470 | 9.24630 | 78° | 40km/h | 3369m | 4.7m/s | 1.3°C | 11.6% | 684.6hPa | 3V | 18:12:15 | 00:25:09 | 00:00:00 | |
| DK7TD | 2026-09-02 10:53:55 | 48.83461 | 9.24412 | 87° | 49km/h | 3304m | 7.8m/s | 1.7°C | 11.9% | 690.1hPa | 3V | 18:12:15 | 00:24:58 | 00:00:00 | |
| DK7TD | 2026-09-02 10:53:44 | 48.83443 | 9.24194 | 88° | 47km/h | 3250m | 5m/s | 1.8°C | 12.8% | 694.7hPa | 3V | 18:12:15 | 00:24:47 | 00:00:00 | |
| DK7TD | 2026-09-02 10:53:33 | 48.83424 | 9.23990 | 70° | 37km/h | 3190m | 6m/s | 2.1°C | 13.2% | 699.8hPa | 3V | 18:12:15 | 00:24:36 | 00:00:00 | |
| DK7TD | 2026-09-02 10:53:22 | 48.83412 | 9.23809 | 84° | 42km/h | 3132m | 4.4m/s | 2.5°C | 13.1% | 704.8hPa | 3V | 18:12:15 | 00:24:25 | 00:00:00 | |
| DK7TD | 2026-09-02 10:53:12 | 48.83382 | 9.23658 | 102° | 38km/h | 3079m | 5.1m/s | 2.9°C | 13.5% | 709.4hPa | 3V | 18:12:15 | 00:24:15 | 00:00:00 | |
| DK7TD | 2026-09-02 10:53:02 | 48.83367 | 9.23513 | 71° | 49km/h | 3030m | 5m/s | 3°C | 14.2% | 713.6hPa | 3V | 18:12:15 | 00:24:05 | 00:00:00 | |
| DK7TD | 2026-09-02 10:52:52 | 48.83352 | 9.23363 | 73° | 49km/h | 2979m | 6m/s | 3.4°C | 15.7% | 718.3hPa | 3V | 18:12:15 | 00:23:55 | 00:00:00 | |
| DF3TZ-5 | 2026-09-02 10:52:50 | 48.83344 | 9.23327 | 70° | 49km/h | 2966m | 4.9m/s | 3.5°C | 14.5% | 719.5hPa | 3V | 00:00:00 | 00:00:00 | 00:00:00 | |
| DK7TD | 2026-09-02 10:52:41 | 48.83329 | 9.23161 | 86° | 44km/h | 2924m | 3.9m/s | 3.9°C | 15.5% | 723.3hPa | 3V | 18:12:15 | 00:23:44 | 00:00:00 | |
| DK7TD | 2026-09-02 10:52:30 | 48.83333 | 9.22976 | 78° | 40km/h | 2875m | 4.6m/s | 4°C | 17% | 727.6hPa | 3V | 18:12:15 | 00:23:33 | 00:00:00 | |
| DK7TD | 2026-09-02 10:52:20 | 48.83330 | 9.22799 | 98° | 31km/h | 2821m | 4.2m/s | 4.4°C | 20.5% | 732.6hPa | 3V | 18:12:15 | 00:23:23 | 00:00:00 | |
| DK7TD | 2026-09-02 10:52:09 | 48.83327 | 9.22630 | 90° | 33km/h | 2756m | 6.7m/s | 4.8°C | 24.7% | 738.2hPa | 3V | 18:12:15 | 00:23:12 | 00:00:00 | |
| DK7TD | 2026-09-02 10:52:01 | 48.83298 | 9.22470 | 84° | 38km/h | 2694m | 4.1m/s | 4.7°C | 40.3% | 744hPa | 3V | 18:12:15 | 00:23:01 | 00:00:00 | |
| DK7TD | 2026-09-02 10:51:47 | 48.83278 | 9.22306 | 69° | 37km/h | 2629m | 5.2m/s | 4.6°C | 49.1% | 750.1hPa | 3V | 18:12:15 | 00:22:50 | 00:00:00 | |
| DK7TD | 2026-09-02 10:51:36 | 48.83243 | 9.22166 | 68° | 44km/h | 2569m | 6.4m/s | 4.5°C | 61.7% | 755.5hPa | 3V | 18:12:15 | 00:22:39 | 00:00:00 | |
| DK7TD | 2026-09-02 10:51:25 | 48.83183 | 9.22046 | 58° | 47km/h | 2505m | 5.5m/s | 4.7°C | 68.2% | 761.5hPa | 3V | 18:12:15 | 00:22:28 | 00:00:00 | |
| DK7TD | 2026-09-02 10:51:16 | 48.83142 | 9.21926 | 57° | 40km/h | 2453m | 6.5m/s | 4.4°C | 78.9% | 766.5hPa | 3V | 18:12:15 | 00:22:18 | 00:00:00 | |
| DK7TD | 2026-09-02 10:51:05 | 48.83096 | 9.21821 | 49° | 40km/h | 2394m | 6m/s | 4.4°C | 87.8% | 771.8hPa | 3V | 18:12:15 | 00:22:08 | 00:00:00 | |
| DK7TD | 2026-09-02 10:50:55 | 48.83057 | 9.21693 | 61° | 40km/h | 2344m | 5.3m/s | 4.7°C | 87.2% | 776.6hPa | 3V | 18:12:15 | 00:21:58 | 00:00:00 | |
| DK7TD | 2026-09-02 10:50:44 | 48.83039 | 9.21563 | 61° | 40km/h | 2286m | 4.5m/s | 5.2°C | 86.3% | 782.2hPa | 3V | 18:12:15 | 00:21:47 | 00:00:00 | |
| DK7TD | 2026-09-02 10:50:33 | 48.83003 | 9.21448 | 65° | 42km/h | 2230m | 4.8m/s | 5.8°C | 84.2% | 787.5hPa | 3V | 18:12:15 | 00:21:36 | 00:00:00 | |
| DK7TD | 2026-09-02 10:50:23 | 48.82975 | 9.21348 | 67° | 33km/h | 2180m | 4.7m/s | 6.1°C | 85.1% | 792.5hPa | 3V | 18:12:15 | 00:21:26 | 00:00:00 | |
| DK7TD | 2026-09-02 10:50:15 | 48.82941 | 9.21263 | 54° | 20km/h | 2118m | 6m/s | 6.6°C | 84.2% | 798.5hPa | 3V | 18:12:15 | 00:21:15 | 00:00:00 | |
| DK7TD | 2026-09-02 10:50:02 | 48.82913 | 9.21188 | 33° | 26km/h | 2058m | 4.7m/s | 7.1°C | 82.8% | 804.3hPa | 3V | 18:12:15 | 00:21:05 | 00:00:00 | |
| DK7TD | 2026-09-02 10:49:51 | 48.82890 | 9.21110 | 48° | 16km/h | 1999m | 5.9m/s | 7.5°C | 84.1% | 810hPa | 3V | 18:12:15 | 00:20:54 | 00:00:00 | |
| DK7TD | 2026-09-02 10:49:49 | 48.82885 | 9.21102 | 49° | 11km/h | 1986m | 7.6m/s | 7.7°C | 83.3% | 811.2hPa | 3V | 18:12:15 | 00:20:52 | 00:00:00 | |
| DK7TD | 2026-09-02 10:49:47 | 48.82882 | 9.21095 | 68° | 13km/h | 1974m | 4.4m/s | 7.7°C | 82.3% | 812.4hPa | 3V | 18:12:15 | 00:20:50 | 00:00:00 | |
| DK7TD | 2026-09-02 10:49:47 | 48.82880 | 9.21090 | 63° | 18km/h | 1970m | 4.8m/s | 7.7°C | 83.7% | 813hPa | 3V | 18:12:15 | 00:20:49 | 00:00:00 | |
| DK7TD | 2026-09-02 10:49:45 | 48.82878 | 9.21082 | 58° | 26km/h | 1965m | 5.6m/s | 7.8°C | 85.3% | 813.4hPa | 3V | 18:12:15 | 00:20:48 | 00:00:00 | |
| DK7TD | 2026-09-02 10:49:44 | 48.82873 | 9.21073 | 52° | 33km/h | 1959m | 6.2m/s | 7.8°C | 86% | 813.9hPa | 3V | 18:12:15 | 00:20:47 | 00:00:00 | |
| DK7TD | 2026-09-02 10:49:42 | 48.82852 | 9.21014 | 79° | 31km/h | 1932m | 4.6m/s | 8°C | 86.2% | 816.5hPa | 3V | 18:12:15 | 00:20:42 | 00:00:00 | |
| DK7TD | 2026-09-02 10:49:41 | 48.82851 | 9.21003 | 89° | 26km/h | 1928m | 5m/s | 8.1°C | 85.7% | 817.1hPa | 3V | 18:12:15 | 00:20:41 | 00:00:00 | |
| DK7TD | 2026-09-02 10:49:40 | 48.82852 | 9.20994 | 94° | 20km/h | 1923m | 5.2m/s | 8.1°C | 85.6% | 817.5hPa | 3V | 18:12:15 | 00:20:40 | 00:00:00 | |
| DK7TD | 2026-09-02 10:49:36 | 48.82852 | 9.20987 | 88° | 16km/h | 1918m | 5m/s | 8.2°C | 87.1% | 818.1hPa | 3V | 18:12:15 | 00:20:39 | 00:00:00 | |
| DK7TD | 2026-09-02 10:49:35 | 48.82851 | 9.20981 | 71° | 13km/h | 1913m | 4.7m/s | 8.2°C | 86.2% | 818.5hPa | 3V | 18:12:15 | 00:20:38 | 00:00:00 | |
| DK7TD | 2026-09-02 10:49:34 | 48.82846 | 9.20973 | 41° | 18km/h | 1903m | 5.2m/s | 8.3°C | 87.2% | 819.4hPa | 3V | 18:12:15 | 00:20:36 | 00:00:00 | |
| DK7TD | 2026-09-02 10:49:33 | 48.82842 | 9.20967 | 44° | 24km/h | 1898m | 5.3m/s | 8.3°C | 87% | 820hPa | 3V | 18:12:15 | 00:20:35 | 00:00:00 | |
| DK7TD | 2026-09-02 10:49:32 | 48.82838 | 9.20961 | 52° | 26km/h | 1893m | 4.6m/s | 8.3°C | 86.9% | 820.5hPa | 3V | 18:12:15 | 00:20:34 | 00:00:00 | |
| DK7TD | 2026-09-02 10:49:30 | 48.82834 | 9.20952 | 60° | 27km/h | 1888m | 4.9m/s | 8.4°C | 86% | 820.8hPa | 3V | 18:12:15 | 00:20:33 | 00:00:00 | |
| DK7TD | 2026-09-02 10:49:28 | 48.82829 | 9.20935 | 72° | 20km/h | 1880m | 4.4m/s | 8.5°C | 86.5% | 821.8hPa | 3V | 18:12:15 | 00:20:31 | 00:00:00 | |
| DK7TD | 2026-09-02 10:49:26 | 48.82826 | 9.20923 | 53° | 15km/h | 1869m | 5.7m/s | 8.3°C | 88.1% | 822.7hPa | 3V | 18:12:15 | 00:20:29 | 00:00:00 | |
| DK7TD | 2026-09-02 10:49:25 | 48.82824 | 9.20919 | 48° | 15km/h | 1863m | 6.1m/s | 8.2°C | 94.2% | 823.5hPa | 3V | 18:12:15 | 00:20:28 | 00:00:00 | |
| DK7TD | 2026-09-02 10:49:24 | 48.82821 | 9.20914 | 50° | 20km/h | 1858m | 4.8m/s | 8.3°C | 94.8% | 823.9hPa | 3V | 18:12:15 | 00:20:27 | 00:00:00 | |
| DK7TD | 2026-09-02 10:49:23 | 48.82818 | 9.20907 | 59° | 24km/h | 1853m | 5m/s | 8.4°C | 95.3% | 824.6hPa | 3V | 18:12:15 | 00:20:26 | 00:00:00 | |
| DK7TD | 2026-09-02 10:49:21 | 48.82813 | 9.20890 | 79° | 26km/h | 1843m | 4.3m/s | 8.4°C | 96.1% | 825.3hPa | 3V | 18:12:15 | 00:20:24 | 00:00:00 | |
| DK7TD | 2026-09-02 10:49:20 | 48.82812 | 9.20881 | 82° | 24km/h | 1838m | 6.9m/s | 8.5°C | 96.1% | 825.8hPa | 3V | 18:12:15 | 00:20:23 | 00:00:00 | |
| DK7TD | 2026-09-02 10:49:18 | 48.82810 | 9.20867 | 59° | 16km/h | 1824m | 6.9m/s | 8.6°C | 93.4% | 827.3hPa | 3V | 18:12:15 | 00:20:21 | 00:00:00 | |
| DK7TD | 2026-09-02 10:49:16 | 48.82804 | 9.20856 | 46° | 22km/h | 1811m | 6.1m/s | 8.7°C | 90.7% | 828.6hPa | 3V | 18:12:15 | 00:20:19 | 00:00:00 | |
| DK7TD | 2026-09-02 10:49:14 | 48.82796 | 9.20842 | 57° | 24km/h | 1798m | 6.5m/s | 8.8°C | 90.2% | 829.7hPa | 3V | 18:12:15 | 00:20:17 | 00:00:00 | |
| DK7TD | 2026-09-02 10:49:12 | 48.82792 | 9.20828 | 70° | 16km/h | 1786m | 6.6m/s | 8.9°C | 93.9% | 830.8hPa | 3V | 18:12:15 | 00:20:15 | 00:00:00 | |
| DK7TD | 2026-09-02 10:49:12 | 48.82791 | 9.20823 | 59° | 15km/h | 1779m | 8m/s | 9°C | 93.1% | 831.7hPa | 3V | 18:12:15 | 00:20:14 | 00:00:00 | |
| DK7TD | 2026-09-02 10:49:09 | 48.82786 | 9.20813 | 51° | 18km/h | 1763m | 9m/s | 9.1°C | 93.3% | 833.4hPa | 3V | 18:12:15 | 00:20:12 | 00:00:00 | |
| DK7TD | 2026-09-02 10:49:08 | 48.82782 | 9.20806 | 49° | 24km/h | 1754m | 7.6m/s | 9.2°C | 93% | 834.2hPa | 3V | 18:12:15 | 00:20:11 | 00:00:00 | |
| DK7TD | 2026-09-02 10:49:07 | 48.82768 | 9.20783 | 37° | 9km/h | 1714m | 7m/s | 9.7°C | 91.6% | 838.2hPa | 3V | 18:12:15 | 00:20:06 | 00:00:00 | |
| DK7TD | 2026-09-02 10:49:06 | 48.82766 | 9.20781 | 45° | 13km/h | 1706m | 8.4m/s | 9.8°C | 90.9% | 839hPa | 3V | 18:12:15 | 00:20:05 | 00:00:00 | |
| DK7TD | 2026-09-02 10:49:04 | 48.82764 | 9.20776 | 59° | 18km/h | 1699m | 6.8m/s | 9.9°C | 89.9% | 839.9hPa | 3V | 18:12:15 | 00:20:04 | 00:00:00 | |
| DK7TD | 2026-09-02 10:48:59 | 48.82757 | 9.20763 | 42° | 24km/h | 1686m | 8m/s | 10°C | 90.5% | 841.2hPa | 3V | 18:12:15 | 00:20:02 | 00:00:00 | |
| DK7TD | 2026-09-02 10:48:58 | 48.82752 | 9.20758 | 30° | 24km/h | 1679m | 7.7m/s | 10.1°C | 89.6% | 842hPa | 3V | 18:12:15 | 00:20:01 | 00:00:00 | |
| DK7TD | 2026-09-02 10:48:56 | 48.82742 | 9.20753 | 8° | 18km/h | 1666m | 6m/s | 10.2°C | 89.4% | 843.2hPa | 3V | 18:12:15 | 00:19:59 | 00:00:00 | |
| DK7TD | 2026-09-02 10:48:54 | 48.82736 | 9.20751 | 34° | 7km/h | 1652m | 7.7m/s | 10.3°C | 88.3% | 844.5hPa | 3V | 18:12:15 | 00:19:57 | 00:00:00 | |
| DK7TD | 2026-09-02 10:48:53 | 48.82735 | 9.20748 | 73° | 11km/h | 1645m | 6.5m/s | 10.3°C | 87.4% | 845.4hPa | 3V | 18:12:15 | 00:19:56 | 00:00:00 | |
| DK7TD | 2026-09-02 10:48:51 | 48.82733 | 9.20736 | 73° | 22km/h | 1632m | 5.7m/s | 10.4°C | 85% | 846.6hPa | 3V | 18:12:15 | 00:19:54 | 00:00:00 | |
| DK7TD | 2026-09-02 10:48:51 | 48.82731 | 9.20728 | 70° | 26km/h | 1627m | 5.5m/s | 10.5°C | 84.3% | 847.1hPa | 3V | 18:12:15 | 00:19:53 | 00:00:00 | |
| DK7TD | 2026-09-02 10:48:48 | 48.82725 | 9.20710 | 55° | 26km/h | 1617m | 4.9m/s | 10.6°C | 85.5% | 848.1hPa | 3V | 18:12:15 | 00:19:51 | 00:00:00 | |
| DK7TD | 2026-09-02 10:48:47 | 48.82722 | 9.20702 | 54° | 24km/h | 1612m | 6.2m/s | 10.6°C | 85.6% | 848.6hPa | 3V | 18:12:15 | 00:19:50 | 00:00:00 | |
| DK7TD | 2026-09-02 10:48:46 | 48.82718 | 9.20695 | 56° | 22km/h | 1604m | 8.3m/s | 10.7°C | 85.3% | 849.4hPa | 3V | 18:12:15 | 00:19:49 | 00:00:00 | |
| DK7TD | 2026-09-02 10:48:44 | 48.82713 | 9.20683 | 64° | 15km/h | 1586m | 9.1m/s | 10.9°C | 84.6% | 851.1hPa | 3V | 18:12:15 | 00:19:47 | 00:00:00 | |
| DK7TD | 2026-09-02 10:48:43 | 48.82712 | 9.20678 | 61° | 11km/h | 1578m | 8.1m/s | 11°C | 84.5% | 852hPa | 3V | 18:12:15 | 00:19:46 | 00:00:00 | |
| DK7TD | 2026-09-02 10:48:42 | 48.82710 | 9.20675 | 43° | 7km/h | 1571m | 5.8m/s | 11°C | 84.5% | 852.9hPa | 3V | 18:12:15 | 00:19:45 | 00:00:00 | |
| DK7TD | 2026-09-02 10:48:41 | 48.82708 | 9.20673 | 32° | 11km/h | 1565m | 6.5m/s | 11.1°C | 85.5% | 853.5hPa | 3V | 18:12:15 | 00:19:44 | 00:00:00 | |
| DK7TD | 2026-09-02 10:48:39 | 48.82702 | 9.20666 | 38° | 22km/h | 1551m | 7.3m/s | 11.2°C | 84.7% | 854.8hPa | 3V | 18:12:15 | 00:19:42 | 00:00:00 | |
| DK7TD | 2026-09-02 10:48:37 | 48.82694 | 9.20653 | 56° | 24km/h | 1536m | 7.9m/s | 11.3°C | 81.8% | 856.5hPa | 3V | 18:12:15 | 00:19:40 | 00:00:00 | |
| DK7TD | 2026-09-02 10:48:37 | 48.82691 | 9.20646 | 59° | 20km/h | 1529m | 6.6m/s | 11.4°C | 82.5% | 857.3hPa | 3V | 18:12:15 | 00:19:39 | 00:00:00 | |
| DK7TD | 2026-09-02 10:48:35 | 48.82689 | 9.20641 | 62° | 13km/h | 1523m | 6.3m/s | 11.4°C | 82.7% | 857.9hPa | 3V | 18:12:15 | 00:19:38 | 00:00:00 | |
| DK7TD | 2026-09-02 10:48:33 | 48.82685 | 9.20634 | 34° | 11km/h | 1510m | 7.7m/s | 11.5°C | 83.1% | 859.1hPa | 3V | 18:12:15 | 00:19:36 | 00:00:00 | |
| DK7TD | 2026-09-02 10:48:31 | 48.82675 | 9.20616 | 79° | 20km/h | 1481m | 6m/s | 11.8°C | 82.3% | 862.2hPa | 3V | 18:12:15 | 00:19:32 | 00:00:00 | |
| DK7TD | 2026-09-02 10:48:31 | 48.82674 | 9.20609 | 85° | 20km/h | 1476m | 5.4m/s | 11.8°C | 82.8% | 862.8hPa | 3V | 18:12:15 | 00:19:31 | 00:00:00 | |
| DK7TD | 2026-09-02 10:48:29 | 48.82674 | 9.20601 | 88° | 20km/h | 1469m | 7.1m/s | 11.8°C | 83.2% | 863.3hPa | 3V | 18:12:15 | 00:19:30 | 00:00:00 | |
| DK7TD | 2026-09-02 10:48:25 | 48.82672 | 9.20585 | 67° | 26km/h | 1455m | 6.5m/s | 12°C | 82.8% | 864.9hPa | 3V | 18:12:15 | 00:19:28 | 00:00:00 | |
| DK7TD | 2026-09-02 10:48:24 | 48.82669 | 9.20576 | 64° | 29km/h | 1448m | 7.1m/s | 12°C | 82.2% | 865.5hPa | 3V | 18:12:15 | 00:19:27 | 00:00:00 | |
| DK7TD | 2026-09-02 10:48:23 | 48.82666 | 9.20566 | 64° | 27km/h | 1441m | 6.7m/s | 12.1°C | 80.5% | 866.1hPa | 3V | 18:12:15 | 00:19:26 | 00:00:00 | |
| DK7TD | 2026-09-02 10:48:21 | 48.82660 | 9.20552 | 58° | 15km/h | 1429m | 5.4m/s | 12.2°C | 80.6% | 867.4hPa | 3V | 18:12:15 | 00:19:24 | 00:00:00 | |
| DK7TD | 2026-09-02 10:48:19 | 48.82658 | 9.20547 | 47° | 4km/h | 1417m | 7.2m/s | 12.3°C | 80.9% | 868.6hPa | 3V | 18:12:15 | 00:19:22 | 00:00:00 | |
| DK7TD | 2026-09-02 10:48:17 | 48.82656 | 9.20544 | 43° | 7km/h | 1402m | 6.9m/s | 12.5°C | 80.4% | 870.2hPa | 3V | 18:12:15 | 00:19:20 | 00:00:00 | |
| DK7TD | 2026-09-02 10:48:15 | 48.82651 | 9.20538 | 27° | 16km/h | 1389m | 6.2m/s | 12.6°C | 80.9% | 871.6hPa | 3V | 18:12:15 | 00:19:18 | 00:00:00 | |
| DK7TD | 2026-09-02 10:48:14 | 48.82647 | 9.20534 | 31° | 22km/h | 1383m | 5.2m/s | 12.7°C | 81% | 872.2hPa | 3V | 18:12:15 | 00:19:17 | 00:00:00 | |
| DK7TD | 2026-09-02 10:48:12 | 48.82637 | 9.20525 | 39° | 22km/h | 1372m | 5.6m/s | 12.8°C | 80% | 873.4hPa | 3V | 18:12:15 | 00:19:15 | 00:00:00 | |
| DK7TD | 2026-09-02 10:48:12 | 48.82633 | 9.20520 | 40° | 22km/h | 1366m | 4.9m/s | 12.8°C | 80.2% | 873.9hPa | 3V | 18:12:15 | 00:19:14 | 00:00:00 | |
| DK7TD | 2026-09-02 10:48:09 | 48.82627 | 9.20509 | 64° | 15km/h | 1353m | 7.7m/s | 12.9°C | 79.4% | 875.3hPa | 3V | 18:12:15 | 00:19:12 | 00:00:00 | |
| DK7TD | 2026-09-02 10:48:08 | 48.82626 | 9.20504 | 92° | 13km/h | 1346m | 6.4m/s | 13°C | 79.1% | 876hPa | 3V | 18:12:15 | 00:19:11 | 00:00:00 | |
| DK7TD | 2026-09-02 10:48:07 | 48.82627 | 9.20499 | 112° | 13km/h | 1340m | 6.8m/s | 13.1°C | 79.1% | 876.7hPa | 3V | 18:12:15 | 00:19:10 | 00:00:00 | |
| DK7TD | 2026-09-02 10:48:05 | 48.82630 | 9.20490 | 119° | 13km/h | 1325m | 6.8m/s | 13.2°C | 78.2% | 878.3hPa | 3V | 18:12:15 | 00:19:08 | 00:00:00 | |
| DK7TD | 2026-09-02 10:48:04 | 48.82631 | 9.20486 | 91° | 9km/h | 1318m | 6.6m/s | 13.3°C | 77.7% | 878.9hPa | 3V | 18:12:15 | 00:19:07 | 00:00:00 | |
| DK7TD | 2026-09-02 10:48:02 | 48.82628 | 9.20478 | 51° | 15km/h | 1307m | 6.3m/s | 13.4°C | 77.8% | 880hPa | 3V | 18:12:15 | 00:19:05 | 00:00:00 | |
| DK7TD | 2026-09-02 10:48:01 | 48.82626 | 9.20451 | 115° | 22km/h | 1284m | 5m/s | 13.6°C | 76.7% | 882.5hPa | 3V | 18:12:15 | 00:19:01 | 00:00:00 | |
| DK7TD | 2026-09-02 10:48:00 | 48.82628 | 9.20443 | 116° | 22km/h | 1279m | 4.7m/s | 13.6°C | 75.9% | 883.1hPa | 3V | 18:12:15 | 00:19:00 | 00:00:00 | |
| DK7TD | 2026-09-02 10:47:59 | 48.82630 | 9.20435 | 111° | 22km/h | 1274m | 5.4m/s | 13.7°C | 76.6% | 883.5hPa | 3V | 18:12:15 | 00:18:59 | 00:00:00 | |
| DK7TD | 2026-09-02 10:47:54 | 48.82632 | 9.20417 | 85° | 26km/h | 1264m | 4.9m/s | 13.8°C | 76.1% | 884.7hPa | 3V | 18:12:15 | 00:18:57 | 00:00:00 | |
| DK7TD | 2026-09-02 10:47:52 | 48.82629 | 9.20400 | 64° | 22km/h | 1255m | 4.7m/s | 13.9°C | 76.2% | 885.5hPa | 3V | 18:12:15 | 00:18:55 | 00:00:00 | |
| DK7TD | 2026-09-02 10:47:51 | 48.82627 | 9.20394 | 52° | 15km/h | 1251m | 4.9m/s | 13.9°C | 74.9% | 886.2hPa | 3V | 18:12:15 | 00:18:54 | 00:00:00 | |
| DK7TD | 2026-09-02 10:47:49 | 48.82624 | 9.20388 | 66° | 5km/h | 1241m | 3.9m/s | 14°C | 75.1% | 887.1hPa | 3V | 18:12:15 | 00:18:52 | 00:00:00 | |
| DK7TD | 2026-09-02 10:47:48 | 48.82624 | 9.20386 | 103° | 7km/h | 1238m | 3.4m/s | 14°C | 74.9% | 887.5hPa | 3V | 18:12:15 | 00:18:51 | 00:00:00 | |
| DK7TD | 2026-09-02 10:47:46 | 48.82625 | 9.20378 | 105° | 16km/h | 1230m | 3.7m/s | 14.2°C | 0% | 888.1hPa | 3V | 18:12:15 | 00:18:49 | 00:00:00 | |
| DK7TD | 2026-09-02 10:47:45 | 48.82626 | 9.20371 | 98° | 20km/h | 1227m | 3.8m/s | 0°C | 0% | 888.6hPa | 3V | 18:12:15 | 00:18:48 | 00:00:00 | |
| DK7TD | 2026-09-02 10:47:44 | 48.82626 | 9.20362 | 93° | 24km/h | 1222m | 6.4m/s | 0°C | 0% | 889hPa | 3V | 18:12:15 | 00:18:47 | 00:00:00 | |
| DK7TD | 2026-09-02 10:47:42 | 48.82625 | 9.20343 | 71° | 24km/h | 1211m | 3.8m/s | 0°C | 0% | 890.2hPa | 3V | 18:12:15 | 00:18:45 | 00:00:00 | |
| DK7TD | 2026-09-02 10:47:41 | 48.82623 | 9.20335 | 67° | 18km/h | 1207m | 4m/s | 0°C | 0% | 890.5hPa | 3V | 18:12:15 | 00:18:44 | 00:00:00 | |
| DK7TD | 2026-09-02 10:47:40 | 48.82621 | 9.20330 | 61° | 11km/h | 1203m | 3.8m/s | 0°C | 0% | 891hPa | 3V | 18:12:15 | 00:18:43 | 00:00:00 | |
| DK7TD | 2026-09-02 10:47:39 | 48.82621 | 9.20328 | 80° | 4km/h | 1200m | 3.2m/s | 0°C | 0% | 891.4hPa | 3V | 18:12:15 | 00:18:42 | 00:00:00 | |
| DK7TD | 2026-09-02 10:47:37 | 48.82622 | 9.20326 | 155° | 7km/h | 1192m | 4.5m/s | 0°C | 0% | 892.1hPa | 3V | 18:12:15 | 00:18:40 | 00:00:00 | |
| DK7TD | 2026-09-02 10:47:35 | 48.82626 | 9.20321 | 119° | 15km/h | 1185m | 2m/s | 0°C | 0% | 893hPa | 3V | 18:12:15 | 00:18:38 | 00:00:00 | |
| DK7TD | 2026-09-02 10:47:33 | 48.82627 | 9.20307 | 83° | 18km/h | 1180m | 3.8m/s | 0°C | 0% | 893.5hPa | 3V | 18:12:15 | 00:18:36 | 00:00:00 | |
| DK7TD | 2026-09-02 10:47:32 | 48.82626 | 9.20300 | 72° | 20km/h | 1176m | 4.4m/s | 0°C | 0% | 893.9hPa | 3V | 18:12:15 | 00:18:35 | 00:00:00 | |
| DK7TD | 2026-09-02 10:47:30 | 48.82622 | 9.20289 | 62° | 15km/h | 1170m | 3.1m/s | 0°C | 0% | 0hPa | 3V | 18:12:15 | 00:18:33 | 00:00:00 | |
| DK7TD | 2026-09-02 10:47:29 | 48.82621 | 9.20283 | 73° | 18km/h | 1166m | 5.5m/s | 0°C | 0% | 0hPa | 3V | 18:12:15 | 00:18:32 | 00:00:00 | |
| DK7TD | 2026-09-02 10:47:27 | 48.82622 | 9.20269 | 110° | 18km/h | 1158m | 4.3m/s | 0°C | 0% | 0hPa | 3V | 18:12:15 | 00:18:30 | 00:00:00 | |
| DK7TD | 2026-09-02 10:47:25 | 48.82626 | 9.20257 | 46° | 9km/h | 1144m | 2.5m/s | 0°C | 0% | 0hPa | 3V | 18:12:15 | 00:18:26 | 00:00:00 | |
| DK7TD | 2026-09-02 10:47:25 | 48.82624 | 9.20254 | 39° | 13km/h | 1142m | 1.6m/s | 0°C | 0% | 0hPa | 3V | 18:12:15 | 00:18:25 | 00:00:00 | |
| DK7TD | 2026-09-02 10:47:20 | 48.82617 | 9.20245 | 52° | 22km/h | 1135m | 5m/s | 0°C | 0% | 0hPa | 3V | 18:12:15 | 00:18:23 | 00:00:00 | |
| DK7TD | 2026-09-02 10:47:19 | 48.82614 | 9.20238 | 64° | 20km/h | 1130m | 4.8m/s | 0°C | 0% | 0hPa | 3V | 18:12:15 | 00:18:22 | 00:00:00 | |
| DL9SK-14 | 2026-09-02 10:47:17 | 48.82611 | 9.20215 | 83° | 18km/h | 1118m | 4.8m/s | 15.3°C | 65.2% | 900.1hPa | 0V | 00:00:00 | 00:00:00 | 00:00:00 | |
| DF3TZ-5 | 2026-09-02 10:47:09 | 48.82620 | 9.20202 | 121° | 7km/h | 1088m | 6.8m/s | 0°C | -1.0% | -1.0hPa | 0V | 00:00:00 | 00:00:00 | 00:00:00 | |
| AZAK | 2026-09-02 10:47:04 | 48.82622 | 9.20181 | 128° | 18km/h | 1064m | 5.5m/s | 15.8°C | 64.1% | 905.7hPa | 0V | 00:00:00 | 00:00:00 | 00:00:00 | |
| DL9SK-14 | 2026-09-02 10:46:46 | 48.82644 | 9.20175 | 144° | 11km/h | 946m | 5.8m/s | 0°C | -1.0% | 918.3hPa | 0V | 00:00:00 | 00:00:00 | 00:00:00 | |
| AZAK | 2026-09-02 10:46:46 | 48.82644 | 9.20175 | 146° | 13km/h | 946m | 5.8m/s | 17.0°C | 59.4% | 918.3hPa | 0V | 00:00:00 | 00:00:00 | 00:00:00 | |
| AZAK | 2026-09-02 10:46:23 | 48.82669 | 9.20154 | 187° | 20km/h | 847m | 6.0m/s | 18.1°C | 56.0% | 929.5hPa | 0V | 00:00:00 | 00:00:00 | 00:00:00 | |
| DL9SK-14 | 2026-09-02 10:46:15 | 48.82667 | 9.20121 | 241° | 11km/h | 799m | 5.2m/s | 0°C | -1.0% | -1.0hPa | 0V | 00:00:00 | 00:00:00 | 00:00:00 | |
| AZAK | 2026-09-02 10:46:04 | 48.82688 | 9.20113 | 136° | 22km/h | 747m | 4.9m/s | 0°C | 0% | 940.3hPa | 0V | 00:00:00 | 00:00:00 | 00:00:00 | |
| AZAK | 2026-09-02 10:45:44 | 48.82735 | 9.20078 | 90° | 7km/h | 611m | 5.7m/s | 0°C | 0% | 0hPa | 0V | 00:00:00 | 00:00:00 | 00:00:00 | |
| AZAK | 2026-09-02 10:45:21 | 48.82788 | 9.20123 | 242° | 22km/h | 475m | 5.2m/s | 0°C | 0% | 0hPa | 0V | 00:00:00 | 00:00:00 | 00:00:00 |